<?xml version='1.0' encoding='UTF-8'?><gpx version="1.1" creator="JPX - https://github.com/jenetics/jpx" xmlns="http://www.topografix.com/GPX/1/1"><trk><trkseg><trkpt lat="39.9682909" lon="9.6602065"><ele>7.999999999999999</ele><time>2026-03-29T06:40:28.237Z</time></trkpt><trkpt lat="39.9683496" lon="9.6602887"><ele>8.0</ele><time>2026-03-29T06:40:40.236Z</time></trkpt><trkpt lat="39.9684" lon="9.6603714"><ele>8.0</ele><time>2026-03-29T06:40:42.236Z</time></trkpt><trkpt lat="39.9684777" lon="9.6604388"><ele>8.0</ele><time>2026-03-29T06:40:44.237Z</time></trkpt><trkpt lat="39.9685452" lon="9.6604753"><ele>7.999999999999999</ele><time>2026-03-29T06:40:45.236Z</time></trkpt><trkpt lat="39.9686033" lon="9.6605092"><ele>8.0</ele><time>2026-03-29T06:40:46.236Z</time></trkpt><trkpt lat="39.9686722" lon="9.6605541"><ele>7.999999999999999</ele><time>2026-03-29T06:40:47.236Z</time></trkpt><trkpt lat="39.9687518" lon="9.6605996"><ele>8.0</ele><time>2026-03-29T06:40:48.236Z</time></trkpt><trkpt lat="39.9688196" lon="9.6606481"><ele>8.0</ele><time>2026-03-29T06:40:49.236Z</time></trkpt><trkpt lat="39.9689165" lon="9.6606938"><ele>8.0</ele><time>2026-03-29T06:40:50.236Z</time></trkpt><trkpt lat="39.9689925" lon="9.6607483"><ele>7.999999999999999</ele><time>2026-03-29T06:40:51.236Z</time></trkpt><trkpt lat="39.9690686" lon="9.6608029"><ele>8.0</ele><time>2026-03-29T06:40:52.236Z</time></trkpt><trkpt lat="39.9691286" lon="9.6608573"><ele>8.833333333333332</ele><time>2026-03-29T06:40:53.236Z</time></trkpt><trkpt lat="39.9691924" lon="9.6609022"><ele>9.666666666666666</ele><time>2026-03-29T06:40:54.237Z</time></trkpt><trkpt lat="39.9692646" lon="9.6609483"><ele>10.5</ele><time>2026-03-29T06:40:55.237Z</time></trkpt><trkpt lat="39.9693677" lon="9.6610272"><ele>11.333333333333332</ele><time>2026-03-29T06:40:57.236Z</time></trkpt><trkpt lat="39.9694331" lon="9.6610548"><ele>12.166666666666666</ele><time>2026-03-29T06:40:58.236Z</time></trkpt><trkpt lat="39.9695037" lon="9.661083"><ele>13.0</ele><time>2026-03-29T06:41:00.236Z</time></trkpt><trkpt lat="39.9695335" lon="9.6609941"><ele>13.0</ele><time>2026-03-29T06:41:03.236Z</time></trkpt><trkpt lat="39.9694966" lon="9.6608226"><ele>13.0</ele><time>2026-03-29T06:41:05.237Z</time></trkpt><trkpt lat="39.9694538" lon="9.6606326"><ele>13.0</ele><time>2026-03-29T06:41:07.236Z</time></trkpt><trkpt lat="39.9694299" lon="9.6605121"><ele>13.0</ele><time>2026-03-29T06:41:08.236Z</time></trkpt><trkpt lat="39.9694039" lon="9.6604007"><ele>13.0</ele><time>2026-03-29T06:41:09.236Z</time></trkpt><trkpt lat="39.969379" lon="9.6602962"><ele>13.0</ele><time>2026-03-29T06:41:10.237Z</time></trkpt><trkpt lat="39.9693528" lon="9.6601982"><ele>13.0</ele><time>2026-03-29T06:41:11.236Z</time></trkpt><trkpt lat="39.9693247" lon="9.660081"><ele>13.0</ele><time>2026-03-29T06:41:12.236Z</time></trkpt><trkpt lat="39.9692985" lon="9.6599728"><ele>13.0</ele><time>2026-03-29T06:41:13.237Z</time></trkpt><trkpt lat="39.9692778" lon="9.6598376"><ele>13.0</ele><time>2026-03-29T06:41:14.237Z</time></trkpt><trkpt lat="39.9692529" lon="9.6597216"><ele>13.0</ele><time>2026-03-29T06:41:15.236Z</time></trkpt><trkpt lat="39.969235" lon="9.65961"><ele>13.0</ele><time>2026-03-29T06:41:16.237Z</time></trkpt><trkpt lat="39.9692006" lon="9.6594853"><ele>13.0</ele><time>2026-03-29T06:41:17.237Z</time></trkpt><trkpt lat="39.9691735" lon="9.6593663"><ele>13.0</ele><time>2026-03-29T06:41:18.236Z</time></trkpt><trkpt lat="39.9691434" lon="9.6592497"><ele>12.600000000000001</ele><time>2026-03-29T06:41:19.236Z</time></trkpt><trkpt lat="39.9691112" lon="9.6591376"><ele>12.200000000000001</ele><time>2026-03-29T06:41:20.236Z</time></trkpt><trkpt lat="39.9690834" lon="9.6590201"><ele>11.8</ele><time>2026-03-29T06:41:21.236Z</time></trkpt><trkpt lat="39.9690559" lon="9.6589046"><ele>11.4</ele><time>2026-03-29T06:41:22.236Z</time></trkpt><trkpt lat="39.9690293" lon="9.658804"><ele>11.0</ele><time>2026-03-29T06:41:23.236Z</time></trkpt><trkpt lat="39.968978" lon="9.6586309"><ele>11.166666666666666</ele><time>2026-03-29T06:41:25.236Z</time></trkpt><trkpt lat="39.9689468" lon="9.6585264"><ele>11.333333333333332</ele><time>2026-03-29T06:41:26.236Z</time></trkpt><trkpt lat="39.9689149" lon="9.6584204"><ele>11.5</ele><time>2026-03-29T06:41:27.237Z</time></trkpt><trkpt lat="39.9688879" lon="9.6583076"><ele>11.666666666666666</ele><time>2026-03-29T06:41:28.236Z</time></trkpt><trkpt lat="39.968867" lon="9.6581933"><ele>11.833333333333334</ele><time>2026-03-29T06:41:29.236Z</time></trkpt><trkpt lat="39.9688556" lon="9.6580905"><ele>12.0</ele><time>2026-03-29T06:41:30.236Z</time></trkpt><trkpt lat="39.9688266" lon="9.6579728"><ele>12.0</ele><time>2026-03-29T06:41:31.237Z</time></trkpt><trkpt lat="39.9688002" lon="9.6578483"><ele>12.0</ele><time>2026-03-29T06:41:32.236Z</time></trkpt><trkpt lat="39.9687759" lon="9.6577264"><ele>12.0</ele><time>2026-03-29T06:41:33.237Z</time></trkpt><trkpt lat="39.968742" lon="9.6575839"><ele>12.0</ele><time>2026-03-29T06:41:34.236Z</time></trkpt><trkpt lat="39.968718" lon="9.6574577"><ele>12.0</ele><time>2026-03-29T06:41:35.236Z</time></trkpt><trkpt lat="39.9686871" lon="9.6573388"><ele>12.399999999999999</ele><time>2026-03-29T06:41:36.236Z</time></trkpt><trkpt lat="39.9686569" lon="9.6572072"><ele>12.799999999999999</ele><time>2026-03-29T06:41:37.236Z</time></trkpt><trkpt lat="39.9686255" lon="9.6570699"><ele>13.2</ele><time>2026-03-29T06:41:38.236Z</time></trkpt><trkpt lat="39.968589" lon="9.6569262"><ele>13.6</ele><time>2026-03-29T06:41:39.236Z</time></trkpt><trkpt lat="39.9685582" lon="9.6567802"><ele>14.0</ele><time>2026-03-29T06:41:40.237Z</time></trkpt><trkpt lat="39.9685278" lon="9.6566416"><ele>14.25</ele><time>2026-03-29T06:41:41.237Z</time></trkpt><trkpt lat="39.9684927" lon="9.6564942"><ele>14.5</ele><time>2026-03-29T06:41:42.236Z</time></trkpt><trkpt lat="39.9684596" lon="9.6563497"><ele>14.75</ele><time>2026-03-29T06:41:43.236Z</time></trkpt><trkpt lat="39.9684267" lon="9.6562103"><ele>15.0</ele><time>2026-03-29T06:41:44.237Z</time></trkpt><trkpt lat="39.9683998" lon="9.6560597"><ele>14.75</ele><time>2026-03-29T06:41:45.237Z</time></trkpt><trkpt lat="39.9683598" lon="9.6559104"><ele>14.5</ele><time>2026-03-29T06:41:46.236Z</time></trkpt><trkpt lat="39.9683243" lon="9.6557702"><ele>14.25</ele><time>2026-03-29T06:41:47.236Z</time></trkpt><trkpt lat="39.9682869" lon="9.6556125"><ele>14.0</ele><time>2026-03-29T06:41:48.236Z</time></trkpt><trkpt lat="39.9682556" lon="9.6554892"><ele>14.0</ele><time>2026-03-29T06:41:49.237Z</time></trkpt><trkpt lat="39.9682189" lon="9.6553303"><ele>14.0</ele><time>2026-03-29T06:41:50.236Z</time></trkpt><trkpt lat="39.9681869" lon="9.6551714"><ele>14.0</ele><time>2026-03-29T06:41:51.236Z</time></trkpt><trkpt lat="39.9681511" lon="9.655015"><ele>14.0</ele><time>2026-03-29T06:41:52.236Z</time></trkpt><trkpt lat="39.9681163" lon="9.6548653"><ele>14.0</ele><time>2026-03-29T06:41:53.236Z</time></trkpt><trkpt lat="39.9680778" lon="9.6547114"><ele>14.0</ele><time>2026-03-29T06:41:54.236Z</time></trkpt><trkpt lat="39.9680398" lon="9.6545561"><ele>14.0</ele><time>2026-03-29T06:41:55.237Z</time></trkpt><trkpt lat="39.9680056" lon="9.6543989"><ele>14.0</ele><time>2026-03-29T06:41:56.236Z</time></trkpt><trkpt lat="39.9679726" lon="9.6542435"><ele>14.5</ele><time>2026-03-29T06:41:57.236Z</time></trkpt><trkpt lat="39.9679385" lon="9.654083"><ele>15.0</ele><time>2026-03-29T06:41:58.236Z</time></trkpt><trkpt lat="39.9679013" lon="9.6539256"><ele>15.5</ele><time>2026-03-29T06:41:59.236Z</time></trkpt><trkpt lat="39.9678621" lon="9.6537707"><ele>16.0</ele><time>2026-03-29T06:42:00.236Z</time></trkpt><trkpt lat="39.9678243" lon="9.6536196"><ele>16.0</ele><time>2026-03-29T06:42:01.236Z</time></trkpt><trkpt lat="39.9677836" lon="9.65345"><ele>16.0</ele><time>2026-03-29T06:42:02.236Z</time></trkpt><trkpt lat="39.9677513" lon="9.6532971"><ele>16.0</ele><time>2026-03-29T06:42:03.237Z</time></trkpt><trkpt lat="39.9677146" lon="9.6531405"><ele>16.0</ele><time>2026-03-29T06:42:04.237Z</time></trkpt><trkpt lat="39.9676831" lon="9.6529882"><ele>16.0</ele><time>2026-03-29T06:42:05.236Z</time></trkpt><trkpt lat="39.9676425" lon="9.6528343"><ele>16.0</ele><time>2026-03-29T06:42:06.236Z</time></trkpt><trkpt lat="39.9676083" lon="9.6526847"><ele>16.0</ele><time>2026-03-29T06:42:07.236Z</time></trkpt><trkpt lat="39.9675741" lon="9.6525259"><ele>16.0</ele><time>2026-03-29T06:42:08.236Z</time></trkpt><trkpt lat="39.9675438" lon="9.6523595"><ele>16.0</ele><time>2026-03-29T06:42:09.236Z</time></trkpt><trkpt lat="39.9675195" lon="9.6521724"><ele>16.0</ele><time>2026-03-29T06:42:10.236Z</time></trkpt><trkpt lat="39.9675086" lon="9.651987"><ele>16.0</ele><time>2026-03-29T06:42:11.237Z</time></trkpt><trkpt lat="39.9675109" lon="9.6518073"><ele>16.0</ele><time>2026-03-29T06:42:12.236Z</time></trkpt><trkpt lat="39.967515" lon="9.6516283"><ele>16.0</ele><time>2026-03-29T06:42:13.236Z</time></trkpt><trkpt lat="39.9675183" lon="9.6514442"><ele>16.0</ele><time>2026-03-29T06:42:14.236Z</time></trkpt><trkpt lat="39.9675305" lon="9.6512606"><ele>16.0</ele><time>2026-03-29T06:42:15.237Z</time></trkpt><trkpt lat="39.9675406" lon="9.6510778"><ele>16.0</ele><time>2026-03-29T06:42:16.236Z</time></trkpt><trkpt lat="39.9675523" lon="9.6508932"><ele>16.0</ele><time>2026-03-29T06:42:17.236Z</time></trkpt><trkpt lat="39.967562" lon="9.6507227"><ele>16.0</ele><time>2026-03-29T06:42:18.236Z</time></trkpt><trkpt lat="39.9675735" lon="9.6505538"><ele>16.0</ele><time>2026-03-29T06:42:19.237Z</time></trkpt><trkpt lat="39.9675813" lon="9.650385"><ele>16.0</ele><time>2026-03-29T06:42:20.236Z</time></trkpt><trkpt lat="39.9675902" lon="9.6502184"><ele>16.0</ele><time>2026-03-29T06:42:21.236Z</time></trkpt><trkpt lat="39.967597" lon="9.6500484"><ele>16.0</ele><time>2026-03-29T06:42:22.237Z</time></trkpt><trkpt lat="39.9676048" lon="9.6498663"><ele>16.0</ele><time>2026-03-29T06:42:23.236Z</time></trkpt><trkpt lat="39.9676112" lon="9.6496725"><ele>16.0</ele><time>2026-03-29T06:42:24.237Z</time></trkpt><trkpt lat="39.9676186" lon="9.6494778"><ele>15.666666666666666</ele><time>2026-03-29T06:42:25.236Z</time></trkpt><trkpt lat="39.9676282" lon="9.6492803"><ele>15.333333333333332</ele><time>2026-03-29T06:42:26.236Z</time></trkpt><trkpt lat="39.9676414" lon="9.649081"><ele>15.0</ele><time>2026-03-29T06:42:27.236Z</time></trkpt><trkpt lat="39.9676686" lon="9.6488869"><ele>15.0</ele><time>2026-03-29T06:42:28.236Z</time></trkpt><trkpt lat="39.9677024" lon="9.648709"><ele>15.0</ele><time>2026-03-29T06:42:29.236Z</time></trkpt><trkpt lat="39.9677404" lon="9.6485153"><ele>15.0</ele><time>2026-03-29T06:42:30.236Z</time></trkpt><trkpt lat="39.9677793" lon="9.6483289"><ele>15.0</ele><time>2026-03-29T06:42:31.236Z</time></trkpt><trkpt lat="39.967814" lon="9.648137"><ele>14.666666666666668</ele><time>2026-03-29T06:42:32.236Z</time></trkpt><trkpt lat="39.9678604" lon="9.6479492"><ele>14.333333333333334</ele><time>2026-03-29T06:42:33.236Z</time></trkpt><trkpt lat="39.9679046" lon="9.6477548"><ele>14.0</ele><time>2026-03-29T06:42:34.237Z</time></trkpt><trkpt lat="39.9679555" lon="9.6475623"><ele>13.666666666666668</ele><time>2026-03-29T06:42:35.236Z</time></trkpt><trkpt lat="39.9680034" lon="9.6473768"><ele>13.333333333333332</ele><time>2026-03-29T06:42:36.237Z</time></trkpt><trkpt lat="39.9680485" lon="9.6471849"><ele>13.0</ele><time>2026-03-29T06:42:37.236Z</time></trkpt><trkpt lat="39.9680966" lon="9.6469837"><ele>13.0</ele><time>2026-03-29T06:42:38.236Z</time></trkpt><trkpt lat="39.9681516" lon="9.6467773"><ele>13.0</ele><time>2026-03-29T06:42:39.236Z</time></trkpt><trkpt lat="39.9681988" lon="9.6465732"><ele>13.0</ele><time>2026-03-29T06:42:40.236Z</time></trkpt><trkpt lat="39.9682421" lon="9.6463878"><ele>13.0</ele><time>2026-03-29T06:42:41.236Z</time></trkpt><trkpt lat="39.9682785" lon="9.6461766"><ele>13.0</ele><time>2026-03-29T06:42:42.236Z</time></trkpt><trkpt lat="39.9683217" lon="9.6459789"><ele>13.0</ele><time>2026-03-29T06:42:43.236Z</time></trkpt><trkpt lat="39.9683594" lon="9.6457707"><ele>13.75</ele><time>2026-03-29T06:42:44.236Z</time></trkpt><trkpt lat="39.9684022" lon="9.6455967"><ele>14.5</ele><time>2026-03-29T06:42:45.236Z</time></trkpt><trkpt lat="39.9684435" lon="9.6454089"><ele>15.25</ele><time>2026-03-29T06:42:46.236Z</time></trkpt><trkpt lat="39.9684876" lon="9.6452296"><ele>16.0</ele><time>2026-03-29T06:42:47.236Z</time></trkpt><trkpt lat="39.9685346" lon="9.6450665"><ele>16.0</ele><time>2026-03-29T06:42:48.236Z</time></trkpt><trkpt lat="39.968578" lon="9.6448689"><ele>16.0</ele><time>2026-03-29T06:42:49.237Z</time></trkpt><trkpt lat="39.9686197" lon="9.6446861"><ele>16.0</ele><time>2026-03-29T06:42:50.236Z</time></trkpt><trkpt lat="39.9686623" lon="9.6445024"><ele>15.666666666666666</ele><time>2026-03-29T06:42:51.237Z</time></trkpt><trkpt lat="39.9687071" lon="9.644328"><ele>15.333333333333332</ele><time>2026-03-29T06:42:52.236Z</time></trkpt><trkpt lat="39.9687679" lon="9.6441437"><ele>15.0</ele><time>2026-03-29T06:42:53.237Z</time></trkpt><trkpt lat="39.9688454" lon="9.6439652"><ele>15.0</ele><time>2026-03-29T06:42:54.237Z</time></trkpt><trkpt lat="39.9689369" lon="9.6438161"><ele>15.0</ele><time>2026-03-29T06:42:55.236Z</time></trkpt><trkpt lat="39.9690504" lon="9.643689"><ele>15.0</ele><time>2026-03-29T06:42:56.236Z</time></trkpt><trkpt lat="39.9691795" lon="9.6435589"><ele>15.333333333333332</ele><time>2026-03-29T06:42:57.236Z</time></trkpt><trkpt lat="39.9693129" lon="9.6434288"><ele>15.666666666666666</ele><time>2026-03-29T06:42:58.236Z</time></trkpt><trkpt lat="39.9694506" lon="9.6433081"><ele>16.0</ele><time>2026-03-29T06:42:59.237Z</time></trkpt><trkpt lat="39.9695835" lon="9.6431834"><ele>16.0</ele><time>2026-03-29T06:43:00.236Z</time></trkpt><trkpt lat="39.9697297" lon="9.6430611"><ele>16.0</ele><time>2026-03-29T06:43:01.236Z</time></trkpt><trkpt lat="39.9698667" lon="9.6429318"><ele>16.0</ele><time>2026-03-29T06:43:02.236Z</time></trkpt><trkpt lat="39.9700097" lon="9.6428038"><ele>16.666666666666664</ele><time>2026-03-29T06:43:03.236Z</time></trkpt><trkpt lat="39.9701513" lon="9.6426747"><ele>17.333333333333332</ele><time>2026-03-29T06:43:04.237Z</time></trkpt><trkpt lat="39.9702966" lon="9.6425545"><ele>18.0</ele><time>2026-03-29T06:43:05.236Z</time></trkpt><trkpt lat="39.9704378" lon="9.6424317"><ele>18.0</ele><time>2026-03-29T06:43:06.236Z</time></trkpt><trkpt lat="39.9705798" lon="9.6423021"><ele>18.0</ele><time>2026-03-29T06:43:07.236Z</time></trkpt><trkpt lat="39.9707208" lon="9.6421687"><ele>18.0</ele><time>2026-03-29T06:43:08.236Z</time></trkpt><trkpt lat="39.9708699" lon="9.6420464"><ele>19.0</ele><time>2026-03-29T06:43:09.236Z</time></trkpt><trkpt lat="39.9710143" lon="9.6419128"><ele>20.0</ele><time>2026-03-29T06:43:10.236Z</time></trkpt><trkpt lat="39.9711613" lon="9.641779"><ele>21.0</ele><time>2026-03-29T06:43:11.237Z</time></trkpt><trkpt lat="39.9713079" lon="9.6416457"><ele>21.0</ele><time>2026-03-29T06:43:12.236Z</time></trkpt><trkpt lat="39.9714566" lon="9.6415156"><ele>21.0</ele><time>2026-03-29T06:43:13.236Z</time></trkpt><trkpt lat="39.9716021" lon="9.6413822"><ele>21.0</ele><time>2026-03-29T06:43:14.236Z</time></trkpt><trkpt lat="39.9717493" lon="9.6412401"><ele>22.333333333333336</ele><time>2026-03-29T06:43:15.236Z</time></trkpt><trkpt lat="39.9718956" lon="9.6411021"><ele>23.666666666666668</ele><time>2026-03-29T06:43:16.237Z</time></trkpt><trkpt lat="39.9720428" lon="9.6409678"><ele>25.0</ele><time>2026-03-29T06:43:17.236Z</time></trkpt><trkpt lat="39.9721889" lon="9.6408295"><ele>25.0</ele><time>2026-03-29T06:43:18.236Z</time></trkpt><trkpt lat="39.9723374" lon="9.6406941"><ele>25.0</ele><time>2026-03-29T06:43:19.236Z</time></trkpt><trkpt lat="39.9724849" lon="9.6405547"><ele>25.0</ele><time>2026-03-29T06:43:20.236Z</time></trkpt><trkpt lat="39.9726329" lon="9.6404169"><ele>26.0</ele><time>2026-03-29T06:43:21.237Z</time></trkpt><trkpt lat="39.9727817" lon="9.6402788"><ele>27.0</ele><time>2026-03-29T06:43:22.236Z</time></trkpt><trkpt lat="39.9729312" lon="9.6401362"><ele>28.0</ele><time>2026-03-29T06:43:23.237Z</time></trkpt><trkpt lat="39.9730822" lon="9.6400007"><ele>28.0</ele><time>2026-03-29T06:43:24.236Z</time></trkpt><trkpt lat="39.9732303" lon="9.6398619"><ele>28.0</ele><time>2026-03-29T06:43:25.236Z</time></trkpt><trkpt lat="39.9733791" lon="9.6397244"><ele>28.0</ele><time>2026-03-29T06:43:26.236Z</time></trkpt><trkpt lat="39.9735276" lon="9.6395856"><ele>29.0</ele><time>2026-03-29T06:43:27.236Z</time></trkpt><trkpt lat="39.9736765" lon="9.6394398"><ele>30.0</ele><time>2026-03-29T06:43:28.236Z</time></trkpt><trkpt lat="39.9738277" lon="9.6393054"><ele>31.0</ele><time>2026-03-29T06:43:29.237Z</time></trkpt><trkpt lat="39.9739758" lon="9.6391661"><ele>31.0</ele><time>2026-03-29T06:43:30.237Z</time></trkpt><trkpt lat="39.9741302" lon="9.6390215"><ele>31.0</ele><time>2026-03-29T06:43:31.236Z</time></trkpt><trkpt lat="39.9742935" lon="9.6388647"><ele>31.0</ele><time>2026-03-29T06:43:32.236Z</time></trkpt><trkpt lat="39.9744488" lon="9.6387207"><ele>31.666666666666668</ele><time>2026-03-29T06:43:33.236Z</time></trkpt><trkpt lat="39.9746069" lon="9.6385668"><ele>32.333333333333336</ele><time>2026-03-29T06:43:34.236Z</time></trkpt><trkpt lat="39.9747663" lon="9.638416"><ele>33.0</ele><time>2026-03-29T06:43:35.236Z</time></trkpt><trkpt lat="39.9749197" lon="9.6382789"><ele>32.333333333333336</ele><time>2026-03-29T06:43:36.236Z</time></trkpt><trkpt lat="39.9750732" lon="9.638135"><ele>31.666666666666668</ele><time>2026-03-29T06:43:37.236Z</time></trkpt><trkpt lat="39.9752282" lon="9.6379981"><ele>31.0</ele><time>2026-03-29T06:43:38.236Z</time></trkpt><trkpt lat="39.9753842" lon="9.6378521"><ele>31.333333333333336</ele><time>2026-03-29T06:43:39.236Z</time></trkpt><trkpt lat="39.9755436" lon="9.6377056"><ele>31.666666666666664</ele><time>2026-03-29T06:43:40.236Z</time></trkpt><trkpt lat="39.9756997" lon="9.6375528"><ele>32.0</ele><time>2026-03-29T06:43:41.236Z</time></trkpt><trkpt lat="39.9758484" lon="9.6374234"><ele>33.0</ele><time>2026-03-29T06:43:42.236Z</time></trkpt><trkpt lat="39.9759984" lon="9.6372863"><ele>34.0</ele><time>2026-03-29T06:43:43.236Z</time></trkpt><trkpt lat="39.9761471" lon="9.6371472"><ele>35.0</ele><time>2026-03-29T06:43:44.236Z</time></trkpt><trkpt lat="39.976294" lon="9.6370105"><ele>35.33333333333333</ele><time>2026-03-29T06:43:45.237Z</time></trkpt><trkpt lat="39.976435" lon="9.6368819"><ele>35.666666666666664</ele><time>2026-03-29T06:43:46.237Z</time></trkpt><trkpt lat="39.976566" lon="9.6367582"><ele>36.0</ele><time>2026-03-29T06:43:47.236Z</time></trkpt><trkpt lat="39.9766976" lon="9.6366352"><ele>36.0</ele><time>2026-03-29T06:43:48.236Z</time></trkpt><trkpt lat="39.9768259" lon="9.6365127"><ele>36.0</ele><time>2026-03-29T06:43:49.236Z</time></trkpt><trkpt lat="39.9769515" lon="9.6363926"><ele>36.0</ele><time>2026-03-29T06:43:50.236Z</time></trkpt><trkpt lat="39.9770817" lon="9.6362774"><ele>36.0</ele><time>2026-03-29T06:43:51.236Z</time></trkpt><trkpt lat="39.97721" lon="9.6361518"><ele>36.0</ele><time>2026-03-29T06:43:52.236Z</time></trkpt><trkpt lat="39.9773468" lon="9.6360223"><ele>36.0</ele><time>2026-03-29T06:43:53.236Z</time></trkpt><trkpt lat="39.977486" lon="9.6358974"><ele>38.333333333333336</ele><time>2026-03-29T06:43:54.236Z</time></trkpt><trkpt lat="39.9776245" lon="9.6357625"><ele>40.66666666666667</ele><time>2026-03-29T06:43:55.236Z</time></trkpt><trkpt lat="39.9777649" lon="9.6356383"><ele>43.0</ele><time>2026-03-29T06:43:56.236Z</time></trkpt><trkpt lat="39.9779067" lon="9.6355063"><ele>43.0</ele><time>2026-03-29T06:43:57.236Z</time></trkpt><trkpt lat="39.9780475" lon="9.635378"><ele>43.0</ele><time>2026-03-29T06:43:58.236Z</time></trkpt><trkpt lat="39.9781787" lon="9.6352531"><ele>43.0</ele><time>2026-03-29T06:43:59.236Z</time></trkpt><trkpt lat="39.978287" lon="9.6351001"><ele>44.0</ele><time>2026-03-29T06:44:00.236Z</time></trkpt><trkpt lat="39.9783904" lon="9.6349575"><ele>45.0</ele><time>2026-03-29T06:44:01.236Z</time></trkpt><trkpt lat="39.9784856" lon="9.6348119"><ele>46.0</ele><time>2026-03-29T06:44:02.236Z</time></trkpt><trkpt lat="39.9785791" lon="9.6346634"><ele>47.0</ele><time>2026-03-29T06:44:03.236Z</time></trkpt><trkpt lat="39.9786683" lon="9.6345153"><ele>47.0</ele><time>2026-03-29T06:44:04.236Z</time></trkpt><trkpt lat="39.9787565" lon="9.6343713"><ele>47.0</ele><time>2026-03-29T06:44:05.236Z</time></trkpt><trkpt lat="39.9788439" lon="9.6342251"><ele>47.0</ele><time>2026-03-29T06:44:06.236Z</time></trkpt><trkpt lat="39.9789352" lon="9.6340677"><ele>47.0</ele><time>2026-03-29T06:44:07.237Z</time></trkpt><trkpt lat="39.9790245" lon="9.6339104"><ele>47.0</ele><time>2026-03-29T06:44:08.236Z</time></trkpt><trkpt lat="39.9791177" lon="9.6337488"><ele>47.0</ele><time>2026-03-29T06:44:09.236Z</time></trkpt><trkpt lat="39.9792131" lon="9.6335946"><ele>47.0</ele><time>2026-03-29T06:44:10.236Z</time></trkpt><trkpt lat="39.9793091" lon="9.6334332"><ele>45.666666666666664</ele><time>2026-03-29T06:44:11.236Z</time></trkpt><trkpt lat="39.9794055" lon="9.6332634"><ele>44.333333333333336</ele><time>2026-03-29T06:44:12.236Z</time></trkpt><trkpt lat="39.9795039" lon="9.6331049"><ele>43.0</ele><time>2026-03-29T06:44:13.237Z</time></trkpt><trkpt lat="39.9796094" lon="9.6329297"><ele>43.0</ele><time>2026-03-29T06:44:14.236Z</time></trkpt><trkpt lat="39.9797187" lon="9.6327423"><ele>43.0</ele><time>2026-03-29T06:44:15.236Z</time></trkpt><trkpt lat="39.9798293" lon="9.6325502"><ele>43.0</ele><time>2026-03-29T06:44:16.237Z</time></trkpt><trkpt lat="39.9799339" lon="9.6323772"><ele>43.0</ele><time>2026-03-29T06:44:17.236Z</time></trkpt><trkpt lat="39.9800287" lon="9.632216"><ele>43.0</ele><time>2026-03-29T06:44:18.236Z</time></trkpt><trkpt lat="39.9801186" lon="9.6320591"><ele>43.0</ele><time>2026-03-29T06:44:19.236Z</time></trkpt><trkpt lat="39.9802075" lon="9.631908"><ele>41.75</ele><time>2026-03-29T06:44:20.237Z</time></trkpt><trkpt lat="39.9802924" lon="9.6317696"><ele>40.5</ele><time>2026-03-29T06:44:21.236Z</time></trkpt><trkpt lat="39.980382" lon="9.631638"><ele>39.25</ele><time>2026-03-29T06:44:22.236Z</time></trkpt><trkpt lat="39.9804598" lon="9.6315091"><ele>38.0</ele><time>2026-03-29T06:44:23.236Z</time></trkpt><trkpt lat="39.9805349" lon="9.6313882"><ele>38.0</ele><time>2026-03-29T06:44:24.236Z</time></trkpt><trkpt lat="39.9806069" lon="9.631265"><ele>38.0</ele><time>2026-03-29T06:44:25.237Z</time></trkpt><trkpt lat="39.9806779" lon="9.6311457"><ele>38.0</ele><time>2026-03-29T06:44:26.236Z</time></trkpt><trkpt lat="39.9807442" lon="9.6310296"><ele>38.0</ele><time>2026-03-29T06:44:27.236Z</time></trkpt><trkpt lat="39.9808164" lon="9.6309132"><ele>37.5</ele><time>2026-03-29T06:44:28.236Z</time></trkpt><trkpt lat="39.9808908" lon="9.6308077"><ele>37.0</ele><time>2026-03-29T06:44:29.236Z</time></trkpt><trkpt lat="39.9809629" lon="9.6306796"><ele>36.5</ele><time>2026-03-29T06:44:30.236Z</time></trkpt><trkpt lat="39.9810473" lon="9.6305468"><ele>36.0</ele><time>2026-03-29T06:44:31.237Z</time></trkpt><trkpt lat="39.9811292" lon="9.6304163"><ele>37.25</ele><time>2026-03-29T06:44:32.236Z</time></trkpt><trkpt lat="39.9812157" lon="9.6302832"><ele>38.5</ele><time>2026-03-29T06:44:33.236Z</time></trkpt><trkpt lat="39.9812973" lon="9.6301399"><ele>39.75</ele><time>2026-03-29T06:44:34.236Z</time></trkpt><trkpt lat="39.9813832" lon="9.6299925"><ele>41.0</ele><time>2026-03-29T06:44:35.237Z</time></trkpt><trkpt lat="39.9814719" lon="9.6298524"><ele>41.0</ele><time>2026-03-29T06:44:36.236Z</time></trkpt><trkpt lat="39.9815658" lon="9.6297088"><ele>41.0</ele><time>2026-03-29T06:44:37.236Z</time></trkpt><trkpt lat="39.9816557" lon="9.6295591"><ele>41.0</ele><time>2026-03-29T06:44:38.236Z</time></trkpt><trkpt lat="39.9817503" lon="9.6294123"><ele>41.0</ele><time>2026-03-29T06:44:39.237Z</time></trkpt><trkpt lat="39.9818422" lon="9.6292602"><ele>40.0</ele><time>2026-03-29T06:44:40.236Z</time></trkpt><trkpt lat="39.9819375" lon="9.6291029"><ele>39.0</ele><time>2026-03-29T06:44:41.236Z</time></trkpt><trkpt lat="39.982035" lon="9.6289434"><ele>38.0</ele><time>2026-03-29T06:44:42.236Z</time></trkpt><trkpt lat="39.9821314" lon="9.6287799"><ele>38.0</ele><time>2026-03-29T06:44:43.236Z</time></trkpt><trkpt lat="39.982228" lon="9.6286147"><ele>38.0</ele><time>2026-03-29T06:44:44.237Z</time></trkpt><trkpt lat="39.9823282" lon="9.6284468"><ele>38.0</ele><time>2026-03-29T06:44:45.236Z</time></trkpt><trkpt lat="39.9824272" lon="9.6282754"><ele>37.666666666666664</ele><time>2026-03-29T06:44:46.237Z</time></trkpt><trkpt lat="39.9825296" lon="9.6281003"><ele>37.333333333333336</ele><time>2026-03-29T06:44:47.237Z</time></trkpt><trkpt lat="39.9826301" lon="9.6279269"><ele>37.0</ele><time>2026-03-29T06:44:48.236Z</time></trkpt><trkpt lat="39.9827353" lon="9.6277532"><ele>38.0</ele><time>2026-03-29T06:44:49.236Z</time></trkpt><trkpt lat="39.9828396" lon="9.6275816"><ele>39.0</ele><time>2026-03-29T06:44:50.236Z</time></trkpt><trkpt lat="39.9829415" lon="9.6274118"><ele>40.0</ele><time>2026-03-29T06:44:51.236Z</time></trkpt><trkpt lat="39.9830564" lon="9.6272381"><ele>40.0</ele><time>2026-03-29T06:44:52.236Z</time></trkpt><trkpt lat="39.983165" lon="9.6270524"><ele>40.0</ele><time>2026-03-29T06:44:53.236Z</time></trkpt><trkpt lat="39.9832718" lon="9.6268757"><ele>40.0</ele><time>2026-03-29T06:44:54.237Z</time></trkpt><trkpt lat="39.9833755" lon="9.6267001"><ele>40.333333333333336</ele><time>2026-03-29T06:44:55.237Z</time></trkpt><trkpt lat="39.9834691" lon="9.6265018"><ele>40.666666666666664</ele><time>2026-03-29T06:44:56.236Z</time></trkpt><trkpt lat="39.9835609" lon="9.6263122"><ele>41.0</ele><time>2026-03-29T06:44:57.237Z</time></trkpt><trkpt lat="39.9836478" lon="9.6261247"><ele>41.33333333333333</ele><time>2026-03-29T06:44:58.236Z</time></trkpt><trkpt lat="39.9837308" lon="9.6259669"><ele>41.666666666666664</ele><time>2026-03-29T06:44:59.236Z</time></trkpt><trkpt lat="39.9838255" lon="9.6257642"><ele>42.0</ele><time>2026-03-29T06:45:00.236Z</time></trkpt><trkpt lat="39.9839235" lon="9.625562"><ele>42.0</ele><time>2026-03-29T06:45:01.236Z</time></trkpt><trkpt lat="39.9840271" lon="9.6253633"><ele>42.0</ele><time>2026-03-29T06:45:02.236Z</time></trkpt><trkpt lat="39.9841337" lon="9.6251604"><ele>42.0</ele><time>2026-03-29T06:45:03.237Z</time></trkpt><trkpt lat="39.9842496" lon="9.624952"><ele>41.0</ele><time>2026-03-29T06:45:04.237Z</time></trkpt><trkpt lat="39.9843548" lon="9.6247485"><ele>40.0</ele><time>2026-03-29T06:45:05.237Z</time></trkpt><trkpt lat="39.98446" lon="9.6245538"><ele>39.0</ele><time>2026-03-29T06:45:06.236Z</time></trkpt><trkpt lat="39.984569" lon="9.6243541"><ele>39.0</ele><time>2026-03-29T06:45:07.236Z</time></trkpt><trkpt lat="39.984677" lon="9.6241546"><ele>39.0</ele><time>2026-03-29T06:45:08.236Z</time></trkpt><trkpt lat="39.9847848" lon="9.6239537"><ele>39.0</ele><time>2026-03-29T06:45:09.236Z</time></trkpt><trkpt lat="39.9848963" lon="9.6237582"><ele>40.0</ele><time>2026-03-29T06:45:10.236Z</time></trkpt><trkpt lat="39.9850027" lon="9.6235658"><ele>41.0</ele><time>2026-03-29T06:45:11.236Z</time></trkpt><trkpt lat="39.9852102" lon="9.6231603"><ele>41.0</ele><time>2026-03-29T06:45:13.251Z</time></trkpt><trkpt lat="39.9853172" lon="9.6229889"><ele>41.0</ele><time>2026-03-29T06:45:14.246Z</time></trkpt><trkpt lat="39.9854249" lon="9.6227901"><ele>41.0</ele><time>2026-03-29T06:45:15.25Z</time></trkpt><trkpt lat="39.9855304" lon="9.6226042"><ele>41.666666666666664</ele><time>2026-03-29T06:45:16.252Z</time></trkpt><trkpt lat="39.9856318" lon="9.622419"><ele>42.333333333333336</ele><time>2026-03-29T06:45:17.256Z</time></trkpt><trkpt lat="39.9857276" lon="9.6222365"><ele>43.0</ele><time>2026-03-29T06:45:18.233Z</time></trkpt><trkpt lat="39.9858247" lon="9.6220648"><ele>43.333333333333336</ele><time>2026-03-29T06:45:19.233Z</time></trkpt><trkpt lat="39.9859201" lon="9.6218897"><ele>43.666666666666664</ele><time>2026-03-29T06:45:20.233Z</time></trkpt><trkpt lat="39.9860162" lon="9.6217202"><ele>44.0</ele><time>2026-03-29T06:45:21.233Z</time></trkpt><trkpt lat="39.9861112" lon="9.6215529"><ele>44.0</ele><time>2026-03-29T06:45:22.233Z</time></trkpt><trkpt lat="39.9862072" lon="9.6213916"><ele>44.0</ele><time>2026-03-29T06:45:23.233Z</time></trkpt><trkpt lat="39.9862954" lon="9.6212187"><ele>44.0</ele><time>2026-03-29T06:45:24.233Z</time></trkpt><trkpt lat="39.986383" lon="9.6210502"><ele>44.666666666666664</ele><time>2026-03-29T06:45:25.233Z</time></trkpt><trkpt lat="39.9864719" lon="9.6208835"><ele>45.333333333333336</ele><time>2026-03-29T06:45:26.234Z</time></trkpt><trkpt lat="39.9865641" lon="9.6207208"><ele>46.0</ele><time>2026-03-29T06:45:27.234Z</time></trkpt><trkpt lat="39.9866512" lon="9.6205537"><ele>45.5</ele><time>2026-03-29T06:45:28.233Z</time></trkpt><trkpt lat="39.98674" lon="9.6203896"><ele>45.0</ele><time>2026-03-29T06:45:29.233Z</time></trkpt><trkpt lat="39.9868305" lon="9.6202326"><ele>44.5</ele><time>2026-03-29T06:45:30.234Z</time></trkpt><trkpt lat="39.9869146" lon="9.6200814"><ele>44.0</ele><time>2026-03-29T06:45:31.233Z</time></trkpt><trkpt lat="39.9869937" lon="9.6199274"><ele>44.0</ele><time>2026-03-29T06:45:32.233Z</time></trkpt><trkpt lat="39.9870675" lon="9.6198143"><ele>44.0</ele><time>2026-03-29T06:45:33.233Z</time></trkpt><trkpt lat="39.9871433" lon="9.619656"><ele>44.0</ele><time>2026-03-29T06:45:34.233Z</time></trkpt><trkpt lat="39.9872246" lon="9.6195102"><ele>44.0</ele><time>2026-03-29T06:45:35.233Z</time></trkpt><trkpt lat="39.9873042" lon="9.6193543"><ele>44.0</ele><time>2026-03-29T06:45:36.233Z</time></trkpt><trkpt lat="39.9873867" lon="9.6192026"><ele>44.0</ele><time>2026-03-29T06:45:37.234Z</time></trkpt><trkpt lat="39.9874737" lon="9.619021"><ele>44.0</ele><time>2026-03-29T06:45:38.233Z</time></trkpt><trkpt lat="39.9875699" lon="9.6188513"><ele>44.0</ele><time>2026-03-29T06:45:39.233Z</time></trkpt><trkpt lat="39.9876657" lon="9.6186847"><ele>44.0</ele><time>2026-03-29T06:45:40.233Z</time></trkpt><trkpt lat="39.987761" lon="9.6185168"><ele>44.0</ele><time>2026-03-29T06:45:41.233Z</time></trkpt><trkpt lat="39.9878576" lon="9.6183428"><ele>45.33333333333333</ele><time>2026-03-29T06:45:42.233Z</time></trkpt><trkpt lat="39.9879517" lon="9.6181697"><ele>46.666666666666664</ele><time>2026-03-29T06:45:43.234Z</time></trkpt><trkpt lat="39.9880462" lon="9.6179987"><ele>48.0</ele><time>2026-03-29T06:45:44.234Z</time></trkpt><trkpt lat="39.9881376" lon="9.6178203"><ele>48.0</ele><time>2026-03-29T06:45:45.234Z</time></trkpt><trkpt lat="39.9882212" lon="9.6176413"><ele>48.0</ele><time>2026-03-29T06:45:46.233Z</time></trkpt><trkpt lat="39.9882856" lon="9.6174608"><ele>48.0</ele><time>2026-03-29T06:45:47.233Z</time></trkpt><trkpt lat="39.9883528" lon="9.617267"><ele>48.0</ele><time>2026-03-29T06:45:48.234Z</time></trkpt><trkpt lat="39.9884197" lon="9.6170545"><ele>48.0</ele><time>2026-03-29T06:45:49.234Z</time></trkpt><trkpt lat="39.9884841" lon="9.6168407"><ele>48.0</ele><time>2026-03-29T06:45:50.233Z</time></trkpt><trkpt lat="39.9885444" lon="9.6166583"><ele>48.33333333333333</ele><time>2026-03-29T06:45:51.233Z</time></trkpt><trkpt lat="39.9886091" lon="9.6164487"><ele>48.666666666666664</ele><time>2026-03-29T06:45:52.233Z</time></trkpt><trkpt lat="39.9886764" lon="9.616241"><ele>49.0</ele><time>2026-03-29T06:45:53.234Z</time></trkpt><trkpt lat="39.9887432" lon="9.6160399"><ele>49.666666666666664</ele><time>2026-03-29T06:45:54.234Z</time></trkpt><trkpt lat="39.9888076" lon="9.6158567"><ele>50.33333333333333</ele><time>2026-03-29T06:45:55.233Z</time></trkpt><trkpt lat="39.9888756" lon="9.6156549"><ele>51.0</ele><time>2026-03-29T06:45:56.233Z</time></trkpt><trkpt lat="39.9889398" lon="9.6154542"><ele>52.0</ele><time>2026-03-29T06:45:57.233Z</time></trkpt><trkpt lat="39.9890069" lon="9.6152503"><ele>53.0</ele><time>2026-03-29T06:45:58.233Z</time></trkpt><trkpt lat="39.9890665" lon="9.6150725"><ele>54.0</ele><time>2026-03-29T06:45:59.233Z</time></trkpt><trkpt lat="39.9891209" lon="9.6148981"><ele>53.5</ele><time>2026-03-29T06:46:00.233Z</time></trkpt><trkpt lat="39.9891789" lon="9.6147214"><ele>53.0</ele><time>2026-03-29T06:46:01.234Z</time></trkpt><trkpt lat="39.9892369" lon="9.61455"><ele>52.5</ele><time>2026-03-29T06:46:02.233Z</time></trkpt><trkpt lat="39.989295" lon="9.6143813"><ele>52.0</ele><time>2026-03-29T06:46:03.233Z</time></trkpt><trkpt lat="39.9893523" lon="9.6142128"><ele>52.0</ele><time>2026-03-29T06:46:04.233Z</time></trkpt><trkpt lat="39.9894039" lon="9.6140427"><ele>52.0</ele><time>2026-03-29T06:46:05.233Z</time></trkpt><trkpt lat="39.9894561" lon="9.6138696"><ele>52.0</ele><time>2026-03-29T06:46:06.233Z</time></trkpt><trkpt lat="39.989514" lon="9.6136948"><ele>52.0</ele><time>2026-03-29T06:46:07.233Z</time></trkpt><trkpt lat="39.9895679" lon="9.6135122"><ele>52.25</ele><time>2026-03-29T06:46:08.233Z</time></trkpt><trkpt lat="39.9896216" lon="9.6133409"><ele>52.5</ele><time>2026-03-29T06:46:09.233Z</time></trkpt><trkpt lat="39.9896801" lon="9.6131647"><ele>52.75</ele><time>2026-03-29T06:46:10.233Z</time></trkpt><trkpt lat="39.9897407" lon="9.6129832"><ele>53.0</ele><time>2026-03-29T06:46:11.233Z</time></trkpt><trkpt lat="39.9898173" lon="9.6128101"><ele>53.0</ele><time>2026-03-29T06:46:12.233Z</time></trkpt><trkpt lat="39.9898964" lon="9.6126292"><ele>53.0</ele><time>2026-03-29T06:46:13.233Z</time></trkpt><trkpt lat="39.9900283" lon="9.6124418"><ele>53.0</ele><time>2026-03-29T06:46:14.233Z</time></trkpt><trkpt lat="39.9901553" lon="9.6122728"><ele>53.0</ele><time>2026-03-29T06:46:15.233Z</time></trkpt><trkpt lat="39.9902829" lon="9.6120959"><ele>53.0</ele><time>2026-03-29T06:46:16.233Z</time></trkpt><trkpt lat="39.9904102" lon="9.6119168"><ele>53.0</ele><time>2026-03-29T06:46:17.234Z</time></trkpt><trkpt lat="39.9905337" lon="9.6117476"><ele>55.333333333333336</ele><time>2026-03-29T06:46:18.233Z</time></trkpt><trkpt lat="39.9906586" lon="9.6115792"><ele>57.66666666666667</ele><time>2026-03-29T06:46:19.233Z</time></trkpt><trkpt lat="39.9907778" lon="9.6114553"><ele>60.0</ele><time>2026-03-29T06:46:20.233Z</time></trkpt><trkpt lat="39.9908712" lon="9.6113158"><ele>60.5</ele><time>2026-03-29T06:46:21.233Z</time></trkpt><trkpt lat="39.9909647" lon="9.6111777"><ele>61.0</ele><time>2026-03-29T06:46:22.233Z</time></trkpt><trkpt lat="39.9910605" lon="9.6110478"><ele>61.5</ele><time>2026-03-29T06:46:23.233Z</time></trkpt><trkpt lat="39.9911518" lon="9.6109217"><ele>62.0</ele><time>2026-03-29T06:46:24.233Z</time></trkpt><trkpt lat="39.9912421" lon="9.6107984"><ele>62.75</ele><time>2026-03-29T06:46:25.233Z</time></trkpt><trkpt lat="39.9913349" lon="9.6106602"><ele>63.5</ele><time>2026-03-29T06:46:26.233Z</time></trkpt><trkpt lat="39.99143" lon="9.6105142"><ele>64.25</ele><time>2026-03-29T06:46:27.233Z</time></trkpt><trkpt lat="39.9915167" lon="9.6103688"><ele>65.0</ele><time>2026-03-29T06:46:28.233Z</time></trkpt><trkpt lat="39.9916096" lon="9.6102222"><ele>65.0</ele><time>2026-03-29T06:46:29.233Z</time></trkpt><trkpt lat="39.9917007" lon="9.6100646"><ele>65.0</ele><time>2026-03-29T06:46:30.233Z</time></trkpt><trkpt lat="39.9917962" lon="9.6099188"><ele>65.0</ele><time>2026-03-29T06:46:31.233Z</time></trkpt><trkpt lat="39.991885" lon="9.6097689"><ele>65.0</ele><time>2026-03-29T06:46:32.233Z</time></trkpt><trkpt lat="39.9919761" lon="9.6096052"><ele>62.66666666666667</ele><time>2026-03-29T06:46:33.233Z</time></trkpt><trkpt lat="39.9920681" lon="9.6094445"><ele>60.33333333333333</ele><time>2026-03-29T06:46:34.233Z</time></trkpt><trkpt lat="39.9921674" lon="9.609292"><ele>58.0</ele><time>2026-03-29T06:46:35.233Z</time></trkpt><trkpt lat="39.9922581" lon="9.6091294"><ele>58.0</ele><time>2026-03-29T06:46:36.233Z</time></trkpt><trkpt lat="39.9923479" lon="9.6089752"><ele>58.0</ele><time>2026-03-29T06:46:37.233Z</time></trkpt><trkpt lat="39.9924406" lon="9.6088295"><ele>58.0</ele><time>2026-03-29T06:46:38.233Z</time></trkpt><trkpt lat="39.9925371" lon="9.6086635"><ele>57.666666666666664</ele><time>2026-03-29T06:46:39.233Z</time></trkpt><trkpt lat="39.992629" lon="9.6085071"><ele>57.33333333333333</ele><time>2026-03-29T06:46:40.233Z</time></trkpt><trkpt lat="39.9927259" lon="9.6083525"><ele>57.0</ele><time>2026-03-29T06:46:41.234Z</time></trkpt><trkpt lat="39.9928275" lon="9.6082041"><ele>57.0</ele><time>2026-03-29T06:46:42.233Z</time></trkpt><trkpt lat="39.992924" lon="9.6080508"><ele>57.0</ele><time>2026-03-29T06:46:43.234Z</time></trkpt><trkpt lat="39.9930208" lon="9.6078982"><ele>57.0</ele><time>2026-03-29T06:46:44.233Z</time></trkpt><trkpt lat="39.993114" lon="9.6077413"><ele>57.25</ele><time>2026-03-29T06:46:45.233Z</time></trkpt><trkpt lat="39.9932059" lon="9.6075979"><ele>57.5</ele><time>2026-03-29T06:46:46.233Z</time></trkpt><trkpt lat="39.9932906" lon="9.6074576"><ele>57.75</ele><time>2026-03-29T06:46:47.233Z</time></trkpt><trkpt lat="39.9933635" lon="9.6073177"><ele>58.0</ele><time>2026-03-29T06:46:48.233Z</time></trkpt><trkpt lat="39.993408" lon="9.6071559"><ele>57.75</ele><time>2026-03-29T06:46:49.233Z</time></trkpt><trkpt lat="39.9934277" lon="9.6069727"><ele>57.5</ele><time>2026-03-29T06:46:50.233Z</time></trkpt><trkpt lat="39.9934306" lon="9.6067951"><ele>57.25</ele><time>2026-03-29T06:46:51.233Z</time></trkpt><trkpt lat="39.9934074" lon="9.606577"><ele>57.0</ele><time>2026-03-29T06:46:52.233Z</time></trkpt><trkpt lat="39.9933861" lon="9.6063484"><ele>57.66666666666667</ele><time>2026-03-29T06:46:53.233Z</time></trkpt><trkpt lat="39.9933669" lon="9.606144"><ele>58.333333333333336</ele><time>2026-03-29T06:46:54.233Z</time></trkpt><trkpt lat="39.9933544" lon="9.6059524"><ele>59.0</ele><time>2026-03-29T06:46:55.233Z</time></trkpt><trkpt lat="39.9933361" lon="9.6057512"><ele>59.0</ele><time>2026-03-29T06:46:56.234Z</time></trkpt><trkpt lat="39.993326" lon="9.6055681"><ele>59.0</ele><time>2026-03-29T06:46:57.233Z</time></trkpt><trkpt lat="39.9933088" lon="9.6053575"><ele>59.0</ele><time>2026-03-29T06:46:58.233Z</time></trkpt><trkpt lat="39.9932947" lon="9.6051724"><ele>59.0</ele><time>2026-03-29T06:46:59.233Z</time></trkpt><trkpt lat="39.9932758" lon="9.6049626"><ele>59.66666666666667</ele><time>2026-03-29T06:47:00.234Z</time></trkpt><trkpt lat="39.9932612" lon="9.6047601"><ele>60.33333333333333</ele><time>2026-03-29T06:47:01.233Z</time></trkpt><trkpt lat="39.9932474" lon="9.6045513"><ele>61.0</ele><time>2026-03-29T06:47:02.233Z</time></trkpt><trkpt lat="39.9932277" lon="9.6043467"><ele>61.666666666666664</ele><time>2026-03-29T06:47:03.234Z</time></trkpt><trkpt lat="39.9932145" lon="9.6041332"><ele>62.33333333333333</ele><time>2026-03-29T06:47:04.234Z</time></trkpt><trkpt lat="39.9931901" lon="9.6039136"><ele>63.0</ele><time>2026-03-29T06:47:05.233Z</time></trkpt><trkpt lat="39.9931725" lon="9.6036948"><ele>63.33333333333333</ele><time>2026-03-29T06:47:06.234Z</time></trkpt><trkpt lat="39.9931499" lon="9.6034796"><ele>63.666666666666664</ele><time>2026-03-29T06:47:07.234Z</time></trkpt><trkpt lat="39.9931334" lon="9.603259"><ele>64.0</ele><time>2026-03-29T06:47:08.234Z</time></trkpt><trkpt lat="39.9931113" lon="9.603022"><ele>64.33333333333333</ele><time>2026-03-29T06:47:09.233Z</time></trkpt><trkpt lat="39.9930881" lon="9.6027813"><ele>64.66666666666667</ele><time>2026-03-29T06:47:10.233Z</time></trkpt><trkpt lat="39.993065" lon="9.6025378"><ele>65.0</ele><time>2026-03-29T06:47:11.233Z</time></trkpt><trkpt lat="39.9930449" lon="9.6022996"><ele>65.0</ele><time>2026-03-29T06:47:12.233Z</time></trkpt><trkpt lat="39.9930305" lon="9.6020796"><ele>65.0</ele><time>2026-03-29T06:47:13.233Z</time></trkpt><trkpt lat="39.9930132" lon="9.6018383"><ele>65.0</ele><time>2026-03-29T06:47:14.233Z</time></trkpt><trkpt lat="39.9929953" lon="9.6015936"><ele>65.66666666666667</ele><time>2026-03-29T06:47:15.233Z</time></trkpt><trkpt lat="39.9929753" lon="9.6013426"><ele>66.33333333333333</ele><time>2026-03-29T06:47:16.233Z</time></trkpt><trkpt lat="39.992952" lon="9.6010769"><ele>67.0</ele><time>2026-03-29T06:47:17.234Z</time></trkpt><trkpt lat="39.9929361" lon="9.6008494"><ele>70.0</ele><time>2026-03-29T06:47:18.233Z</time></trkpt><trkpt lat="39.9929241" lon="9.6006105"><ele>73.0</ele><time>2026-03-29T06:47:19.233Z</time></trkpt><trkpt lat="39.9929072" lon="9.6001515"><ele>75.0</ele><time>2026-03-29T06:47:21.233Z</time></trkpt><trkpt lat="39.9929225" lon="9.5999286"><ele>77.0</ele><time>2026-03-29T06:47:22.233Z</time></trkpt><trkpt lat="39.9929683" lon="9.5997118"><ele>79.0</ele><time>2026-03-29T06:47:23.233Z</time></trkpt><trkpt lat="39.9930138" lon="9.5994925"><ele>79.0</ele><time>2026-03-29T06:47:24.233Z</time></trkpt><trkpt lat="39.9931017" lon="9.5992567"><ele>79.0</ele><time>2026-03-29T06:47:25.234Z</time></trkpt><trkpt lat="39.9931907" lon="9.5990321"><ele>79.0</ele><time>2026-03-29T06:47:26.233Z</time></trkpt><trkpt lat="39.9932763" lon="9.5988151"><ele>81.33333333333333</ele><time>2026-03-29T06:47:27.233Z</time></trkpt><trkpt lat="39.9933657" lon="9.5986036"><ele>83.66666666666667</ele><time>2026-03-29T06:47:28.234Z</time></trkpt><trkpt lat="39.9934555" lon="9.5984024"><ele>86.0</ele><time>2026-03-29T06:47:29.234Z</time></trkpt><trkpt lat="39.9935361" lon="9.5981866"><ele>86.0</ele><time>2026-03-29T06:47:30.233Z</time></trkpt><trkpt lat="39.9936171" lon="9.5979708"><ele>86.0</ele><time>2026-03-29T06:47:31.233Z</time></trkpt><trkpt lat="39.9936995" lon="9.5977489"><ele>86.0</ele><time>2026-03-29T06:47:32.233Z</time></trkpt><trkpt lat="39.993783" lon="9.5975319"><ele>86.33333333333334</ele><time>2026-03-29T06:47:33.233Z</time></trkpt><trkpt lat="39.9938481" lon="9.5973137"><ele>86.66666666666667</ele><time>2026-03-29T06:47:34.233Z</time></trkpt><trkpt lat="39.9939145" lon="9.5970893"><ele>87.0</ele><time>2026-03-29T06:47:35.233Z</time></trkpt><trkpt lat="39.9939479" lon="9.5968475"><ele>87.0</ele><time>2026-03-29T06:47:36.233Z</time></trkpt><trkpt lat="39.9939683" lon="9.5966185"><ele>87.0</ele><time>2026-03-29T06:47:37.233Z</time></trkpt><trkpt lat="39.9939658" lon="9.5963684"><ele>87.0</ele><time>2026-03-29T06:47:38.234Z</time></trkpt><trkpt lat="39.9939631" lon="9.5961043"><ele>86.66666666666667</ele><time>2026-03-29T06:47:39.233Z</time></trkpt><trkpt lat="39.9939671" lon="9.5958613"><ele>86.33333333333334</ele><time>2026-03-29T06:47:40.233Z</time></trkpt><trkpt lat="39.993969" lon="9.5956188"><ele>86.0</ele><time>2026-03-29T06:47:41.233Z</time></trkpt><trkpt lat="39.9939703" lon="9.5953738"><ele>86.66666666666667</ele><time>2026-03-29T06:47:42.234Z</time></trkpt><trkpt lat="39.9939753" lon="9.5951317"><ele>87.33333333333333</ele><time>2026-03-29T06:47:43.234Z</time></trkpt><trkpt lat="39.9939736" lon="9.5948788"><ele>88.0</ele><time>2026-03-29T06:47:44.233Z</time></trkpt><trkpt lat="39.993972" lon="9.5946262"><ele>88.33333333333333</ele><time>2026-03-29T06:47:45.233Z</time></trkpt><trkpt lat="39.9939687" lon="9.594378"><ele>88.66666666666667</ele><time>2026-03-29T06:47:46.233Z</time></trkpt><trkpt lat="39.9939701" lon="9.5941406"><ele>89.0</ele><time>2026-03-29T06:47:47.234Z</time></trkpt><trkpt lat="39.9939803" lon="9.5939069"><ele>89.0</ele><time>2026-03-29T06:47:48.234Z</time></trkpt><trkpt lat="39.9939979" lon="9.5936648"><ele>89.0</ele><time>2026-03-29T06:47:49.234Z</time></trkpt><trkpt lat="39.9940364" lon="9.5934402"><ele>89.0</ele><time>2026-03-29T06:47:50.233Z</time></trkpt><trkpt lat="39.9940805" lon="9.5931961"><ele>89.0</ele><time>2026-03-29T06:47:51.234Z</time></trkpt><trkpt lat="39.9941372" lon="9.5929582"><ele>89.0</ele><time>2026-03-29T06:47:52.233Z</time></trkpt><trkpt lat="39.9942017" lon="9.5927456"><ele>89.0</ele><time>2026-03-29T06:47:53.233Z</time></trkpt><trkpt lat="39.9942663" lon="9.5925355"><ele>88.66666666666667</ele><time>2026-03-29T06:47:54.233Z</time></trkpt><trkpt lat="39.9943255" lon="9.5923251"><ele>88.33333333333333</ele><time>2026-03-29T06:47:55.233Z</time></trkpt><trkpt lat="39.9943841" lon="9.5921178"><ele>88.0</ele><time>2026-03-29T06:47:56.233Z</time></trkpt><trkpt lat="39.9944456" lon="9.5919156"><ele>88.0</ele><time>2026-03-29T06:47:57.233Z</time></trkpt><trkpt lat="39.9945104" lon="9.5917056"><ele>88.0</ele><time>2026-03-29T06:47:58.233Z</time></trkpt><trkpt lat="39.9945899" lon="9.5914962"><ele>88.0</ele><time>2026-03-29T06:47:59.233Z</time></trkpt><trkpt lat="39.9946701" lon="9.591294"><ele>89.0</ele><time>2026-03-29T06:48:00.233Z</time></trkpt><trkpt lat="39.9947578" lon="9.5910904"><ele>90.0</ele><time>2026-03-29T06:48:01.234Z</time></trkpt><trkpt lat="39.9948525" lon="9.5908953"><ele>91.0</ele><time>2026-03-29T06:48:02.234Z</time></trkpt><trkpt lat="39.9949473" lon="9.5907033"><ele>91.0</ele><time>2026-03-29T06:48:03.233Z</time></trkpt><trkpt lat="39.9950471" lon="9.5905168"><ele>91.0</ele><time>2026-03-29T06:48:04.233Z</time></trkpt><trkpt lat="39.995153" lon="9.5903311"><ele>91.0</ele><time>2026-03-29T06:48:05.233Z</time></trkpt><trkpt lat="39.9952664" lon="9.5901503"><ele>91.0</ele><time>2026-03-29T06:48:06.234Z</time></trkpt><trkpt lat="39.9953862" lon="9.5899756"><ele>91.0</ele><time>2026-03-29T06:48:07.233Z</time></trkpt><trkpt lat="39.9955171" lon="9.5898094"><ele>91.0</ele><time>2026-03-29T06:48:08.234Z</time></trkpt><trkpt lat="39.9956432" lon="9.5896531"><ele>91.66666666666666</ele><time>2026-03-29T06:48:09.233Z</time></trkpt><trkpt lat="39.9957769" lon="9.589503"><ele>92.33333333333333</ele><time>2026-03-29T06:48:10.233Z</time></trkpt><trkpt lat="39.9959115" lon="9.5893506"><ele>93.0</ele><time>2026-03-29T06:48:11.233Z</time></trkpt><trkpt lat="39.9960423" lon="9.5892012"><ele>91.33333333333333</ele><time>2026-03-29T06:48:12.233Z</time></trkpt><trkpt lat="39.9961666" lon="9.5890488"><ele>89.66666666666666</ele><time>2026-03-29T06:48:13.233Z</time></trkpt><trkpt lat="39.9962924" lon="9.5888976"><ele>88.0</ele><time>2026-03-29T06:48:14.233Z</time></trkpt><trkpt lat="39.9964185" lon="9.5887496"><ele>87.0</ele><time>2026-03-29T06:48:15.233Z</time></trkpt><trkpt lat="39.9965456" lon="9.5886036"><ele>86.0</ele><time>2026-03-29T06:48:16.233Z</time></trkpt><trkpt lat="39.9966681" lon="9.5884479"><ele>85.0</ele><time>2026-03-29T06:48:17.234Z</time></trkpt><trkpt lat="39.9967787" lon="9.5882771"><ele>85.0</ele><time>2026-03-29T06:48:18.233Z</time></trkpt><trkpt lat="39.9968942" lon="9.5881072"><ele>85.0</ele><time>2026-03-29T06:48:19.233Z</time></trkpt><trkpt lat="39.9970024" lon="9.5879337"><ele>85.0</ele><time>2026-03-29T06:48:20.233Z</time></trkpt><trkpt lat="39.9970927" lon="9.5877484"><ele>85.66666666666666</ele><time>2026-03-29T06:48:21.234Z</time></trkpt><trkpt lat="39.9971851" lon="9.5875621"><ele>86.33333333333333</ele><time>2026-03-29T06:48:22.234Z</time></trkpt><trkpt lat="39.9972683" lon="9.5873508"><ele>87.0</ele><time>2026-03-29T06:48:23.233Z</time></trkpt><trkpt lat="39.9973609" lon="9.5871593"><ele>87.0</ele><time>2026-03-29T06:48:24.233Z</time></trkpt><trkpt lat="39.9974514" lon="9.5869624"><ele>87.0</ele><time>2026-03-29T06:48:25.233Z</time></trkpt><trkpt lat="39.997545" lon="9.5867623"><ele>87.0</ele><time>2026-03-29T06:48:26.233Z</time></trkpt><trkpt lat="39.9976476" lon="9.586583"><ele>87.0</ele><time>2026-03-29T06:48:27.233Z</time></trkpt><trkpt lat="39.9977466" lon="9.5863843"><ele>87.0</ele><time>2026-03-29T06:48:28.233Z</time></trkpt><trkpt lat="39.9978647" lon="9.5862145"><ele>87.0</ele><time>2026-03-29T06:48:29.233Z</time></trkpt><trkpt lat="39.9979796" lon="9.5860254"><ele>87.33333333333333</ele><time>2026-03-29T06:48:30.234Z</time></trkpt><trkpt lat="39.9980939" lon="9.5858521"><ele>87.66666666666666</ele><time>2026-03-29T06:48:31.234Z</time></trkpt><trkpt lat="39.9981998" lon="9.5856692"><ele>88.0</ele><time>2026-03-29T06:48:32.233Z</time></trkpt><trkpt lat="39.9983084" lon="9.5855027"><ele>86.33333333333333</ele><time>2026-03-29T06:48:33.233Z</time></trkpt><trkpt lat="39.9984036" lon="9.5853435"><ele>84.66666666666667</ele><time>2026-03-29T06:48:34.233Z</time></trkpt><trkpt lat="39.9984907" lon="9.5851619"><ele>83.0</ele><time>2026-03-29T06:48:35.233Z</time></trkpt><trkpt lat="39.9985621" lon="9.5849767"><ele>83.0</ele><time>2026-03-29T06:48:36.233Z</time></trkpt><trkpt lat="39.9986244" lon="9.5847796"><ele>83.0</ele><time>2026-03-29T06:48:37.233Z</time></trkpt><trkpt lat="39.9986803" lon="9.5845951"><ele>83.0</ele><time>2026-03-29T06:48:38.233Z</time></trkpt><trkpt lat="39.9987343" lon="9.5843781"><ele>83.0</ele><time>2026-03-29T06:48:39.233Z</time></trkpt><trkpt lat="39.9987889" lon="9.5841607"><ele>83.0</ele><time>2026-03-29T06:48:40.233Z</time></trkpt><trkpt lat="39.9988459" lon="9.5839404"><ele>83.0</ele><time>2026-03-29T06:48:41.233Z</time></trkpt><trkpt lat="39.9989027" lon="9.5837356"><ele>83.0</ele><time>2026-03-29T06:48:42.233Z</time></trkpt><trkpt lat="39.9989568" lon="9.5835407"><ele>83.0</ele><time>2026-03-29T06:48:43.233Z</time></trkpt><trkpt lat="39.9990121" lon="9.583322"><ele>83.0</ele><time>2026-03-29T06:48:44.233Z</time></trkpt><trkpt lat="39.9990601" lon="9.5831119"><ele>83.0</ele><time>2026-03-29T06:48:45.233Z</time></trkpt><trkpt lat="39.9991051" lon="9.5829109"><ele>83.0</ele><time>2026-03-29T06:48:46.233Z</time></trkpt><trkpt lat="39.9991569" lon="9.5827157"><ele>83.0</ele><time>2026-03-29T06:48:47.233Z</time></trkpt><trkpt lat="39.9992012" lon="9.5825139"><ele>82.66666666666667</ele><time>2026-03-29T06:48:48.233Z</time></trkpt><trkpt lat="39.9992516" lon="9.5823223"><ele>82.33333333333333</ele><time>2026-03-29T06:48:49.233Z</time></trkpt><trkpt lat="39.9993044" lon="9.5821225"><ele>82.0</ele><time>2026-03-29T06:48:50.233Z</time></trkpt><trkpt lat="39.9993543" lon="9.5819264"><ele>82.0</ele><time>2026-03-29T06:48:51.234Z</time></trkpt><trkpt lat="39.999407" lon="9.5817286"><ele>82.0</ele><time>2026-03-29T06:48:52.233Z</time></trkpt><trkpt lat="39.9994628" lon="9.5815322"><ele>82.0</ele><time>2026-03-29T06:48:53.233Z</time></trkpt><trkpt lat="39.9995212" lon="9.5813332"><ele>82.33333333333333</ele><time>2026-03-29T06:48:54.233Z</time></trkpt><trkpt lat="39.9995717" lon="9.5811319"><ele>82.66666666666667</ele><time>2026-03-29T06:48:55.233Z</time></trkpt><trkpt lat="39.9996297" lon="9.5809236"><ele>83.0</ele><time>2026-03-29T06:48:56.233Z</time></trkpt><trkpt lat="39.9996815" lon="9.580708"><ele>83.0</ele><time>2026-03-29T06:48:57.234Z</time></trkpt><trkpt lat="39.9997405" lon="9.5804925"><ele>83.0</ele><time>2026-03-29T06:48:58.234Z</time></trkpt><trkpt lat="39.9998013" lon="9.5802771"><ele>83.0</ele><time>2026-03-29T06:48:59.234Z</time></trkpt><trkpt lat="39.9998603" lon="9.5800571"><ele>83.33333333333334</ele><time>2026-03-29T06:49:00.234Z</time></trkpt><trkpt lat="39.9999154" lon="9.5798379"><ele>83.66666666666667</ele><time>2026-03-29T06:49:01.233Z</time></trkpt><trkpt lat="39.9999694" lon="9.5796192"><ele>84.0</ele><time>2026-03-29T06:49:02.234Z</time></trkpt><trkpt lat="40.0000276" lon="9.5794095"><ele>84.66666666666667</ele><time>2026-03-29T06:49:03.233Z</time></trkpt><trkpt lat="40.0000817" lon="9.5791909"><ele>85.33333333333334</ele><time>2026-03-29T06:49:04.234Z</time></trkpt><trkpt lat="40.0001368" lon="9.5789845"><ele>86.0</ele><time>2026-03-29T06:49:05.233Z</time></trkpt><trkpt lat="40.0001902" lon="9.578783"><ele>86.66666666666667</ele><time>2026-03-29T06:49:06.234Z</time></trkpt><trkpt lat="40.0002428" lon="9.5785801"><ele>87.33333333333333</ele><time>2026-03-29T06:49:07.233Z</time></trkpt><trkpt lat="40.0002962" lon="9.578375"><ele>88.0</ele><time>2026-03-29T06:49:08.233Z</time></trkpt><trkpt lat="40.0003545" lon="9.5781811"><ele>88.0</ele><time>2026-03-29T06:49:09.233Z</time></trkpt><trkpt lat="40.0004012" lon="9.5779681"><ele>88.0</ele><time>2026-03-29T06:49:10.233Z</time></trkpt><trkpt lat="40.0004543" lon="9.5777657"><ele>88.0</ele><time>2026-03-29T06:49:11.233Z</time></trkpt><trkpt lat="40.0005139" lon="9.5775649"><ele>89.0</ele><time>2026-03-29T06:49:12.233Z</time></trkpt><trkpt lat="40.0005965" lon="9.5773674"><ele>90.0</ele><time>2026-03-29T06:49:13.233Z</time></trkpt><trkpt lat="40.0006844" lon="9.5771538"><ele>91.0</ele><time>2026-03-29T06:49:14.233Z</time></trkpt><trkpt lat="40.0007739" lon="9.5769387"><ele>93.33333333333333</ele><time>2026-03-29T06:49:15.233Z</time></trkpt><trkpt lat="40.000869" lon="9.5767242"><ele>95.66666666666666</ele><time>2026-03-29T06:49:16.234Z</time></trkpt><trkpt lat="40.0009586" lon="9.5765078"><ele>98.0</ele><time>2026-03-29T06:49:17.233Z</time></trkpt><trkpt lat="40.0010453" lon="9.5762939"><ele>97.66666666666666</ele><time>2026-03-29T06:49:18.233Z</time></trkpt><trkpt lat="40.0011346" lon="9.5760891"><ele>97.33333333333334</ele><time>2026-03-29T06:49:19.233Z</time></trkpt><trkpt lat="40.001222" lon="9.575884"><ele>97.0</ele><time>2026-03-29T06:49:20.234Z</time></trkpt><trkpt lat="40.001309" lon="9.5756766"><ele>97.0</ele><time>2026-03-29T06:49:21.233Z</time></trkpt><trkpt lat="40.001401" lon="9.5754897"><ele>97.0</ele><time>2026-03-29T06:49:22.234Z</time></trkpt><trkpt lat="40.0014896" lon="9.5752841"><ele>97.0</ele><time>2026-03-29T06:49:23.233Z</time></trkpt><trkpt lat="40.0015794" lon="9.5750886"><ele>98.0</ele><time>2026-03-29T06:49:24.233Z</time></trkpt><trkpt lat="40.0016652" lon="9.5748905"><ele>99.0</ele><time>2026-03-29T06:49:25.233Z</time></trkpt><trkpt lat="40.0017572" lon="9.5746849"><ele>100.0</ele><time>2026-03-29T06:49:26.233Z</time></trkpt><trkpt lat="40.0018456" lon="9.574484"><ele>101.66666666666667</ele><time>2026-03-29T06:49:27.233Z</time></trkpt><trkpt lat="40.0019359" lon="9.5742739"><ele>103.33333333333334</ele><time>2026-03-29T06:49:28.233Z</time></trkpt><trkpt lat="40.0020278" lon="9.5740702"><ele>105.0</ele><time>2026-03-29T06:49:29.233Z</time></trkpt><trkpt lat="40.0021255" lon="9.5738458"><ele>105.66666666666666</ele><time>2026-03-29T06:49:30.233Z</time></trkpt><trkpt lat="40.0022273" lon="9.5736454"><ele>106.33333333333333</ele><time>2026-03-29T06:49:31.234Z</time></trkpt><trkpt lat="40.0023312" lon="9.5734329"><ele>107.0</ele><time>2026-03-29T06:49:32.234Z</time></trkpt><trkpt lat="40.0024359" lon="9.5732354"><ele>106.33333333333333</ele><time>2026-03-29T06:49:33.233Z</time></trkpt><trkpt lat="40.0025482" lon="9.5730662"><ele>105.66666666666666</ele><time>2026-03-29T06:49:34.233Z</time></trkpt><trkpt lat="40.002652" lon="9.5728797"><ele>105.0</ele><time>2026-03-29T06:49:35.233Z</time></trkpt><trkpt lat="40.0027559" lon="9.5726999"><ele>104.66666666666666</ele><time>2026-03-29T06:49:36.234Z</time></trkpt><trkpt lat="40.0028579" lon="9.5725211"><ele>104.33333333333333</ele><time>2026-03-29T06:49:37.234Z</time></trkpt><trkpt lat="40.0029593" lon="9.5723529"><ele>104.0</ele><time>2026-03-29T06:49:38.233Z</time></trkpt><trkpt lat="40.0030566" lon="9.5721826"><ele>104.66666666666666</ele><time>2026-03-29T06:49:39.233Z</time></trkpt><trkpt lat="40.0031529" lon="9.5720216"><ele>105.33333333333334</ele><time>2026-03-29T06:49:40.233Z</time></trkpt><trkpt lat="40.0032412" lon="9.5718598"><ele>106.0</ele><time>2026-03-29T06:49:41.234Z</time></trkpt><trkpt lat="40.0033288" lon="9.5716941"><ele>105.75</ele><time>2026-03-29T06:49:42.233Z</time></trkpt><trkpt lat="40.0034135" lon="9.5715491"><ele>105.5</ele><time>2026-03-29T06:49:43.233Z</time></trkpt><trkpt lat="40.0034956" lon="9.5714044"><ele>105.25</ele><time>2026-03-29T06:49:44.233Z</time></trkpt><trkpt lat="40.0035852" lon="9.5712555"><ele>105.0</ele><time>2026-03-29T06:49:45.233Z</time></trkpt><trkpt lat="40.0036771" lon="9.5711061"><ele>105.0</ele><time>2026-03-29T06:49:46.233Z</time></trkpt><trkpt lat="40.003771" lon="9.5709626"><ele>105.0</ele><time>2026-03-29T06:49:47.234Z</time></trkpt><trkpt lat="40.003865" lon="9.5708187"><ele>105.0</ele><time>2026-03-29T06:49:48.233Z</time></trkpt><trkpt lat="40.0039564" lon="9.5706624"><ele>105.0</ele><time>2026-03-29T06:49:49.233Z</time></trkpt><trkpt lat="40.0040479" lon="9.5704966"><ele>106.0</ele><time>2026-03-29T06:49:50.233Z</time></trkpt><trkpt lat="40.0041405" lon="9.5703222"><ele>107.0</ele><time>2026-03-29T06:49:51.234Z</time></trkpt><trkpt lat="40.0042365" lon="9.5701567"><ele>108.0</ele><time>2026-03-29T06:49:52.233Z</time></trkpt><trkpt lat="40.0043358" lon="9.5699864"><ele>107.0</ele><time>2026-03-29T06:49:53.234Z</time></trkpt><trkpt lat="40.0044303" lon="9.5698111"><ele>106.0</ele><time>2026-03-29T06:49:54.233Z</time></trkpt><trkpt lat="40.0045275" lon="9.5696613"><ele>105.0</ele><time>2026-03-29T06:49:55.234Z</time></trkpt><trkpt lat="40.0046232" lon="9.56948"><ele>105.0</ele><time>2026-03-29T06:49:56.233Z</time></trkpt><trkpt lat="40.0047388" lon="9.5693063"><ele>105.0</ele><time>2026-03-29T06:49:57.233Z</time></trkpt><trkpt lat="40.0048607" lon="9.5691114"><ele>105.0</ele><time>2026-03-29T06:49:58.233Z</time></trkpt><trkpt lat="40.0049942" lon="9.5689285"><ele>106.0</ele><time>2026-03-29T06:49:59.234Z</time></trkpt><trkpt lat="40.0051455" lon="9.568752"><ele>107.0</ele><time>2026-03-29T06:50:00.234Z</time></trkpt><trkpt lat="40.0054489" lon="9.5684317"><ele>107.0</ele><time>2026-03-29T06:50:02.233Z</time></trkpt><trkpt lat="40.0055927" lon="9.5682623"><ele>107.0</ele><time>2026-03-29T06:50:03.233Z</time></trkpt><trkpt lat="40.0057302" lon="9.5680989"><ele>107.0</ele><time>2026-03-29T06:50:04.233Z</time></trkpt><trkpt lat="40.0058473" lon="9.567908"><ele>107.0</ele><time>2026-03-29T06:50:05.233Z</time></trkpt><trkpt lat="40.005957" lon="9.5677197"><ele>107.0</ele><time>2026-03-29T06:50:06.233Z</time></trkpt><trkpt lat="40.0060489" lon="9.567505"><ele>107.0</ele><time>2026-03-29T06:50:07.233Z</time></trkpt><trkpt lat="40.0061275" lon="9.5672855"><ele>107.0</ele><time>2026-03-29T06:50:08.234Z</time></trkpt><trkpt lat="40.0062106" lon="9.5670627"><ele>107.0</ele><time>2026-03-29T06:50:09.233Z</time></trkpt><trkpt lat="40.0062912" lon="9.5668301"><ele>107.0</ele><time>2026-03-29T06:50:10.234Z</time></trkpt><trkpt lat="40.0063655" lon="9.5666109"><ele>115.0</ele><time>2026-03-29T06:50:11.234Z</time></trkpt><trkpt lat="40.006582" lon="9.5659861"><ele>108.0</ele><time>2026-03-29T06:50:14.351Z</time></trkpt><trkpt lat="40.0067684" lon="9.5656011"><ele>101.0</ele><time>2026-03-29T06:50:16.25Z</time></trkpt><trkpt lat="40.0068731" lon="9.5654058"><ele>105.33333333333333</ele><time>2026-03-29T06:50:17.246Z</time></trkpt><trkpt lat="40.0069742" lon="9.5652287"><ele>109.66666666666666</ele><time>2026-03-29T06:50:18.237Z</time></trkpt><trkpt lat="40.0070745" lon="9.5650438"><ele>114.0</ele><time>2026-03-29T06:50:19.245Z</time></trkpt><trkpt lat="40.0071564" lon="9.5648527"><ele>114.0</ele><time>2026-03-29T06:50:20.246Z</time></trkpt><trkpt lat="40.0072274" lon="9.5646648"><ele>114.0</ele><time>2026-03-29T06:50:21.245Z</time></trkpt><trkpt lat="40.0072676" lon="9.5644499"><ele>114.0</ele><time>2026-03-29T06:50:22.245Z</time></trkpt><trkpt lat="40.0073037" lon="9.5642362"><ele>118.0</ele><time>2026-03-29T06:50:23.245Z</time></trkpt><trkpt lat="40.0073416" lon="9.5640285"><ele>122.0</ele><time>2026-03-29T06:50:24.246Z</time></trkpt><trkpt lat="40.0073801" lon="9.5638137"><ele>126.0</ele><time>2026-03-29T06:50:25.246Z</time></trkpt><trkpt lat="40.0074084" lon="9.563599"><ele>127.66666666666666</ele><time>2026-03-29T06:50:26.245Z</time></trkpt><trkpt lat="40.0074435" lon="9.5633924"><ele>129.33333333333331</ele><time>2026-03-29T06:50:27.246Z</time></trkpt><trkpt lat="40.0074821" lon="9.5631839"><ele>131.0</ele><time>2026-03-29T06:50:28.246Z</time></trkpt><trkpt lat="40.0075226" lon="9.5629752"><ele>122.0</ele><time>2026-03-29T06:50:29.245Z</time></trkpt><trkpt lat="40.0075593" lon="9.562761"><ele>113.0</ele><time>2026-03-29T06:50:30.246Z</time></trkpt><trkpt lat="40.0076026" lon="9.5625439"><ele>104.0</ele><time>2026-03-29T06:50:31.245Z</time></trkpt><trkpt lat="40.0076413" lon="9.5623317"><ele>104.0</ele><time>2026-03-29T06:50:32.245Z</time></trkpt><trkpt lat="40.007677" lon="9.5621222"><ele>104.0</ele><time>2026-03-29T06:50:33.245Z</time></trkpt><trkpt lat="40.0077072" lon="9.5619195"><ele>104.0</ele><time>2026-03-29T06:50:34.245Z</time></trkpt><trkpt lat="40.0077419" lon="9.5617366"><ele>104.0</ele><time>2026-03-29T06:50:35.246Z</time></trkpt><trkpt lat="40.0077759" lon="9.561552"><ele>104.0</ele><time>2026-03-29T06:50:36.245Z</time></trkpt><trkpt lat="40.0078114" lon="9.5613724"><ele>104.0</ele><time>2026-03-29T06:50:37.246Z</time></trkpt><trkpt lat="40.0078485" lon="9.56118"><ele>104.0</ele><time>2026-03-29T06:50:38.245Z</time></trkpt><trkpt lat="40.0078772" lon="9.5609908"><ele>104.0</ele><time>2026-03-29T06:50:39.245Z</time></trkpt><trkpt lat="40.0078992" lon="9.560793"><ele>104.0</ele><time>2026-03-29T06:50:40.245Z</time></trkpt><trkpt lat="40.0079037" lon="9.5606083"><ele>104.0</ele><time>2026-03-29T06:50:41.245Z</time></trkpt><trkpt lat="40.0079" lon="9.5604032"><ele>104.33333333333333</ele><time>2026-03-29T06:50:42.245Z</time></trkpt><trkpt lat="40.0078819" lon="9.560206"><ele>104.66666666666666</ele><time>2026-03-29T06:50:43.246Z</time></trkpt><trkpt lat="40.0078635" lon="9.5599885"><ele>105.0</ele><time>2026-03-29T06:50:44.245Z</time></trkpt><trkpt lat="40.0078589" lon="9.559777"><ele>105.0</ele><time>2026-03-29T06:50:45.245Z</time></trkpt><trkpt lat="40.0078679" lon="9.559544"><ele>105.0</ele><time>2026-03-29T06:50:46.245Z</time></trkpt><trkpt lat="40.0078831" lon="9.5593172"><ele>105.0</ele><time>2026-03-29T06:50:47.245Z</time></trkpt><trkpt lat="40.0079064" lon="9.5590934"><ele>108.0</ele><time>2026-03-29T06:50:48.246Z</time></trkpt><trkpt lat="40.0079225" lon="9.5588719"><ele>111.0</ele><time>2026-03-29T06:50:49.245Z</time></trkpt><trkpt lat="40.007947" lon="9.5586573"><ele>114.0</ele><time>2026-03-29T06:50:50.245Z</time></trkpt><trkpt lat="40.0079678" lon="9.5584378"><ele>118.0</ele><time>2026-03-29T06:50:51.245Z</time></trkpt><trkpt lat="40.007996" lon="9.5582351"><ele>122.0</ele><time>2026-03-29T06:50:52.246Z</time></trkpt><trkpt lat="40.0080133" lon="9.5580505"><ele>126.0</ele><time>2026-03-29T06:50:53.245Z</time></trkpt><trkpt lat="40.0080239" lon="9.5578551"><ele>129.5</ele><time>2026-03-29T06:50:54.245Z</time></trkpt><trkpt lat="40.008041" lon="9.5577"><ele>133.0</ele><time>2026-03-29T06:50:55.245Z</time></trkpt><trkpt lat="40.0080691" lon="9.5575128"><ele>136.5</ele><time>2026-03-29T06:50:56.245Z</time></trkpt><trkpt lat="40.0081222" lon="9.5573289"><ele>140.0</ele><time>2026-03-29T06:50:57.245Z</time></trkpt><trkpt lat="40.0082138" lon="9.5571998"><ele>145.0</ele><time>2026-03-29T06:50:58.246Z</time></trkpt><trkpt lat="40.0082867" lon="9.5570315"><ele>150.0</ele><time>2026-03-29T06:50:59.245Z</time></trkpt><trkpt lat="40.0083555" lon="9.5568609"><ele>155.0</ele><time>2026-03-29T06:51:00.245Z</time></trkpt><trkpt lat="40.0084017" lon="9.5566603"><ele>141.33333333333331</ele><time>2026-03-29T06:51:01.245Z</time></trkpt><trkpt lat="40.0084462" lon="9.5564595"><ele>127.66666666666666</ele><time>2026-03-29T06:51:02.245Z</time></trkpt><trkpt lat="40.0084703" lon="9.5562523"><ele>114.0</ele><time>2026-03-29T06:51:03.245Z</time></trkpt><trkpt lat="40.0085005" lon="9.5560455"><ele>114.0</ele><time>2026-03-29T06:51:04.245Z</time></trkpt><trkpt lat="40.0085246" lon="9.5558346"><ele>114.0</ele><time>2026-03-29T06:51:05.245Z</time></trkpt><trkpt lat="40.0085534" lon="9.5556276"><ele>114.0</ele><time>2026-03-29T06:51:06.245Z</time></trkpt><trkpt lat="40.0085886" lon="9.5554057"><ele>115.0</ele><time>2026-03-29T06:51:07.246Z</time></trkpt><trkpt lat="40.0086372" lon="9.555199"><ele>116.0</ele><time>2026-03-29T06:51:08.245Z</time></trkpt><trkpt lat="40.0086956" lon="9.5550037"><ele>117.0</ele><time>2026-03-29T06:51:09.246Z</time></trkpt><trkpt lat="40.0087604" lon="9.5548164"><ele>117.0</ele><time>2026-03-29T06:51:10.246Z</time></trkpt><trkpt lat="40.0088244" lon="9.5546365"><ele>117.0</ele><time>2026-03-29T06:51:11.245Z</time></trkpt><trkpt lat="40.0088867" lon="9.554454"><ele>117.0</ele><time>2026-03-29T06:51:12.245Z</time></trkpt><trkpt lat="40.0089516" lon="9.5542676"><ele>118.33333333333334</ele><time>2026-03-29T06:51:13.246Z</time></trkpt><trkpt lat="40.0090133" lon="9.554076"><ele>119.66666666666667</ele><time>2026-03-29T06:51:14.245Z</time></trkpt><trkpt lat="40.0090802" lon="9.5538851"><ele>121.0</ele><time>2026-03-29T06:51:15.246Z</time></trkpt><trkpt lat="40.0091549" lon="9.5536992"><ele>118.0</ele><time>2026-03-29T06:51:16.245Z</time></trkpt><trkpt lat="40.0092173" lon="9.5535087"><ele>115.0</ele><time>2026-03-29T06:51:17.245Z</time></trkpt><trkpt lat="40.009279" lon="9.5533231"><ele>112.0</ele><time>2026-03-29T06:51:18.245Z</time></trkpt><trkpt lat="40.0093426" lon="9.5531441"><ele>112.0</ele><time>2026-03-29T06:51:19.245Z</time></trkpt><trkpt lat="40.0093923" lon="9.5529673"><ele>112.0</ele><time>2026-03-29T06:51:20.245Z</time></trkpt><trkpt lat="40.0094067" lon="9.5527393"><ele>112.0</ele><time>2026-03-29T06:51:21.245Z</time></trkpt><trkpt lat="40.0094199" lon="9.5525345"><ele>113.5</ele><time>2026-03-29T06:51:22.245Z</time></trkpt><trkpt lat="40.009413" lon="9.5523325"><ele>115.0</ele><time>2026-03-29T06:51:23.245Z</time></trkpt><trkpt lat="40.0093892" lon="9.5521502"><ele>116.5</ele><time>2026-03-29T06:51:24.245Z</time></trkpt><trkpt lat="40.009373" lon="9.5519652"><ele>118.0</ele><time>2026-03-29T06:51:25.246Z</time></trkpt><trkpt lat="40.0093523" lon="9.5518187"><ele>118.25</ele><time>2026-03-29T06:51:26.245Z</time></trkpt><trkpt lat="40.0092837" lon="9.5516661"><ele>118.5</ele><time>2026-03-29T06:51:27.245Z</time></trkpt><trkpt lat="40.00917" lon="9.5515452"><ele>118.75</ele><time>2026-03-29T06:51:28.245Z</time></trkpt><trkpt lat="40.0090415" lon="9.5514592"><ele>119.0</ele><time>2026-03-29T06:51:29.245Z</time></trkpt><trkpt lat="40.0089096" lon="9.5513815"><ele>121.25</ele><time>2026-03-29T06:51:30.246Z</time></trkpt><trkpt lat="40.0087989" lon="9.551313"><ele>123.5</ele><time>2026-03-29T06:51:31.245Z</time></trkpt><trkpt lat="40.0087014" lon="9.5512595"><ele>125.75</ele><time>2026-03-29T06:51:32.245Z</time></trkpt><trkpt lat="40.0086006" lon="9.5511811"><ele>128.0</ele><time>2026-03-29T06:51:33.246Z</time></trkpt><trkpt lat="40.0085184" lon="9.5510893"><ele>128.0</ele><time>2026-03-29T06:51:34.246Z</time></trkpt><trkpt lat="40.0084767" lon="9.550969"><ele>128.0</ele><time>2026-03-29T06:51:35.245Z</time></trkpt><trkpt lat="40.0084468" lon="9.5508497"><ele>128.0</ele><time>2026-03-29T06:51:36.245Z</time></trkpt><trkpt lat="40.0084386" lon="9.5507503"><ele>128.0</ele><time>2026-03-29T06:51:37.245Z</time></trkpt><trkpt lat="40.008473" lon="9.5506247"><ele>128.0</ele><time>2026-03-29T06:51:38.245Z</time></trkpt><trkpt lat="40.0085706" lon="9.5505374"><ele>128.0</ele><time>2026-03-29T06:51:39.245Z</time></trkpt><trkpt lat="40.0088351" lon="9.5505011"><ele>128.0</ele><time>2026-03-29T06:51:40.246Z</time></trkpt><trkpt lat="40.0089799" lon="9.5503932"><ele>128.0</ele><time>2026-03-29T06:51:41.246Z</time></trkpt><trkpt lat="40.0090958" lon="9.5502976"><ele>128.33333333333331</ele><time>2026-03-29T06:51:42.245Z</time></trkpt><trkpt lat="40.0091351" lon="9.5500843"><ele>128.66666666666666</ele><time>2026-03-29T06:51:43.245Z</time></trkpt><trkpt lat="40.0092133" lon="9.549905"><ele>129.0</ele><time>2026-03-29T06:51:44.245Z</time></trkpt><trkpt lat="40.0092905" lon="9.5497009"><ele>133.33333333333334</ele><time>2026-03-29T06:51:45.245Z</time></trkpt><trkpt lat="40.0093667" lon="9.549501"><ele>137.66666666666669</ele><time>2026-03-29T06:51:46.245Z</time></trkpt><trkpt lat="40.0094407" lon="9.549298"><ele>142.0</ele><time>2026-03-29T06:51:47.245Z</time></trkpt><trkpt lat="40.0094981" lon="9.5491387"><ele>142.0</ele><time>2026-03-29T06:51:48.246Z</time></trkpt><trkpt lat="40.0095662" lon="9.548958"><ele>142.0</ele><time>2026-03-29T06:51:49.246Z</time></trkpt><trkpt lat="40.0096413" lon="9.5487778"><ele>142.0</ele><time>2026-03-29T06:51:50.245Z</time></trkpt><trkpt lat="40.0097222" lon="9.5486009"><ele>145.33333333333334</ele><time>2026-03-29T06:51:51.246Z</time></trkpt><trkpt lat="40.0098018" lon="9.5484379"><ele>148.66666666666666</ele><time>2026-03-29T06:51:52.245Z</time></trkpt><trkpt lat="40.009876" lon="9.5482673"><ele>152.0</ele><time>2026-03-29T06:51:53.246Z</time></trkpt><trkpt lat="40.0099626" lon="9.5480954"><ele>148.33333333333331</ele><time>2026-03-29T06:51:54.245Z</time></trkpt><trkpt lat="40.0100463" lon="9.5479287"><ele>144.66666666666666</ele><time>2026-03-29T06:51:55.245Z</time></trkpt><trkpt lat="40.0101314" lon="9.5477644"><ele>141.0</ele><time>2026-03-29T06:51:56.245Z</time></trkpt><trkpt lat="40.0102276" lon="9.5475923"><ele>141.0</ele><time>2026-03-29T06:51:57.246Z</time></trkpt><trkpt lat="40.0103347" lon="9.5474183"><ele>141.0</ele><time>2026-03-29T06:51:58.246Z</time></trkpt><trkpt lat="40.0104485" lon="9.5472625"><ele>141.0</ele><time>2026-03-29T06:51:59.245Z</time></trkpt><trkpt lat="40.0105723" lon="9.5471076"><ele>141.0</ele><time>2026-03-29T06:52:00.245Z</time></trkpt><trkpt lat="40.0107066" lon="9.5469742"><ele>141.0</ele><time>2026-03-29T06:52:01.245Z</time></trkpt><trkpt lat="40.0108331" lon="9.5468424"><ele>141.0</ele><time>2026-03-29T06:52:02.245Z</time></trkpt><trkpt lat="40.0109622" lon="9.5467152"><ele>141.0</ele><time>2026-03-29T06:52:03.246Z</time></trkpt><trkpt lat="40.0110854" lon="9.5465847"><ele>141.0</ele><time>2026-03-29T06:52:04.245Z</time></trkpt><trkpt lat="40.011214" lon="9.5464708"><ele>141.0</ele><time>2026-03-29T06:52:05.245Z</time></trkpt><trkpt lat="40.0113568" lon="9.5463944"><ele>141.0</ele><time>2026-03-29T06:52:06.245Z</time></trkpt><trkpt lat="40.0115049" lon="9.5463655"><ele>141.0</ele><time>2026-03-29T06:52:07.245Z</time></trkpt><trkpt lat="40.0116424" lon="9.5463224"><ele>141.0</ele><time>2026-03-29T06:52:08.246Z</time></trkpt><trkpt lat="40.0117991" lon="9.5462668"><ele>144.33333333333334</ele><time>2026-03-29T06:52:09.246Z</time></trkpt><trkpt lat="40.0119557" lon="9.5461724"><ele>147.66666666666669</ele><time>2026-03-29T06:52:10.245Z</time></trkpt><trkpt lat="40.0121051" lon="9.5460585"><ele>151.0</ele><time>2026-03-29T06:52:11.245Z</time></trkpt><trkpt lat="40.0122481" lon="9.5459427"><ele>151.0</ele><time>2026-03-29T06:52:12.245Z</time></trkpt><trkpt lat="40.0123894" lon="9.5458379"><ele>151.0</ele><time>2026-03-29T06:52:13.245Z</time></trkpt><trkpt lat="40.0125415" lon="9.5457468"><ele>151.0</ele><time>2026-03-29T06:52:14.246Z</time></trkpt><trkpt lat="40.0126909" lon="9.5456597"><ele>149.33333333333334</ele><time>2026-03-29T06:52:15.245Z</time></trkpt><trkpt lat="40.0128463" lon="9.5455725"><ele>147.66666666666666</ele><time>2026-03-29T06:52:16.245Z</time></trkpt><trkpt lat="40.0130031" lon="9.5454795"><ele>146.0</ele><time>2026-03-29T06:52:17.245Z</time></trkpt><trkpt lat="40.0131516" lon="9.5453921"><ele>149.0</ele><time>2026-03-29T06:52:18.245Z</time></trkpt><trkpt lat="40.0132962" lon="9.5452974"><ele>152.0</ele><time>2026-03-29T06:52:19.245Z</time></trkpt><trkpt lat="40.0134446" lon="9.5452192"><ele>155.0</ele><time>2026-03-29T06:52:20.246Z</time></trkpt><trkpt lat="40.0135742" lon="9.5451281"><ele>155.0</ele><time>2026-03-29T06:52:21.246Z</time></trkpt><trkpt lat="40.0136904" lon="9.5450494"><ele>155.0</ele><time>2026-03-29T06:52:22.245Z</time></trkpt><trkpt lat="40.0138038" lon="9.5449634"><ele>155.0</ele><time>2026-03-29T06:52:23.245Z</time></trkpt><trkpt lat="40.0139168" lon="9.5448919"><ele>155.0</ele><time>2026-03-29T06:52:24.246Z</time></trkpt><trkpt lat="40.0140358" lon="9.5448321"><ele>154.0</ele><time>2026-03-29T06:52:25.245Z</time></trkpt><trkpt lat="40.0141684" lon="9.5447939"><ele>153.0</ele><time>2026-03-29T06:52:26.245Z</time></trkpt><trkpt lat="40.0142973" lon="9.5447813"><ele>152.0</ele><time>2026-03-29T06:52:27.245Z</time></trkpt><trkpt lat="40.0144134" lon="9.5447391"><ele>151.0</ele><time>2026-03-29T06:52:28.246Z</time></trkpt><trkpt lat="40.0144959" lon="9.5446575"><ele>151.0</ele><time>2026-03-29T06:52:29.245Z</time></trkpt><trkpt lat="40.0145445" lon="9.5445486"><ele>151.0</ele><time>2026-03-29T06:52:30.245Z</time></trkpt><trkpt lat="40.014568" lon="9.5444035"><ele>151.0</ele><time>2026-03-29T06:52:31.245Z</time></trkpt><trkpt lat="40.0145578" lon="9.5442699"><ele>151.0</ele><time>2026-03-29T06:52:32.245Z</time></trkpt><trkpt lat="40.0145562" lon="9.5441019"><ele>151.0</ele><time>2026-03-29T06:52:33.245Z</time></trkpt><trkpt lat="40.0145719" lon="9.5439369"><ele>154.75</ele><time>2026-03-29T06:52:34.246Z</time></trkpt><trkpt lat="40.0146036" lon="9.543766"><ele>158.5</ele><time>2026-03-29T06:52:35.245Z</time></trkpt><trkpt lat="40.0147114" lon="9.5436339"><ele>162.25</ele><time>2026-03-29T06:52:36.245Z</time></trkpt><trkpt lat="40.0148121" lon="9.5434917"><ele>166.0</ele><time>2026-03-29T06:52:37.246Z</time></trkpt><trkpt lat="40.0149187" lon="9.5433354"><ele>164.5</ele><time>2026-03-29T06:52:38.245Z</time></trkpt><trkpt lat="40.0150131" lon="9.5431787"><ele>163.0</ele><time>2026-03-29T06:52:39.245Z</time></trkpt><trkpt lat="40.0150909" lon="9.5430056"><ele>161.5</ele><time>2026-03-29T06:52:40.245Z</time></trkpt><trkpt lat="40.0151531" lon="9.5428387"><ele>160.0</ele><time>2026-03-29T06:52:41.246Z</time></trkpt><trkpt lat="40.0151887" lon="9.5426629"><ele>160.0</ele><time>2026-03-29T06:52:42.245Z</time></trkpt><trkpt lat="40.0152203" lon="9.5424772"><ele>160.0</ele><time>2026-03-29T06:52:43.245Z</time></trkpt><trkpt lat="40.0152419" lon="9.5423144"><ele>160.0</ele><time>2026-03-29T06:52:44.245Z</time></trkpt><trkpt lat="40.0152423" lon="9.5421583"><ele>160.0</ele><time>2026-03-29T06:52:45.246Z</time></trkpt><trkpt lat="40.0151686" lon="9.5419272"><ele>159.0</ele><time>2026-03-29T06:52:46.246Z</time></trkpt><trkpt lat="40.0151131" lon="9.541744"><ele>158.0</ele><time>2026-03-29T06:52:47.245Z</time></trkpt><trkpt lat="40.0150097" lon="9.5416043"><ele>157.0</ele><time>2026-03-29T06:52:48.245Z</time></trkpt><trkpt lat="40.0149365" lon="9.5414722"><ele>156.0</ele><time>2026-03-29T06:52:49.245Z</time></trkpt><trkpt lat="40.014868" lon="9.5413253"><ele>166.25</ele><time>2026-03-29T06:52:50.245Z</time></trkpt><trkpt lat="40.0148131" lon="9.5411628"><ele>176.5</ele><time>2026-03-29T06:52:51.245Z</time></trkpt><trkpt lat="40.0148152" lon="9.5409972"><ele>186.75</ele><time>2026-03-29T06:52:52.246Z</time></trkpt><trkpt lat="40.0148394" lon="9.54082"><ele>197.0</ele><time>2026-03-29T06:52:53.245Z</time></trkpt><trkpt lat="40.01489" lon="9.5406543"><ele>197.0</ele><time>2026-03-29T06:52:54.245Z</time></trkpt><trkpt lat="40.0149517" lon="9.5404977"><ele>197.0</ele><time>2026-03-29T06:52:55.245Z</time></trkpt><trkpt lat="40.0150149" lon="9.54033"><ele>197.0</ele><time>2026-03-29T06:52:56.246Z</time></trkpt><trkpt lat="40.0150917" lon="9.5401677"><ele>197.0</ele><time>2026-03-29T06:52:57.245Z</time></trkpt><trkpt lat="40.0151421" lon="9.5399892"><ele>188.0</ele><time>2026-03-29T06:52:58.245Z</time></trkpt><trkpt lat="40.015165" lon="9.5398092"><ele>179.0</ele><time>2026-03-29T06:52:59.245Z</time></trkpt><trkpt lat="40.0151719" lon="9.5396366"><ele>170.0</ele><time>2026-03-29T06:53:00.245Z</time></trkpt><trkpt lat="40.0152029" lon="9.5394753"><ele>161.0</ele><time>2026-03-29T06:53:01.245Z</time></trkpt><trkpt lat="40.0151452" lon="9.5393283"><ele>163.0</ele><time>2026-03-29T06:53:02.245Z</time></trkpt><trkpt lat="40.0150732" lon="9.5392049"><ele>165.0</ele><time>2026-03-29T06:53:03.245Z</time></trkpt><trkpt lat="40.0149788" lon="9.5390982"><ele>167.0</ele><time>2026-03-29T06:53:04.245Z</time></trkpt><trkpt lat="40.0148602" lon="9.5389803"><ele>169.0</ele><time>2026-03-29T06:53:05.246Z</time></trkpt><trkpt lat="40.0147278" lon="9.5389415"><ele>169.0</ele><time>2026-03-29T06:53:06.245Z</time></trkpt><trkpt lat="40.014596" lon="9.5388881"><ele>169.0</ele><time>2026-03-29T06:53:07.245Z</time></trkpt><trkpt lat="40.0144705" lon="9.5388398"><ele>169.0</ele><time>2026-03-29T06:53:08.245Z</time></trkpt><trkpt lat="40.0143505" lon="9.5388069"><ele>169.0</ele><time>2026-03-29T06:53:09.245Z</time></trkpt><trkpt lat="40.014228" lon="9.5387843"><ele>171.0</ele><time>2026-03-29T06:53:10.245Z</time></trkpt><trkpt lat="40.0141153" lon="9.5387536"><ele>173.0</ele><time>2026-03-29T06:53:11.245Z</time></trkpt><trkpt lat="40.0140026" lon="9.538729"><ele>175.0</ele><time>2026-03-29T06:53:12.245Z</time></trkpt><trkpt lat="40.0138815" lon="9.5387042"><ele>177.0</ele><time>2026-03-29T06:53:13.246Z</time></trkpt><trkpt lat="40.0137506" lon="9.5386717"><ele>173.25</ele><time>2026-03-29T06:53:14.245Z</time></trkpt><trkpt lat="40.0136206" lon="9.5386368"><ele>169.5</ele><time>2026-03-29T06:53:15.246Z</time></trkpt><trkpt lat="40.0134853" lon="9.5386029"><ele>165.75</ele><time>2026-03-29T06:53:16.245Z</time></trkpt><trkpt lat="40.0133485" lon="9.5385706"><ele>162.0</ele><time>2026-03-29T06:53:17.245Z</time></trkpt><trkpt lat="40.0132236" lon="9.5385103"><ele>162.0</ele><time>2026-03-29T06:53:18.245Z</time></trkpt><trkpt lat="40.0131291" lon="9.5384019"><ele>162.0</ele><time>2026-03-29T06:53:19.245Z</time></trkpt><trkpt lat="40.0130143" lon="9.5383072"><ele>162.0</ele><time>2026-03-29T06:53:20.245Z</time></trkpt><trkpt lat="40.0129584" lon="9.538143"><ele>162.0</ele><time>2026-03-29T06:53:21.245Z</time></trkpt><trkpt lat="40.0128885" lon="9.5379923"><ele>160.5</ele><time>2026-03-29T06:53:22.245Z</time></trkpt><trkpt lat="40.0128206" lon="9.5378424"><ele>159.0</ele><time>2026-03-29T06:53:23.245Z</time></trkpt><trkpt lat="40.0127352" lon="9.5377069"><ele>157.5</ele><time>2026-03-29T06:53:24.245Z</time></trkpt><trkpt lat="40.0126376" lon="9.5375708"><ele>156.0</ele><time>2026-03-29T06:53:25.245Z</time></trkpt><trkpt lat="40.0125268" lon="9.537458"><ele>160.25</ele><time>2026-03-29T06:53:26.246Z</time></trkpt><trkpt lat="40.0123961" lon="9.5373885"><ele>164.5</ele><time>2026-03-29T06:53:27.245Z</time></trkpt><trkpt lat="40.0122494" lon="9.5373228"><ele>168.75</ele><time>2026-03-29T06:53:28.245Z</time></trkpt><trkpt lat="40.0121049" lon="9.5372888"><ele>173.0</ele><time>2026-03-29T06:53:29.245Z</time></trkpt><trkpt lat="40.0119801" lon="9.537245"><ele>173.0</ele><time>2026-03-29T06:53:30.245Z</time></trkpt><trkpt lat="40.0118657" lon="9.5372085"><ele>173.0</ele><time>2026-03-29T06:53:31.245Z</time></trkpt><trkpt lat="40.0117683" lon="9.5371472"><ele>173.0</ele><time>2026-03-29T06:53:32.245Z</time></trkpt><trkpt lat="40.0116759" lon="9.537076"><ele>173.0</ele><time>2026-03-29T06:53:33.245Z</time></trkpt><trkpt lat="40.0116187" lon="9.5369866"><ele>173.0</ele><time>2026-03-29T06:53:34.245Z</time></trkpt><trkpt lat="40.0115888" lon="9.5368407"><ele>171.2</ele><time>2026-03-29T06:53:35.246Z</time></trkpt><trkpt lat="40.011627" lon="9.5366968"><ele>169.4</ele><time>2026-03-29T06:53:36.245Z</time></trkpt><trkpt lat="40.0116437" lon="9.5365665"><ele>167.6</ele><time>2026-03-29T06:53:37.245Z</time></trkpt><trkpt lat="40.0116703" lon="9.5364458"><ele>165.79999999999998</ele><time>2026-03-29T06:53:38.245Z</time></trkpt><trkpt lat="40.0117476" lon="9.5363546"><ele>164.0</ele><time>2026-03-29T06:53:39.245Z</time></trkpt><trkpt lat="40.0118305" lon="9.5363039"><ele>162.75</ele><time>2026-03-29T06:53:40.245Z</time></trkpt><trkpt lat="40.0119681" lon="9.536228"><ele>161.5</ele><time>2026-03-29T06:53:41.245Z</time></trkpt><trkpt lat="40.0121142" lon="9.5362154"><ele>160.25</ele><time>2026-03-29T06:53:42.245Z</time></trkpt><trkpt lat="40.012234" lon="9.5361786"><ele>159.0</ele><time>2026-03-29T06:53:43.245Z</time></trkpt><trkpt lat="40.0123458" lon="9.5361549"><ele>159.25</ele><time>2026-03-29T06:53:44.245Z</time></trkpt><trkpt lat="40.0124611" lon="9.5361976"><ele>159.5</ele><time>2026-03-29T06:53:45.245Z</time></trkpt><trkpt lat="40.0125708" lon="9.5362741"><ele>159.75</ele><time>2026-03-29T06:53:46.246Z</time></trkpt><trkpt lat="40.0126532" lon="9.5363786"><ele>160.0</ele><time>2026-03-29T06:53:47.246Z</time></trkpt><trkpt lat="40.0127865" lon="9.5364278"><ele>160.0</ele><time>2026-03-29T06:53:48.245Z</time></trkpt><trkpt lat="40.0129069" lon="9.5364698"><ele>160.0</ele><time>2026-03-29T06:53:49.245Z</time></trkpt><trkpt lat="40.0130076" lon="9.53646"><ele>160.0</ele><time>2026-03-29T06:53:50.246Z</time></trkpt><trkpt lat="40.0131142" lon="9.5363328"><ele>160.0</ele><time>2026-03-29T06:53:51.245Z</time></trkpt><trkpt lat="40.0132066" lon="9.536222"><ele>164.0</ele><time>2026-03-29T06:53:52.245Z</time></trkpt><trkpt lat="40.0133064" lon="9.5360818"><ele>168.0</ele><time>2026-03-29T06:53:53.245Z</time></trkpt><trkpt lat="40.0134211" lon="9.5359613"><ele>172.0</ele><time>2026-03-29T06:53:54.245Z</time></trkpt><trkpt lat="40.0135357" lon="9.53584"><ele>176.0</ele><time>2026-03-29T06:53:55.245Z</time></trkpt><trkpt lat="40.0136383" lon="9.5357379"><ele>176.0</ele><time>2026-03-29T06:53:56.245Z</time></trkpt><trkpt lat="40.0137488" lon="9.5356458"><ele>176.0</ele><time>2026-03-29T06:53:57.245Z</time></trkpt><trkpt lat="40.0138563" lon="9.5355748"><ele>176.0</ele><time>2026-03-29T06:53:58.245Z</time></trkpt><trkpt lat="40.0139647" lon="9.535518"><ele>176.0</ele><time>2026-03-29T06:53:59.245Z</time></trkpt><trkpt lat="40.0140555" lon="9.535482"><ele>176.0</ele><time>2026-03-29T06:54:00.245Z</time></trkpt><trkpt lat="40.0141412" lon="9.5354592"><ele>176.0</ele><time>2026-03-29T06:54:01.245Z</time></trkpt><trkpt lat="40.0142045" lon="9.5355015"><ele>176.0</ele><time>2026-03-29T06:54:02.245Z</time></trkpt><trkpt lat="40.0142447" lon="9.5355839"><ele>176.0</ele><time>2026-03-29T06:54:03.245Z</time></trkpt><trkpt lat="40.014241" lon="9.5356836"><ele>176.0</ele><time>2026-03-29T06:54:04.245Z</time></trkpt><trkpt lat="40.0142038" lon="9.5357857"><ele>176.0</ele><time>2026-03-29T06:54:05.245Z</time></trkpt><trkpt lat="40.0141487" lon="9.5359059"><ele>176.0</ele><time>2026-03-29T06:54:06.245Z</time></trkpt><trkpt lat="40.0141063" lon="9.5360342"><ele>176.0</ele><time>2026-03-29T06:54:07.245Z</time></trkpt><trkpt lat="40.0140909" lon="9.5361611"><ele>176.0</ele><time>2026-03-29T06:54:08.245Z</time></trkpt><trkpt lat="40.0141137" lon="9.5362815"><ele>176.0</ele><time>2026-03-29T06:54:09.245Z</time></trkpt><trkpt lat="40.0141825" lon="9.5363804"><ele>176.0</ele><time>2026-03-29T06:54:10.245Z</time></trkpt><trkpt lat="40.0142793" lon="9.5364468"><ele>174.25</ele><time>2026-03-29T06:54:11.245Z</time></trkpt><trkpt lat="40.0143933" lon="9.5364838"><ele>172.5</ele><time>2026-03-29T06:54:12.245Z</time></trkpt><trkpt lat="40.0145333" lon="9.5364724"><ele>170.75</ele><time>2026-03-29T06:54:13.245Z</time></trkpt><trkpt lat="40.0146701" lon="9.5364528"><ele>169.0</ele><time>2026-03-29T06:54:14.246Z</time></trkpt><trkpt lat="40.014805" lon="9.5364174"><ele>169.0</ele><time>2026-03-29T06:54:15.245Z</time></trkpt><trkpt lat="40.0149382" lon="9.5363859"><ele>169.0</ele><time>2026-03-29T06:54:16.245Z</time></trkpt><trkpt lat="40.0150751" lon="9.5364123"><ele>169.0</ele><time>2026-03-29T06:54:17.245Z</time></trkpt><trkpt lat="40.0152046" lon="9.5364593"><ele>169.0</ele><time>2026-03-29T06:54:18.245Z</time></trkpt><trkpt lat="40.015322" lon="9.5365266"><ele>170.75</ele><time>2026-03-29T06:54:19.245Z</time></trkpt><trkpt lat="40.0154457" lon="9.536614"><ele>172.5</ele><time>2026-03-29T06:54:20.245Z</time></trkpt><trkpt lat="40.0155646" lon="9.5367061"><ele>174.25</ele><time>2026-03-29T06:54:21.245Z</time></trkpt><trkpt lat="40.0156878" lon="9.5368118"><ele>176.0</ele><time>2026-03-29T06:54:22.245Z</time></trkpt><trkpt lat="40.0157918" lon="9.5369235"><ele>175.0</ele><time>2026-03-29T06:54:23.245Z</time></trkpt><trkpt lat="40.0159066" lon="9.5370196"><ele>174.0</ele><time>2026-03-29T06:54:24.246Z</time></trkpt><trkpt lat="40.016027" lon="9.5370903"><ele>173.0</ele><time>2026-03-29T06:54:25.246Z</time></trkpt><trkpt lat="40.0161463" lon="9.537137"><ele>172.0</ele><time>2026-03-29T06:54:26.246Z</time></trkpt><trkpt lat="40.0162611" lon="9.537168"><ele>172.0</ele><time>2026-03-29T06:54:27.245Z</time></trkpt><trkpt lat="40.0163825" lon="9.5371662"><ele>172.0</ele><time>2026-03-29T06:54:28.245Z</time></trkpt><trkpt lat="40.0164917" lon="9.5371427"><ele>172.0</ele><time>2026-03-29T06:54:29.245Z</time></trkpt><trkpt lat="40.0165954" lon="9.5370607"><ele>172.0</ele><time>2026-03-29T06:54:30.245Z</time></trkpt><trkpt lat="40.0167009" lon="9.536963"><ele>176.5</ele><time>2026-03-29T06:54:31.245Z</time></trkpt><trkpt lat="40.0167957" lon="9.5368362"><ele>181.0</ele><time>2026-03-29T06:54:32.245Z</time></trkpt><trkpt lat="40.0168994" lon="9.5366806"><ele>185.5</ele><time>2026-03-29T06:54:33.245Z</time></trkpt><trkpt lat="40.0170023" lon="9.5365436"><ele>190.0</ele><time>2026-03-29T06:54:34.246Z</time></trkpt><trkpt lat="40.0171266" lon="9.5364254"><ele>190.0</ele><time>2026-03-29T06:54:35.245Z</time></trkpt><trkpt lat="40.0172697" lon="9.5363277"><ele>190.0</ele><time>2026-03-29T06:54:36.245Z</time></trkpt><trkpt lat="40.0174084" lon="9.5362232"><ele>190.0</ele><time>2026-03-29T06:54:37.245Z</time></trkpt><trkpt lat="40.0175484" lon="9.5361325"><ele>189.25</ele><time>2026-03-29T06:54:38.245Z</time></trkpt><trkpt lat="40.0176883" lon="9.5360558"><ele>188.5</ele><time>2026-03-29T06:54:39.245Z</time></trkpt><trkpt lat="40.0178104" lon="9.5360221"><ele>187.75</ele><time>2026-03-29T06:54:40.246Z</time></trkpt><trkpt lat="40.0179508" lon="9.5359879"><ele>187.0</ele><time>2026-03-29T06:54:41.245Z</time></trkpt><trkpt lat="40.0180801" lon="9.5359466"><ele>187.0</ele><time>2026-03-29T06:54:42.245Z</time></trkpt><trkpt lat="40.0181936" lon="9.5358954"><ele>187.0</ele><time>2026-03-29T06:54:43.246Z</time></trkpt><trkpt lat="40.0183041" lon="9.5358278"><ele>187.0</ele><time>2026-03-29T06:54:44.245Z</time></trkpt><trkpt lat="40.0183467" lon="9.5356782"><ele>187.0</ele><time>2026-03-29T06:54:45.245Z</time></trkpt><trkpt lat="40.0184083" lon="9.535554"><ele>187.0</ele><time>2026-03-29T06:54:46.245Z</time></trkpt><trkpt lat="40.0184651" lon="9.5354322"><ele>187.0</ele><time>2026-03-29T06:54:47.245Z</time></trkpt><trkpt lat="40.0185642" lon="9.5353604"><ele>187.0</ele><time>2026-03-29T06:54:48.245Z</time></trkpt><trkpt lat="40.0186609" lon="9.5353161"><ele>187.0</ele><time>2026-03-29T06:54:49.245Z</time></trkpt><trkpt lat="40.0187731" lon="9.5353704"><ele>187.0</ele><time>2026-03-29T06:54:50.245Z</time></trkpt><trkpt lat="40.0188748" lon="9.535392"><ele>187.0</ele><time>2026-03-29T06:54:51.246Z</time></trkpt><trkpt lat="40.0189873" lon="9.5353772"><ele>187.0</ele><time>2026-03-29T06:54:52.245Z</time></trkpt><trkpt lat="40.0190963" lon="9.5353207"><ele>187.0</ele><time>2026-03-29T06:54:53.245Z</time></trkpt><trkpt lat="40.019198" lon="9.5352535"><ele>187.0</ele><time>2026-03-29T06:54:54.245Z</time></trkpt><trkpt lat="40.0193116" lon="9.5351673"><ele>182.0</ele><time>2026-03-29T06:54:55.246Z</time></trkpt><trkpt lat="40.0194343" lon="9.5350675"><ele>177.0</ele><time>2026-03-29T06:54:56.245Z</time></trkpt><trkpt lat="40.0195007" lon="9.5348562"><ele>172.0</ele><time>2026-03-29T06:54:57.246Z</time></trkpt><trkpt lat="40.0195913" lon="9.5347032"><ele>176.0</ele><time>2026-03-29T06:54:58.245Z</time></trkpt><trkpt lat="40.0196781" lon="9.5345511"><ele>180.0</ele><time>2026-03-29T06:54:59.245Z</time></trkpt><trkpt lat="40.0197591" lon="9.5344069"><ele>184.0</ele><time>2026-03-29T06:55:00.246Z</time></trkpt><trkpt lat="40.0198264" lon="9.5342605"><ele>188.0</ele><time>2026-03-29T06:55:01.245Z</time></trkpt><trkpt lat="40.0198878" lon="9.5341023"><ele>188.0</ele><time>2026-03-29T06:55:02.246Z</time></trkpt><trkpt lat="40.0199331" lon="9.5339434"><ele>188.0</ele><time>2026-03-29T06:55:03.246Z</time></trkpt><trkpt lat="40.0199844" lon="9.5337877"><ele>188.0</ele><time>2026-03-29T06:55:04.245Z</time></trkpt><trkpt lat="40.0200287" lon="9.5336254"><ele>188.0</ele><time>2026-03-29T06:55:05.246Z</time></trkpt><trkpt lat="40.0200638" lon="9.5334579"><ele>180.75</ele><time>2026-03-29T06:55:06.245Z</time></trkpt><trkpt lat="40.0200766" lon="9.5332912"><ele>173.5</ele><time>2026-03-29T06:55:07.245Z</time></trkpt><trkpt lat="40.0200867" lon="9.5331386"><ele>166.25</ele><time>2026-03-29T06:55:08.246Z</time></trkpt><trkpt lat="40.0200879" lon="9.5329691"><ele>159.0</ele><time>2026-03-29T06:55:09.245Z</time></trkpt><trkpt lat="40.0200911" lon="9.5328107"><ele>159.0</ele><time>2026-03-29T06:55:10.245Z</time></trkpt><trkpt lat="40.0200977" lon="9.5326539"><ele>159.0</ele><time>2026-03-29T06:55:11.245Z</time></trkpt><trkpt lat="40.0201024" lon="9.5324961"><ele>159.0</ele><time>2026-03-29T06:55:12.245Z</time></trkpt><trkpt lat="40.0201158" lon="9.5323366"><ele>159.0</ele><time>2026-03-29T06:55:13.245Z</time></trkpt><trkpt lat="40.0201237" lon="9.5321661"><ele>160.0</ele><time>2026-03-29T06:55:14.245Z</time></trkpt><trkpt lat="40.0201289" lon="9.5319884"><ele>161.0</ele><time>2026-03-29T06:55:15.245Z</time></trkpt><trkpt lat="40.0201351" lon="9.5318011"><ele>162.0</ele><time>2026-03-29T06:55:16.245Z</time></trkpt><trkpt lat="40.020143" lon="9.5316306"><ele>163.0</ele><time>2026-03-29T06:55:17.245Z</time></trkpt><trkpt lat="40.0201453" lon="9.5314584"><ele>163.0</ele><time>2026-03-29T06:55:18.245Z</time></trkpt><trkpt lat="40.020148" lon="9.5312911"><ele>163.0</ele><time>2026-03-29T06:55:19.246Z</time></trkpt><trkpt lat="40.0201497" lon="9.5311295"><ele>163.0</ele><time>2026-03-29T06:55:20.246Z</time></trkpt><trkpt lat="40.0201511" lon="9.5309747"><ele>163.0</ele><time>2026-03-29T06:55:21.245Z</time></trkpt><trkpt lat="40.0201655" lon="9.5308309"><ele>163.33333333333334</ele><time>2026-03-29T06:55:22.245Z</time></trkpt><trkpt lat="40.0201695" lon="9.5306876"><ele>163.66666666666669</ele><time>2026-03-29T06:55:23.245Z</time></trkpt><trkpt lat="40.0202078" lon="9.5306194"><ele>164.0</ele><time>2026-03-29T06:55:24.246Z</time></trkpt><trkpt lat="40.0202154" lon="9.530519"><ele>164.33333333333334</ele><time>2026-03-29T06:55:26.245Z</time></trkpt><trkpt lat="40.0202204" lon="9.5304334"><ele>164.66666666666666</ele><time>2026-03-29T06:55:29.245Z</time></trkpt><trkpt lat="40.0201765" lon="9.5303725"><ele>165.0</ele><time>2026-03-29T06:59:24.245Z</time></trkpt><trkpt lat="40.020123" lon="9.5302721"><ele>164.2</ele><time>2026-03-29T06:59:26.245Z</time></trkpt><trkpt lat="40.0200926" lon="9.5301443"><ele>163.4</ele><time>2026-03-29T06:59:27.245Z</time></trkpt><trkpt lat="40.0200534" lon="9.5300232"><ele>162.60000000000002</ele><time>2026-03-29T06:59:28.245Z</time></trkpt><trkpt lat="40.0200139" lon="9.5299184"><ele>161.8</ele><time>2026-03-29T06:59:29.245Z</time></trkpt><trkpt lat="40.0199617" lon="9.5298101"><ele>161.0</ele><time>2026-03-29T06:59:30.245Z</time></trkpt><trkpt lat="40.0198957" lon="9.5297051"><ele>163.5</ele><time>2026-03-29T06:59:31.245Z</time></trkpt><trkpt lat="40.019813" lon="9.529612"><ele>166.0</ele><time>2026-03-29T06:59:32.245Z</time></trkpt><trkpt lat="40.0196505" lon="9.5294914"><ele>168.5</ele><time>2026-03-29T06:59:34.245Z</time></trkpt><trkpt lat="40.0195373" lon="9.529454"><ele>171.0</ele><time>2026-03-29T06:59:35.246Z</time></trkpt><trkpt lat="40.019426" lon="9.529423"><ele>171.0</ele><time>2026-03-29T06:59:36.245Z</time></trkpt><trkpt lat="40.0193181" lon="9.529389"><ele>171.0</ele><time>2026-03-29T06:59:37.245Z</time></trkpt><trkpt lat="40.0192032" lon="9.5293781"><ele>171.0</ele><time>2026-03-29T06:59:38.245Z</time></trkpt><trkpt lat="40.0190846" lon="9.5294342"><ele>171.0</ele><time>2026-03-29T06:59:39.245Z</time></trkpt><trkpt lat="40.0189776" lon="9.5294785"><ele>172.33333333333334</ele><time>2026-03-29T06:59:40.245Z</time></trkpt><trkpt lat="40.0188771" lon="9.5295551"><ele>173.66666666666666</ele><time>2026-03-29T06:59:41.245Z</time></trkpt><trkpt lat="40.0188065" lon="9.5295818"><ele>175.0</ele><time>2026-03-29T06:59:42.245Z</time></trkpt><trkpt lat="40.0187193" lon="9.5296084"><ele>176.33333333333331</ele><time>2026-03-29T06:59:44.246Z</time></trkpt><trkpt lat="40.0186941" lon="9.5295192"><ele>177.66666666666666</ele><time>2026-03-29T06:59:46.245Z</time></trkpt><trkpt lat="40.0186768" lon="9.5293994"><ele>179.0</ele><time>2026-03-29T06:59:48.245Z</time></trkpt><trkpt lat="40.0186141" lon="9.5293674"><ele>179.0</ele><time>2026-03-29T06:59:49.246Z</time></trkpt><trkpt lat="40.0185339" lon="9.5293454"><ele>179.0</ele><time>2026-03-29T06:59:50.245Z</time></trkpt><trkpt lat="40.0184487" lon="9.5293046"><ele>179.0</ele><time>2026-03-29T06:59:51.245Z</time></trkpt><trkpt lat="40.0183611" lon="9.5292335"><ele>179.0</ele><time>2026-03-29T06:59:52.245Z</time></trkpt><trkpt lat="40.0182605" lon="9.529153"><ele>179.0</ele><time>2026-03-29T06:59:53.246Z</time></trkpt><trkpt lat="40.0181403" lon="9.5290745"><ele>181.39999999999998</ele><time>2026-03-29T06:59:54.246Z</time></trkpt><trkpt lat="40.0180334" lon="9.5289949"><ele>183.8</ele><time>2026-03-29T06:59:55.245Z</time></trkpt><trkpt lat="40.0179589" lon="9.5289329"><ele>186.2</ele><time>2026-03-29T06:59:56.245Z</time></trkpt><trkpt lat="40.0179132" lon="9.5288685"><ele>188.60000000000002</ele><time>2026-03-29T06:59:57.245Z</time></trkpt><trkpt lat="40.0178756" lon="9.52874"><ele>191.0</ele><time>2026-03-29T06:59:59.245Z</time></trkpt><trkpt lat="40.0179328" lon="9.5286657"><ele>191.0</ele><time>2026-03-29T07:00:00.245Z</time></trkpt><trkpt lat="40.0179573" lon="9.5285842"><ele>191.0</ele><time>2026-03-29T07:00:01.246Z</time></trkpt><trkpt lat="40.0179389" lon="9.5284926"><ele>191.0</ele><time>2026-03-29T07:00:02.245Z</time></trkpt><trkpt lat="40.0178907" lon="9.5283948"><ele>191.0</ele><time>2026-03-29T07:00:03.245Z</time></trkpt><trkpt lat="40.0178149" lon="9.5283157"><ele>191.0</ele><time>2026-03-29T07:00:04.245Z</time></trkpt><trkpt lat="40.0177282" lon="9.5282216"><ele>191.0</ele><time>2026-03-29T07:00:05.245Z</time></trkpt><trkpt lat="40.0176366" lon="9.5281503"><ele>191.0</ele><time>2026-03-29T07:00:06.246Z</time></trkpt><trkpt lat="40.017549" lon="9.5280941"><ele>191.0</ele><time>2026-03-29T07:00:07.245Z</time></trkpt><trkpt lat="40.0174375" lon="9.5280643"><ele>191.0</ele><time>2026-03-29T07:00:08.245Z</time></trkpt><trkpt lat="40.0173084" lon="9.5280438"><ele>191.0</ele><time>2026-03-29T07:00:09.245Z</time></trkpt><trkpt lat="40.017181" lon="9.5280136"><ele>193.60000000000002</ele><time>2026-03-29T07:00:10.245Z</time></trkpt><trkpt lat="40.0170692" lon="9.5279705"><ele>196.2</ele><time>2026-03-29T07:00:11.245Z</time></trkpt><trkpt lat="40.016969" lon="9.5279485"><ele>198.8</ele><time>2026-03-29T07:00:12.245Z</time></trkpt><trkpt lat="40.0168832" lon="9.5279384"><ele>201.39999999999998</ele><time>2026-03-29T07:00:13.245Z</time></trkpt><trkpt lat="40.0167939" lon="9.5278893"><ele>204.0</ele><time>2026-03-29T07:00:15.245Z</time></trkpt><trkpt lat="40.016796" lon="9.5277513"><ele>204.0</ele><time>2026-03-29T07:00:17.245Z</time></trkpt><trkpt lat="40.0167477" lon="9.5275334"><ele>204.0</ele><time>2026-03-29T07:00:19.245Z</time></trkpt><trkpt lat="40.0166939" lon="9.52742"><ele>204.0</ele><time>2026-03-29T07:00:20.245Z</time></trkpt><trkpt lat="40.0166221" lon="9.527309"><ele>204.0</ele><time>2026-03-29T07:00:21.245Z</time></trkpt><trkpt lat="40.0165402" lon="9.527176"><ele>209.75</ele><time>2026-03-29T07:00:22.245Z</time></trkpt><trkpt lat="40.0164292" lon="9.5270369"><ele>215.5</ele><time>2026-03-29T07:00:23.245Z</time></trkpt><trkpt lat="40.0163314" lon="9.5269221"><ele>221.25</ele><time>2026-03-29T07:00:24.245Z</time></trkpt><trkpt lat="40.0162602" lon="9.5267788"><ele>227.0</ele><time>2026-03-29T07:00:25.245Z</time></trkpt><trkpt lat="40.0161967" lon="9.5266165"><ele>227.0</ele><time>2026-03-29T07:00:26.246Z</time></trkpt><trkpt lat="40.0161307" lon="9.5264486"><ele>227.0</ele><time>2026-03-29T07:00:27.245Z</time></trkpt><trkpt lat="40.0160573" lon="9.5263083"><ele>227.0</ele><time>2026-03-29T07:00:28.246Z</time></trkpt><trkpt lat="40.0159806" lon="9.5261889"><ele>227.0</ele><time>2026-03-29T07:00:29.245Z</time></trkpt><trkpt lat="40.0158886" lon="9.5260873"><ele>234.5</ele><time>2026-03-29T07:00:30.245Z</time></trkpt><trkpt lat="40.0157965" lon="9.5260008"><ele>242.0</ele><time>2026-03-29T07:00:31.246Z</time></trkpt><trkpt lat="40.0157006" lon="9.5259083"><ele>249.5</ele><time>2026-03-29T07:00:32.245Z</time></trkpt><trkpt lat="40.0156347" lon="9.5257952"><ele>257.0</ele><time>2026-03-29T07:00:33.245Z</time></trkpt><trkpt lat="40.0155185" lon="9.5257183"><ele>257.0</ele><time>2026-03-29T07:00:35.246Z</time></trkpt><trkpt lat="40.0155962" lon="9.5256232"><ele>257.0</ele><time>2026-03-29T07:00:37.245Z</time></trkpt><trkpt lat="40.0156737" lon="9.5255463"><ele>257.0</ele><time>2026-03-29T07:00:39.245Z</time></trkpt><trkpt lat="40.0157813" lon="9.525506"><ele>257.0</ele><time>2026-03-29T07:00:40.245Z</time></trkpt><trkpt lat="40.0158687" lon="9.5254348"><ele>257.0</ele><time>2026-03-29T07:00:41.245Z</time></trkpt><trkpt lat="40.0159644" lon="9.5253444"><ele>253.25</ele><time>2026-03-29T07:00:42.245Z</time></trkpt><trkpt lat="40.0161309" lon="9.5251605"><ele>249.5</ele><time>2026-03-29T07:00:44.246Z</time></trkpt><trkpt lat="40.0162089" lon="9.5250457"><ele>245.75</ele><time>2026-03-29T07:00:45.245Z</time></trkpt><trkpt lat="40.0162908" lon="9.5249559"><ele>242.0</ele><time>2026-03-29T07:00:46.246Z</time></trkpt><trkpt lat="40.0163836" lon="9.5248743"><ele>242.0</ele><time>2026-03-29T07:00:47.245Z</time></trkpt><trkpt lat="40.0164644" lon="9.5247912"><ele>242.0</ele><time>2026-03-29T07:00:48.246Z</time></trkpt><trkpt lat="40.016505" lon="9.5246171"><ele>242.0</ele><time>2026-03-29T07:00:50.246Z</time></trkpt><trkpt lat="40.0165287" lon="9.5245175"><ele>242.0</ele><time>2026-03-29T07:00:51.245Z</time></trkpt><trkpt lat="40.0165107" lon="9.5243941"><ele>242.0</ele><time>2026-03-29T07:00:55.245Z</time></trkpt><trkpt lat="40.0164448" lon="9.5244578"><ele>247.0</ele><time>2026-03-29T07:00:57.246Z</time></trkpt><trkpt lat="40.0163118" lon="9.5244908"><ele>252.0</ele><time>2026-03-29T07:00:59.246Z</time></trkpt><trkpt lat="40.0162224" lon="9.5245047"><ele>257.0</ele><time>2026-03-29T07:01:00.245Z</time></trkpt><trkpt lat="40.0161405" lon="9.5245077"><ele>262.0</ele><time>2026-03-29T07:01:01.246Z</time></trkpt><trkpt lat="40.0160535" lon="9.5245172"><ele>267.0</ele><time>2026-03-29T07:01:02.245Z</time></trkpt><trkpt lat="40.0159665" lon="9.5245187"><ele>267.0</ele><time>2026-03-29T07:01:03.245Z</time></trkpt><trkpt lat="40.0158797" lon="9.5245045"><ele>267.0</ele><time>2026-03-29T07:01:04.245Z</time></trkpt><trkpt lat="40.0157921" lon="9.524473"><ele>267.0</ele><time>2026-03-29T07:01:05.246Z</time></trkpt><trkpt lat="40.0157018" lon="9.5244397"><ele>267.0</ele><time>2026-03-29T07:01:06.245Z</time></trkpt><trkpt lat="40.0156123" lon="9.5244095"><ele>267.0</ele><time>2026-03-29T07:01:07.246Z</time></trkpt><trkpt lat="40.0155328" lon="9.5243732"><ele>267.0</ele><time>2026-03-29T07:01:08.245Z</time></trkpt><trkpt lat="40.0154579" lon="9.5243407"><ele>268.6666666666667</ele><time>2026-03-29T07:01:09.246Z</time></trkpt><trkpt lat="40.0153788" lon="9.5243176"><ele>270.3333333333333</ele><time>2026-03-29T07:01:10.245Z</time></trkpt><trkpt lat="40.0152839" lon="9.524326"><ele>272.0</ele><time>2026-03-29T07:01:11.246Z</time></trkpt><trkpt lat="40.0152152" lon="9.5243381"><ele>273.66666666666663</ele><time>2026-03-29T07:01:12.245Z</time></trkpt><trkpt lat="40.0151411" lon="9.5243462"><ele>275.3333333333333</ele><time>2026-03-29T07:01:13.246Z</time></trkpt><trkpt lat="40.0150752" lon="9.5243496"><ele>277.0</ele><time>2026-03-29T07:01:14.246Z</time></trkpt><trkpt lat="40.0150103" lon="9.524377"><ele>282.6</ele><time>2026-03-29T07:01:17.245Z</time></trkpt><trkpt lat="40.014899" lon="9.5244552"><ele>288.2</ele><time>2026-03-29T07:01:20.245Z</time></trkpt><trkpt lat="40.014789" lon="9.5245108"><ele>293.8</ele><time>2026-03-29T07:01:22.245Z</time></trkpt><trkpt lat="40.0147241" lon="9.5245262"><ele>299.4</ele><time>2026-03-29T07:01:24.245Z</time></trkpt><trkpt lat="40.0147859" lon="9.5245044"><ele>305.0</ele><time>2026-03-29T07:01:29.245Z</time></trkpt><trkpt lat="40.0148973" lon="9.5244592"><ele>305.0</ele><time>2026-03-29T07:01:31.245Z</time></trkpt><trkpt lat="40.0149826" lon="9.5244161"><ele>305.0</ele><time>2026-03-29T07:01:33.246Z</time></trkpt><trkpt lat="40.0150193" lon="9.5243012"><ele>305.0</ele><time>2026-03-29T07:01:36.245Z</time></trkpt><trkpt lat="40.015068" lon="9.5241879"><ele>305.0</ele><time>2026-03-29T07:01:38.245Z</time></trkpt><trkpt lat="40.0151329" lon="9.5240711"><ele>305.0</ele><time>2026-03-29T07:01:40.245Z</time></trkpt><trkpt lat="40.0151883" lon="9.5239738"><ele>304.8</ele><time>2026-03-29T07:01:42.245Z</time></trkpt><trkpt lat="40.0152619" lon="9.5239152"><ele>304.6</ele><time>2026-03-29T07:01:44.246Z</time></trkpt><trkpt lat="40.015381" lon="9.5238401"><ele>304.4</ele><time>2026-03-29T07:01:46.246Z</time></trkpt><trkpt lat="40.0154464" lon="9.5238036"><ele>304.2</ele><time>2026-03-29T07:01:47.245Z</time></trkpt><trkpt lat="40.0155079" lon="9.523778"><ele>304.0</ele><time>2026-03-29T07:01:48.245Z</time></trkpt><trkpt lat="40.0156039" lon="9.5237059"><ele>304.0</ele><time>2026-03-29T07:01:50.245Z</time></trkpt><trkpt lat="40.0157076" lon="9.5236242"><ele>304.0</ele><time>2026-03-29T07:01:52.245Z</time></trkpt><trkpt lat="40.015798" lon="9.5235444"><ele>304.0</ele><time>2026-03-29T07:01:54.246Z</time></trkpt><trkpt lat="40.0158595" lon="9.5234746"><ele>304.0</ele><time>2026-03-29T07:01:56.245Z</time></trkpt><trkpt lat="40.0159005" lon="9.5233792"><ele>304.0</ele><time>2026-03-29T07:01:58.245Z</time></trkpt><trkpt lat="40.0159427" lon="9.5232791"><ele>302.5</ele><time>2026-03-29T07:02:00.245Z</time></trkpt><trkpt lat="40.0159263" lon="9.5231883"><ele>301.0</ele><time>2026-03-29T07:02:05.245Z</time></trkpt><trkpt lat="40.0158355" lon="9.523173"><ele>299.5</ele><time>2026-03-29T07:02:08.246Z</time></trkpt><trkpt lat="40.0158561" lon="9.5230446"><ele>298.0</ele><time>2026-03-29T07:02:26.245Z</time></trkpt><trkpt lat="40.015865" lon="9.522932"><ele>296.5</ele><time>2026-03-29T07:02:29.245Z</time></trkpt><trkpt lat="40.0157998" lon="9.5228701"><ele>295.0</ele><time>2026-03-29T07:02:33.245Z</time></trkpt><trkpt lat="40.0157133" lon="9.5228651"><ele>302.16666666666663</ele><time>2026-03-29T07:02:35.245Z</time></trkpt><trkpt lat="40.0156395" lon="9.5228427"><ele>309.3333333333333</ele><time>2026-03-29T07:02:37.246Z</time></trkpt><trkpt lat="40.0155569" lon="9.5227813"><ele>316.5</ele><time>2026-03-29T07:02:39.245Z</time></trkpt><trkpt lat="40.0155026" lon="9.5227349"><ele>323.6666666666667</ele><time>2026-03-29T07:02:40.245Z</time></trkpt><trkpt lat="40.0154421" lon="9.5227011"><ele>330.83333333333337</ele><time>2026-03-29T07:02:41.246Z</time></trkpt><trkpt lat="40.0153555" lon="9.522613"><ele>338.0</ele><time>2026-03-29T07:02:43.245Z</time></trkpt><trkpt lat="40.0153412" lon="9.5225284"><ele>338.0</ele><time>2026-03-29T07:02:48.245Z</time></trkpt><trkpt lat="40.0154067" lon="9.522495"><ele>338.0</ele><time>2026-03-29T07:02:49.245Z</time></trkpt><trkpt lat="40.015495" lon="9.5224126"><ele>338.0</ele><time>2026-03-29T07:02:51.245Z</time></trkpt><trkpt lat="40.0155529" lon="9.5223721"><ele>338.0</ele><time>2026-03-29T07:02:52.245Z</time></trkpt><trkpt lat="40.0156299" lon="9.5223002"><ele>338.0</ele><time>2026-03-29T07:02:54.246Z</time></trkpt><trkpt lat="40.0156521" lon="9.5222084"><ele>338.0</ele><time>2026-03-29T07:02:56.245Z</time></trkpt><trkpt lat="40.0156367" lon="9.5220985"><ele>338.0</ele><time>2026-03-29T07:02:58.246Z</time></trkpt><trkpt lat="40.0155481" lon="9.5220643"><ele>338.0</ele><time>2026-03-29T07:03:01.183Z</time></trkpt><trkpt lat="40.0154473" lon="9.5220561"><ele>338.0</ele><time>2026-03-29T07:03:03.246Z</time></trkpt><trkpt lat="40.015384" lon="9.5220564"><ele>338.0</ele><time>2026-03-29T07:03:04.245Z</time></trkpt><trkpt lat="40.0152879" lon="9.5220657"><ele>338.0</ele><time>2026-03-29T07:03:06.245Z</time></trkpt><trkpt lat="40.0152189" lon="9.5220718"><ele>338.0</ele><time>2026-03-29T07:03:08.245Z</time></trkpt><trkpt lat="40.0151296" lon="9.5220482"><ele>342.1666666666667</ele><time>2026-03-29T07:03:11.245Z</time></trkpt><trkpt lat="40.0150485" lon="9.5220573"><ele>346.33333333333337</ele><time>2026-03-29T07:03:20.246Z</time></trkpt><trkpt lat="40.0150559" lon="9.5219667"><ele>350.5</ele><time>2026-03-29T07:03:25.245Z</time></trkpt><trkpt lat="40.0151077" lon="9.5219103"><ele>354.6666666666667</ele><time>2026-03-29T07:03:27.246Z</time></trkpt><trkpt lat="40.0151848" lon="9.5218319"><ele>358.8333333333333</ele><time>2026-03-29T07:03:29.245Z</time></trkpt><trkpt lat="40.0152548" lon="9.5217244"><ele>363.0</ele><time>2026-03-29T07:03:31.246Z</time></trkpt><trkpt lat="40.0152554" lon="9.5216315"><ele>363.0</ele><time>2026-03-29T07:03:34.246Z</time></trkpt><trkpt lat="40.0151823" lon="9.5215637"><ele>363.0</ele><time>2026-03-29T07:03:37.246Z</time></trkpt><trkpt lat="40.0150908" lon="9.5215737"><ele>363.0</ele><time>2026-03-29T07:03:40.246Z</time></trkpt><trkpt lat="40.0150188" lon="9.521554"><ele>363.0</ele><time>2026-03-29T07:03:43.245Z</time></trkpt><trkpt lat="40.0149449" lon="9.5215126"><ele>363.0</ele><time>2026-03-29T07:04:54.245Z</time></trkpt><trkpt lat="40.0148841" lon="9.521444"><ele>363.0</ele><time>2026-03-29T07:04:56.245Z</time></trkpt><trkpt lat="40.0148108" lon="9.5214021"><ele>369.0</ele><time>2026-03-29T07:04:58.246Z</time></trkpt><trkpt lat="40.0147566" lon="9.5213502"><ele>375.0</ele><time>2026-03-29T07:05:00.245Z</time></trkpt><trkpt lat="40.0146903" lon="9.521243"><ele>381.0</ele><time>2026-03-29T07:05:02.246Z</time></trkpt><trkpt lat="40.014612" lon="9.5211444"><ele>387.0</ele><time>2026-03-29T07:05:04.245Z</time></trkpt><trkpt lat="40.0145474" lon="9.5210422"><ele>393.0</ele><time>2026-03-29T07:05:06.246Z</time></trkpt><trkpt lat="40.0145109" lon="9.5208985"><ele>394.2</ele><time>2026-03-29T07:05:08.245Z</time></trkpt><trkpt lat="40.0144915" lon="9.5208187"><ele>395.4</ele><time>2026-03-29T07:05:09.245Z</time></trkpt><trkpt lat="40.0144281" lon="9.520676"><ele>396.59999999999997</ele><time>2026-03-29T07:05:11.246Z</time></trkpt><trkpt lat="40.0143866" lon="9.5205567"><ele>397.79999999999995</ele><time>2026-03-29T07:05:13.245Z</time></trkpt><trkpt lat="40.0143513" lon="9.5204313"><ele>399.0</ele><time>2026-03-29T07:05:15.245Z</time></trkpt><trkpt lat="40.0143336" lon="9.5203333"><ele>396.5</ele><time>2026-03-29T07:05:17.245Z</time></trkpt><trkpt lat="40.0143092" lon="9.5202401"><ele>394.0</ele><time>2026-03-29T07:05:19.245Z</time></trkpt><trkpt lat="40.0142265" lon="9.5200947"><ele>391.5</ele><time>2026-03-29T07:05:21.245Z</time></trkpt><trkpt lat="40.0141862" lon="9.5200285"><ele>389.0</ele><time>2026-03-29T07:05:22.245Z</time></trkpt><trkpt lat="40.014128" lon="9.5199416"><ele>386.5</ele><time>2026-03-29T07:05:24.246Z</time></trkpt><trkpt lat="40.0140701" lon="9.5198765"><ele>384.0</ele><time>2026-03-29T07:05:26.245Z</time></trkpt><trkpt lat="40.0140289" lon="9.5198079"><ele>388.2</ele><time>2026-03-29T07:05:27.245Z</time></trkpt><trkpt lat="40.0139822" lon="9.5197421"><ele>392.4</ele><time>2026-03-29T07:05:28.245Z</time></trkpt><trkpt lat="40.0139477" lon="9.5196645"><ele>396.6</ele><time>2026-03-29T07:05:29.245Z</time></trkpt><trkpt lat="40.0138703" lon="9.51954"><ele>400.8</ele><time>2026-03-29T07:05:31.245Z</time></trkpt><trkpt lat="40.0138117" lon="9.5194129"><ele>405.0</ele><time>2026-03-29T07:05:33.245Z</time></trkpt><trkpt lat="40.0137762" lon="9.5192916"><ele>404.99999999999994</ele><time>2026-03-29T07:05:35.245Z</time></trkpt><trkpt lat="40.0137308" lon="9.5191936"><ele>405.0</ele><time>2026-03-29T07:05:37.245Z</time></trkpt><trkpt lat="40.0136876" lon="9.5191219"><ele>405.0</ele><time>2026-03-29T07:05:41.246Z</time></trkpt><trkpt lat="40.013663" lon="9.5190452"><ele>405.0</ele><time>2026-03-29T07:05:46.245Z</time></trkpt><trkpt lat="40.0136448" lon="9.518949"><ele>405.0</ele><time>2026-03-29T07:05:52.245Z</time></trkpt><trkpt lat="40.0136777" lon="9.5188707"><ele>404.99999999999994</ele><time>2026-03-29T07:05:55.246Z</time></trkpt><trkpt lat="40.0137299" lon="9.5187913"><ele>405.0</ele><time>2026-03-29T07:06:02.246Z</time></trkpt><trkpt lat="40.0137562" lon="9.5186802"><ele>399.8333333333333</ele><time>2026-03-29T07:06:06.245Z</time></trkpt><trkpt lat="40.013741" lon="9.5185692"><ele>394.6666666666667</ele><time>2026-03-29T07:06:09.245Z</time></trkpt><trkpt lat="40.0136786" lon="9.5185314"><ele>389.5</ele><time>2026-03-29T07:06:11.245Z</time></trkpt><trkpt lat="40.0135894" lon="9.5184856"><ele>384.33333333333337</ele><time>2026-03-29T07:06:13.245Z</time></trkpt><trkpt lat="40.0135019" lon="9.5184517"><ele>379.1666666666667</ele><time>2026-03-29T07:06:15.245Z</time></trkpt><trkpt lat="40.013451" lon="9.5183864"><ele>374.0</ele><time>2026-03-29T07:06:17.246Z</time></trkpt><trkpt lat="40.0133973" lon="9.5183286"><ele>374.0</ele><time>2026-03-29T07:06:19.245Z</time></trkpt><trkpt lat="40.0133527" lon="9.5182579"><ele>374.0</ele><time>2026-03-29T07:06:20.245Z</time></trkpt><trkpt lat="40.0133109" lon="9.5181721"><ele>374.0</ele><time>2026-03-29T07:06:22.245Z</time></trkpt><trkpt lat="40.013288" lon="9.5180799"><ele>374.0</ele><time>2026-03-29T07:06:24.245Z</time></trkpt><trkpt lat="40.0132265" lon="9.5180119"><ele>374.0</ele><time>2026-03-29T07:06:26.246Z</time></trkpt><trkpt lat="40.0131411" lon="9.5180054"><ele>374.0</ele><time>2026-03-29T07:06:28.246Z</time></trkpt><trkpt lat="40.0130538" lon="9.517994"><ele>372.0</ele><time>2026-03-29T07:06:30.245Z</time></trkpt><trkpt lat="40.0129546" lon="9.5180154"><ele>370.0</ele><time>2026-03-29T07:06:32.246Z</time></trkpt><trkpt lat="40.0128846" lon="9.5180347"><ele>368.0</ele><time>2026-03-29T07:06:33.245Z</time></trkpt><trkpt lat="40.0127769" lon="9.5180041"><ele>366.0</ele><time>2026-03-29T07:06:35.245Z</time></trkpt><trkpt lat="40.012687" lon="9.5180056"><ele>364.0</ele><time>2026-03-29T07:06:38.245Z</time></trkpt><trkpt lat="40.0126405" lon="9.5179012"><ele>364.0</ele><time>2026-03-29T07:06:41.246Z</time></trkpt><trkpt lat="40.0125883" lon="9.5178336"><ele>364.0</ele><time>2026-03-29T07:06:43.245Z</time></trkpt><trkpt lat="40.0125107" lon="9.517767"><ele>364.0</ele><time>2026-03-29T07:06:45.246Z</time></trkpt><trkpt lat="40.0124679" lon="9.5177053"><ele>364.0</ele><time>2026-03-29T07:06:46.245Z</time></trkpt><trkpt lat="40.0123827" lon="9.517622"><ele>364.0</ele><time>2026-03-29T07:06:48.245Z</time></trkpt><trkpt lat="40.012289" lon="9.5175431"><ele>364.0</ele><time>2026-03-29T07:06:50.245Z</time></trkpt><trkpt lat="40.0122142" lon="9.5174668"><ele>367.8333333333333</ele><time>2026-03-29T07:06:52.246Z</time></trkpt><trkpt lat="40.0121156" lon="9.5174108"><ele>371.66666666666663</ele><time>2026-03-29T07:06:54.245Z</time></trkpt><trkpt lat="40.0120232" lon="9.5173594"><ele>375.5</ele><time>2026-03-29T07:06:56.245Z</time></trkpt><trkpt lat="40.0119604" lon="9.5173848"><ele>379.3333333333333</ele><time>2026-03-29T07:06:57.245Z</time></trkpt><trkpt lat="40.011894" lon="9.5174108"><ele>383.1666666666667</ele><time>2026-03-29T07:06:58.246Z</time></trkpt><trkpt lat="40.0118159" lon="9.5173897"><ele>387.0</ele><time>2026-03-29T07:07:02.245Z</time></trkpt><trkpt lat="40.0117369" lon="9.5173915"><ele>387.0</ele><time>2026-03-29T07:08:45.245Z</time></trkpt><trkpt lat="40.0116686" lon="9.5173684"><ele>387.0</ele><time>2026-03-29T07:08:50.245Z</time></trkpt><trkpt lat="40.0116462" lon="9.5172775"><ele>387.0</ele><time>2026-03-29T07:08:56.245Z</time></trkpt><trkpt lat="40.0116691" lon="9.5171852"><ele>387.0</ele><time>2026-03-29T07:09:17.245Z</time></trkpt><trkpt lat="40.0116634" lon="9.5170964"><ele>387.0</ele><time>2026-03-29T07:09:20.245Z</time></trkpt><trkpt lat="40.0116786" lon="9.516994"><ele>387.0</ele><time>2026-03-29T07:09:24.245Z</time></trkpt><trkpt lat="40.0116708" lon="9.5168935"><ele>387.0</ele><time>2026-03-29T07:09:26.245Z</time></trkpt><trkpt lat="40.0117174" lon="9.5168123"><ele>387.75</ele><time>2026-03-29T07:09:28.245Z</time></trkpt><trkpt lat="40.011788" lon="9.5166799"><ele>388.5</ele><time>2026-03-29T07:09:30.245Z</time></trkpt><trkpt lat="40.0118665" lon="9.5165253"><ele>389.25</ele><time>2026-03-29T07:09:33.245Z</time></trkpt><trkpt lat="40.0119316" lon="9.5164172"><ele>390.0</ele><time>2026-03-29T07:09:36.264Z</time></trkpt><trkpt lat="40.0119835" lon="9.5163084"><ele>392.1666666666667</ele><time>2026-03-29T07:09:38.245Z</time></trkpt><trkpt lat="40.012016" lon="9.5162043"><ele>394.33333333333337</ele><time>2026-03-29T07:09:40.245Z</time></trkpt><trkpt lat="40.0119777" lon="9.5161327"><ele>396.5</ele><time>2026-03-29T07:10:12.245Z</time></trkpt><trkpt lat="40.0119492" lon="9.5160565"><ele>398.6666666666667</ele><time>2026-03-29T07:10:39.245Z</time></trkpt><trkpt lat="40.0119758" lon="9.5159789"><ele>400.83333333333337</ele><time>2026-03-29T07:10:58.245Z</time></trkpt><trkpt lat="40.0118641" lon="9.5159279"><ele>403.0</ele><time>2026-03-29T07:11:01.245Z</time></trkpt><trkpt lat="40.0118321" lon="9.5158361"><ele>403.0</ele><time>2026-03-29T07:11:15.245Z</time></trkpt><trkpt lat="40.0117731" lon="9.515801"><ele>403.0</ele><time>2026-03-29T07:12:07.245Z</time></trkpt><trkpt lat="40.0117084" lon="9.5158243"><ele>403.0</ele><time>2026-03-29T07:12:34.245Z</time></trkpt><trkpt lat="40.0116307" lon="9.5157367"><ele>403.0</ele><time>2026-03-29T07:13:49.242Z</time></trkpt><trkpt lat="40.0115551" lon="9.5157015"><ele>403.0</ele><time>2026-03-29T07:13:59.242Z</time></trkpt><trkpt lat="40.0114938" lon="9.5156719"><ele>403.0</ele><time>2026-03-29T07:14:02.242Z</time></trkpt><trkpt lat="40.0114312" lon="9.5156431"><ele>403.0</ele><time>2026-03-29T07:14:06.242Z</time></trkpt><trkpt lat="40.0113539" lon="9.5156088"><ele>406.0</ele><time>2026-03-29T07:14:20.242Z</time></trkpt><trkpt lat="40.011282" lon="9.5155905"><ele>409.0</ele><time>2026-03-29T07:14:23.242Z</time></trkpt><trkpt lat="40.0112144" lon="9.5155644"><ele>412.0</ele><time>2026-03-29T07:14:25.242Z</time></trkpt><trkpt lat="40.0111459" lon="9.5155591"><ele>415.0</ele><time>2026-03-29T07:14:27.242Z</time></trkpt><trkpt lat="40.0110609" lon="9.5155364"><ele>418.0</ele><time>2026-03-29T07:14:29.242Z</time></trkpt><trkpt lat="40.0109915" lon="9.5155026"><ele>421.0</ele><time>2026-03-29T07:14:31.242Z</time></trkpt><trkpt lat="40.0109331" lon="9.5154647"><ele>424.0</ele><time>2026-03-29T07:14:44.243Z</time></trkpt><trkpt lat="40.0108698" lon="9.5154581"><ele>427.00000000000006</ele><time>2026-03-29T07:14:47.242Z</time></trkpt><trkpt lat="40.0107838" lon="9.5155057"><ele>430.0</ele><time>2026-03-29T07:14:49.242Z</time></trkpt><trkpt lat="40.010705" lon="9.5155358"><ele>433.0</ele><time>2026-03-29T07:14:52.242Z</time></trkpt><trkpt lat="40.0106978" lon="9.515448"><ele>436.0</ele><time>2026-03-29T07:15:01.242Z</time></trkpt><trkpt lat="40.0106626" lon="9.515345"><ele>439.00000000000006</ele><time>2026-03-29T07:15:04.242Z</time></trkpt><trkpt lat="40.0106579" lon="9.5152459"><ele>442.0</ele><time>2026-03-29T07:15:07.242Z</time></trkpt><trkpt lat="40.0106825" lon="9.5151614"><ele>442.00000000000006</ele><time>2026-03-29T07:15:09.242Z</time></trkpt><trkpt lat="40.0107018" lon="9.5150629"><ele>442.0</ele><time>2026-03-29T07:15:11.242Z</time></trkpt><trkpt lat="40.0107063" lon="9.5149426"><ele>442.0</ele><time>2026-03-29T07:15:13.242Z</time></trkpt><trkpt lat="40.0106922" lon="9.5148461"><ele>442.0</ele><time>2026-03-29T07:15:15.242Z</time></trkpt><trkpt lat="40.0106487" lon="9.5147523"><ele>442.00000000000006</ele><time>2026-03-29T07:15:17.243Z</time></trkpt><trkpt lat="40.0105839" lon="9.5147219"><ele>442.0</ele><time>2026-03-29T07:15:19.243Z</time></trkpt><trkpt lat="40.0105164" lon="9.5146651"><ele>442.00000000000006</ele><time>2026-03-29T07:15:22.243Z</time></trkpt><trkpt lat="40.0104528" lon="9.5146411"><ele>442.0</ele><time>2026-03-29T07:15:25.242Z</time></trkpt><trkpt lat="40.0103931" lon="9.5146034"><ele>442.0</ele><time>2026-03-29T07:15:28.242Z</time></trkpt><trkpt lat="40.0103317" lon="9.5145347"><ele>442.0</ele><time>2026-03-29T07:15:31.242Z</time></trkpt><trkpt lat="40.0102744" lon="9.5144382"><ele>442.00000000000006</ele><time>2026-03-29T07:15:34.242Z</time></trkpt><trkpt lat="40.0102234" lon="9.5143697"><ele>442.0</ele><time>2026-03-29T07:15:37.242Z</time></trkpt><trkpt lat="40.0101776" lon="9.5142749"><ele>438.6666666666667</ele><time>2026-03-29T07:15:39.243Z</time></trkpt><trkpt lat="40.0101226" lon="9.5142064"><ele>435.33333333333337</ele><time>2026-03-29T07:15:41.242Z</time></trkpt><trkpt lat="40.0100719" lon="9.5141185"><ele>432.0</ele><time>2026-03-29T07:15:43.242Z</time></trkpt><trkpt lat="40.010026" lon="9.5140515"><ele>428.66666666666663</ele><time>2026-03-29T07:15:45.242Z</time></trkpt><trkpt lat="40.0099447" lon="9.5139642"><ele>425.3333333333333</ele><time>2026-03-29T07:15:48.242Z</time></trkpt><trkpt lat="40.0098679" lon="9.5139278"><ele>422.0</ele><time>2026-03-29T07:15:50.242Z</time></trkpt><trkpt lat="40.0097995" lon="9.5138693"><ele>425.57142857142856</ele><time>2026-03-29T07:15:52.243Z</time></trkpt><trkpt lat="40.0097564" lon="9.5137893"><ele>429.14285714285717</ele><time>2026-03-29T07:15:54.242Z</time></trkpt><trkpt lat="40.0097262" lon="9.5136945"><ele>432.71428571428567</ele><time>2026-03-29T07:15:56.242Z</time></trkpt><trkpt lat="40.0097472" lon="9.5135797"><ele>436.2857142857143</ele><time>2026-03-29T07:15:57.242Z</time></trkpt><trkpt lat="40.0097003" lon="9.513524"><ele>439.85714285714283</ele><time>2026-03-29T07:15:59.242Z</time></trkpt><trkpt lat="40.0096311" lon="9.5134896"><ele>443.4285714285714</ele><time>2026-03-29T07:16:04.242Z</time></trkpt><trkpt lat="40.0095977" lon="9.513413"><ele>447.0</ele><time>2026-03-29T07:16:06.242Z</time></trkpt><trkpt lat="40.0095971" lon="9.5133225"><ele>447.0</ele><time>2026-03-29T07:16:08.242Z</time></trkpt><trkpt lat="40.0096192" lon="9.5132265"><ele>447.0</ele><time>2026-03-29T07:16:10.243Z</time></trkpt><trkpt lat="40.0096245" lon="9.5131301"><ele>447.0</ele><time>2026-03-29T07:16:12.243Z</time></trkpt><trkpt lat="40.0096642" lon="9.512995"><ele>447.0</ele><time>2026-03-29T07:16:15.242Z</time></trkpt><trkpt lat="40.0096619" lon="9.5128875"><ele>447.0</ele><time>2026-03-29T07:16:18.242Z</time></trkpt><trkpt lat="40.0096235" lon="9.5127965"><ele>447.0</ele><time>2026-03-29T07:16:21.242Z</time></trkpt><trkpt lat="40.0095946" lon="9.5126945"><ele>443.3333333333333</ele><time>2026-03-29T07:16:24.243Z</time></trkpt><trkpt lat="40.0095405" lon="9.5126234"><ele>439.66666666666663</ele><time>2026-03-29T07:16:27.243Z</time></trkpt><trkpt lat="40.009487" lon="9.5125533"><ele>436.0</ele><time>2026-03-29T07:16:30.243Z</time></trkpt><trkpt lat="40.0094419" lon="9.5124915"><ele>432.3333333333333</ele><time>2026-03-29T07:16:32.242Z</time></trkpt><trkpt lat="40.0093788" lon="9.5124095"><ele>428.66666666666663</ele><time>2026-03-29T07:16:35.242Z</time></trkpt><trkpt lat="40.0093556" lon="9.5122995"><ele>425.0</ele><time>2026-03-29T07:16:38.242Z</time></trkpt><trkpt lat="40.0094129" lon="9.5122162"><ele>424.99999999999994</ele><time>2026-03-29T07:16:40.242Z</time></trkpt><trkpt lat="40.0093627" lon="9.5121544"><ele>425.0</ele><time>2026-03-29T07:16:48.243Z</time></trkpt><trkpt lat="40.0092962" lon="9.512113"><ele>425.0</ele><time>2026-03-29T07:16:54.242Z</time></trkpt><trkpt lat="40.0092169" lon="9.5121114"><ele>425.0</ele><time>2026-03-29T07:16:57.242Z</time></trkpt><trkpt lat="40.0091202" lon="9.5121982"><ele>424.99999999999994</ele><time>2026-03-29T07:17:00.242Z</time></trkpt><trkpt lat="40.0090587" lon="9.5122189"><ele>425.0</ele><time>2026-03-29T07:17:02.242Z</time></trkpt><trkpt lat="40.0089683" lon="9.5121633"><ele>425.8333333333333</ele><time>2026-03-29T07:17:05.242Z</time></trkpt><trkpt lat="40.0089014" lon="9.512204"><ele>426.66666666666663</ele><time>2026-03-29T07:17:10.242Z</time></trkpt><trkpt lat="40.0088227" lon="9.5122672"><ele>427.5</ele><time>2026-03-29T07:17:11.242Z</time></trkpt><trkpt lat="40.0087667" lon="9.5121465"><ele>428.33333333333337</ele><time>2026-03-29T07:17:13.242Z</time></trkpt><trkpt lat="40.0086955" lon="9.5120976"><ele>429.1666666666667</ele><time>2026-03-29T07:17:17.242Z</time></trkpt><trkpt lat="40.0086502" lon="9.5120126"><ele>430.0</ele><time>2026-03-29T07:17:19.242Z</time></trkpt><trkpt lat="40.0085812" lon="9.5119342"><ele>430.00000000000006</ele><time>2026-03-29T07:17:21.242Z</time></trkpt><trkpt lat="40.008494" lon="9.5119375"><ele>430.0</ele><time>2026-03-29T07:17:23.243Z</time></trkpt><trkpt lat="40.0084421" lon="9.511994"><ele>430.0</ele><time>2026-03-29T07:17:25.242Z</time></trkpt><trkpt lat="40.0083942" lon="9.5120651"><ele>430.0</ele><time>2026-03-29T07:17:27.243Z</time></trkpt><trkpt lat="40.0083536" lon="9.5121395"><ele>430.00000000000006</ele><time>2026-03-29T07:17:29.242Z</time></trkpt><trkpt lat="40.0082881" lon="9.5122155"><ele>430.0</ele><time>2026-03-29T07:17:31.243Z</time></trkpt><trkpt lat="40.0082325" lon="9.5122672"><ele>431.83333333333337</ele><time>2026-03-29T07:17:34.242Z</time></trkpt><trkpt lat="40.0081645" lon="9.5123157"><ele>433.6666666666667</ele><time>2026-03-29T07:17:36.242Z</time></trkpt><trkpt lat="40.0080992" lon="9.5123395"><ele>435.5</ele><time>2026-03-29T07:17:40.242Z</time></trkpt><trkpt lat="40.0080361" lon="9.5123698"><ele>437.33333333333337</ele><time>2026-03-29T07:18:21.239Z</time></trkpt><trkpt lat="40.0079413" lon="9.5123645"><ele>439.1666666666667</ele><time>2026-03-29T07:18:24.239Z</time></trkpt><trkpt lat="40.0078958" lon="9.5122908"><ele>441.0</ele><time>2026-03-29T07:18:29.24Z</time></trkpt><trkpt lat="40.0079154" lon="9.5121997"><ele>441.0</ele><time>2026-03-29T07:18:34.239Z</time></trkpt><trkpt lat="40.007932" lon="9.5121026"><ele>441.0</ele><time>2026-03-29T07:18:37.239Z</time></trkpt><trkpt lat="40.0079527" lon="9.51199"><ele>441.0</ele><time>2026-03-29T07:18:40.239Z</time></trkpt><trkpt lat="40.0079329" lon="9.511882"><ele>441.0</ele><time>2026-03-29T07:18:43.239Z</time></trkpt><trkpt lat="40.0078933" lon="9.5117763"><ele>441.0</ele><time>2026-03-29T07:18:46.239Z</time></trkpt><trkpt lat="40.007899" lon="9.5116926"><ele>441.0</ele><time>2026-03-29T07:18:48.239Z</time></trkpt><trkpt lat="40.007911" lon="9.5116105"><ele>440.0</ele><time>2026-03-29T07:18:50.239Z</time></trkpt><trkpt lat="40.0079145" lon="9.5115264"><ele>439.0</ele><time>2026-03-29T07:18:52.239Z</time></trkpt><trkpt lat="40.0078908" lon="9.511407"><ele>438.0</ele><time>2026-03-29T07:18:55.239Z</time></trkpt><trkpt lat="40.0078726" lon="9.511323"><ele>437.0</ele><time>2026-03-29T07:18:57.24Z</time></trkpt><trkpt lat="40.0078775" lon="9.5112184"><ele>436.0</ele><time>2026-03-29T07:19:00.239Z</time></trkpt><trkpt lat="40.0078912" lon="9.5111167"><ele>435.0</ele><time>2026-03-29T07:19:03.239Z</time></trkpt><trkpt lat="40.0078999" lon="9.5110313"><ele>432.5714285714286</ele><time>2026-03-29T07:19:05.239Z</time></trkpt><trkpt lat="40.0078702" lon="9.5109566"><ele>430.14285714285717</ele><time>2026-03-29T07:19:07.24Z</time></trkpt><trkpt lat="40.0078127" lon="9.5109076"><ele>427.7142857142857</ele><time>2026-03-29T07:19:09.239Z</time></trkpt><trkpt lat="40.0077709" lon="9.5108191"><ele>425.28571428571433</ele><time>2026-03-29T07:19:12.239Z</time></trkpt><trkpt lat="40.0077201" lon="9.5107668"><ele>422.85714285714283</ele><time>2026-03-29T07:19:24.239Z</time></trkpt><trkpt lat="40.0076694" lon="9.5107072"><ele>420.42857142857144</ele><time>2026-03-29T07:20:03.239Z</time></trkpt><trkpt lat="40.0076315" lon="9.5106346"><ele>418.0</ele><time>2026-03-29T07:20:46.239Z</time></trkpt><trkpt lat="40.0075943" lon="9.5105674"><ele>418.0</ele><time>2026-03-29T07:21:52.239Z</time></trkpt><trkpt lat="40.0075155" lon="9.5105227"><ele>418.0</ele><time>2026-03-29T07:21:55.239Z</time></trkpt><trkpt lat="40.0074333" lon="9.5104778"><ele>418.0</ele><time>2026-03-29T07:21:58.239Z</time></trkpt><trkpt lat="40.0073708" lon="9.5104428"><ele>418.0</ele><time>2026-03-29T07:22:00.239Z</time></trkpt><trkpt lat="40.0073391" lon="9.5103707"><ele>418.0</ele><time>2026-03-29T07:22:02.239Z</time></trkpt><trkpt lat="40.0073327" lon="9.5102684"><ele>418.0</ele><time>2026-03-29T07:22:05.239Z</time></trkpt><trkpt lat="40.007318" lon="9.5101869"><ele>418.0</ele><time>2026-03-29T07:22:20.239Z</time></trkpt><trkpt lat="40.007396" lon="9.5102611"><ele>416.00000000000006</ele><time>2026-03-29T07:22:37.24Z</time></trkpt><trkpt lat="40.0074818" lon="9.5102916"><ele>414.0</ele><time>2026-03-29T07:22:41.24Z</time></trkpt><trkpt lat="40.0075476" lon="9.5103285"><ele>412.0</ele><time>2026-03-29T07:22:50.254Z</time></trkpt><trkpt lat="40.0076249" lon="9.5103352"><ele>410.0</ele><time>2026-03-29T07:23:04.24Z</time></trkpt><trkpt lat="40.0075653" lon="9.5102824"><ele>408.00000000000006</ele><time>2026-03-29T07:23:25.239Z</time></trkpt><trkpt lat="40.0075484" lon="9.5101708"><ele>406.0</ele><time>2026-03-29T07:23:27.239Z</time></trkpt><trkpt lat="40.007552" lon="9.5100827"><ele>406.0</ele><time>2026-03-29T07:23:29.239Z</time></trkpt><trkpt lat="40.0075294" lon="9.5099555"><ele>406.0</ele><time>2026-03-29T07:23:31.24Z</time></trkpt><trkpt lat="40.0074499" lon="9.5099207"><ele>406.0</ele><time>2026-03-29T07:23:33.239Z</time></trkpt><trkpt lat="40.0073759" lon="9.5098059"><ele>406.0</ele><time>2026-03-29T07:23:35.239Z</time></trkpt><trkpt lat="40.0073191" lon="9.5096848"><ele>406.0</ele><time>2026-03-29T07:23:37.239Z</time></trkpt><trkpt lat="40.0072553" lon="9.5095677"><ele>402.83333333333337</ele><time>2026-03-29T07:23:39.239Z</time></trkpt><trkpt lat="40.0071575" lon="9.509462"><ele>399.6666666666667</ele><time>2026-03-29T07:23:41.239Z</time></trkpt><trkpt lat="40.0070989" lon="9.5093977"><ele>396.5</ele><time>2026-03-29T07:23:43.239Z</time></trkpt><trkpt lat="40.0071009" lon="9.5092871"><ele>393.33333333333337</ele><time>2026-03-29T07:23:46.239Z</time></trkpt><trkpt lat="40.007104" lon="9.5091953"><ele>390.1666666666667</ele><time>2026-03-29T07:23:54.24Z</time></trkpt><trkpt lat="40.0070839" lon="9.5090986"><ele>387.0</ele><time>2026-03-29T07:23:58.239Z</time></trkpt><trkpt lat="40.0070989" lon="9.5090157"><ele>387.0</ele><time>2026-03-29T07:24:01.239Z</time></trkpt><trkpt lat="40.0071554" lon="9.5089575"><ele>387.0</ele><time>2026-03-29T07:24:03.24Z</time></trkpt><trkpt lat="40.0072075" lon="9.5089021"><ele>387.0</ele><time>2026-03-29T07:24:04.24Z</time></trkpt><trkpt lat="40.0072574" lon="9.5088051"><ele>387.0</ele><time>2026-03-29T07:27:11.239Z</time></trkpt><trkpt lat="40.0071946" lon="9.5088791"><ele>387.0</ele><time>2026-03-29T07:27:15.24Z</time></trkpt><trkpt lat="40.0070032" lon="9.5086781"><ele>388.1666666666667</ele><time>2026-03-29T07:27:22.239Z</time></trkpt><trkpt lat="40.0069752" lon="9.5085769"><ele>389.33333333333337</ele><time>2026-03-29T07:27:23.239Z</time></trkpt><trkpt lat="40.0069335" lon="9.5084445"><ele>390.5</ele><time>2026-03-29T07:27:24.239Z</time></trkpt><trkpt lat="40.0068965" lon="9.5083353"><ele>391.6666666666667</ele><time>2026-03-29T07:27:25.239Z</time></trkpt><trkpt lat="40.0068486" lon="9.5082529"><ele>392.83333333333337</ele><time>2026-03-29T07:27:26.24Z</time></trkpt><trkpt lat="40.006799" lon="9.5081701"><ele>394.0</ele><time>2026-03-29T07:27:27.239Z</time></trkpt><trkpt lat="40.0067111" lon="9.5079163"><ele>394.2</ele><time>2026-03-29T07:27:29.24Z</time></trkpt><trkpt lat="40.006671" lon="9.5077901"><ele>394.4</ele><time>2026-03-29T07:27:30.24Z</time></trkpt><trkpt lat="40.0066388" lon="9.5076491"><ele>394.6</ele><time>2026-03-29T07:27:31.239Z</time></trkpt><trkpt lat="40.0066131" lon="9.5075241"><ele>394.8</ele><time>2026-03-29T07:27:32.24Z</time></trkpt><trkpt lat="40.0065868" lon="9.5074438"><ele>395.0</ele><time>2026-03-29T07:27:33.24Z</time></trkpt><trkpt lat="40.0065346" lon="9.5075086"><ele>398.8</ele><time>2026-03-29T07:27:35.24Z</time></trkpt><trkpt lat="40.0065192" lon="9.5076914"><ele>402.6</ele><time>2026-03-29T07:27:37.239Z</time></trkpt><trkpt lat="40.0065202" lon="9.5077997"><ele>406.4</ele><time>2026-03-29T07:27:38.239Z</time></trkpt><trkpt lat="40.0065425" lon="9.5079304"><ele>410.2</ele><time>2026-03-29T07:27:39.24Z</time></trkpt><trkpt lat="40.0065396" lon="9.5080717"><ele>414.0</ele><time>2026-03-29T07:27:40.239Z</time></trkpt><trkpt lat="40.0065427" lon="9.5082209"><ele>415.2</ele><time>2026-03-29T07:27:41.239Z</time></trkpt><trkpt lat="40.0065528" lon="9.5083487"><ele>416.4</ele><time>2026-03-29T07:27:42.239Z</time></trkpt><trkpt lat="40.0065664" lon="9.5084547"><ele>417.6</ele><time>2026-03-29T07:27:43.239Z</time></trkpt><trkpt lat="40.0065622" lon="9.508545"><ele>418.8</ele><time>2026-03-29T07:27:44.239Z</time></trkpt><trkpt lat="40.0065508" lon="9.5086332"><ele>420.0</ele><time>2026-03-29T07:27:45.239Z</time></trkpt><trkpt lat="40.0064728" lon="9.508828"><ele>416.0</ele><time>2026-03-29T07:27:48.229Z</time></trkpt><trkpt lat="40.006399" lon="9.5088459"><ele>412.0</ele><time>2026-03-29T07:27:49.3Z</time></trkpt><trkpt lat="40.0063037" lon="9.5088442"><ele>408.0</ele><time>2026-03-29T07:27:50.246Z</time></trkpt><trkpt lat="40.0061713" lon="9.5088477"><ele>404.0</ele><time>2026-03-29T07:27:51.257Z</time></trkpt><trkpt lat="40.0059684" lon="9.5088951"><ele>403.99999999999994</ele><time>2026-03-29T07:27:53.36Z</time></trkpt><trkpt lat="40.00588" lon="9.5089302"><ele>404.0</ele><time>2026-03-29T07:27:54.36Z</time></trkpt><trkpt lat="40.0058046" lon="9.508971"><ele>404.0</ele><time>2026-03-29T07:27:55.36Z</time></trkpt><trkpt lat="40.0057441" lon="9.5090121"><ele>404.0</ele><time>2026-03-29T07:27:56.36Z</time></trkpt><trkpt lat="40.0056665" lon="9.5090357"><ele>403.99999999999994</ele><time>2026-03-29T07:27:58.361Z</time></trkpt><trkpt lat="40.0056221" lon="9.5090983"><ele>404.0</ele><time>2026-03-29T07:28:51.266Z</time></trkpt><trkpt lat="40.0057098" lon="9.5090459"><ele>404.0</ele><time>2026-03-29T07:29:11.36Z</time></trkpt><trkpt lat="40.0058432" lon="9.5089447"><ele>404.0</ele><time>2026-03-29T07:29:13.36Z</time></trkpt><trkpt lat="40.0059267" lon="9.5088808"><ele>404.0</ele><time>2026-03-29T07:29:14.36Z</time></trkpt><trkpt lat="40.006015" lon="9.5088366"><ele>404.0</ele><time>2026-03-29T07:29:15.36Z</time></trkpt><trkpt lat="40.006105" lon="9.508775"><ele>404.0</ele><time>2026-03-29T07:29:16.361Z</time></trkpt><trkpt lat="40.0062065" lon="9.5087438"><ele>403.99999999999994</ele><time>2026-03-29T07:29:17.279Z</time></trkpt><trkpt lat="40.0063139" lon="9.5087232"><ele>404.0</ele><time>2026-03-29T07:29:18.283Z</time></trkpt><trkpt lat="40.0064153" lon="9.5087031"><ele>404.0</ele><time>2026-03-29T07:29:19.36Z</time></trkpt><trkpt lat="40.0064715" lon="9.5087453"><ele>404.0</ele><time>2026-03-29T07:29:20.267Z</time></trkpt><trkpt lat="40.0065394" lon="9.5087304"><ele>403.99999999999994</ele><time>2026-03-29T07:29:21.275Z</time></trkpt><trkpt lat="40.0065987" lon="9.5086878"><ele>404.0</ele><time>2026-03-29T07:29:22.278Z</time></trkpt><trkpt lat="40.0066583" lon="9.5085582"><ele>402.0</ele><time>2026-03-29T07:29:24.275Z</time></trkpt><trkpt lat="40.0066638" lon="9.5084603"><ele>400.0</ele><time>2026-03-29T07:29:25.28Z</time></trkpt><trkpt lat="40.0066495" lon="9.50833"><ele>398.0</ele><time>2026-03-29T07:29:26.276Z</time></trkpt><trkpt lat="40.0066321" lon="9.5081802"><ele>396.0</ele><time>2026-03-29T07:29:27.28Z</time></trkpt><trkpt lat="40.0066261" lon="9.5080242"><ele>394.0</ele><time>2026-03-29T07:29:28.275Z</time></trkpt><trkpt lat="40.006619" lon="9.5078863"><ele>394.2</ele><time>2026-03-29T07:29:29.277Z</time></trkpt><trkpt lat="40.0066044" lon="9.5077309"><ele>394.4</ele><time>2026-03-29T07:29:30.28Z</time></trkpt><trkpt lat="40.0065917" lon="9.5076018"><ele>394.6</ele><time>2026-03-29T07:29:31.286Z</time></trkpt><trkpt lat="40.0065842" lon="9.5074792"><ele>394.8</ele><time>2026-03-29T07:29:32.276Z</time></trkpt><trkpt lat="40.006656" lon="9.5075549"><ele>395.0</ele><time>2026-03-29T07:29:36.274Z</time></trkpt><trkpt lat="40.0067303" lon="9.5078555"><ele>394.75</ele><time>2026-03-29T07:29:38.27Z</time></trkpt><trkpt lat="40.0067766" lon="9.5080172"><ele>394.5</ele><time>2026-03-29T07:29:39.284Z</time></trkpt><trkpt lat="40.0068366" lon="9.5081639"><ele>394.25</ele><time>2026-03-29T07:29:40.275Z</time></trkpt><trkpt lat="40.0068992" lon="9.5083141"><ele>394.0</ele><time>2026-03-29T07:29:41.361Z</time></trkpt><trkpt lat="40.0069498" lon="9.5084506"><ele>394.00000000000006</ele><time>2026-03-29T07:29:42.36Z</time></trkpt><trkpt lat="40.006997" lon="9.5085826"><ele>394.0</ele><time>2026-03-29T07:29:43.36Z</time></trkpt><trkpt lat="40.0069839" lon="9.508677"><ele>394.0</ele><time>2026-03-29T07:29:44.274Z</time></trkpt><trkpt lat="40.0069911" lon="9.508775"><ele>394.0</ele><time>2026-03-29T07:29:45.278Z</time></trkpt><trkpt lat="40.006998" lon="9.5088599"><ele>394.00000000000006</ele><time>2026-03-29T07:29:46.274Z</time></trkpt><trkpt lat="40.0070751" lon="9.5088961"><ele>394.0</ele><time>2026-03-29T07:29:48.268Z</time></trkpt><trkpt lat="40.0071814" lon="9.5088485"><ele>394.0</ele><time>2026-03-29T07:29:50.274Z</time></trkpt><trkpt lat="40.0072639" lon="9.5087284"><ele>394.0</ele><time>2026-03-29T07:29:52.278Z</time></trkpt><trkpt lat="40.0072428" lon="9.5085613"><ele>394.0</ele><time>2026-03-29T07:29:54.36Z</time></trkpt><trkpt lat="40.0072372" lon="9.5084661"><ele>394.0</ele><time>2026-03-29T07:29:55.36Z</time></trkpt><trkpt lat="40.0072362" lon="9.5083705"><ele>394.0</ele><time>2026-03-29T07:29:56.36Z</time></trkpt><trkpt lat="40.0072376" lon="9.5082651"><ele>394.00000000000006</ele><time>2026-03-29T07:29:57.361Z</time></trkpt><trkpt lat="40.0072396" lon="9.5081687"><ele>394.0</ele><time>2026-03-29T07:29:58.361Z</time></trkpt><trkpt lat="40.0072448" lon="9.5080466"><ele>394.0</ele><time>2026-03-29T07:29:59.361Z</time></trkpt><trkpt lat="40.0072309" lon="9.507938"><ele>394.0</ele><time>2026-03-29T07:30:00.282Z</time></trkpt><trkpt lat="40.0072235" lon="9.5078422"><ele>394.00000000000006</ele><time>2026-03-29T07:30:01.36Z</time></trkpt><trkpt lat="40.0072789" lon="9.5077189"><ele>394.0</ele><time>2026-03-29T07:30:03.338Z</time></trkpt><trkpt lat="40.0073172" lon="9.5076435"><ele>394.1666666666667</ele><time>2026-03-29T07:30:04.281Z</time></trkpt><trkpt lat="40.0073412" lon="9.5075444"><ele>394.33333333333337</ele><time>2026-03-29T07:30:05.275Z</time></trkpt><trkpt lat="40.0073803" lon="9.5074293"><ele>394.5</ele><time>2026-03-29T07:30:06.28Z</time></trkpt><trkpt lat="40.0074211" lon="9.5073391"><ele>394.66666666666663</ele><time>2026-03-29T07:30:07.36Z</time></trkpt><trkpt lat="40.0074348" lon="9.5072455"><ele>394.8333333333333</ele><time>2026-03-29T07:30:08.36Z</time></trkpt><trkpt lat="40.0074686" lon="9.5071618"><ele>395.0</ele><time>2026-03-29T07:30:09.36Z</time></trkpt><trkpt lat="40.0075169" lon="9.5070638"><ele>395.8333333333333</ele><time>2026-03-29T07:30:10.36Z</time></trkpt><trkpt lat="40.0075551" lon="9.5069925"><ele>396.66666666666663</ele><time>2026-03-29T07:30:11.36Z</time></trkpt><trkpt lat="40.0076142" lon="9.5068879"><ele>397.5</ele><time>2026-03-29T07:30:13.36Z</time></trkpt><trkpt lat="40.0076573" lon="9.5068119"><ele>398.33333333333337</ele><time>2026-03-29T07:30:15.273Z</time></trkpt><trkpt lat="40.0076662" lon="9.50693"><ele>399.1666666666667</ele><time>2026-03-29T07:30:20.268Z</time></trkpt><trkpt lat="40.0076278" lon="9.5070223"><ele>400.0</ele><time>2026-03-29T07:30:22.272Z</time></trkpt><trkpt lat="40.0076088" lon="9.5071024"><ele>400.0</ele><time>2026-03-29T07:30:24.36Z</time></trkpt><trkpt lat="40.0076258" lon="9.5071937"><ele>400.0</ele><time>2026-03-29T07:30:27.361Z</time></trkpt><trkpt lat="40.0076958" lon="9.5071167"><ele>400.0</ele><time>2026-03-29T07:30:30.36Z</time></trkpt><trkpt lat="40.0077639" lon="9.5070109"><ele>400.0</ele><time>2026-03-29T07:30:32.276Z</time></trkpt><trkpt lat="40.0078469" lon="9.5069031"><ele>400.0</ele><time>2026-03-29T07:30:34.281Z</time></trkpt><trkpt lat="40.0079085" lon="9.5068412"><ele>400.2</ele><time>2026-03-29T07:30:35.285Z</time></trkpt><trkpt lat="40.00798" lon="9.5067692"><ele>400.4</ele><time>2026-03-29T07:30:36.279Z</time></trkpt><trkpt lat="40.008059" lon="9.5067068"><ele>400.6</ele><time>2026-03-29T07:30:37.361Z</time></trkpt><trkpt lat="40.0081404" lon="9.5066377"><ele>400.8</ele><time>2026-03-29T07:30:38.361Z</time></trkpt><trkpt lat="40.0082077" lon="9.506546"><ele>401.0</ele><time>2026-03-29T07:30:39.36Z</time></trkpt><trkpt lat="40.008298" lon="9.5064705"><ele>404.4</ele><time>2026-03-29T07:30:40.36Z</time></trkpt><trkpt lat="40.008385" lon="9.5063932"><ele>407.8</ele><time>2026-03-29T07:30:41.36Z</time></trkpt><trkpt lat="40.0084642" lon="9.5062944"><ele>411.2</ele><time>2026-03-29T07:30:42.361Z</time></trkpt><trkpt lat="40.0085353" lon="9.5062083"><ele>414.59999999999997</ele><time>2026-03-29T07:30:43.36Z</time></trkpt><trkpt lat="40.0085965" lon="9.5061187"><ele>418.0</ele><time>2026-03-29T07:30:44.36Z</time></trkpt><trkpt lat="40.0086554" lon="9.5059998"><ele>418.0</ele><time>2026-03-29T07:30:45.36Z</time></trkpt><trkpt lat="40.0087142" lon="9.5058971"><ele>418.0</ele><time>2026-03-29T07:30:46.361Z</time></trkpt><trkpt lat="40.0087704" lon="9.5057896"><ele>418.0</ele><time>2026-03-29T07:30:47.36Z</time></trkpt><trkpt lat="40.0088134" lon="9.5056914"><ele>418.0</ele><time>2026-03-29T07:30:48.276Z</time></trkpt><trkpt lat="40.0088647" lon="9.5055913"><ele>418.0</ele><time>2026-03-29T07:30:49.274Z</time></trkpt><trkpt lat="40.0089133" lon="9.5055066"><ele>418.0</ele><time>2026-03-29T07:30:50.36Z</time></trkpt><trkpt lat="40.0089677" lon="9.5054335"><ele>418.0</ele><time>2026-03-29T07:30:51.355Z</time></trkpt><trkpt lat="40.0090032" lon="9.5053581"><ele>418.0</ele><time>2026-03-29T07:30:52.285Z</time></trkpt><trkpt lat="40.0090271" lon="9.5052692"><ele>418.0</ele><time>2026-03-29T07:30:53.36Z</time></trkpt><trkpt lat="40.0090503" lon="9.5051918"><ele>418.0</ele><time>2026-03-29T07:30:54.361Z</time></trkpt><trkpt lat="40.0090413" lon="9.5051015"><ele>418.0</ele><time>2026-03-29T07:30:55.36Z</time></trkpt><trkpt lat="40.0090328" lon="9.505002"><ele>418.0</ele><time>2026-03-29T07:30:56.36Z</time></trkpt><trkpt lat="40.0089908" lon="9.5048889"><ele>419.0</ele><time>2026-03-29T07:30:57.36Z</time></trkpt><trkpt lat="40.0089609" lon="9.5047624"><ele>420.0</ele><time>2026-03-29T07:30:58.361Z</time></trkpt><trkpt lat="40.0089488" lon="9.504645"><ele>421.0</ele><time>2026-03-29T07:30:59.36Z</time></trkpt><trkpt lat="40.0089315" lon="9.5045208"><ele>422.0</ele><time>2026-03-29T07:31:00.36Z</time></trkpt><trkpt lat="40.0089624" lon="9.504427"><ele>423.0</ele><time>2026-03-29T07:31:01.36Z</time></trkpt><trkpt lat="40.0089998" lon="9.5043032"><ele>425.79999999999995</ele><time>2026-03-29T07:31:02.36Z</time></trkpt><trkpt lat="40.0090273" lon="9.5041791"><ele>428.6</ele><time>2026-03-29T07:31:03.361Z</time></trkpt><trkpt lat="40.0090572" lon="9.5040193"><ele>431.40000000000003</ele><time>2026-03-29T07:31:04.361Z</time></trkpt><trkpt lat="40.0091092" lon="9.5038975"><ele>434.20000000000005</ele><time>2026-03-29T07:31:05.36Z</time></trkpt><trkpt lat="40.009158" lon="9.5037836"><ele>437.0</ele><time>2026-03-29T07:31:06.36Z</time></trkpt><trkpt lat="40.0092289" lon="9.5036842"><ele>440.49999999999994</ele><time>2026-03-29T07:31:07.361Z</time></trkpt><trkpt lat="40.009294" lon="9.5036057"><ele>444.0</ele><time>2026-03-29T07:31:08.36Z</time></trkpt><trkpt lat="40.009309" lon="9.5035131"><ele>447.5</ele><time>2026-03-29T07:31:10.36Z</time></trkpt><trkpt lat="40.0093061" lon="9.5034218"><ele>451.0</ele><time>2026-03-29T07:31:11.36Z</time></trkpt><trkpt lat="40.0092672" lon="9.5033511"><ele>454.49999999999994</ele><time>2026-03-29T07:31:12.268Z</time></trkpt><trkpt lat="40.0091851" lon="9.5033199"><ele>458.0</ele><time>2026-03-29T07:31:14.268Z</time></trkpt><trkpt lat="40.0090924" lon="9.5033246"><ele>457.99999999999994</ele><time>2026-03-29T07:31:17.36Z</time></trkpt><trkpt lat="40.0091281" lon="9.5032084"><ele>458.0</ele><time>2026-03-29T07:31:19.27Z</time></trkpt><trkpt lat="40.0091775" lon="9.503135"><ele>458.0</ele><time>2026-03-29T07:31:21.277Z</time></trkpt><trkpt lat="40.0092841" lon="9.5030425"><ele>458.0</ele><time>2026-03-29T07:31:23.361Z</time></trkpt><trkpt lat="40.0093336" lon="9.5029848"><ele>457.99999999999994</ele><time>2026-03-29T07:31:24.36Z</time></trkpt><trkpt lat="40.0093852" lon="9.5029253"><ele>458.0</ele><time>2026-03-29T07:31:25.36Z</time></trkpt><trkpt lat="40.0094417" lon="9.5028696"><ele>461.66666666666663</ele><time>2026-03-29T07:31:26.361Z</time></trkpt><trkpt lat="40.0094974" lon="9.5027439"><ele>465.3333333333333</ele><time>2026-03-29T07:31:28.36Z</time></trkpt><trkpt lat="40.0095192" lon="9.5026657"><ele>469.0</ele><time>2026-03-29T07:31:29.36Z</time></trkpt><trkpt lat="40.0095502" lon="9.5025856"><ele>472.66666666666663</ele><time>2026-03-29T07:31:30.36Z</time></trkpt><trkpt lat="40.0095994" lon="9.5024797"><ele>476.3333333333333</ele><time>2026-03-29T07:31:32.36Z</time></trkpt><trkpt lat="40.0096605" lon="9.5024377"><ele>480.0</ele><time>2026-03-29T07:31:34.36Z</time></trkpt><trkpt lat="40.0097481" lon="9.502426"><ele>480.0</ele><time>2026-03-29T07:31:35.36Z</time></trkpt><trkpt lat="40.0098528" lon="9.5023972"><ele>480.0</ele><time>2026-03-29T07:31:36.36Z</time></trkpt><trkpt lat="40.0099316" lon="9.5023768"><ele>480.0</ele><time>2026-03-29T07:31:38.36Z</time></trkpt><trkpt lat="40.0099753" lon="9.5022924"><ele>480.0</ele><time>2026-03-29T07:31:40.269Z</time></trkpt><trkpt lat="40.0098874" lon="9.5022054"><ele>480.0</ele><time>2026-03-29T07:31:42.36Z</time></trkpt><trkpt lat="40.0098223" lon="9.502169"><ele>480.0</ele><time>2026-03-29T07:31:43.361Z</time></trkpt><trkpt lat="40.0097417" lon="9.5021405"><ele>480.0</ele><time>2026-03-29T07:31:44.27Z</time></trkpt><trkpt lat="40.0096693" lon="9.5021033"><ele>480.0</ele><time>2026-03-29T07:31:45.361Z</time></trkpt><trkpt lat="40.0095885" lon="9.5021018"><ele>480.0</ele><time>2026-03-29T07:31:46.36Z</time></trkpt><trkpt lat="40.0095054" lon="9.5020744"><ele>480.0</ele><time>2026-03-29T07:31:47.36Z</time></trkpt><trkpt lat="40.0093925" lon="9.5020401"><ele>480.0</ele><time>2026-03-29T07:31:49.36Z</time></trkpt><trkpt lat="40.0093191" lon="9.5020137"><ele>480.0</ele><time>2026-03-29T07:31:51.361Z</time></trkpt><trkpt lat="40.0093778" lon="9.5019126"><ele>486.6</ele><time>2026-03-29T07:31:54.36Z</time></trkpt><trkpt lat="40.0094787" lon="9.5018503"><ele>493.2</ele><time>2026-03-29T07:31:56.36Z</time></trkpt><trkpt lat="40.0095741" lon="9.5018304"><ele>499.79999999999995</ele><time>2026-03-29T07:31:59.36Z</time></trkpt><trkpt lat="40.0096816" lon="9.5017578"><ele>506.4</ele><time>2026-03-29T07:32:00.361Z</time></trkpt><trkpt lat="40.009763" lon="9.5017073"><ele>513.0</ele><time>2026-03-29T07:32:01.361Z</time></trkpt><trkpt lat="40.0098538" lon="9.501668"><ele>513.0</ele><time>2026-03-29T07:32:02.36Z</time></trkpt><trkpt lat="40.0099332" lon="9.5016301"><ele>513.0</ele><time>2026-03-29T07:32:03.361Z</time></trkpt><trkpt lat="40.0100137" lon="9.5016175"><ele>513.0</ele><time>2026-03-29T07:32:04.361Z</time></trkpt><trkpt lat="40.0101145" lon="9.5015723"><ele>513.0</ele><time>2026-03-29T07:32:05.36Z</time></trkpt><trkpt lat="40.0102264" lon="9.5015138"><ele>513.0</ele><time>2026-03-29T07:32:06.36Z</time></trkpt><trkpt lat="40.0103227" lon="9.5014588"><ele>511.8333333333333</ele><time>2026-03-29T07:32:07.36Z</time></trkpt><trkpt lat="40.0104069" lon="9.501438"><ele>510.66666666666663</ele><time>2026-03-29T07:32:08.361Z</time></trkpt><trkpt lat="40.0104876" lon="9.5013857"><ele>509.5</ele><time>2026-03-29T07:32:09.36Z</time></trkpt><trkpt lat="40.010549" lon="9.5013197"><ele>508.3333333333333</ele><time>2026-03-29T07:32:10.36Z</time></trkpt><trkpt lat="40.0105913" lon="9.5012052"><ele>507.16666666666663</ele><time>2026-03-29T07:32:12.266Z</time></trkpt><trkpt lat="40.0105375" lon="9.501106"><ele>506.0</ele><time>2026-03-29T07:32:14.36Z</time></trkpt><trkpt lat="40.0104274" lon="9.5010725"><ele>510.99999999999994</ele><time>2026-03-29T07:32:16.36Z</time></trkpt><trkpt lat="40.0103561" lon="9.501056"><ele>516.0</ele><time>2026-03-29T07:32:17.36Z</time></trkpt><trkpt lat="40.0102763" lon="9.5010374"><ele>521.0</ele><time>2026-03-29T07:32:18.361Z</time></trkpt><trkpt lat="40.0102132" lon="9.5010317"><ele>526.0</ele><time>2026-03-29T07:32:19.268Z</time></trkpt><trkpt lat="40.0101851" lon="9.5009322"><ele>531.0</ele><time>2026-03-29T07:32:22.266Z</time></trkpt><trkpt lat="40.0102321" lon="9.5008569"><ele>536.0</ele><time>2026-03-29T07:32:24.273Z</time></trkpt><trkpt lat="40.0103325" lon="9.5008121"><ele>536.0</ele><time>2026-03-29T07:32:26.271Z</time></trkpt><trkpt lat="40.0103903" lon="9.5007774"><ele>536.0</ele><time>2026-03-29T07:32:27.272Z</time></trkpt><trkpt lat="40.0104513" lon="9.5007139"><ele>536.0</ele><time>2026-03-29T07:32:29.36Z</time></trkpt><trkpt lat="40.0105105" lon="9.5006552"><ele>536.0</ele><time>2026-03-29T07:32:45.36Z</time></trkpt><trkpt lat="40.0105766" lon="9.5006195"><ele>536.0</ele><time>2026-03-29T07:34:02.28Z</time></trkpt><trkpt lat="40.0107167" lon="9.500747"><ele>536.0</ele><time>2026-03-29T07:34:06.277Z</time></trkpt><trkpt lat="40.0107954" lon="9.500812"><ele>536.0</ele><time>2026-03-29T07:34:07.276Z</time></trkpt><trkpt lat="40.0108369" lon="9.5009023"><ele>536.0</ele><time>2026-03-29T07:34:08.277Z</time></trkpt><trkpt lat="40.0108675" lon="9.5009804"><ele>536.0</ele><time>2026-03-29T07:34:09.277Z</time></trkpt><trkpt lat="40.0108865" lon="9.5010739"><ele>536.0</ele><time>2026-03-29T07:34:10.285Z</time></trkpt><trkpt lat="40.0109197" lon="9.5011514"><ele>536.0</ele><time>2026-03-29T07:34:11.361Z</time></trkpt><trkpt lat="40.0109874" lon="9.501159"><ele>537.0</ele><time>2026-03-29T07:34:13.265Z</time></trkpt><trkpt lat="40.0110623" lon="9.5011014"><ele>538.0</ele><time>2026-03-29T07:34:15.361Z</time></trkpt><trkpt lat="40.0110988" lon="9.5009934"><ele>539.0</ele><time>2026-03-29T07:34:16.36Z</time></trkpt><trkpt lat="40.0111352" lon="9.5007248"><ele>540.0</ele><time>2026-03-29T07:34:18.285Z</time></trkpt><trkpt lat="40.0111493" lon="9.5005609"><ele>540.0</ele><time>2026-03-29T07:34:19.261Z</time></trkpt><trkpt lat="40.0111502" lon="9.5004754"><ele>540.0</ele><time>2026-03-29T07:34:20.284Z</time></trkpt><trkpt lat="40.0110676" lon="9.5003564"><ele>540.0</ele><time>2026-03-29T07:34:21.267Z</time></trkpt><trkpt lat="40.0110603" lon="9.5002634"><ele>540.0</ele><time>2026-03-29T07:34:22.292Z</time></trkpt><trkpt lat="40.0110418" lon="9.5001361"><ele>540.0</ele><time>2026-03-29T07:34:24.36Z</time></trkpt><trkpt lat="40.0111204" lon="9.5001026"><ele>540.0</ele><time>2026-03-29T07:34:27.36Z</time></trkpt><trkpt lat="40.011221" lon="9.5001208"><ele>544.6</ele><time>2026-03-29T07:34:29.277Z</time></trkpt><trkpt lat="40.0113169" lon="9.5001596"><ele>549.2</ele><time>2026-03-29T07:34:30.36Z</time></trkpt><trkpt lat="40.0113908" lon="9.5001868"><ele>553.8</ele><time>2026-03-29T07:34:31.36Z</time></trkpt><trkpt lat="40.0114721" lon="9.5001661"><ele>558.4</ele><time>2026-03-29T07:34:33.36Z</time></trkpt><trkpt lat="40.0114545" lon="9.5000347"><ele>563.0</ele><time>2026-03-29T07:34:36.36Z</time></trkpt><trkpt lat="40.0114098" lon="9.499926"><ele>563.0</ele><time>2026-03-29T07:34:38.36Z</time></trkpt><trkpt lat="40.0113558" lon="9.4998558"><ele>563.0</ele><time>2026-03-29T07:34:40.271Z</time></trkpt><trkpt lat="40.0112776" lon="9.4997537"><ele>563.0</ele><time>2026-03-29T07:34:42.277Z</time></trkpt><trkpt lat="40.011192" lon="9.4996917"><ele>563.0</ele><time>2026-03-29T07:34:44.282Z</time></trkpt><trkpt lat="40.0111303" lon="9.4996619"><ele>563.0</ele><time>2026-03-29T07:34:45.279Z</time></trkpt><trkpt lat="40.0110171" lon="9.4996165"><ele>563.0</ele><time>2026-03-29T07:34:47.27Z</time></trkpt><trkpt lat="40.010899" lon="9.4995884"><ele>563.0</ele><time>2026-03-29T07:34:49.36Z</time></trkpt><trkpt lat="40.0108281" lon="9.4995631"><ele>563.0</ele><time>2026-03-29T07:34:50.36Z</time></trkpt><trkpt lat="40.0107707" lon="9.4995269"><ele>563.0</ele><time>2026-03-29T07:34:51.36Z</time></trkpt><trkpt lat="40.0107148" lon="9.4994873"><ele>563.0</ele><time>2026-03-29T07:34:52.36Z</time></trkpt><trkpt lat="40.0105988" lon="9.4994186"><ele>563.0</ele><time>2026-03-29T07:34:54.36Z</time></trkpt><trkpt lat="40.0105361" lon="9.4994261"><ele>571.0</ele><time>2026-03-29T07:34:55.36Z</time></trkpt><trkpt lat="40.0104637" lon="9.4994418"><ele>579.0</ele><time>2026-03-29T07:34:56.36Z</time></trkpt><trkpt lat="40.0103854" lon="9.4994536"><ele>587.0</ele><time>2026-03-29T07:34:57.283Z</time></trkpt><trkpt lat="40.0103096" lon="9.4994622"><ele>595.0</ele><time>2026-03-29T07:34:58.287Z</time></trkpt><trkpt lat="40.0102336" lon="9.4994544"><ele>603.0</ele><time>2026-03-29T07:34:59.277Z</time></trkpt><trkpt lat="40.0101595" lon="9.4994553"><ele>611.0</ele><time>2026-03-29T07:35:00.276Z</time></trkpt><trkpt lat="40.0100819" lon="9.4994789"><ele>611.0</ele><time>2026-03-29T07:35:01.282Z</time></trkpt><trkpt lat="40.009994" lon="9.4994959"><ele>611.0</ele><time>2026-03-29T07:35:02.282Z</time></trkpt><trkpt lat="40.0098964" lon="9.499518"><ele>611.0</ele><time>2026-03-29T07:35:03.36Z</time></trkpt><trkpt lat="40.0098042" lon="9.4995399"><ele>611.0</ele><time>2026-03-29T07:35:04.36Z</time></trkpt><trkpt lat="40.009694" lon="9.4995786"><ele>611.0</ele><time>2026-03-29T07:35:05.36Z</time></trkpt><trkpt lat="40.0095964" lon="9.4996118"><ele>607.2</ele><time>2026-03-29T07:35:06.361Z</time></trkpt><trkpt lat="40.0094954" lon="9.4996284"><ele>603.4000000000001</ele><time>2026-03-29T07:35:07.36Z</time></trkpt><trkpt lat="40.0093935" lon="9.499642"><ele>599.6</ele><time>2026-03-29T07:35:08.293Z</time></trkpt><trkpt lat="40.0092476" lon="9.4996651"><ele>595.8000000000001</ele><time>2026-03-29T07:35:09.285Z</time></trkpt><trkpt lat="40.0091651" lon="9.4996716"><ele>592.0</ele><time>2026-03-29T07:35:10.283Z</time></trkpt><trkpt lat="40.0090714" lon="9.4996861"><ele>591.6</ele><time>2026-03-29T07:35:11.36Z</time></trkpt><trkpt lat="40.0090035" lon="9.4996682"><ele>591.2</ele><time>2026-03-29T07:35:12.36Z</time></trkpt><trkpt lat="40.0089238" lon="9.4996744"><ele>590.8</ele><time>2026-03-29T07:35:13.285Z</time></trkpt><trkpt lat="40.0088495" lon="9.4996121"><ele>590.4</ele><time>2026-03-29T07:35:15.274Z</time></trkpt><trkpt lat="40.0088122" lon="9.4994391"><ele>590.0</ele><time>2026-03-29T07:35:17.361Z</time></trkpt><trkpt lat="40.0088045" lon="9.4993408"><ele>590.0</ele><time>2026-03-29T07:35:18.274Z</time></trkpt><trkpt lat="40.0088106" lon="9.4992344"><ele>590.0</ele><time>2026-03-29T07:35:19.277Z</time></trkpt><trkpt lat="40.0088211" lon="9.4991263"><ele>590.0</ele><time>2026-03-29T07:35:20.273Z</time></trkpt><trkpt lat="40.0088219" lon="9.4990044"><ele>590.0</ele><time>2026-03-29T07:35:21.277Z</time></trkpt><trkpt lat="40.0088216" lon="9.4988816"><ele>590.0</ele><time>2026-03-29T07:35:22.264Z</time></trkpt><trkpt lat="40.008805" lon="9.4987638"><ele>590.0</ele><time>2026-03-29T07:35:23.361Z</time></trkpt><trkpt lat="40.0088847" lon="9.4986824"><ele>590.0</ele><time>2026-03-29T07:35:26.267Z</time></trkpt><trkpt lat="40.0089629" lon="9.4987243"><ele>590.0</ele><time>2026-03-29T07:35:28.357Z</time></trkpt><trkpt lat="40.0089785" lon="9.4988214"><ele>590.0</ele><time>2026-03-29T07:35:29.36Z</time></trkpt><trkpt lat="40.0090038" lon="9.4989031"><ele>590.0</ele><time>2026-03-29T07:35:30.272Z</time></trkpt><trkpt lat="40.0090883" lon="9.4989815"><ele>590.0</ele><time>2026-03-29T07:35:32.279Z</time></trkpt><trkpt lat="40.0091715" lon="9.4989531"><ele>590.0</ele><time>2026-03-29T07:35:33.36Z</time></trkpt><trkpt lat="40.0092455" lon="9.4989157"><ele>596.6</ele><time>2026-03-29T07:35:34.361Z</time></trkpt><trkpt lat="40.0093113" lon="9.4988789"><ele>603.2</ele><time>2026-03-29T07:35:35.333Z</time></trkpt><trkpt lat="40.0093859" lon="9.4988341"><ele>609.8</ele><time>2026-03-29T07:35:36.36Z</time></trkpt><trkpt lat="40.0094598" lon="9.4987829"><ele>616.4</ele><time>2026-03-29T07:35:37.319Z</time></trkpt><trkpt lat="40.0095368" lon="9.4986751"><ele>623.0</ele><time>2026-03-29T07:35:38.36Z</time></trkpt><trkpt lat="40.0096179" lon="9.4985116"><ele>631.25</ele><time>2026-03-29T07:35:39.281Z</time></trkpt><trkpt lat="40.0097125" lon="9.498408"><ele>639.5</ele><time>2026-03-29T07:35:40.36Z</time></trkpt><trkpt lat="40.0098086" lon="9.4982969"><ele>647.75</ele><time>2026-03-29T07:35:41.361Z</time></trkpt><trkpt lat="40.0098724" lon="9.4982018"><ele>656.0</ele><time>2026-03-29T07:35:42.279Z</time></trkpt><trkpt lat="40.0099707" lon="9.4980274"><ele>654.0</ele><time>2026-03-29T07:35:44.278Z</time></trkpt><trkpt lat="40.0100275" lon="9.4979243"><ele>652.0</ele><time>2026-03-29T07:35:45.334Z</time></trkpt><trkpt lat="40.0100878" lon="9.4978263"><ele>650.0</ele><time>2026-03-29T07:35:46.281Z</time></trkpt><trkpt lat="40.0101376" lon="9.4977428"><ele>648.0</ele><time>2026-03-29T07:35:47.264Z</time></trkpt><trkpt lat="40.0102091" lon="9.4977041"><ele>646.0</ele><time>2026-03-29T07:35:48.283Z</time></trkpt><trkpt lat="40.010329" lon="9.4976392"><ele>652.8</ele><time>2026-03-29T07:35:49.276Z</time></trkpt><trkpt lat="40.0104192" lon="9.4975852"><ele>659.5999999999999</ele><time>2026-03-29T07:35:50.36Z</time></trkpt><trkpt lat="40.0105083" lon="9.4975417"><ele>666.4</ele><time>2026-03-29T07:35:51.262Z</time></trkpt><trkpt lat="40.0106142" lon="9.497528"><ele>673.2</ele><time>2026-03-29T07:35:52.361Z</time></trkpt><trkpt lat="40.0107081" lon="9.4974955"><ele>680.0</ele><time>2026-03-29T07:35:53.261Z</time></trkpt><trkpt lat="40.0107872" lon="9.4974953"><ele>680.0</ele><time>2026-03-29T07:35:55.36Z</time></trkpt><trkpt lat="40.0108507" lon="9.4974784"><ele>680.0</ele><time>2026-03-29T07:35:56.342Z</time></trkpt><trkpt lat="40.0108126" lon="9.4973562"><ele>680.0</ele><time>2026-03-29T07:35:57.36Z</time></trkpt><trkpt lat="40.01064" lon="9.4973727"><ele>680.0</ele><time>2026-03-29T07:35:59.36Z</time></trkpt><trkpt lat="40.0105237" lon="9.4973543"><ele>680.0</ele><time>2026-03-29T07:36:00.36Z</time></trkpt><trkpt lat="40.0104395" lon="9.4973366"><ele>680.0</ele><time>2026-03-29T07:36:01.36Z</time></trkpt><trkpt lat="40.0103448" lon="9.4973131"><ele>680.0</ele><time>2026-03-29T07:36:02.361Z</time></trkpt><trkpt lat="40.0102437" lon="9.4972897"><ele>680.0</ele><time>2026-03-29T07:36:03.36Z</time></trkpt><trkpt lat="40.0101443" lon="9.4972712"><ele>680.0</ele><time>2026-03-29T07:36:04.325Z</time></trkpt><trkpt lat="40.0100517" lon="9.4972779"><ele>680.6</ele><time>2026-03-29T07:36:05.281Z</time></trkpt><trkpt lat="40.0099557" lon="9.4973319"><ele>681.2</ele><time>2026-03-29T07:36:06.281Z</time></trkpt><trkpt lat="40.0098631" lon="9.4973674"><ele>681.8</ele><time>2026-03-29T07:36:07.318Z</time></trkpt><trkpt lat="40.0097476" lon="9.4974189"><ele>682.4</ele><time>2026-03-29T07:36:08.361Z</time></trkpt><trkpt lat="40.0096495" lon="9.4974914"><ele>683.0</ele><time>2026-03-29T07:36:09.361Z</time></trkpt><trkpt lat="40.0095668" lon="9.4975641"><ele>683.0</ele><time>2026-03-29T07:36:10.273Z</time></trkpt><trkpt lat="40.0094463" lon="9.4976032"><ele>683.0</ele><time>2026-03-29T07:36:12.278Z</time></trkpt><trkpt lat="40.0093849" lon="9.4975515"><ele>683.0</ele><time>2026-03-29T07:36:14.269Z</time></trkpt><trkpt lat="40.0095214" lon="9.4974131"><ele>683.0</ele><time>2026-03-29T07:36:19.286Z</time></trkpt><trkpt lat="40.0096406" lon="9.4973381"><ele>683.0</ele><time>2026-03-29T07:36:21.268Z</time></trkpt><trkpt lat="40.0097792" lon="9.4971487"><ele>683.0</ele><time>2026-03-29T07:36:22.281Z</time></trkpt><trkpt lat="40.0098484" lon="9.4970652"><ele>683.0</ele><time>2026-03-29T07:36:23.361Z</time></trkpt><trkpt lat="40.0099107" lon="9.4969805"><ele>683.0</ele><time>2026-03-29T07:36:24.271Z</time></trkpt><trkpt lat="40.0099908" lon="9.4968934"><ele>690.2</ele><time>2026-03-29T07:36:25.276Z</time></trkpt><trkpt lat="40.0100609" lon="9.4968328"><ele>697.4</ele><time>2026-03-29T07:36:26.36Z</time></trkpt><trkpt lat="40.0101494" lon="9.4967783"><ele>704.6</ele><time>2026-03-29T07:36:27.361Z</time></trkpt><trkpt lat="40.0102287" lon="9.4967353"><ele>711.8000000000001</ele><time>2026-03-29T07:36:28.281Z</time></trkpt><trkpt lat="40.0103453" lon="9.4966925"><ele>719.0</ele><time>2026-03-29T07:36:29.275Z</time></trkpt><trkpt lat="40.0104152" lon="9.4966636"><ele>719.0</ele><time>2026-03-29T07:36:30.282Z</time></trkpt><trkpt lat="40.0104653" lon="9.4965966"><ele>719.0</ele><time>2026-03-29T07:36:31.36Z</time></trkpt><trkpt lat="40.0105181" lon="9.4965282"><ele>719.0</ele><time>2026-03-29T07:36:32.36Z</time></trkpt><trkpt lat="40.0105669" lon="9.4964347"><ele>719.0</ele><time>2026-03-29T07:36:33.361Z</time></trkpt><trkpt lat="40.0106194" lon="9.4963187"><ele>719.0</ele><time>2026-03-29T07:36:34.361Z</time></trkpt><trkpt lat="40.0106651" lon="9.4961829"><ele>716.6</ele><time>2026-03-29T07:36:35.36Z</time></trkpt><trkpt lat="40.0107037" lon="9.4960689"><ele>714.2</ele><time>2026-03-29T07:36:36.36Z</time></trkpt><trkpt lat="40.0107467" lon="9.4959332"><ele>711.8000000000001</ele><time>2026-03-29T07:36:37.36Z</time></trkpt><trkpt lat="40.0107889" lon="9.4958105"><ele>709.4000000000001</ele><time>2026-03-29T07:36:38.278Z</time></trkpt><trkpt lat="40.0108522" lon="9.4956845"><ele>707.0</ele><time>2026-03-29T07:36:39.361Z</time></trkpt><trkpt lat="40.0109083" lon="9.4955303"><ele>713.75</ele><time>2026-03-29T07:36:40.36Z</time></trkpt><trkpt lat="40.0109713" lon="9.495387"><ele>720.5</ele><time>2026-03-29T07:36:41.36Z</time></trkpt><trkpt lat="40.0110218" lon="9.4952489"><ele>727.25</ele><time>2026-03-29T07:36:42.36Z</time></trkpt><trkpt lat="40.0110633" lon="9.4951112"><ele>734.0</ele><time>2026-03-29T07:36:43.36Z</time></trkpt><trkpt lat="40.0111076" lon="9.4949753"><ele>734.0</ele><time>2026-03-29T07:36:44.36Z</time></trkpt><trkpt lat="40.0111329" lon="9.4948522"><ele>734.0</ele><time>2026-03-29T07:36:45.345Z</time></trkpt><trkpt lat="40.0111465" lon="9.4947446"><ele>734.0</ele><time>2026-03-29T07:36:46.283Z</time></trkpt><trkpt lat="40.0111783" lon="9.4946715"><ele>734.0</ele><time>2026-03-29T07:36:47.36Z</time></trkpt><trkpt lat="40.0112179" lon="9.4946065"><ele>734.0</ele><time>2026-03-29T07:36:48.36Z</time></trkpt><trkpt lat="40.0112387" lon="9.4944774"><ele>734.0</ele><time>2026-03-29T07:36:50.275Z</time></trkpt><trkpt lat="40.011251" lon="9.4943797"><ele>734.0</ele><time>2026-03-29T07:36:52.271Z</time></trkpt><trkpt lat="40.0111738" lon="9.4943865"><ele>734.0</ele><time>2026-03-29T07:36:55.275Z</time></trkpt><trkpt lat="40.0111078" lon="9.4945116"><ele>734.0</ele><time>2026-03-29T07:36:57.275Z</time></trkpt><trkpt lat="40.0110746" lon="9.494609"><ele>734.0</ele><time>2026-03-29T07:36:58.283Z</time></trkpt><trkpt lat="40.0110333" lon="9.4947073"><ele>734.0</ele><time>2026-03-29T07:36:59.36Z</time></trkpt><trkpt lat="40.0109962" lon="9.4948161"><ele>734.0</ele><time>2026-03-29T07:37:00.36Z</time></trkpt><trkpt lat="40.0109533" lon="9.4949203"><ele>734.0</ele><time>2026-03-29T07:37:01.361Z</time></trkpt><trkpt lat="40.010908" lon="9.4950312"><ele>734.0</ele><time>2026-03-29T07:37:02.361Z</time></trkpt><trkpt lat="40.0108633" lon="9.4951394"><ele>734.0</ele><time>2026-03-29T07:37:03.282Z</time></trkpt><trkpt lat="40.0108076" lon="9.4952687"><ele>734.0</ele><time>2026-03-29T07:37:04.36Z</time></trkpt><trkpt lat="40.0107567" lon="9.4953847"><ele>737.8000000000001</ele><time>2026-03-29T07:37:05.36Z</time></trkpt><trkpt lat="40.010704" lon="9.4954936"><ele>741.6</ele><time>2026-03-29T07:37:06.36Z</time></trkpt><trkpt lat="40.0106491" lon="9.4956013"><ele>745.4</ele><time>2026-03-29T07:37:07.278Z</time></trkpt><trkpt lat="40.0105897" lon="9.4957261"><ele>749.2</ele><time>2026-03-29T07:37:08.36Z</time></trkpt><trkpt lat="40.010517" lon="9.4958562"><ele>753.0</ele><time>2026-03-29T07:37:09.361Z</time></trkpt><trkpt lat="40.0104394" lon="9.4959875"><ele>753.0</ele><time>2026-03-29T07:37:10.36Z</time></trkpt><trkpt lat="40.0103448" lon="9.4960994"><ele>753.0</ele><time>2026-03-29T07:37:11.335Z</time></trkpt><trkpt lat="40.0102483" lon="9.4961992"><ele>753.0</ele><time>2026-03-29T07:37:12.36Z</time></trkpt><trkpt lat="40.0101335" lon="9.4962733"><ele>753.0</ele><time>2026-03-29T07:37:13.287Z</time></trkpt><trkpt lat="40.0100184" lon="9.4963349"><ele>742.25</ele><time>2026-03-29T07:37:14.361Z</time></trkpt><trkpt lat="40.0099003" lon="9.4963857"><ele>731.5</ele><time>2026-03-29T07:37:15.36Z</time></trkpt><trkpt lat="40.0097792" lon="9.4964064"><ele>720.75</ele><time>2026-03-29T07:37:16.36Z</time></trkpt><trkpt lat="40.0096575" lon="9.4964126"><ele>710.0</ele><time>2026-03-29T07:37:17.36Z</time></trkpt><trkpt lat="40.0095412" lon="9.49636"><ele>710.0</ele><time>2026-03-29T07:37:18.361Z</time></trkpt><trkpt lat="40.0094272" lon="9.4962985"><ele>710.0</ele><time>2026-03-29T07:37:19.266Z</time></trkpt><trkpt lat="40.0093104" lon="9.496219"><ele>710.0</ele><time>2026-03-29T07:37:20.319Z</time></trkpt><trkpt lat="40.0091925" lon="9.4961202"><ele>710.0</ele><time>2026-03-29T07:37:21.281Z</time></trkpt><trkpt lat="40.0090725" lon="9.4960254"><ele>707.5</ele><time>2026-03-29T07:37:22.32Z</time></trkpt><trkpt lat="40.0088277" lon="9.4957659"><ele>705.0</ele><time>2026-03-29T07:37:24.36Z</time></trkpt><trkpt lat="40.0087331" lon="9.4956338"><ele>705.0</ele><time>2026-03-29T07:37:25.36Z</time></trkpt><trkpt lat="40.0086293" lon="9.4955003"><ele>705.0</ele><time>2026-03-29T07:37:26.36Z</time></trkpt><trkpt lat="40.0085761" lon="9.4953281"><ele>705.0</ele><time>2026-03-29T07:37:27.36Z</time></trkpt><trkpt lat="40.0085072" lon="9.4951567"><ele>705.0</ele><time>2026-03-29T07:37:28.36Z</time></trkpt><trkpt lat="40.0084428" lon="9.4949978"><ele>701.75</ele><time>2026-03-29T07:37:29.36Z</time></trkpt><trkpt lat="40.0083796" lon="9.4948384"><ele>698.5</ele><time>2026-03-29T07:37:30.328Z</time></trkpt><trkpt lat="40.0083082" lon="9.4947084"><ele>695.25</ele><time>2026-03-29T07:37:31.36Z</time></trkpt><trkpt lat="40.0082284" lon="9.4945869"><ele>692.0</ele><time>2026-03-29T07:37:32.319Z</time></trkpt><trkpt lat="40.0081176" lon="9.4944746"><ele>700.75</ele><time>2026-03-29T07:37:33.36Z</time></trkpt><trkpt lat="40.0079908" lon="9.4943466"><ele>709.5</ele><time>2026-03-29T07:37:34.36Z</time></trkpt><trkpt lat="40.0078885" lon="9.4942113"><ele>718.25</ele><time>2026-03-29T07:37:35.361Z</time></trkpt><trkpt lat="40.0078092" lon="9.4940849"><ele>727.0</ele><time>2026-03-29T07:37:36.273Z</time></trkpt><trkpt lat="40.0077259" lon="9.4939583"><ele>727.0</ele><time>2026-03-29T07:37:37.283Z</time></trkpt><trkpt lat="40.0076222" lon="9.4939051"><ele>727.0</ele><time>2026-03-29T07:37:38.282Z</time></trkpt><trkpt lat="40.0074871" lon="9.4938621"><ele>727.0</ele><time>2026-03-29T07:37:39.361Z</time></trkpt><trkpt lat="40.0073681" lon="9.493815"><ele>727.0</ele><time>2026-03-29T07:37:40.289Z</time></trkpt><trkpt lat="40.0072672" lon="9.4937508"><ele>727.5</ele><time>2026-03-29T07:37:41.274Z</time></trkpt><trkpt lat="40.0071638" lon="9.4936603"><ele>728.0</ele><time>2026-03-29T07:37:42.36Z</time></trkpt><trkpt lat="40.0070791" lon="9.4935533"><ele>728.5</ele><time>2026-03-29T07:37:43.361Z</time></trkpt><trkpt lat="40.0069983" lon="9.4934455"><ele>729.0</ele><time>2026-03-29T07:37:44.36Z</time></trkpt><trkpt lat="40.0069294" lon="9.4933168"><ele>729.0</ele><time>2026-03-29T07:37:45.36Z</time></trkpt><trkpt lat="40.006859" lon="9.4931917"><ele>729.0</ele><time>2026-03-29T07:37:46.36Z</time></trkpt><trkpt lat="40.0067983" lon="9.4930674"><ele>729.0</ele><time>2026-03-29T07:37:47.36Z</time></trkpt><trkpt lat="40.0066851" lon="9.4928544"><ele>729.0</ele><time>2026-03-29T07:37:49.363Z</time></trkpt><trkpt lat="40.0065847" lon="9.4926804"><ele>736.3333333333334</ele><time>2026-03-29T07:37:51.367Z</time></trkpt><trkpt lat="40.0065423" lon="9.4925973"><ele>743.6666666666667</ele><time>2026-03-29T07:37:52.352Z</time></trkpt><trkpt lat="40.0064985" lon="9.4925246"><ele>751.0</ele><time>2026-03-29T07:37:53.355Z</time></trkpt><trkpt lat="40.0064313" lon="9.4924061"><ele>758.3333333333334</ele><time>2026-03-29T07:37:55.286Z</time></trkpt><trkpt lat="40.0063671" lon="9.492371"><ele>765.6666666666667</ele><time>2026-03-29T07:37:57.272Z</time></trkpt><trkpt lat="40.006311" lon="9.4924285"><ele>773.0</ele><time>2026-03-29T07:37:59.349Z</time></trkpt><trkpt lat="40.006286" lon="9.4925941"><ele>773.0</ele><time>2026-03-29T07:38:01.349Z</time></trkpt><trkpt lat="40.0062582" lon="9.4927438"><ele>773.0</ele><time>2026-03-29T07:38:02.349Z</time></trkpt><trkpt lat="40.0062136" lon="9.4928445"><ele>773.0</ele><time>2026-03-29T07:38:03.349Z</time></trkpt><trkpt lat="40.0061497" lon="9.4929475"><ele>773.0</ele><time>2026-03-29T07:38:04.35Z</time></trkpt><trkpt lat="40.0060706" lon="9.4930469"><ele>773.0</ele><time>2026-03-29T07:38:05.349Z</time></trkpt><trkpt lat="40.0059838" lon="9.4931379"><ele>773.4</ele><time>2026-03-29T07:38:06.349Z</time></trkpt><trkpt lat="40.0058866" lon="9.4932131"><ele>773.8</ele><time>2026-03-29T07:38:07.35Z</time></trkpt><trkpt lat="40.0057774" lon="9.49326"><ele>774.2</ele><time>2026-03-29T07:38:08.349Z</time></trkpt><trkpt lat="40.0056803" lon="9.4933147"><ele>774.6</ele><time>2026-03-29T07:38:09.349Z</time></trkpt><trkpt lat="40.0055933" lon="9.4933973"><ele>775.0</ele><time>2026-03-29T07:38:10.349Z</time></trkpt><trkpt lat="40.0055247" lon="9.493482"><ele>774.9999999999999</ele><time>2026-03-29T07:38:11.35Z</time></trkpt><trkpt lat="40.0054814" lon="9.4935717"><ele>775.0</ele><time>2026-03-29T07:38:12.349Z</time></trkpt><trkpt lat="40.0054795" lon="9.4936585"><ele>775.0</ele><time>2026-03-29T07:38:13.35Z</time></trkpt><trkpt lat="40.0055061" lon="9.4937459"><ele>775.0</ele><time>2026-03-29T07:38:14.349Z</time></trkpt><trkpt lat="40.0055305" lon="9.4938366"><ele>774.9999999999999</ele><time>2026-03-29T07:38:15.349Z</time></trkpt><trkpt lat="40.0055942" lon="9.4939754"><ele>775.0</ele><time>2026-03-29T07:38:16.349Z</time></trkpt><trkpt lat="40.0056115" lon="9.4941129"><ele>775.4</ele><time>2026-03-29T07:38:17.349Z</time></trkpt><trkpt lat="40.0056063" lon="9.4942504"><ele>775.8</ele><time>2026-03-29T07:38:18.349Z</time></trkpt><trkpt lat="40.0055791" lon="9.4943917"><ele>776.2</ele><time>2026-03-29T07:38:19.349Z</time></trkpt><trkpt lat="40.0055518" lon="9.4945162"><ele>776.6</ele><time>2026-03-29T07:38:20.349Z</time></trkpt><trkpt lat="40.0055157" lon="9.4946655"><ele>777.0</ele><time>2026-03-29T07:38:21.27Z</time></trkpt><trkpt lat="40.0054775" lon="9.4948155"><ele>773.25</ele><time>2026-03-29T07:38:22.286Z</time></trkpt><trkpt lat="40.0054271" lon="9.494959"><ele>769.5</ele><time>2026-03-29T07:38:23.275Z</time></trkpt><trkpt lat="40.0053622" lon="9.4950821"><ele>765.75</ele><time>2026-03-29T07:38:24.278Z</time></trkpt><trkpt lat="40.0052695" lon="9.4951522"><ele>762.0</ele><time>2026-03-29T07:38:25.349Z</time></trkpt><trkpt lat="40.0051674" lon="9.4951998"><ele>762.0</ele><time>2026-03-29T07:38:26.349Z</time></trkpt><trkpt lat="40.0050636" lon="9.49523"><ele>762.0</ele><time>2026-03-29T07:38:27.349Z</time></trkpt><trkpt lat="40.0049612" lon="9.4952659"><ele>762.0</ele><time>2026-03-29T07:38:28.35Z</time></trkpt><trkpt lat="40.0048671" lon="9.4953245"><ele>762.0</ele><time>2026-03-29T07:38:29.284Z</time></trkpt><trkpt lat="40.004802" lon="9.4953943"><ele>762.0</ele><time>2026-03-29T07:38:30.35Z</time></trkpt><trkpt lat="40.0047486" lon="9.4954615"><ele>766.8</ele><time>2026-03-29T07:38:31.349Z</time></trkpt><trkpt lat="40.0046905" lon="9.4956283"><ele>771.6</ele><time>2026-03-29T07:38:33.349Z</time></trkpt><trkpt lat="40.0046586" lon="9.4957707"><ele>776.4</ele><time>2026-03-29T07:38:35.35Z</time></trkpt><trkpt lat="40.0046278" lon="9.4958954"><ele>781.1999999999999</ele><time>2026-03-29T07:38:37.349Z</time></trkpt><trkpt lat="40.0045899" lon="9.4959709"><ele>786.0</ele><time>2026-03-29T07:38:38.276Z</time></trkpt><trkpt lat="40.004544" lon="9.4960366"><ele>786.0</ele><time>2026-03-29T07:38:39.349Z</time></trkpt><trkpt lat="40.0044847" lon="9.4961298"><ele>786.0</ele><time>2026-03-29T07:38:40.35Z</time></trkpt><trkpt lat="40.0044303" lon="9.49622"><ele>786.0</ele><time>2026-03-29T07:38:41.349Z</time></trkpt><trkpt lat="40.0043828" lon="9.4963417"><ele>786.0</ele><time>2026-03-29T07:38:42.349Z</time></trkpt><trkpt lat="40.0043396" lon="9.4964694"><ele>786.0</ele><time>2026-03-29T07:38:43.349Z</time></trkpt><trkpt lat="40.004288" lon="9.4965792"><ele>787.25</ele><time>2026-03-29T07:38:44.35Z</time></trkpt><trkpt lat="40.0042302" lon="9.4967166"><ele>788.5</ele><time>2026-03-29T07:38:45.349Z</time></trkpt><trkpt lat="40.0041673" lon="9.4968314"><ele>789.75</ele><time>2026-03-29T07:38:46.349Z</time></trkpt><trkpt lat="40.0040947" lon="9.4969561"><ele>791.0</ele><time>2026-03-29T07:38:47.349Z</time></trkpt><trkpt lat="40.0040419" lon="9.4970723"><ele>785.6666666666667</ele><time>2026-03-29T07:38:48.349Z</time></trkpt><trkpt lat="40.0039814" lon="9.4971555"><ele>780.3333333333334</ele><time>2026-03-29T07:38:49.35Z</time></trkpt><trkpt lat="40.0039236" lon="9.4972436"><ele>775.0</ele><time>2026-03-29T07:38:50.349Z</time></trkpt><trkpt lat="40.0038606" lon="9.497326"><ele>769.6666666666667</ele><time>2026-03-29T07:38:51.349Z</time></trkpt><trkpt lat="40.0037904" lon="9.497309"><ele>764.3333333333334</ele><time>2026-03-29T07:38:53.349Z</time></trkpt><trkpt lat="40.0037308" lon="9.4972537"><ele>759.0</ele><time>2026-03-29T07:38:55.273Z</time></trkpt><trkpt lat="40.0037857" lon="9.4971683"><ele>767.0</ele><time>2026-03-29T07:38:56.273Z</time></trkpt><trkpt lat="40.0038149" lon="9.497056"><ele>775.0</ele><time>2026-03-29T07:38:57.285Z</time></trkpt><trkpt lat="40.0038779" lon="9.4969241"><ele>783.0</ele><time>2026-03-29T07:38:58.349Z</time></trkpt><trkpt lat="40.0039279" lon="9.496775"><ele>791.0</ele><time>2026-03-29T07:38:59.349Z</time></trkpt><trkpt lat="40.0039823" lon="9.4966382"><ele>791.0</ele><time>2026-03-29T07:39:00.35Z</time></trkpt><trkpt lat="40.0040237" lon="9.4964932"><ele>791.0</ele><time>2026-03-29T07:39:01.349Z</time></trkpt><trkpt lat="40.004047" lon="9.4963581"><ele>791.0</ele><time>2026-03-29T07:39:02.349Z</time></trkpt><trkpt lat="40.0040621" lon="9.4962296"><ele>791.0</ele><time>2026-03-29T07:39:03.35Z</time></trkpt><trkpt lat="40.0040865" lon="9.4961092"><ele>791.0</ele><time>2026-03-29T07:39:04.349Z</time></trkpt><trkpt lat="40.0041069" lon="9.4959775"><ele>791.8</ele><time>2026-03-29T07:39:05.349Z</time></trkpt><trkpt lat="40.0041339" lon="9.495862"><ele>792.5999999999999</ele><time>2026-03-29T07:39:06.349Z</time></trkpt><trkpt lat="40.0041557" lon="9.4957022"><ele>793.4</ele><time>2026-03-29T07:39:07.277Z</time></trkpt><trkpt lat="40.0041982" lon="9.4955447"><ele>794.2</ele><time>2026-03-29T07:39:08.349Z</time></trkpt><trkpt lat="40.0042073" lon="9.4954148"><ele>795.0</ele><time>2026-03-29T07:39:09.349Z</time></trkpt><trkpt lat="40.0041961" lon="9.4952889"><ele>795.0</ele><time>2026-03-29T07:39:10.349Z</time></trkpt><trkpt lat="40.0041677" lon="9.4951731"><ele>795.0</ele><time>2026-03-29T07:39:11.349Z</time></trkpt><trkpt lat="40.0041572" lon="9.4950516"><ele>795.0</ele><time>2026-03-29T07:39:12.349Z</time></trkpt><trkpt lat="40.0041174" lon="9.4949394"><ele>795.0</ele><time>2026-03-29T07:39:13.35Z</time></trkpt><trkpt lat="40.0040891" lon="9.4948333"><ele>795.0</ele><time>2026-03-29T07:39:14.349Z</time></trkpt><trkpt lat="40.0040621" lon="9.4947278"><ele>795.0</ele><time>2026-03-29T07:39:15.261Z</time></trkpt><trkpt lat="40.0040572" lon="9.4946266"><ele>795.0</ele><time>2026-03-29T07:39:17.282Z</time></trkpt><trkpt lat="40.0042298" lon="9.4946003"><ele>795.0</ele><time>2026-03-29T07:39:20.288Z</time></trkpt><trkpt lat="40.0043169" lon="9.4946193"><ele>795.0</ele><time>2026-03-29T07:39:21.284Z</time></trkpt><trkpt lat="40.0043921" lon="9.4946237"><ele>795.0</ele><time>2026-03-29T07:39:22.264Z</time></trkpt><trkpt lat="40.0045527" lon="9.4945078"><ele>798.75</ele><time>2026-03-29T07:39:23.292Z</time></trkpt><trkpt lat="40.0046711" lon="9.4943998"><ele>802.5</ele><time>2026-03-29T07:39:24.349Z</time></trkpt><trkpt lat="40.0047511" lon="9.4943382"><ele>806.25</ele><time>2026-03-29T07:39:25.349Z</time></trkpt><trkpt lat="40.0048342" lon="9.4941945"><ele>810.0</ele><time>2026-03-29T07:39:27.349Z</time></trkpt><trkpt lat="40.004783" lon="9.4940869"><ele>810.0</ele><time>2026-03-29T07:39:29.274Z</time></trkpt><trkpt lat="40.0047405" lon="9.4940102"><ele>810.0</ele><time>2026-03-29T07:39:30.334Z</time></trkpt><trkpt lat="40.0046818" lon="9.493891"><ele>810.0</ele><time>2026-03-29T07:39:31.349Z</time></trkpt><trkpt lat="40.0046131" lon="9.4938036"><ele>810.0</ele><time>2026-03-29T07:39:32.349Z</time></trkpt><trkpt lat="40.0045568" lon="9.4937054"><ele>810.0</ele><time>2026-03-29T07:39:33.322Z</time></trkpt><trkpt lat="40.0045555" lon="9.4936002"><ele>811.1666666666666</ele><time>2026-03-29T07:39:34.35Z</time></trkpt><trkpt lat="40.0045326" lon="9.4934925"><ele>812.3333333333333</ele><time>2026-03-29T07:39:35.331Z</time></trkpt><trkpt lat="40.0045027" lon="9.4933705"><ele>813.5</ele><time>2026-03-29T07:39:36.349Z</time></trkpt><trkpt lat="40.0044749" lon="9.49326"><ele>814.6666666666666</ele><time>2026-03-29T07:39:37.325Z</time></trkpt><trkpt lat="40.0044521" lon="9.4931559"><ele>815.8333333333333</ele><time>2026-03-29T07:39:38.349Z</time></trkpt><trkpt lat="40.0044419" lon="9.493057"><ele>817.0</ele><time>2026-03-29T07:39:39.349Z</time></trkpt><trkpt lat="40.0044709" lon="9.4928717"><ele>819.6</ele><time>2026-03-29T07:39:41.349Z</time></trkpt><trkpt lat="40.0044941" lon="9.4927931"><ele>822.2</ele><time>2026-03-29T07:39:42.349Z</time></trkpt><trkpt lat="40.0045523" lon="9.4926497"><ele>824.8</ele><time>2026-03-29T07:39:44.349Z</time></trkpt><trkpt lat="40.0046794" lon="9.4926577"><ele>827.4</ele><time>2026-03-29T07:39:46.273Z</time></trkpt><trkpt lat="40.004802" lon="9.492675"><ele>830.0</ele><time>2026-03-29T07:39:48.275Z</time></trkpt><trkpt lat="40.0049494" lon="9.4926395"><ele>825.4</ele><time>2026-03-29T07:39:50.276Z</time></trkpt><trkpt lat="40.0050245" lon="9.4926206"><ele>820.8</ele><time>2026-03-29T07:39:51.262Z</time></trkpt><trkpt lat="40.0051377" lon="9.4925985"><ele>816.2</ele><time>2026-03-29T07:39:52.276Z</time></trkpt><trkpt lat="40.0052357" lon="9.4925794"><ele>811.6</ele><time>2026-03-29T07:39:53.26Z</time></trkpt><trkpt lat="40.0053178" lon="9.4925034"><ele>807.0</ele><time>2026-03-29T07:39:54.275Z</time></trkpt><trkpt lat="40.0053773" lon="9.4924204"><ele>807.0</ele><time>2026-03-29T07:39:55.27Z</time></trkpt><trkpt lat="40.0054469" lon="9.4923589"><ele>807.0</ele><time>2026-03-29T07:39:56.262Z</time></trkpt><trkpt lat="40.0055422" lon="9.4922384"><ele>807.0</ele><time>2026-03-29T07:39:57.271Z</time></trkpt><trkpt lat="40.0056406" lon="9.492108"><ele>807.0</ele><time>2026-03-29T07:39:58.273Z</time></trkpt><trkpt lat="40.0056895" lon="9.491961"><ele>811.6666666666666</ele><time>2026-03-29T07:40:00.272Z</time></trkpt><trkpt lat="40.0056944" lon="9.4918784"><ele>816.3333333333333</ele><time>2026-03-29T07:40:01.271Z</time></trkpt><trkpt lat="40.0056061" lon="9.4918103"><ele>821.0</ele><time>2026-03-29T07:40:02.277Z</time></trkpt><trkpt lat="40.0056042" lon="9.4917026"><ele>825.6666666666666</ele><time>2026-03-29T07:40:03.272Z</time></trkpt><trkpt lat="40.0055677" lon="9.4915863"><ele>830.3333333333333</ele><time>2026-03-29T07:40:04.285Z</time></trkpt><trkpt lat="40.0055548" lon="9.4914851"><ele>835.0</ele><time>2026-03-29T07:40:05.278Z</time></trkpt><trkpt lat="40.0055636" lon="9.4913774"><ele>839.0</ele><time>2026-03-29T07:40:06.275Z</time></trkpt><trkpt lat="40.0055819" lon="9.4912025"><ele>843.0</ele><time>2026-03-29T07:40:08.27Z</time></trkpt><trkpt lat="40.0055895" lon="9.4910924"><ele>847.0</ele><time>2026-03-29T07:40:09.266Z</time></trkpt><trkpt lat="40.0055897" lon="9.4909736"><ele>851.0</ele><time>2026-03-29T07:40:10.281Z</time></trkpt><trkpt lat="40.0056044" lon="9.4908036"><ele>855.0</ele><time>2026-03-29T07:40:12.272Z</time></trkpt><trkpt lat="40.0055281" lon="9.4906934"><ele>855.0</ele><time>2026-03-29T07:40:14.27Z</time></trkpt><trkpt lat="40.0054752" lon="9.4906445"><ele>855.0</ele><time>2026-03-29T07:40:15.261Z</time></trkpt><trkpt lat="40.0054081" lon="9.4905415"><ele>855.0</ele><time>2026-03-29T07:40:17.274Z</time></trkpt><trkpt lat="40.0054172" lon="9.4903451"><ele>855.0</ele><time>2026-03-29T07:40:19.272Z</time></trkpt><trkpt lat="40.0054297" lon="9.490204"><ele>855.0</ele><time>2026-03-29T07:40:20.275Z</time></trkpt><trkpt lat="40.0054218" lon="9.4901116"><ele>857.0</ele><time>2026-03-29T07:40:21.262Z</time></trkpt><trkpt lat="40.005467" lon="9.4900352"><ele>859.0</ele><time>2026-03-29T07:40:22.278Z</time></trkpt><trkpt lat="40.0055096" lon="9.4899573"><ele>861.0</ele><time>2026-03-29T07:40:23.28Z</time></trkpt><trkpt lat="40.0055154" lon="9.4898737"><ele>863.0</ele><time>2026-03-29T07:40:25.35Z</time></trkpt><trkpt lat="40.0056209" lon="9.4898761"><ele>865.0</ele><time>2026-03-29T07:40:29.349Z</time></trkpt><trkpt lat="40.0056823" lon="9.4899146"><ele>867.0</ele><time>2026-03-29T07:40:30.349Z</time></trkpt><trkpt lat="40.0057729" lon="9.4899769"><ele>861.4000000000001</ele><time>2026-03-29T07:40:31.35Z</time></trkpt><trkpt lat="40.0058568" lon="9.4900285"><ele>855.8000000000001</ele><time>2026-03-29T07:40:32.275Z</time></trkpt><trkpt lat="40.00593" lon="9.4900554"><ele>850.2</ele><time>2026-03-29T07:40:33.278Z</time></trkpt><trkpt lat="40.0060213" lon="9.490105"><ele>844.6</ele><time>2026-03-29T07:40:34.263Z</time></trkpt><trkpt lat="40.0061138" lon="9.4901229"><ele>839.0</ele><time>2026-03-29T07:40:35.341Z</time></trkpt><trkpt lat="40.0062005" lon="9.4901534"><ele>839.0</ele><time>2026-03-29T07:40:36.328Z</time></trkpt><trkpt lat="40.0062612" lon="9.4901123"><ele>839.0</ele><time>2026-03-29T07:40:37.35Z</time></trkpt><trkpt lat="40.0063443" lon="9.4902326"><ele>839.0</ele><time>2026-03-29T07:40:39.349Z</time></trkpt><trkpt lat="40.0064094" lon="9.490309"><ele>839.0</ele><time>2026-03-29T07:40:40.349Z</time></trkpt><trkpt lat="40.0065095" lon="9.490401"><ele>839.0</ele><time>2026-03-29T07:40:41.349Z</time></trkpt><trkpt lat="40.0066347" lon="9.4905008"><ele>836.0</ele><time>2026-03-29T07:40:43.325Z</time></trkpt><trkpt lat="40.0067155" lon="9.4904711"><ele>833.0</ele><time>2026-03-29T07:40:45.349Z</time></trkpt><trkpt lat="40.0067788" lon="9.4904475"><ele>830.0</ele><time>2026-03-29T07:40:46.349Z</time></trkpt><trkpt lat="40.0069257" lon="9.4903553"><ele>827.0</ele><time>2026-03-29T07:40:48.29Z</time></trkpt><trkpt lat="40.0070087" lon="9.4902779"><ele>824.0</ele><time>2026-03-29T07:40:49.281Z</time></trkpt><trkpt lat="40.0070837" lon="9.4902269"><ele>824.0000000000001</ele><time>2026-03-29T07:40:50.261Z</time></trkpt><trkpt lat="40.0070994" lon="9.4903065"><ele>824.0</ele><time>2026-03-29T07:40:52.286Z</time></trkpt><trkpt lat="40.0071509" lon="9.4903742"><ele>824.0</ele><time>2026-03-29T07:40:53.272Z</time></trkpt><trkpt lat="40.007188" lon="9.4904705"><ele>824.0</ele><time>2026-03-29T07:40:54.35Z</time></trkpt><trkpt lat="40.0072566" lon="9.4905588"><ele>824.0000000000001</ele><time>2026-03-29T07:40:55.349Z</time></trkpt><trkpt lat="40.0073176" lon="9.4906444"><ele>824.0</ele><time>2026-03-29T07:40:56.349Z</time></trkpt><trkpt lat="40.0073803" lon="9.4907301"><ele>824.0</ele><time>2026-03-29T07:40:57.35Z</time></trkpt><trkpt lat="40.0074934" lon="9.490835"><ele>824.0</ele><time>2026-03-29T07:40:58.349Z</time></trkpt><trkpt lat="40.0075731" lon="9.4909754"><ele>824.0</ele><time>2026-03-29T07:40:59.278Z</time></trkpt><trkpt lat="40.0076543" lon="9.4910778"><ele>824.0</ele><time>2026-03-29T07:41:00.265Z</time></trkpt><trkpt lat="40.0079106" lon="9.4912436"><ele>825.0</ele><time>2026-03-29T07:41:02.327Z</time></trkpt><trkpt lat="40.0079686" lon="9.4913141"><ele>826.0</ele><time>2026-03-29T07:41:03.35Z</time></trkpt><trkpt lat="40.0080639" lon="9.4913859"><ele>827.0</ele><time>2026-03-29T07:41:04.321Z</time></trkpt><trkpt lat="40.0081618" lon="9.4913342"><ele>828.0</ele><time>2026-03-29T07:41:05.349Z</time></trkpt><trkpt lat="40.0081013" lon="9.4912189"><ele>829.0</ele><time>2026-03-29T07:41:06.349Z</time></trkpt><trkpt lat="40.0080566" lon="9.4911458"><ele>834.8000000000001</ele><time>2026-03-29T07:41:08.271Z</time></trkpt><trkpt lat="40.0079627" lon="9.4910068"><ele>840.6</ele><time>2026-03-29T07:41:10.349Z</time></trkpt><trkpt lat="40.0079263" lon="9.4909204"><ele>846.4</ele><time>2026-03-29T07:41:11.349Z</time></trkpt><trkpt lat="40.0078548" lon="9.4907984"><ele>852.2</ele><time>2026-03-29T07:41:12.349Z</time></trkpt><trkpt lat="40.0078182" lon="9.4906934"><ele>858.0</ele><time>2026-03-29T07:41:13.349Z</time></trkpt><trkpt lat="40.0077955" lon="9.4906044"><ele>858.0</ele><time>2026-03-29T07:41:14.349Z</time></trkpt><trkpt lat="40.0077872" lon="9.4905162"><ele>858.0</ele><time>2026-03-29T07:41:15.349Z</time></trkpt><trkpt lat="40.0077761" lon="9.490422"><ele>858.0</ele><time>2026-03-29T07:41:16.349Z</time></trkpt><trkpt lat="40.0077686" lon="9.4903256"><ele>858.0</ele><time>2026-03-29T07:41:17.349Z</time></trkpt><trkpt lat="40.0077622" lon="9.4902112"><ele>858.0</ele><time>2026-03-29T07:41:18.349Z</time></trkpt><trkpt lat="40.0077669" lon="9.4900989"><ele>858.0</ele><time>2026-03-29T07:41:19.273Z</time></trkpt><trkpt lat="40.0077796" lon="9.4899653"><ele>864.0</ele><time>2026-03-29T07:41:20.349Z</time></trkpt><trkpt lat="40.0077747" lon="9.4898647"><ele>870.0</ele><time>2026-03-29T07:41:21.271Z</time></trkpt><trkpt lat="40.0077595" lon="9.4897276"><ele>876.0</ele><time>2026-03-29T07:41:23.349Z</time></trkpt><trkpt lat="40.0076655" lon="9.4896045"><ele>882.0</ele><time>2026-03-29T07:41:25.276Z</time></trkpt><trkpt lat="40.007609" lon="9.4895343"><ele>888.0</ele><time>2026-03-29T07:41:26.272Z</time></trkpt><trkpt lat="40.0075535" lon="9.4894667"><ele>891.2</ele><time>2026-03-29T07:41:27.328Z</time></trkpt><trkpt lat="40.0075078" lon="9.4893935"><ele>894.4</ele><time>2026-03-29T07:41:28.349Z</time></trkpt><trkpt lat="40.0074559" lon="9.489321"><ele>897.6000000000001</ele><time>2026-03-29T07:41:29.329Z</time></trkpt><trkpt lat="40.0073578" lon="9.4892817"><ele>900.8000000000001</ele><time>2026-03-29T07:41:30.35Z</time></trkpt><trkpt lat="40.0072725" lon="9.4891957"><ele>904.0</ele><time>2026-03-29T07:41:31.349Z</time></trkpt><trkpt lat="40.0071728" lon="9.4891317"><ele>904.0</ele><time>2026-03-29T07:41:32.349Z</time></trkpt><trkpt lat="40.0070869" lon="9.4890585"><ele>904.0000000000001</ele><time>2026-03-29T07:41:33.349Z</time></trkpt><trkpt lat="40.0070146" lon="9.4889576"><ele>904.0000000000001</ele><time>2026-03-29T07:41:34.349Z</time></trkpt><trkpt lat="40.0069339" lon="9.4888778"><ele>904.0</ele><time>2026-03-29T07:41:35.344Z</time></trkpt><trkpt lat="40.0069303" lon="9.4887722"><ele>904.0</ele><time>2026-03-29T07:41:36.349Z</time></trkpt><trkpt lat="40.0069196" lon="9.4886646"><ele>910.6</ele><time>2026-03-29T07:41:37.349Z</time></trkpt><trkpt lat="40.0068743" lon="9.4885491"><ele>917.2</ele><time>2026-03-29T07:41:38.349Z</time></trkpt><trkpt lat="40.0068386" lon="9.4884256"><ele>923.8000000000001</ele><time>2026-03-29T07:41:39.35Z</time></trkpt><trkpt lat="40.0067975" lon="9.4883104"><ele>930.4000000000001</ele><time>2026-03-29T07:41:40.35Z</time></trkpt><trkpt lat="40.0067379" lon="9.4882141"><ele>937.0</ele><time>2026-03-29T07:41:41.349Z</time></trkpt><trkpt lat="40.0066784" lon="9.4881298"><ele>937.0</ele><time>2026-03-29T07:41:42.349Z</time></trkpt><trkpt lat="40.0066228" lon="9.4880405"><ele>937.0</ele><time>2026-03-29T07:41:44.349Z</time></trkpt><trkpt lat="40.0066895" lon="9.4881353"><ele>937.0</ele><time>2026-03-29T07:41:50.317Z</time></trkpt><trkpt lat="40.0067518" lon="9.4881879"><ele>937.0</ele><time>2026-03-29T07:41:51.28Z</time></trkpt><trkpt lat="40.0068685" lon="9.4882683"><ele>937.0</ele><time>2026-03-29T07:41:53.349Z</time></trkpt><trkpt lat="40.0069304" lon="9.4883582"><ele>937.0</ele><time>2026-03-29T07:41:55.349Z</time></trkpt><trkpt lat="40.0070156" lon="9.488397"><ele>937.0</ele><time>2026-03-29T07:41:56.35Z</time></trkpt><trkpt lat="40.0070798" lon="9.4884222"><ele>937.0</ele><time>2026-03-29T07:41:57.262Z</time></trkpt><trkpt lat="40.0072354" lon="9.4884259"><ele>937.0</ele><time>2026-03-29T07:41:59.349Z</time></trkpt><trkpt lat="40.0073378" lon="9.4884436"><ele>937.0</ele><time>2026-03-29T07:42:00.35Z</time></trkpt><trkpt lat="40.0074177" lon="9.4884572"><ele>936.9999999999999</ele><time>2026-03-29T07:42:01.349Z</time></trkpt><trkpt lat="40.0074934" lon="9.4884629"><ele>937.0</ele><time>2026-03-29T07:42:02.35Z</time></trkpt><trkpt lat="40.0076028" lon="9.4884716"><ele>937.0</ele><time>2026-03-29T07:42:04.349Z</time></trkpt><trkpt lat="40.0076641" lon="9.488509"><ele>937.0</ele><time>2026-03-29T07:42:06.35Z</time></trkpt><trkpt lat="40.0077447" lon="9.4885504"><ele>936.9999999999999</ele><time>2026-03-29T07:44:09.276Z</time></trkpt><trkpt lat="40.0078089" lon="9.4885401"><ele>937.0</ele><time>2026-03-29T07:44:10.277Z</time></trkpt><trkpt lat="40.0078898" lon="9.4885645"><ele>938.3333333333333</ele><time>2026-03-29T07:44:11.278Z</time></trkpt><trkpt lat="40.0079594" lon="9.4886094"><ele>939.6666666666666</ele><time>2026-03-29T07:44:12.283Z</time></trkpt><trkpt lat="40.0080332" lon="9.4886454"><ele>941.0</ele><time>2026-03-29T07:44:13.263Z</time></trkpt><trkpt lat="40.0081315" lon="9.4886482"><ele>942.3333333333333</ele><time>2026-03-29T07:44:14.281Z</time></trkpt><trkpt lat="40.0082067" lon="9.4886765"><ele>943.6666666666666</ele><time>2026-03-29T07:44:15.279Z</time></trkpt><trkpt lat="40.0082708" lon="9.4887107"><ele>945.0</ele><time>2026-03-29T07:44:16.275Z</time></trkpt><trkpt lat="40.0083719" lon="9.4888031"><ele>945.0</ele><time>2026-03-29T07:44:18.272Z</time></trkpt><trkpt lat="40.0084238" lon="9.488886"><ele>945.0</ele><time>2026-03-29T07:44:19.269Z</time></trkpt><trkpt lat="40.0084616" lon="9.4889761"><ele>945.0</ele><time>2026-03-29T07:44:20.272Z</time></trkpt><trkpt lat="40.0085294" lon="9.4890556"><ele>945.0</ele><time>2026-03-29T07:44:21.358Z</time></trkpt><trkpt lat="40.0085898" lon="9.4891419"><ele>945.0</ele><time>2026-03-29T07:44:22.284Z</time></trkpt><trkpt lat="40.0086351" lon="9.4892229"><ele>945.0</ele><time>2026-03-29T07:44:23.278Z</time></trkpt><trkpt lat="40.0086944" lon="9.4892738"><ele>945.0</ele><time>2026-03-29T07:44:24.28Z</time></trkpt><trkpt lat="40.0087324" lon="9.4893837"><ele>945.0</ele><time>2026-03-29T07:44:26.286Z</time></trkpt><trkpt lat="40.0087992" lon="9.4893728"><ele>945.0</ele><time>2026-03-29T07:44:27.357Z</time></trkpt><trkpt lat="40.0088922" lon="9.4893794"><ele>945.0</ele><time>2026-03-29T07:44:29.29Z</time></trkpt><trkpt lat="40.0089591" lon="9.4893456"><ele>945.0</ele><time>2026-03-29T07:44:31.262Z</time></trkpt><trkpt lat="40.0089003" lon="9.489296"><ele>945.0</ele><time>2026-03-29T07:44:35.357Z</time></trkpt><trkpt lat="40.0089641" lon="9.4892177"><ele>945.0</ele><time>2026-03-29T07:44:40.272Z</time></trkpt><trkpt lat="40.009041" lon="9.4891696"><ele>945.0</ele><time>2026-03-29T07:44:43.266Z</time></trkpt><trkpt lat="40.0089505" lon="9.4890747"><ele>945.0</ele><time>2026-03-29T07:44:47.279Z</time></trkpt><trkpt lat="40.0090095" lon="9.4889699"><ele>945.0</ele><time>2026-03-29T07:44:51.271Z</time></trkpt><trkpt lat="40.0090509" lon="9.4888975"><ele>945.0</ele><time>2026-03-29T07:44:55.277Z</time></trkpt><trkpt lat="40.0090832" lon="9.4888221"><ele>945.0</ele><time>2026-03-29T07:44:58.274Z</time></trkpt><trkpt lat="40.0091176" lon="9.4887165"><ele>951.3333333333334</ele><time>2026-03-29T07:45:01.282Z</time></trkpt><trkpt lat="40.0090413" lon="9.4886684"><ele>957.6666666666667</ele><time>2026-03-29T07:45:05.281Z</time></trkpt><trkpt lat="40.0089628" lon="9.4886138"><ele>964.0</ele><time>2026-03-29T07:45:07.273Z</time></trkpt><trkpt lat="40.0089083" lon="9.4885639"><ele>970.3333333333334</ele><time>2026-03-29T07:45:09.269Z</time></trkpt><trkpt lat="40.0088461" lon="9.4885108"><ele>976.6666666666667</ele><time>2026-03-29T07:45:13.27Z</time></trkpt><trkpt lat="40.0089055" lon="9.488481"><ele>983.0</ele><time>2026-03-29T07:45:17.279Z</time></trkpt><trkpt lat="40.008975" lon="9.4884314"><ele>982.9999999999999</ele><time>2026-03-29T07:45:19.267Z</time></trkpt><trkpt lat="40.0089226" lon="9.4883572"><ele>983.0</ele><time>2026-03-29T07:45:26.274Z</time></trkpt><trkpt lat="40.0088562" lon="9.4883311"><ele>982.9999999999999</ele><time>2026-03-29T07:45:29.263Z</time></trkpt><trkpt lat="40.0088498" lon="9.4882461"><ele>982.9999999999999</ele><time>2026-03-29T07:45:32.262Z</time></trkpt><trkpt lat="40.0088934" lon="9.4881742"><ele>983.0</ele><time>2026-03-29T07:45:37.281Z</time></trkpt><trkpt lat="40.0089244" lon="9.4880784"><ele>982.9999999999999</ele><time>2026-03-29T07:46:21.283Z</time></trkpt><trkpt lat="40.0089956" lon="9.4880314"><ele>982.9999999999999</ele><time>2026-03-29T07:46:27.271Z</time></trkpt><trkpt lat="40.0089513" lon="9.4879688"><ele>983.0000000000001</ele><time>2026-03-29T07:46:32.261Z</time></trkpt><trkpt lat="40.0088748" lon="9.487927"><ele>983.0</ele><time>2026-03-29T07:46:35.318Z</time></trkpt><trkpt lat="40.0088287" lon="9.4878386"><ele>983.0</ele><time>2026-03-29T07:46:39.29Z</time></trkpt><trkpt lat="40.0088626" lon="9.4877605"><ele>983.0</ele><time>2026-03-29T07:46:46.285Z</time></trkpt><trkpt lat="40.0089041" lon="9.4876435"><ele>983.0000000000001</ele><time>2026-03-29T07:46:50.275Z</time></trkpt><trkpt lat="40.0089228" lon="9.4875418"><ele>983.0</ele><time>2026-03-29T07:46:53.282Z</time></trkpt><trkpt lat="40.0088474" lon="9.4875623"><ele>987.9999999999999</ele><time>2026-03-29T07:47:09.357Z</time></trkpt><trkpt lat="40.0088496" lon="9.4874754"><ele>993.0</ele><time>2026-03-29T07:47:26.281Z</time></trkpt><trkpt lat="40.0089061" lon="9.4874284"><ele>997.9999999999999</ele><time>2026-03-29T07:47:36.28Z</time></trkpt><trkpt lat="40.0088354" lon="9.4873992"><ele>1002.9999999999999</ele><time>2026-03-29T07:47:58.253Z</time></trkpt><trkpt lat="40.0087745" lon="9.4873648"><ele>1008.0</ele><time>2026-03-29T07:48:01.252Z</time></trkpt><trkpt lat="40.0087147" lon="9.4873027"><ele>1012.9999999999999</ele><time>2026-03-29T07:48:03.253Z</time></trkpt><trkpt lat="40.0086379" lon="9.4872643"><ele>1017.9999999999999</ele><time>2026-03-29T07:48:05.252Z</time></trkpt><trkpt lat="40.0085484" lon="9.4872425"><ele>1018.0</ele><time>2026-03-29T07:48:07.252Z</time></trkpt><trkpt lat="40.0084472" lon="9.4871678"><ele>1018.0</ele><time>2026-03-29T07:48:09.252Z</time></trkpt><trkpt lat="40.0083765" lon="9.4871527"><ele>1018.0</ele><time>2026-03-29T07:48:10.253Z</time></trkpt><trkpt lat="40.0082938" lon="9.4871154"><ele>1018.0</ele><time>2026-03-29T07:48:12.253Z</time></trkpt><trkpt lat="40.0082454" lon="9.4870371"><ele>1018.0</ele><time>2026-03-29T07:48:15.252Z</time></trkpt><trkpt lat="40.008317" lon="9.4869185"><ele>1023.8333333333333</ele><time>2026-03-29T07:48:17.253Z</time></trkpt><trkpt lat="40.0083874" lon="9.4869258"><ele>1029.6666666666665</ele><time>2026-03-29T07:48:19.252Z</time></trkpt><trkpt lat="40.0084724" lon="9.4869403"><ele>1035.5</ele><time>2026-03-29T07:48:21.252Z</time></trkpt><trkpt lat="40.0085648" lon="9.4869807"><ele>1041.3333333333333</ele><time>2026-03-29T07:48:23.253Z</time></trkpt><trkpt lat="40.0086664" lon="9.4869555"><ele>1047.1666666666667</ele><time>2026-03-29T07:48:26.252Z</time></trkpt><trkpt lat="40.0087334" lon="9.4869506"><ele>1053.0</ele><time>2026-03-29T07:48:29.252Z</time></trkpt><trkpt lat="40.0087803" lon="9.4868873"><ele>1053.0</ele><time>2026-03-29T07:48:34.252Z</time></trkpt><trkpt lat="40.0087589" lon="9.4868077"><ele>1053.0</ele><time>2026-03-29T07:48:41.253Z</time></trkpt><trkpt lat="40.0086815" lon="9.4868035"><ele>1053.0</ele><time>2026-03-29T07:48:43.252Z</time></trkpt><trkpt lat="40.0085827" lon="9.4867806"><ele>1053.0</ele><time>2026-03-29T07:48:45.253Z</time></trkpt><trkpt lat="40.0085273" lon="9.4867409"><ele>1053.0</ele><time>2026-03-29T07:48:47.252Z</time></trkpt><trkpt lat="40.0084643" lon="9.486692"><ele>1053.0</ele><time>2026-03-29T07:49:39.252Z</time></trkpt><trkpt lat="40.0084092" lon="9.4866287"><ele>1053.0</ele><time>2026-03-29T07:49:42.252Z</time></trkpt><trkpt lat="40.0083406" lon="9.4865778"><ele>1053.0</ele><time>2026-03-29T07:50:51.253Z</time></trkpt><trkpt lat="40.0083541" lon="9.4864931"><ele>1053.0</ele><time>2026-03-29T07:51:00.252Z</time></trkpt><trkpt lat="40.0084163" lon="9.4864582"><ele>1053.0</ele><time>2026-03-29T07:51:05.252Z</time></trkpt><trkpt lat="40.0084593" lon="9.4863756"><ele>1053.0</ele><time>2026-03-29T07:52:14.252Z</time></trkpt><trkpt lat="40.0085431" lon="9.4863643"><ele>1053.0</ele><time>2026-03-29T07:52:16.252Z</time></trkpt><trkpt lat="40.0086228" lon="9.4863316"><ele>1056.9999999999998</ele><time>2026-03-29T07:52:18.252Z</time></trkpt><trkpt lat="40.0085875" lon="9.4862514"><ele>1061.0</ele><time>2026-03-29T07:52:45.252Z</time></trkpt><trkpt lat="40.0086479" lon="9.4861418"><ele>1065.0</ele><time>2026-03-29T07:52:55.248Z</time></trkpt><trkpt lat="40.0086947" lon="9.4860847"><ele>1069.0</ele><time>2026-03-29T07:52:57.253Z</time></trkpt><trkpt lat="40.0086405" lon="9.4860361"><ele>1073.0</ele><time>2026-03-29T07:53:02.263Z</time></trkpt><trkpt lat="40.0085712" lon="9.4859849"><ele>1076.9999999999998</ele><time>2026-03-29T07:53:04.248Z</time></trkpt><trkpt lat="40.0085224" lon="9.485929"><ele>1081.0</ele><time>2026-03-29T07:53:06.248Z</time></trkpt><trkpt lat="40.0084986" lon="9.485829"><ele>1080.9999999999998</ele><time>2026-03-29T07:53:08.249Z</time></trkpt><trkpt lat="40.0084819" lon="9.4857426"><ele>1081.0</ele><time>2026-03-29T07:53:10.248Z</time></trkpt><trkpt lat="40.0084394" lon="9.4856796"><ele>1081.0</ele><time>2026-03-29T07:53:29.248Z</time></trkpt><trkpt lat="40.0083855" lon="9.4856247"><ele>1081.0</ele><time>2026-03-29T08:00:05.246Z</time></trkpt><trkpt lat="40.0083616" lon="9.4855073"><ele>1081.0</ele><time>2026-03-29T08:00:08.246Z</time></trkpt><trkpt lat="40.0083324" lon="9.4854153"><ele>1080.9999999999998</ele><time>2026-03-29T08:00:10.246Z</time></trkpt><trkpt lat="40.0082985" lon="9.4853416"><ele>1081.0</ele><time>2026-03-29T08:00:12.246Z</time></trkpt><trkpt lat="40.0083641" lon="9.4853064"><ele>1081.8333333333333</ele><time>2026-03-29T08:00:17.246Z</time></trkpt><trkpt lat="40.0084204" lon="9.4852694"><ele>1082.6666666666665</ele><time>2026-03-29T08:00:19.246Z</time></trkpt><trkpt lat="40.0083824" lon="9.4851748"><ele>1083.5</ele><time>2026-03-29T08:00:22.246Z</time></trkpt><trkpt lat="40.00834" lon="9.485109"><ele>1084.3333333333333</ele><time>2026-03-29T08:00:24.246Z</time></trkpt><trkpt lat="40.0083115" lon="9.4850118"><ele>1085.1666666666667</ele><time>2026-03-29T08:00:27.246Z</time></trkpt><trkpt lat="40.0083094" lon="9.4849093"><ele>1086.0</ele><time>2026-03-29T08:00:30.246Z</time></trkpt><trkpt lat="40.0082223" lon="9.4849007"><ele>1086.0</ele><time>2026-03-29T08:00:33.247Z</time></trkpt><trkpt lat="40.0082464" lon="9.4847721"><ele>1086.0</ele><time>2026-03-29T08:00:38.246Z</time></trkpt><trkpt lat="40.0082688" lon="9.4846636"><ele>1086.0</ele><time>2026-03-29T08:00:40.246Z</time></trkpt><trkpt lat="40.0081903" lon="9.4846457"><ele>1086.0</ele><time>2026-03-29T08:00:44.246Z</time></trkpt><trkpt lat="40.0081095" lon="9.4846248"><ele>1086.0</ele><time>2026-03-29T08:00:46.246Z</time></trkpt><trkpt lat="40.0080344" lon="9.4845307"><ele>1091.5</ele><time>2026-03-29T08:00:48.246Z</time></trkpt><trkpt lat="40.0079427" lon="9.4844208"><ele>1097.0</ele><time>2026-03-29T08:00:50.246Z</time></trkpt><trkpt lat="40.0078777" lon="9.4843642"><ele>1102.5</ele><time>2026-03-29T08:00:51.246Z</time></trkpt><trkpt lat="40.0078243" lon="9.4843028"><ele>1108.0</ele><time>2026-03-29T08:00:52.247Z</time></trkpt><trkpt lat="40.0077672" lon="9.4842434"><ele>1113.5</ele><time>2026-03-29T08:00:53.246Z</time></trkpt><trkpt lat="40.0077067" lon="9.4841893"><ele>1119.0</ele><time>2026-03-29T08:00:54.247Z</time></trkpt><trkpt lat="40.0076522" lon="9.4841355"><ele>1119.0</ele><time>2026-03-29T08:00:55.247Z</time></trkpt><trkpt lat="40.0075942" lon="9.484052"><ele>1119.0</ele><time>2026-03-29T08:00:56.246Z</time></trkpt><trkpt lat="40.007543" lon="9.483976"><ele>1119.0</ele><time>2026-03-29T08:00:58.247Z</time></trkpt><trkpt lat="40.0074843" lon="9.4838963"><ele>1119.0</ele><time>2026-03-29T08:01:00.246Z</time></trkpt><trkpt lat="40.0074223" lon="9.4837795"><ele>1119.0</ele><time>2026-03-29T08:01:02.246Z</time></trkpt><trkpt lat="40.0073199" lon="9.4836794"><ele>1122.6000000000001</ele><time>2026-03-29T08:01:04.246Z</time></trkpt><trkpt lat="40.0072341" lon="9.483588"><ele>1126.2</ele><time>2026-03-29T08:01:06.247Z</time></trkpt><trkpt lat="40.0071954" lon="9.4835177"><ele>1129.8000000000002</ele><time>2026-03-29T08:01:07.246Z</time></trkpt><trkpt lat="40.0070893" lon="9.4834641"><ele>1133.4</ele><time>2026-03-29T08:01:09.246Z</time></trkpt><trkpt lat="40.007034" lon="9.4834242"><ele>1137.0</ele><time>2026-03-29T08:01:11.247Z</time></trkpt><trkpt lat="40.0069571" lon="9.4833382"><ele>1136.9999999999998</ele><time>2026-03-29T08:01:13.246Z</time></trkpt><trkpt lat="40.0069134" lon="9.4832726"><ele>1137.0</ele><time>2026-03-29T08:01:14.246Z</time></trkpt><trkpt lat="40.0068656" lon="9.4832142"><ele>1137.0</ele><time>2026-03-29T08:01:15.246Z</time></trkpt><trkpt lat="40.0067852" lon="9.4831309"><ele>1137.0</ele><time>2026-03-29T08:01:17.246Z</time></trkpt><trkpt lat="40.0067387" lon="9.4830566"><ele>1137.0</ele><time>2026-03-29T08:01:26.247Z</time></trkpt><trkpt lat="40.0066782" lon="9.4830242"><ele>1136.9999999999998</ele><time>2026-03-29T08:01:29.246Z</time></trkpt><trkpt lat="40.0066184" lon="9.4829653"><ele>1137.0</ele><time>2026-03-29T08:01:33.246Z</time></trkpt><trkpt lat="40.0065463" lon="9.482988"><ele>1137.0</ele><time>2026-03-29T08:01:40.247Z</time></trkpt><trkpt lat="40.0065889" lon="9.4829161"><ele>1137.0</ele><time>2026-03-29T08:01:44.246Z</time></trkpt><trkpt lat="40.006682" lon="9.4829015"><ele>1137.0</ele><time>2026-03-29T08:01:47.246Z</time></trkpt><trkpt lat="40.0067811" lon="9.4829638"><ele>1137.0</ele><time>2026-03-29T08:01:51.247Z</time></trkpt><trkpt lat="40.0068844" lon="9.4830123"><ele>1137.0</ele><time>2026-03-29T08:01:52.246Z</time></trkpt><trkpt lat="40.0069471" lon="9.4830387"><ele>1137.0</ele><time>2026-03-29T08:01:53.247Z</time></trkpt><trkpt lat="40.0070297" lon="9.4830947"><ele>1137.0</ele><time>2026-03-29T08:01:55.246Z</time></trkpt><trkpt lat="40.0070792" lon="9.483155"><ele>1137.0</ele><time>2026-03-29T08:01:56.247Z</time></trkpt><trkpt lat="40.0071635" lon="9.4832495"><ele>1137.0</ele><time>2026-03-29T08:01:58.246Z</time></trkpt><trkpt lat="40.0072478" lon="9.4833324"><ele>1137.0</ele><time>2026-03-29T08:02:00.246Z</time></trkpt><trkpt lat="40.0073584" lon="9.4833937"><ele>1137.0</ele><time>2026-03-29T08:02:02.246Z</time></trkpt><trkpt lat="40.0074837" lon="9.4834242"><ele>1138.3333333333333</ele><time>2026-03-29T08:02:04.246Z</time></trkpt><trkpt lat="40.0075581" lon="9.4834411"><ele>1139.6666666666667</ele><time>2026-03-29T08:02:05.247Z</time></trkpt><trkpt lat="40.0076272" lon="9.4834253"><ele>1141.0</ele><time>2026-03-29T08:02:06.246Z</time></trkpt><trkpt lat="40.0077067" lon="9.4834357"><ele>1142.3333333333335</ele><time>2026-03-29T08:02:07.246Z</time></trkpt><trkpt lat="40.0077776" lon="9.4834288"><ele>1143.6666666666667</ele><time>2026-03-29T08:02:08.246Z</time></trkpt><trkpt lat="40.0078826" lon="9.4833839"><ele>1145.0</ele><time>2026-03-29T08:02:10.246Z</time></trkpt><trkpt lat="40.0079359" lon="9.4833392"><ele>1145.0</ele><time>2026-03-29T08:02:11.247Z</time></trkpt><trkpt lat="40.0080247" lon="9.4832276"><ele>1145.0</ele><time>2026-03-29T08:02:13.246Z</time></trkpt><trkpt lat="40.0080717" lon="9.4831543"><ele>1145.0</ele><time>2026-03-29T08:02:14.246Z</time></trkpt><trkpt lat="40.0081125" lon="9.4830667"><ele>1145.0</ele><time>2026-03-29T08:02:15.247Z</time></trkpt><trkpt lat="40.0081606" lon="9.4829882"><ele>1145.0</ele><time>2026-03-29T08:02:16.246Z</time></trkpt><trkpt lat="40.0082129" lon="9.4829016"><ele>1145.0</ele><time>2026-03-29T08:02:17.246Z</time></trkpt><trkpt lat="40.0082555" lon="9.4828197"><ele>1146.6666666666667</ele><time>2026-03-29T08:02:18.246Z</time></trkpt><trkpt lat="40.0083196" lon="9.4827521"><ele>1148.3333333333335</ele><time>2026-03-29T08:02:19.247Z</time></trkpt><trkpt lat="40.0083779" lon="9.4826746"><ele>1150.0</ele><time>2026-03-29T08:02:20.247Z</time></trkpt><trkpt lat="40.0084256" lon="9.4825577"><ele>1151.6666666666667</ele><time>2026-03-29T08:02:21.246Z</time></trkpt><trkpt lat="40.0084856" lon="9.4824601"><ele>1153.3333333333333</ele><time>2026-03-29T08:02:22.247Z</time></trkpt><trkpt lat="40.0085516" lon="9.4823956"><ele>1155.0</ele><time>2026-03-29T08:02:23.246Z</time></trkpt><trkpt lat="40.0086008" lon="9.4822957"><ele>1155.0</ele><time>2026-03-29T08:02:24.246Z</time></trkpt><trkpt lat="40.0086734" lon="9.4822545"><ele>1155.0</ele><time>2026-03-29T08:02:25.247Z</time></trkpt><trkpt lat="40.0087605" lon="9.4821122"><ele>1155.0</ele><time>2026-03-29T08:02:27.246Z</time></trkpt><trkpt lat="40.0087808" lon="9.4820229"><ele>1155.0</ele><time>2026-03-29T08:02:28.246Z</time></trkpt><trkpt lat="40.0088073" lon="9.4819262"><ele>1155.0</ele><time>2026-03-29T08:02:29.246Z</time></trkpt><trkpt lat="40.0088477" lon="9.4818381"><ele>1155.0</ele><time>2026-03-29T08:02:30.246Z</time></trkpt><trkpt lat="40.0088923" lon="9.4817723"><ele>1154.6666666666667</ele><time>2026-03-29T08:02:31.246Z</time></trkpt><trkpt lat="40.0089383" lon="9.4816942"><ele>1154.3333333333333</ele><time>2026-03-29T08:02:32.246Z</time></trkpt><trkpt lat="40.0089917" lon="9.481643"><ele>1154.0</ele><time>2026-03-29T08:02:33.246Z</time></trkpt><trkpt lat="40.009076" lon="9.4815507"><ele>1153.6666666666665</ele><time>2026-03-29T08:02:34.247Z</time></trkpt><trkpt lat="40.0091241" lon="9.4814518"><ele>1153.3333333333333</ele><time>2026-03-29T08:02:35.246Z</time></trkpt><trkpt lat="40.0091766" lon="9.4813707"><ele>1153.0</ele><time>2026-03-29T08:02:36.246Z</time></trkpt><trkpt lat="40.0092408" lon="9.4812976"><ele>1157.3333333333333</ele><time>2026-03-29T08:02:37.247Z</time></trkpt><trkpt lat="40.0093146" lon="9.4812252"><ele>1161.6666666666665</ele><time>2026-03-29T08:02:38.246Z</time></trkpt><trkpt lat="40.0093729" lon="9.4811613"><ele>1166.0</ele><time>2026-03-29T08:02:39.246Z</time></trkpt><trkpt lat="40.0094434" lon="9.4811069"><ele>1170.3333333333333</ele><time>2026-03-29T08:02:40.246Z</time></trkpt><trkpt lat="40.0095093" lon="9.4810658"><ele>1174.6666666666667</ele><time>2026-03-29T08:02:41.246Z</time></trkpt><trkpt lat="40.0095649" lon="9.4810147"><ele>1179.0</ele><time>2026-03-29T08:02:42.246Z</time></trkpt><trkpt lat="40.0096384" lon="9.4809019"><ele>1179.0</ele><time>2026-03-29T08:02:44.246Z</time></trkpt><trkpt lat="40.0096827" lon="9.4807641"><ele>1179.0</ele><time>2026-03-29T08:02:46.246Z</time></trkpt><trkpt lat="40.0097853" lon="9.4806645"><ele>1179.0</ele><time>2026-03-29T08:02:48.247Z</time></trkpt><trkpt lat="40.0098379" lon="9.480603"><ele>1179.0</ele><time>2026-03-29T08:02:49.247Z</time></trkpt><trkpt lat="40.0099134" lon="9.480524"><ele>1179.0</ele><time>2026-03-29T08:02:50.246Z</time></trkpt><trkpt lat="40.0099891" lon="9.4804494"><ele>1180.6666666666667</ele><time>2026-03-29T08:02:51.246Z</time></trkpt><trkpt lat="40.010058" lon="9.4803921"><ele>1182.3333333333333</ele><time>2026-03-29T08:02:52.246Z</time></trkpt><trkpt lat="40.0101168" lon="9.4803337"><ele>1184.0</ele><time>2026-03-29T08:02:53.247Z</time></trkpt><trkpt lat="40.0101977" lon="9.4802533"><ele>1185.6666666666665</ele><time>2026-03-29T08:02:54.246Z</time></trkpt><trkpt lat="40.0102685" lon="9.4801923"><ele>1187.3333333333333</ele><time>2026-03-29T08:02:55.246Z</time></trkpt><trkpt lat="40.0103514" lon="9.4801455"><ele>1189.0</ele><time>2026-03-29T08:02:56.246Z</time></trkpt><trkpt lat="40.0104194" lon="9.4800905"><ele>1189.0</ele><time>2026-03-29T08:02:57.247Z</time></trkpt><trkpt lat="40.0104818" lon="9.4800627"><ele>1189.0</ele><time>2026-03-29T08:02:58.246Z</time></trkpt><trkpt lat="40.0105494" lon="9.4800004"><ele>1189.0</ele><time>2026-03-29T08:02:59.246Z</time></trkpt><trkpt lat="40.0106183" lon="9.4799463"><ele>1189.0</ele><time>2026-03-29T08:03:00.246Z</time></trkpt><trkpt lat="40.0106795" lon="9.4798759"><ele>1189.0</ele><time>2026-03-29T08:03:01.246Z</time></trkpt><trkpt lat="40.0107606" lon="9.4798203"><ele>1189.0</ele><time>2026-03-29T08:03:02.246Z</time></trkpt><trkpt lat="40.0108366" lon="9.4797859"><ele>1192.4</ele><time>2026-03-29T08:03:03.246Z</time></trkpt><trkpt lat="40.0109292" lon="9.4796851"><ele>1195.8000000000002</ele><time>2026-03-29T08:03:05.246Z</time></trkpt><trkpt lat="40.011015" lon="9.4795965"><ele>1199.1999999999998</ele><time>2026-03-29T08:03:07.246Z</time></trkpt><trkpt lat="40.0111101" lon="9.4795711"><ele>1202.6</ele><time>2026-03-29T08:03:09.246Z</time></trkpt><trkpt lat="40.0112152" lon="9.4795256"><ele>1206.0</ele><time>2026-03-29T08:03:11.246Z</time></trkpt><trkpt lat="40.0113186" lon="9.4794886"><ele>1206.0</ele><time>2026-03-29T08:03:13.246Z</time></trkpt><trkpt lat="40.0114276" lon="9.4794019"><ele>1206.0</ele><time>2026-03-29T08:03:15.246Z</time></trkpt><trkpt lat="40.0114961" lon="9.4793317"><ele>1206.0</ele><time>2026-03-29T08:03:17.246Z</time></trkpt><trkpt lat="40.0115111" lon="9.4792228"><ele>1206.0</ele><time>2026-03-29T08:03:19.246Z</time></trkpt><trkpt lat="40.011559" lon="9.4790784"><ele>1206.0</ele><time>2026-03-29T08:03:21.247Z</time></trkpt><trkpt lat="40.0116003" lon="9.4789951"><ele>1205.0</ele><time>2026-03-29T08:03:22.246Z</time></trkpt><trkpt lat="40.0116612" lon="9.4789075"><ele>1204.0</ele><time>2026-03-29T08:03:23.247Z</time></trkpt><trkpt lat="40.0117584" lon="9.4787802"><ele>1203.0</ele><time>2026-03-29T08:03:25.246Z</time></trkpt><trkpt lat="40.011849" lon="9.4786385"><ele>1202.0</ele><time>2026-03-29T08:03:27.246Z</time></trkpt><trkpt lat="40.0118958" lon="9.4785518"><ele>1202.0</ele><time>2026-03-29T08:03:28.247Z</time></trkpt><trkpt lat="40.0119462" lon="9.4784454"><ele>1202.0</ele><time>2026-03-29T08:03:29.246Z</time></trkpt><trkpt lat="40.0119761" lon="9.4783403"><ele>1202.0</ele><time>2026-03-29T08:03:30.246Z</time></trkpt><trkpt lat="40.012021" lon="9.478246"><ele>1202.0</ele><time>2026-03-29T08:03:31.247Z</time></trkpt><trkpt lat="40.0120648" lon="9.4781495"><ele>1202.0</ele><time>2026-03-29T08:03:32.246Z</time></trkpt><trkpt lat="40.0121181" lon="9.4780797"><ele>1202.0</ele><time>2026-03-29T08:03:33.246Z</time></trkpt><trkpt lat="40.0121811" lon="9.4780008"><ele>1200.0</ele><time>2026-03-29T08:03:34.246Z</time></trkpt><trkpt lat="40.0122366" lon="9.4779173"><ele>1198.0</ele><time>2026-03-29T08:03:35.246Z</time></trkpt><trkpt lat="40.012304" lon="9.4778588"><ele>1196.0</ele><time>2026-03-29T08:03:36.246Z</time></trkpt><trkpt lat="40.0123676" lon="9.4778012"><ele>1194.0</ele><time>2026-03-29T08:03:37.246Z</time></trkpt><trkpt lat="40.0124329" lon="9.477727"><ele>1192.0</ele><time>2026-03-29T08:03:38.246Z</time></trkpt><trkpt lat="40.0124907" lon="9.4776555"><ele>1190.0</ele><time>2026-03-29T08:03:39.246Z</time></trkpt><trkpt lat="40.0125433" lon="9.4775535"><ele>1190.0</ele><time>2026-03-29T08:03:40.246Z</time></trkpt><trkpt lat="40.0125934" lon="9.4774652"><ele>1190.0</ele><time>2026-03-29T08:03:41.247Z</time></trkpt><trkpt lat="40.0126412" lon="9.4773635"><ele>1190.0</ele><time>2026-03-29T08:03:42.246Z</time></trkpt><trkpt lat="40.012691" lon="9.4772556"><ele>1190.0</ele><time>2026-03-29T08:03:43.246Z</time></trkpt><trkpt lat="40.0127402" lon="9.4771812"><ele>1190.0</ele><time>2026-03-29T08:03:44.246Z</time></trkpt><trkpt lat="40.0127807" lon="9.4770821"><ele>1190.0</ele><time>2026-03-29T08:03:45.247Z</time></trkpt><trkpt lat="40.0128152" lon="9.4769922"><ele>1192.7142857142858</ele><time>2026-03-29T08:03:46.246Z</time></trkpt><trkpt lat="40.0128514" lon="9.4769231"><ele>1195.4285714285716</ele><time>2026-03-29T08:03:47.246Z</time></trkpt><trkpt lat="40.0128818" lon="9.4768509"><ele>1198.142857142857</ele><time>2026-03-29T08:03:48.246Z</time></trkpt><trkpt lat="40.0128972" lon="9.4767681"><ele>1200.857142857143</ele><time>2026-03-29T08:03:49.246Z</time></trkpt><trkpt lat="40.0129253" lon="9.4766738"><ele>1203.5714285714287</ele><time>2026-03-29T08:03:50.246Z</time></trkpt><trkpt lat="40.0129659" lon="9.476593"><ele>1206.2857142857142</ele><time>2026-03-29T08:03:51.247Z</time></trkpt><trkpt lat="40.0130143" lon="9.4765238"><ele>1209.0</ele><time>2026-03-29T08:03:52.246Z</time></trkpt><trkpt lat="40.0130574" lon="9.4764376"><ele>1209.0</ele><time>2026-03-29T08:03:53.246Z</time></trkpt><trkpt lat="40.0131078" lon="9.4763545"><ele>1209.0</ele><time>2026-03-29T08:03:54.246Z</time></trkpt><trkpt lat="40.0131543" lon="9.4762936"><ele>1209.0</ele><time>2026-03-29T08:03:55.246Z</time></trkpt><trkpt lat="40.0131956" lon="9.4762154"><ele>1209.0</ele><time>2026-03-29T08:03:56.247Z</time></trkpt><trkpt lat="40.0132347" lon="9.4761237"><ele>1209.0</ele><time>2026-03-29T08:03:57.246Z</time></trkpt><trkpt lat="40.0132857" lon="9.4760449"><ele>1209.0</ele><time>2026-03-29T08:03:58.246Z</time></trkpt><trkpt lat="40.0133435" lon="9.4759799"><ele>1207.0</ele><time>2026-03-29T08:03:59.247Z</time></trkpt><trkpt lat="40.0134056" lon="9.4759172"><ele>1205.0</ele><time>2026-03-29T08:04:00.246Z</time></trkpt><trkpt lat="40.0134969" lon="9.4758972"><ele>1203.0</ele><time>2026-03-29T08:04:02.247Z</time></trkpt><trkpt lat="40.0135715" lon="9.4759083"><ele>1201.0</ele><time>2026-03-29T08:04:03.246Z</time></trkpt><trkpt lat="40.0136645" lon="9.4759097"><ele>1199.0</ele><time>2026-03-29T08:04:04.247Z</time></trkpt><trkpt lat="40.0137351" lon="9.4758924"><ele>1197.0</ele><time>2026-03-29T08:04:05.246Z</time></trkpt><trkpt lat="40.0138112" lon="9.4758991"><ele>1197.0</ele><time>2026-03-29T08:04:06.247Z</time></trkpt><trkpt lat="40.0138917" lon="9.4758992"><ele>1197.0</ele><time>2026-03-29T08:04:07.246Z</time></trkpt><trkpt lat="40.0139696" lon="9.475902"><ele>1197.0</ele><time>2026-03-29T08:04:08.247Z</time></trkpt><trkpt lat="40.0140475" lon="9.4759052"><ele>1197.0</ele><time>2026-03-29T08:04:09.246Z</time></trkpt><trkpt lat="40.0141165" lon="9.4759149"><ele>1197.0</ele><time>2026-03-29T08:04:10.246Z</time></trkpt><trkpt lat="40.0141836" lon="9.4759021"><ele>1197.0</ele><time>2026-03-29T08:04:11.246Z</time></trkpt><trkpt lat="40.0142505" lon="9.4758822"><ele>1197.0</ele><time>2026-03-29T08:04:12.246Z</time></trkpt><trkpt lat="40.0143199" lon="9.4758718"><ele>1194.5</ele><time>2026-03-29T08:04:13.246Z</time></trkpt><trkpt lat="40.0143867" lon="9.47583"><ele>1192.0</ele><time>2026-03-29T08:04:14.247Z</time></trkpt><trkpt lat="40.0144632" lon="9.4758073"><ele>1189.5</ele><time>2026-03-29T08:04:15.246Z</time></trkpt><trkpt lat="40.0145448" lon="9.4757868"><ele>1187.0</ele><time>2026-03-29T08:04:16.246Z</time></trkpt><trkpt lat="40.0146339" lon="9.4757581"><ele>1184.5</ele><time>2026-03-29T08:04:18.246Z</time></trkpt><trkpt lat="40.0146697" lon="9.4756892"><ele>1182.0</ele><time>2026-03-29T08:04:21.246Z</time></trkpt><trkpt lat="40.0145845" lon="9.4757091"><ele>1182.0</ele><time>2026-03-29T08:04:24.247Z</time></trkpt><trkpt lat="40.0145157" lon="9.475717"><ele>1182.0</ele><time>2026-03-29T08:04:37.247Z</time></trkpt><trkpt lat="40.014425" lon="9.4757057"><ele>1182.0</ele><time>2026-03-29T08:04:40.246Z</time></trkpt><trkpt lat="40.0143601" lon="9.4756973"><ele>1182.0</ele><time>2026-03-29T08:04:41.247Z</time></trkpt><trkpt lat="40.0142842" lon="9.4756831"><ele>1182.0</ele><time>2026-03-29T08:04:42.246Z</time></trkpt><trkpt lat="40.0141989" lon="9.4756567"><ele>1182.0</ele><time>2026-03-29T08:04:43.246Z</time></trkpt><trkpt lat="40.0141188" lon="9.4756073"><ele>1183.4</ele><time>2026-03-29T08:04:44.247Z</time></trkpt><trkpt lat="40.0140302" lon="9.4755447"><ele>1184.8000000000002</ele><time>2026-03-29T08:04:45.246Z</time></trkpt><trkpt lat="40.0139384" lon="9.4754795"><ele>1186.2</ele><time>2026-03-29T08:04:46.246Z</time></trkpt><trkpt lat="40.0138375" lon="9.4754235"><ele>1187.6000000000001</ele><time>2026-03-29T08:04:47.246Z</time></trkpt><trkpt lat="40.0137542" lon="9.4753848"><ele>1189.0</ele><time>2026-03-29T08:04:48.246Z</time></trkpt><trkpt lat="40.0136809" lon="9.475375"><ele>1189.0</ele><time>2026-03-29T08:04:49.247Z</time></trkpt><trkpt lat="40.0135724" lon="9.4754175"><ele>1189.0</ele><time>2026-03-29T08:04:51.246Z</time></trkpt><trkpt lat="40.0135238" lon="9.4754734"><ele>1189.0</ele><time>2026-03-29T08:04:52.246Z</time></trkpt><trkpt lat="40.0134756" lon="9.4755285"><ele>1189.0</ele><time>2026-03-29T08:04:53.246Z</time></trkpt><trkpt lat="40.0134177" lon="9.4755726"><ele>1189.0</ele><time>2026-03-29T08:04:55.246Z</time></trkpt><trkpt lat="40.0133344" lon="9.4756094"><ele>1189.0</ele><time>2026-03-29T08:06:05.246Z</time></trkpt><trkpt lat="40.0132458" lon="9.4756205"><ele>1192.6666666666665</ele><time>2026-03-29T08:06:07.246Z</time></trkpt><trkpt lat="40.0131222" lon="9.4755879"><ele>1196.3333333333333</ele><time>2026-03-29T08:06:09.246Z</time></trkpt><trkpt lat="40.0130498" lon="9.4755701"><ele>1200.0</ele><time>2026-03-29T08:06:10.247Z</time></trkpt><trkpt lat="40.0129741" lon="9.4755585"><ele>1203.6666666666667</ele><time>2026-03-29T08:06:11.246Z</time></trkpt><trkpt lat="40.0128984" lon="9.4755628"><ele>1207.3333333333335</ele><time>2026-03-29T08:06:12.247Z</time></trkpt><trkpt lat="40.0128118" lon="9.4755861"><ele>1211.0</ele><time>2026-03-29T08:06:13.246Z</time></trkpt><trkpt lat="40.0127261" lon="9.4755963"><ele>1211.0</ele><time>2026-03-29T08:06:14.246Z</time></trkpt><trkpt lat="40.01264" lon="9.4756044"><ele>1211.0</ele><time>2026-03-29T08:06:15.246Z</time></trkpt><trkpt lat="40.0125511" lon="9.475619"><ele>1211.0</ele><time>2026-03-29T08:06:16.246Z</time></trkpt><trkpt lat="40.0124588" lon="9.4756521"><ele>1211.0</ele><time>2026-03-29T08:06:17.246Z</time></trkpt><trkpt lat="40.0123518" lon="9.4756944"><ele>1211.0</ele><time>2026-03-29T08:06:18.246Z</time></trkpt><trkpt lat="40.0122458" lon="9.4757453"><ele>1213.5</ele><time>2026-03-29T08:06:19.246Z</time></trkpt><trkpt lat="40.0121385" lon="9.4757863"><ele>1216.0</ele><time>2026-03-29T08:06:20.247Z</time></trkpt><trkpt lat="40.0120219" lon="9.4758071"><ele>1218.5</ele><time>2026-03-29T08:06:21.246Z</time></trkpt><trkpt lat="40.0119039" lon="9.4758319"><ele>1221.0</ele><time>2026-03-29T08:06:22.246Z</time></trkpt><trkpt lat="40.0117785" lon="9.4758636"><ele>1221.0</ele><time>2026-03-29T08:06:23.247Z</time></trkpt><trkpt lat="40.011661" lon="9.4758849"><ele>1221.0</ele><time>2026-03-29T08:06:24.246Z</time></trkpt><trkpt lat="40.0115473" lon="9.4758788"><ele>1221.0</ele><time>2026-03-29T08:06:25.246Z</time></trkpt><trkpt lat="40.0114151" lon="9.4758825"><ele>1221.0</ele><time>2026-03-29T08:06:26.246Z</time></trkpt><trkpt lat="40.011286" lon="9.475888"><ele>1224.5</ele><time>2026-03-29T08:06:27.246Z</time></trkpt><trkpt lat="40.0111584" lon="9.4758859"><ele>1228.0</ele><time>2026-03-29T08:06:28.247Z</time></trkpt><trkpt lat="40.0110314" lon="9.4758949"><ele>1231.5</ele><time>2026-03-29T08:06:29.246Z</time></trkpt><trkpt lat="40.0109218" lon="9.4759112"><ele>1235.0</ele><time>2026-03-29T08:06:30.247Z</time></trkpt><trkpt lat="40.0108278" lon="9.4759223"><ele>1236.0</ele><time>2026-03-29T08:06:31.247Z</time></trkpt><trkpt lat="40.0107593" lon="9.4759005"><ele>1237.0</ele><time>2026-03-29T08:06:32.246Z</time></trkpt><trkpt lat="40.0106868" lon="9.4758709"><ele>1238.0</ele><time>2026-03-29T08:06:33.247Z</time></trkpt><trkpt lat="40.0106255" lon="9.4757916"><ele>1239.0</ele><time>2026-03-29T08:06:34.247Z</time></trkpt><trkpt lat="40.0105519" lon="9.4757144"><ele>1240.0</ele><time>2026-03-29T08:06:35.247Z</time></trkpt><trkpt lat="40.010488" lon="9.4756673"><ele>1241.0</ele><time>2026-03-29T08:06:36.246Z</time></trkpt><trkpt lat="40.0104215" lon="9.4756428"><ele>1241.0</ele><time>2026-03-29T08:06:37.247Z</time></trkpt><trkpt lat="40.0103449" lon="9.4756599"><ele>1241.0</ele><time>2026-03-29T08:06:38.246Z</time></trkpt><trkpt lat="40.0102762" lon="9.4757097"><ele>1241.0</ele><time>2026-03-29T08:06:39.246Z</time></trkpt><trkpt lat="40.0102109" lon="9.4757747"><ele>1241.0</ele><time>2026-03-29T08:06:40.246Z</time></trkpt><trkpt lat="40.0101476" lon="9.4758613"><ele>1241.0</ele><time>2026-03-29T08:06:41.247Z</time></trkpt><trkpt lat="40.0100902" lon="9.4759837"><ele>1241.0</ele><time>2026-03-29T08:06:42.246Z</time></trkpt><trkpt lat="40.0100199" lon="9.4761078"><ele>1241.5</ele><time>2026-03-29T08:06:43.246Z</time></trkpt><trkpt lat="40.0099546" lon="9.476242"><ele>1242.0</ele><time>2026-03-29T08:06:44.246Z</time></trkpt><trkpt lat="40.0099027" lon="9.4763767"><ele>1242.5</ele><time>2026-03-29T08:06:45.247Z</time></trkpt><trkpt lat="40.0098584" lon="9.476524"><ele>1243.0</ele><time>2026-03-29T08:06:46.246Z</time></trkpt><trkpt lat="40.009808" lon="9.4766698"><ele>1246.4</ele><time>2026-03-29T08:06:47.246Z</time></trkpt><trkpt lat="40.0097558" lon="9.4767887"><ele>1249.8</ele><time>2026-03-29T08:06:48.247Z</time></trkpt><trkpt lat="40.0096911" lon="9.4769025"><ele>1253.2</ele><time>2026-03-29T08:06:49.247Z</time></trkpt><trkpt lat="40.0096238" lon="9.4769945"><ele>1256.6</ele><time>2026-03-29T08:06:50.247Z</time></trkpt><trkpt lat="40.0095556" lon="9.4770994"><ele>1260.0</ele><time>2026-03-29T08:06:51.247Z</time></trkpt><trkpt lat="40.0094884" lon="9.4771943"><ele>1260.6</ele><time>2026-03-29T08:06:52.246Z</time></trkpt><trkpt lat="40.0094288" lon="9.4772787"><ele>1261.2</ele><time>2026-03-29T08:06:53.246Z</time></trkpt><trkpt lat="40.0093477" lon="9.477335"><ele>1261.8</ele><time>2026-03-29T08:06:54.246Z</time></trkpt><trkpt lat="40.0092465" lon="9.4773778"><ele>1262.4</ele><time>2026-03-29T08:06:55.246Z</time></trkpt><trkpt lat="40.0091506" lon="9.4774188"><ele>1263.0</ele><time>2026-03-29T08:06:56.246Z</time></trkpt><trkpt lat="40.009059" lon="9.4774613"><ele>1265.0</ele><time>2026-03-29T08:06:57.246Z</time></trkpt><trkpt lat="40.0089626" lon="9.4775037"><ele>1267.0</ele><time>2026-03-29T08:06:58.246Z</time></trkpt><trkpt lat="40.0088597" lon="9.477547"><ele>1269.0</ele><time>2026-03-29T08:06:59.247Z</time></trkpt><trkpt lat="40.0087631" lon="9.4776038"><ele>1271.0</ele><time>2026-03-29T08:07:00.246Z</time></trkpt><trkpt lat="40.0086675" lon="9.4776529"><ele>1273.0</ele><time>2026-03-29T08:07:01.246Z</time></trkpt><trkpt lat="40.0085691" lon="9.4776953"><ele>1273.0</ele><time>2026-03-29T08:07:02.246Z</time></trkpt><trkpt lat="40.0084716" lon="9.4777449"><ele>1273.0</ele><time>2026-03-29T08:07:03.246Z</time></trkpt><trkpt lat="40.008361" lon="9.4777957"><ele>1273.0</ele><time>2026-03-29T08:07:04.246Z</time></trkpt><trkpt lat="40.008246" lon="9.4778553"><ele>1273.0</ele><time>2026-03-29T08:07:05.246Z</time></trkpt><trkpt lat="40.0081315" lon="9.47791"><ele>1273.6</ele><time>2026-03-29T08:07:06.247Z</time></trkpt><trkpt lat="40.0080118" lon="9.4779714"><ele>1274.1999999999998</ele><time>2026-03-29T08:07:07.246Z</time></trkpt><trkpt lat="40.0079107" lon="9.478011"><ele>1274.8</ele><time>2026-03-29T08:07:08.246Z</time></trkpt><trkpt lat="40.0078179" lon="9.4780503"><ele>1275.3999999999999</ele><time>2026-03-29T08:07:09.246Z</time></trkpt><trkpt lat="40.0077335" lon="9.4780653"><ele>1276.0</ele><time>2026-03-29T08:07:10.246Z</time></trkpt><trkpt lat="40.0076639" lon="9.4780368"><ele>1276.0</ele><time>2026-03-29T08:07:11.246Z</time></trkpt><trkpt lat="40.0075848" lon="9.4779969"><ele>1276.0</ele><time>2026-03-29T08:07:12.246Z</time></trkpt><trkpt lat="40.0075062" lon="9.4779748"><ele>1276.0</ele><time>2026-03-29T08:07:13.246Z</time></trkpt><trkpt lat="40.0074245" lon="9.4779911"><ele>1276.0</ele><time>2026-03-29T08:07:14.246Z</time></trkpt><trkpt lat="40.0073347" lon="9.4780306"><ele>1276.0</ele><time>2026-03-29T08:07:15.246Z</time></trkpt><trkpt lat="40.0072293" lon="9.4780641"><ele>1278.25</ele><time>2026-03-29T08:07:16.246Z</time></trkpt><trkpt lat="40.0071038" lon="9.4780951"><ele>1280.5</ele><time>2026-03-29T08:07:17.246Z</time></trkpt><trkpt lat="40.006983" lon="9.4781234"><ele>1282.75</ele><time>2026-03-29T08:07:18.246Z</time></trkpt><trkpt lat="40.0068504" lon="9.4781453"><ele>1285.0</ele><time>2026-03-29T08:07:19.246Z</time></trkpt><trkpt lat="40.0067194" lon="9.478164"><ele>1288.4</ele><time>2026-03-29T08:07:20.246Z</time></trkpt><trkpt lat="40.0066103" lon="9.4781595"><ele>1291.8</ele><time>2026-03-29T08:07:21.246Z</time></trkpt><trkpt lat="40.0065172" lon="9.4781556"><ele>1295.1999999999998</ele><time>2026-03-29T08:07:22.246Z</time></trkpt><trkpt lat="40.0064196" lon="9.4781708"><ele>1298.6</ele><time>2026-03-29T08:07:23.246Z</time></trkpt><trkpt lat="40.0063321" lon="9.4782043"><ele>1302.0</ele><time>2026-03-29T08:07:24.246Z</time></trkpt><trkpt lat="40.0062462" lon="9.4782328"><ele>1302.0</ele><time>2026-03-29T08:07:25.246Z</time></trkpt><trkpt lat="40.0061803" lon="9.4782743"><ele>1302.0</ele><time>2026-03-29T08:07:26.246Z</time></trkpt><trkpt lat="40.0061074" lon="9.4783217"><ele>1302.0</ele><time>2026-03-29T08:07:28.246Z</time></trkpt><trkpt lat="40.0060458" lon="9.4783651"><ele>1302.0</ele><time>2026-03-29T08:07:34.246Z</time></trkpt><trkpt lat="40.0059475" lon="9.4784133"><ele>1302.0</ele><time>2026-03-29T08:08:10.246Z</time></trkpt><trkpt lat="40.0058793" lon="9.4784461"><ele>1302.0</ele><time>2026-03-29T08:08:11.246Z</time></trkpt><trkpt lat="40.0058025" lon="9.4784944"><ele>1304.0</ele><time>2026-03-29T08:08:12.247Z</time></trkpt><trkpt lat="40.005721" lon="9.4785226"><ele>1306.0</ele><time>2026-03-29T08:08:13.246Z</time></trkpt><trkpt lat="40.0056424" lon="9.4785146"><ele>1308.0</ele><time>2026-03-29T08:08:14.247Z</time></trkpt><trkpt lat="40.0055652" lon="9.4784742"><ele>1310.0</ele><time>2026-03-29T08:08:15.246Z</time></trkpt><trkpt lat="40.0054643" lon="9.4784396"><ele>1312.0</ele><time>2026-03-29T08:08:16.247Z</time></trkpt><trkpt lat="40.0053735" lon="9.4784125"><ele>1314.0</ele><time>2026-03-29T08:08:17.246Z</time></trkpt><trkpt lat="40.0052952" lon="9.4784287"><ele>1314.0</ele><time>2026-03-29T08:08:18.246Z</time></trkpt><trkpt lat="40.0051966" lon="9.4784683"><ele>1314.0</ele><time>2026-03-29T08:08:19.246Z</time></trkpt><trkpt lat="40.0050931" lon="9.4785135"><ele>1314.0</ele><time>2026-03-29T08:08:20.246Z</time></trkpt><trkpt lat="40.0049783" lon="9.4785678"><ele>1314.0</ele><time>2026-03-29T08:08:21.246Z</time></trkpt><trkpt lat="40.0048716" lon="9.4786334"><ele>1315.2</ele><time>2026-03-29T08:08:22.246Z</time></trkpt><trkpt lat="40.00477" lon="9.4786687"><ele>1316.4</ele><time>2026-03-29T08:08:23.246Z</time></trkpt><trkpt lat="40.0046583" lon="9.4786911"><ele>1317.6</ele><time>2026-03-29T08:08:24.246Z</time></trkpt><trkpt lat="40.0045569" lon="9.4787004"><ele>1318.8</ele><time>2026-03-29T08:08:25.246Z</time></trkpt><trkpt lat="40.004464" lon="9.4786996"><ele>1320.0</ele><time>2026-03-29T08:08:26.246Z</time></trkpt><trkpt lat="40.0043859" lon="9.478691"><ele>1320.0</ele><time>2026-03-29T08:08:27.246Z</time></trkpt><trkpt lat="40.0043069" lon="9.4786539"><ele>1320.0</ele><time>2026-03-29T08:08:28.246Z</time></trkpt><trkpt lat="40.0042464" lon="9.4785933"><ele>1320.0</ele><time>2026-03-29T08:08:29.246Z</time></trkpt><trkpt lat="40.0041924" lon="9.4784926"><ele>1320.0</ele><time>2026-03-29T08:08:30.247Z</time></trkpt><trkpt lat="40.0041374" lon="9.4783903"><ele>1320.0</ele><time>2026-03-29T08:08:31.247Z</time></trkpt><trkpt lat="40.0040583" lon="9.4783166"><ele>1320.0</ele><time>2026-03-29T08:08:32.246Z</time></trkpt><trkpt lat="40.0039887" lon="9.478269"><ele>1319.1666666666667</ele><time>2026-03-29T08:08:33.246Z</time></trkpt><trkpt lat="40.0039255" lon="9.4782304"><ele>1318.3333333333333</ele><time>2026-03-29T08:08:34.246Z</time></trkpt><trkpt lat="40.0038356" lon="9.4781865"><ele>1317.5</ele><time>2026-03-29T08:08:36.247Z</time></trkpt><trkpt lat="40.0037487" lon="9.4781955"><ele>1316.6666666666665</ele><time>2026-03-29T08:08:39.246Z</time></trkpt><trkpt lat="40.0036781" lon="9.4782413"><ele>1315.8333333333333</ele><time>2026-03-29T08:08:41.246Z</time></trkpt><trkpt lat="40.0036035" lon="9.4782704"><ele>1315.0</ele><time>2026-03-29T08:08:44.247Z</time></trkpt><trkpt lat="40.0035246" lon="9.478212"><ele>1315.0</ele><time>2026-03-29T08:08:48.246Z</time></trkpt><trkpt lat="40.0034515" lon="9.4782412"><ele>1315.0</ele><time>2026-03-29T08:08:51.246Z</time></trkpt><trkpt lat="40.0033732" lon="9.4783172"><ele>1315.0</ele><time>2026-03-29T08:08:53.247Z</time></trkpt><trkpt lat="40.0032702" lon="9.4783742"><ele>1315.0</ele><time>2026-03-29T08:08:55.246Z</time></trkpt><trkpt lat="40.0031811" lon="9.4784617"><ele>1315.0</ele><time>2026-03-29T08:08:57.246Z</time></trkpt><trkpt lat="40.003093" lon="9.4785216"><ele>1310.6666666666665</ele><time>2026-03-29T08:08:59.247Z</time></trkpt><trkpt lat="40.0030352" lon="9.4785711"><ele>1306.3333333333333</ele><time>2026-03-29T08:09:01.246Z</time></trkpt><trkpt lat="40.0029919" lon="9.4786537"><ele>1302.0</ele><time>2026-03-29T08:09:03.246Z</time></trkpt><trkpt lat="40.0029529" lon="9.4787461"><ele>1297.6666666666667</ele><time>2026-03-29T08:09:05.246Z</time></trkpt><trkpt lat="40.0029197" lon="9.4788446"><ele>1293.3333333333335</ele><time>2026-03-29T08:09:07.247Z</time></trkpt><trkpt lat="40.0028943" lon="9.4789484"><ele>1289.0</ele><time>2026-03-29T08:09:09.246Z</time></trkpt><trkpt lat="40.0028756" lon="9.4790926"><ele>1289.0</ele><time>2026-03-29T08:09:11.247Z</time></trkpt><trkpt lat="40.0028842" lon="9.47924"><ele>1289.0</ele><time>2026-03-29T08:09:13.246Z</time></trkpt><trkpt lat="40.002886" lon="9.4793648"><ele>1289.0</ele><time>2026-03-29T08:09:15.246Z</time></trkpt><trkpt lat="40.0028445" lon="9.4795094"><ele>1289.0</ele><time>2026-03-29T08:09:17.246Z</time></trkpt><trkpt lat="40.0027722" lon="9.4796514"><ele>1288.6666666666667</ele><time>2026-03-29T08:09:19.247Z</time></trkpt><trkpt lat="40.0027316" lon="9.4797429"><ele>1288.3333333333335</ele><time>2026-03-29T08:09:20.246Z</time></trkpt><trkpt lat="40.002689" lon="9.4798324"><ele>1288.0</ele><time>2026-03-29T08:09:21.246Z</time></trkpt><trkpt lat="40.0026471" lon="9.4799238"><ele>1287.6666666666667</ele><time>2026-03-29T08:09:22.246Z</time></trkpt><trkpt lat="40.00261" lon="9.4800203"><ele>1287.3333333333333</ele><time>2026-03-29T08:09:23.247Z</time></trkpt><trkpt lat="40.0025809" lon="9.4801131"><ele>1287.0</ele><time>2026-03-29T08:09:24.247Z</time></trkpt><trkpt lat="40.0025334" lon="9.4802015"><ele>1285.5</ele><time>2026-03-29T08:09:25.247Z</time></trkpt><trkpt lat="40.0024802" lon="9.4802875"><ele>1284.0</ele><time>2026-03-29T08:09:26.246Z</time></trkpt><trkpt lat="40.002446" lon="9.4803799"><ele>1282.5</ele><time>2026-03-29T08:09:27.246Z</time></trkpt><trkpt lat="40.0024112" lon="9.4804645"><ele>1281.0</ele><time>2026-03-29T08:09:28.246Z</time></trkpt><trkpt lat="40.0023641" lon="9.4805654"><ele>1279.5</ele><time>2026-03-29T08:09:30.246Z</time></trkpt><trkpt lat="40.0023283" lon="9.4806949"><ele>1278.0</ele><time>2026-03-29T08:09:32.246Z</time></trkpt><trkpt lat="40.0023019" lon="9.4807705"><ele>1278.0</ele><time>2026-03-29T08:09:33.246Z</time></trkpt><trkpt lat="40.0021871" lon="9.480855"><ele>1278.0</ele><time>2026-03-29T08:09:35.246Z</time></trkpt><trkpt lat="40.0021264" lon="9.4809036"><ele>1278.0</ele><time>2026-03-29T08:09:36.246Z</time></trkpt><trkpt lat="40.0020551" lon="9.4809693"><ele>1278.0</ele><time>2026-03-29T08:09:37.246Z</time></trkpt><trkpt lat="40.00198" lon="9.4810437"><ele>1278.0</ele><time>2026-03-29T08:09:38.246Z</time></trkpt><trkpt lat="40.0019009" lon="9.4811912"><ele>1278.6</ele><time>2026-03-29T08:09:39.246Z</time></trkpt><trkpt lat="40.0018311" lon="9.4813056"><ele>1279.1999999999998</ele><time>2026-03-29T08:09:40.246Z</time></trkpt><trkpt lat="40.0017683" lon="9.4813985"><ele>1279.8</ele><time>2026-03-29T08:09:41.246Z</time></trkpt><trkpt lat="40.001706" lon="9.4814892"><ele>1280.3999999999999</ele><time>2026-03-29T08:09:42.247Z</time></trkpt><trkpt lat="40.0016368" lon="9.4815696"><ele>1281.0</ele><time>2026-03-29T08:09:43.247Z</time></trkpt><trkpt lat="40.0015664" lon="9.4816587"><ele>1281.0</ele><time>2026-03-29T08:09:44.246Z</time></trkpt><trkpt lat="40.0015021" lon="9.4817145"><ele>1281.0</ele><time>2026-03-29T08:09:45.246Z</time></trkpt><trkpt lat="40.0014392" lon="9.4817815"><ele>1281.0</ele><time>2026-03-29T08:09:46.246Z</time></trkpt><trkpt lat="40.0013756" lon="9.4818593"><ele>1281.0</ele><time>2026-03-29T08:09:47.246Z</time></trkpt><trkpt lat="40.0013085" lon="9.4819401"><ele>1281.0</ele><time>2026-03-29T08:09:48.246Z</time></trkpt><trkpt lat="40.0012316" lon="9.4820212"><ele>1281.0</ele><time>2026-03-29T08:09:49.246Z</time></trkpt><trkpt lat="40.0011539" lon="9.4820934"><ele>1279.8</ele><time>2026-03-29T08:09:50.246Z</time></trkpt><trkpt lat="40.0010892" lon="9.4821772"><ele>1278.6</ele><time>2026-03-29T08:09:51.247Z</time></trkpt><trkpt lat="40.0010117" lon="9.4822584"><ele>1277.4</ele><time>2026-03-29T08:09:52.247Z</time></trkpt><trkpt lat="40.0009345" lon="9.4823362"><ele>1276.2</ele><time>2026-03-29T08:09:53.246Z</time></trkpt><trkpt lat="40.0008462" lon="9.4824157"><ele>1275.0</ele><time>2026-03-29T08:09:54.247Z</time></trkpt><trkpt lat="40.0007574" lon="9.4824886"><ele>1275.0</ele><time>2026-03-29T08:09:55.247Z</time></trkpt><trkpt lat="40.000668" lon="9.4825602"><ele>1275.0</ele><time>2026-03-29T08:09:56.246Z</time></trkpt><trkpt lat="40.0004688" lon="9.4826592"><ele>1275.0</ele><time>2026-03-29T08:09:58.246Z</time></trkpt><trkpt lat="40.0003682" lon="9.4827107"><ele>1275.0</ele><time>2026-03-29T08:09:59.246Z</time></trkpt><trkpt lat="40.0002963" lon="9.4827543"><ele>1275.0</ele><time>2026-03-29T08:10:00.247Z</time></trkpt><trkpt lat="40.0002312" lon="9.4828265"><ele>1275.0</ele><time>2026-03-29T08:10:01.246Z</time></trkpt><trkpt lat="40.0001694" lon="9.4829116"><ele>1275.0</ele><time>2026-03-29T08:10:02.246Z</time></trkpt><trkpt lat="40.0000991" lon="9.4830127"><ele>1275.0</ele><time>2026-03-29T08:10:03.246Z</time></trkpt><trkpt lat="40.0000217" lon="9.4831288"><ele>1275.0</ele><time>2026-03-29T08:10:04.246Z</time></trkpt><trkpt lat="39.9999356" lon="9.48321"><ele>1275.8</ele><time>2026-03-29T08:10:05.246Z</time></trkpt><trkpt lat="39.9998586" lon="9.4832818"><ele>1276.6</ele><time>2026-03-29T08:10:06.247Z</time></trkpt><trkpt lat="39.9997712" lon="9.4833343"><ele>1277.4</ele><time>2026-03-29T08:10:07.247Z</time></trkpt><trkpt lat="39.9996705" lon="9.4833723"><ele>1278.2</ele><time>2026-03-29T08:10:08.247Z</time></trkpt><trkpt lat="39.9995648" lon="9.4834231"><ele>1279.0</ele><time>2026-03-29T08:10:09.246Z</time></trkpt><trkpt lat="39.9993457" lon="9.4834901"><ele>1279.0</ele><time>2026-03-29T08:10:11.247Z</time></trkpt><trkpt lat="39.9992335" lon="9.4835226"><ele>1279.0</ele><time>2026-03-29T08:10:12.246Z</time></trkpt><trkpt lat="39.9991131" lon="9.4835397"><ele>1279.0</ele><time>2026-03-29T08:10:13.246Z</time></trkpt><trkpt lat="39.998995" lon="9.4835534"><ele>1279.0</ele><time>2026-03-29T08:10:14.246Z</time></trkpt><trkpt lat="39.9988803" lon="9.4835562"><ele>1277.8</ele><time>2026-03-29T08:10:15.246Z</time></trkpt><trkpt lat="39.9987777" lon="9.4835414"><ele>1276.6000000000001</ele><time>2026-03-29T08:10:16.246Z</time></trkpt><trkpt lat="39.9986866" lon="9.4835057"><ele>1275.4</ele><time>2026-03-29T08:10:17.247Z</time></trkpt><trkpt lat="39.9986013" lon="9.4834625"><ele>1274.2</ele><time>2026-03-29T08:10:18.246Z</time></trkpt><trkpt lat="39.9985197" lon="9.4834278"><ele>1273.0</ele><time>2026-03-29T08:10:19.247Z</time></trkpt><trkpt lat="39.9984324" lon="9.4834081"><ele>1273.0</ele><time>2026-03-29T08:10:20.246Z</time></trkpt><trkpt lat="39.9983443" lon="9.4834162"><ele>1273.0</ele><time>2026-03-29T08:10:21.246Z</time></trkpt><trkpt lat="39.9982532" lon="9.4834453"><ele>1273.0</ele><time>2026-03-29T08:10:22.247Z</time></trkpt><trkpt lat="39.9981734" lon="9.4834745"><ele>1273.0</ele><time>2026-03-29T08:10:23.246Z</time></trkpt><trkpt lat="39.9980835" lon="9.4834995"><ele>1273.0</ele><time>2026-03-29T08:10:24.246Z</time></trkpt><trkpt lat="39.9980046" lon="9.4835076"><ele>1273.0</ele><time>2026-03-29T08:10:25.246Z</time></trkpt><trkpt lat="39.9979255" lon="9.4835206"><ele>1272.5</ele><time>2026-03-29T08:10:26.246Z</time></trkpt><trkpt lat="39.9978534" lon="9.4835344"><ele>1272.0</ele><time>2026-03-29T08:10:27.246Z</time></trkpt><trkpt lat="39.9977194" lon="9.4835459"><ele>1271.5</ele><time>2026-03-29T08:10:29.246Z</time></trkpt><trkpt lat="39.9976048" lon="9.4835633"><ele>1271.0</ele><time>2026-03-29T08:10:31.247Z</time></trkpt><trkpt lat="39.9974912" lon="9.4836408"><ele>1272.8333333333335</ele><time>2026-03-29T08:10:33.246Z</time></trkpt><trkpt lat="39.9974257" lon="9.4836928"><ele>1274.6666666666667</ele><time>2026-03-29T08:10:34.246Z</time></trkpt><trkpt lat="39.9973672" lon="9.4837274"><ele>1276.5</ele><time>2026-03-29T08:10:35.246Z</time></trkpt><trkpt lat="39.9973085" lon="9.483759"><ele>1278.3333333333333</ele><time>2026-03-29T08:10:36.246Z</time></trkpt><trkpt lat="39.9971985" lon="9.4838254"><ele>1280.1666666666665</ele><time>2026-03-29T08:10:38.246Z</time></trkpt><trkpt lat="39.9971229" lon="9.4838665"><ele>1282.0</ele><time>2026-03-29T08:10:39.246Z</time></trkpt><trkpt lat="39.9970427" lon="9.4838898"><ele>1282.0</ele><time>2026-03-29T08:10:40.246Z</time></trkpt><trkpt lat="39.996967" lon="9.4839048"><ele>1282.0</ele><time>2026-03-29T08:10:41.247Z</time></trkpt><trkpt lat="39.9968782" lon="9.4839298"><ele>1282.0</ele><time>2026-03-29T08:10:42.247Z</time></trkpt><trkpt lat="39.9967924" lon="9.4839785"><ele>1282.0</ele><time>2026-03-29T08:10:43.246Z</time></trkpt><trkpt lat="39.9967246" lon="9.4840054"><ele>1282.0</ele><time>2026-03-29T08:10:44.246Z</time></trkpt><trkpt lat="39.9966497" lon="9.4840281"><ele>1282.0</ele><time>2026-03-29T08:10:45.246Z</time></trkpt><trkpt lat="39.9965799" lon="9.4840283"><ele>1285.8333333333333</ele><time>2026-03-29T08:10:46.247Z</time></trkpt><trkpt lat="39.9964992" lon="9.4840342"><ele>1289.6666666666665</ele><time>2026-03-29T08:10:47.246Z</time></trkpt><trkpt lat="39.9964221" lon="9.4840447"><ele>1293.5</ele><time>2026-03-29T08:10:48.246Z</time></trkpt><trkpt lat="39.9963482" lon="9.4840657"><ele>1297.3333333333333</ele><time>2026-03-29T08:10:49.246Z</time></trkpt><trkpt lat="39.9962745" lon="9.484101"><ele>1301.1666666666667</ele><time>2026-03-29T08:10:51.246Z</time></trkpt><trkpt lat="39.9962497" lon="9.4841811"><ele>1305.0</ele><time>2026-03-29T08:10:53.246Z</time></trkpt><trkpt lat="39.9962023" lon="9.484279"><ele>1305.0</ele><time>2026-03-29T08:10:56.247Z</time></trkpt><trkpt lat="39.9961563" lon="9.4843564"><ele>1305.0</ele><time>2026-03-29T08:10:58.246Z</time></trkpt><trkpt lat="39.9960954" lon="9.4844355"><ele>1305.0</ele><time>2026-03-29T08:11:00.246Z</time></trkpt><trkpt lat="39.9960384" lon="9.4845205"><ele>1305.0</ele><time>2026-03-29T08:11:02.246Z</time></trkpt><trkpt lat="39.9959839" lon="9.4846175"><ele>1305.0</ele><time>2026-03-29T08:11:04.246Z</time></trkpt><trkpt lat="39.9959493" lon="9.4846927"><ele>1305.0</ele><time>2026-03-29T08:11:05.247Z</time></trkpt><trkpt lat="39.995918" lon="9.4847669"><ele>1303.0</ele><time>2026-03-29T08:11:06.247Z</time></trkpt><trkpt lat="39.9958563" lon="9.4848887"><ele>1301.0</ele><time>2026-03-29T08:11:08.246Z</time></trkpt><trkpt lat="39.9957839" lon="9.4850036"><ele>1299.0</ele><time>2026-03-29T08:11:10.246Z</time></trkpt><trkpt lat="39.9957008" lon="9.4851288"><ele>1297.0</ele><time>2026-03-29T08:11:12.246Z</time></trkpt><trkpt lat="39.9956551" lon="9.4852089"><ele>1295.0</ele><time>2026-03-29T08:11:13.246Z</time></trkpt><trkpt lat="39.9956161" lon="9.4852768"><ele>1295.0</ele><time>2026-03-29T08:11:14.247Z</time></trkpt><trkpt lat="39.9955602" lon="9.4853954"><ele>1295.0</ele><time>2026-03-29T08:11:16.247Z</time></trkpt><trkpt lat="39.9954903" lon="9.4855225"><ele>1295.0</ele><time>2026-03-29T08:11:18.247Z</time></trkpt><trkpt lat="39.9954485" lon="9.4855946"><ele>1295.0</ele><time>2026-03-29T08:11:19.247Z</time></trkpt><trkpt lat="39.9954008" lon="9.4856635"><ele>1295.0</ele><time>2026-03-29T08:11:20.247Z</time></trkpt><trkpt lat="39.9953638" lon="9.4857407"><ele>1295.0</ele><time>2026-03-29T08:11:21.246Z</time></trkpt><trkpt lat="39.9953187" lon="9.4858183"><ele>1290.8333333333335</ele><time>2026-03-29T08:11:22.247Z</time></trkpt><trkpt lat="39.995286" lon="9.4858909"><ele>1286.6666666666667</ele><time>2026-03-29T08:11:23.246Z</time></trkpt><trkpt lat="39.9952345" lon="9.4859565"><ele>1282.5</ele><time>2026-03-29T08:11:24.246Z</time></trkpt><trkpt lat="39.9951872" lon="9.48603"><ele>1278.3333333333333</ele><time>2026-03-29T08:11:25.246Z</time></trkpt><trkpt lat="39.9951297" lon="9.4860715"><ele>1274.1666666666665</ele><time>2026-03-29T08:11:26.246Z</time></trkpt><trkpt lat="39.9950424" lon="9.4861993"><ele>1270.0</ele><time>2026-03-29T08:11:28.246Z</time></trkpt><trkpt lat="39.9950064" lon="9.4862676"><ele>1265.8</ele><time>2026-03-29T08:11:29.246Z</time></trkpt><trkpt lat="39.9949285" lon="9.4863955"><ele>1261.6</ele><time>2026-03-29T08:11:31.246Z</time></trkpt><trkpt lat="39.9948593" lon="9.486493"><ele>1257.4</ele><time>2026-03-29T08:11:33.246Z</time></trkpt><trkpt lat="39.994796" lon="9.4865303"><ele>1253.2</ele><time>2026-03-29T08:11:45.247Z</time></trkpt><trkpt lat="39.9947782" lon="9.48664"><ele>1249.0</ele><time>2026-03-29T08:12:41.246Z</time></trkpt><trkpt lat="39.9947755" lon="9.4867767"><ele>1249.0</ele><time>2026-03-29T08:12:43.246Z</time></trkpt><trkpt lat="39.9947639" lon="9.4869242"><ele>1249.0</ele><time>2026-03-29T08:12:45.246Z</time></trkpt><trkpt lat="39.9947209" lon="9.4870467"><ele>1249.0</ele><time>2026-03-29T08:12:47.246Z</time></trkpt><trkpt lat="39.9946925" lon="9.4871594"><ele>1249.0</ele><time>2026-03-29T08:12:49.246Z</time></trkpt><trkpt lat="39.9946764" lon="9.4872664"><ele>1249.0</ele><time>2026-03-29T08:12:51.246Z</time></trkpt><trkpt lat="39.9946315" lon="9.4873589"><ele>1245.1666666666665</ele><time>2026-03-29T08:12:53.246Z</time></trkpt><trkpt lat="39.9946117" lon="9.4874537"><ele>1241.3333333333333</ele><time>2026-03-29T08:12:55.246Z</time></trkpt><trkpt lat="39.9946269" lon="9.4875865"><ele>1237.5</ele><time>2026-03-29T08:12:57.246Z</time></trkpt><trkpt lat="39.9946291" lon="9.4876734"><ele>1233.6666666666667</ele><time>2026-03-29T08:12:58.247Z</time></trkpt><trkpt lat="39.9946232" lon="9.4877553"><ele>1229.8333333333335</ele><time>2026-03-29T08:12:59.246Z</time></trkpt><trkpt lat="39.9946443" lon="9.487914"><ele>1226.0</ele><time>2026-03-29T08:13:01.246Z</time></trkpt><trkpt lat="39.9946204" lon="9.4880498"><ele>1221.3999999999999</ele><time>2026-03-29T08:13:03.246Z</time></trkpt><trkpt lat="39.9945673" lon="9.4881858"><ele>1216.8</ele><time>2026-03-29T08:13:05.246Z</time></trkpt><trkpt lat="39.9945394" lon="9.4883153"><ele>1212.1999999999998</ele><time>2026-03-29T08:13:07.246Z</time></trkpt><trkpt lat="39.9944997" lon="9.4884243"><ele>1207.6</ele><time>2026-03-29T08:13:09.247Z</time></trkpt><trkpt lat="39.9944765" lon="9.4885224"><ele>1203.0</ele><time>2026-03-29T08:13:11.247Z</time></trkpt><trkpt lat="39.9944627" lon="9.4886085"><ele>1203.0</ele><time>2026-03-29T08:13:13.246Z</time></trkpt><trkpt lat="39.9944664" lon="9.4887006"><ele>1203.0</ele><time>2026-03-29T08:13:14.247Z</time></trkpt><trkpt lat="39.9944684" lon="9.488793"><ele>1203.0</ele><time>2026-03-29T08:13:15.247Z</time></trkpt><trkpt lat="39.994463" lon="9.4889466"><ele>1203.0</ele><time>2026-03-29T08:13:17.246Z</time></trkpt><trkpt lat="39.9944148" lon="9.4891043"><ele>1203.0</ele><time>2026-03-29T08:13:19.246Z</time></trkpt><trkpt lat="39.9943888" lon="9.4892223"><ele>1202.6</ele><time>2026-03-29T08:13:20.246Z</time></trkpt><trkpt lat="39.9943441" lon="9.4893381"><ele>1202.1999999999998</ele><time>2026-03-29T08:13:21.246Z</time></trkpt><trkpt lat="39.994301" lon="9.4894432"><ele>1201.8</ele><time>2026-03-29T08:13:22.247Z</time></trkpt><trkpt lat="39.9942641" lon="9.4895313"><ele>1201.3999999999999</ele><time>2026-03-29T08:13:23.246Z</time></trkpt><trkpt lat="39.9942146" lon="9.4896579"><ele>1201.0</ele><time>2026-03-29T08:13:25.246Z</time></trkpt><trkpt lat="39.9941396" lon="9.4897433"><ele>1201.0</ele><time>2026-03-29T08:13:27.246Z</time></trkpt><trkpt lat="39.9940432" lon="9.4898551"><ele>1201.0</ele><time>2026-03-29T08:13:29.247Z</time></trkpt><trkpt lat="39.9939924" lon="9.4899192"><ele>1201.0</ele><time>2026-03-29T08:13:30.246Z</time></trkpt><trkpt lat="39.9939511" lon="9.4899936"><ele>1201.0</ele><time>2026-03-29T08:13:31.247Z</time></trkpt><trkpt lat="39.9939135" lon="9.4900645"><ele>1201.0</ele><time>2026-03-29T08:13:32.247Z</time></trkpt><trkpt lat="39.9938478" lon="9.4901788"><ele>1201.0</ele><time>2026-03-29T08:13:34.246Z</time></trkpt><trkpt lat="39.9937816" lon="9.4902548"><ele>1201.0</ele><time>2026-03-29T08:13:36.247Z</time></trkpt><trkpt lat="39.9937455" lon="9.4903622"><ele>1201.0</ele><time>2026-03-29T08:13:38.246Z</time></trkpt><trkpt lat="39.9937244" lon="9.4905296"><ele>1201.0</ele><time>2026-03-29T08:13:40.246Z</time></trkpt><trkpt lat="39.9936867" lon="9.4906113"><ele>1201.0</ele><time>2026-03-29T08:13:41.246Z</time></trkpt><trkpt lat="39.9936442" lon="9.4906856"><ele>1201.0</ele><time>2026-03-29T08:13:42.247Z</time></trkpt><trkpt lat="39.9935957" lon="9.4907921"><ele>1201.2</ele><time>2026-03-29T08:13:43.246Z</time></trkpt><trkpt lat="39.9935489" lon="9.4909047"><ele>1201.3999999999999</ele><time>2026-03-29T08:13:44.246Z</time></trkpt><trkpt lat="39.9935061" lon="9.4910217"><ele>1201.6</ele><time>2026-03-29T08:13:45.246Z</time></trkpt><trkpt lat="39.9934638" lon="9.4911167"><ele>1201.8</ele><time>2026-03-29T08:13:46.247Z</time></trkpt><trkpt lat="39.9934254" lon="9.4911858"><ele>1202.0</ele><time>2026-03-29T08:13:47.246Z</time></trkpt><trkpt lat="39.9933335" lon="9.4912544"><ele>1204.5</ele><time>2026-03-29T08:13:49.247Z</time></trkpt><trkpt lat="39.9932767" lon="9.4913278"><ele>1207.0</ele><time>2026-03-29T08:13:50.246Z</time></trkpt><trkpt lat="39.9932191" lon="9.4914175"><ele>1209.5</ele><time>2026-03-29T08:13:51.246Z</time></trkpt><trkpt lat="39.9931591" lon="9.4914969"><ele>1212.0</ele><time>2026-03-29T08:13:52.246Z</time></trkpt><trkpt lat="39.993109" lon="9.4915793"><ele>1214.5</ele><time>2026-03-29T08:13:53.246Z</time></trkpt><trkpt lat="39.9930641" lon="9.491658"><ele>1217.0</ele><time>2026-03-29T08:13:54.246Z</time></trkpt><trkpt lat="39.9930328" lon="9.491758"><ele>1217.0</ele><time>2026-03-29T08:13:56.246Z</time></trkpt><trkpt lat="39.9929569" lon="9.491833"><ele>1217.0</ele><time>2026-03-29T08:13:58.247Z</time></trkpt><trkpt lat="39.9928808" lon="9.4919515"><ele>1217.0</ele><time>2026-03-29T08:14:00.246Z</time></trkpt><trkpt lat="39.9928157" lon="9.4920064"><ele>1217.0</ele><time>2026-03-29T08:14:01.246Z</time></trkpt><trkpt lat="39.9927448" lon="9.4920729"><ele>1217.0</ele><time>2026-03-29T08:14:02.247Z</time></trkpt><trkpt lat="39.9926682" lon="9.4921365"><ele>1215.0</ele><time>2026-03-29T08:14:03.246Z</time></trkpt><trkpt lat="39.9925876" lon="9.4921936"><ele>1213.0</ele><time>2026-03-29T08:14:04.246Z</time></trkpt><trkpt lat="39.99252" lon="9.4922455"><ele>1211.0</ele><time>2026-03-29T08:14:05.246Z</time></trkpt><trkpt lat="39.9924553" lon="9.4922883"><ele>1209.0</ele><time>2026-03-29T08:14:06.246Z</time></trkpt><trkpt lat="39.9923925" lon="9.4923353"><ele>1207.0</ele><time>2026-03-29T08:14:07.246Z</time></trkpt><trkpt lat="39.9923424" lon="9.4923851"><ele>1205.0</ele><time>2026-03-29T08:14:08.246Z</time></trkpt><trkpt lat="39.9922428" lon="9.4924168"><ele>1210.6</ele><time>2026-03-29T08:14:10.246Z</time></trkpt><trkpt lat="39.992163" lon="9.4924672"><ele>1216.2</ele><time>2026-03-29T08:14:12.246Z</time></trkpt><trkpt lat="39.9920673" lon="9.4925677"><ele>1221.8</ele><time>2026-03-29T08:14:14.246Z</time></trkpt><trkpt lat="39.9920061" lon="9.4926058"><ele>1227.4</ele><time>2026-03-29T08:14:15.246Z</time></trkpt><trkpt lat="39.9919385" lon="9.4926338"><ele>1233.0</ele><time>2026-03-29T08:14:16.246Z</time></trkpt><trkpt lat="39.9918261" lon="9.4926939"><ele>1233.0</ele><time>2026-03-29T08:14:18.246Z</time></trkpt><trkpt lat="39.9917323" lon="9.4928165"><ele>1233.0</ele><time>2026-03-29T08:14:20.246Z</time></trkpt><trkpt lat="39.9916791" lon="9.4928781"><ele>1233.0</ele><time>2026-03-29T08:14:21.246Z</time></trkpt><trkpt lat="39.9915757" lon="9.4929327"><ele>1233.0</ele><time>2026-03-29T08:14:23.247Z</time></trkpt><trkpt lat="39.9914453" lon="9.4928847"><ele>1234.2</ele><time>2026-03-29T08:14:25.246Z</time></trkpt><trkpt lat="39.9913309" lon="9.4928661"><ele>1235.4</ele><time>2026-03-29T08:14:27.247Z</time></trkpt><trkpt lat="39.9912256" lon="9.4929223"><ele>1236.6000000000001</ele><time>2026-03-29T08:14:29.246Z</time></trkpt><trkpt lat="39.9911602" lon="9.4929474"><ele>1237.8</ele><time>2026-03-29T08:14:30.247Z</time></trkpt><trkpt lat="39.9910894" lon="9.4929645"><ele>1239.0</ele><time>2026-03-29T08:14:31.246Z</time></trkpt><trkpt lat="39.9909852" lon="9.4929924"><ele>1239.2857142857142</ele><time>2026-03-29T08:14:33.246Z</time></trkpt><trkpt lat="39.9909253" lon="9.4930245"><ele>1239.5714285714284</ele><time>2026-03-29T08:14:35.246Z</time></trkpt><trkpt lat="39.9908415" lon="9.4930534"><ele>1239.857142857143</ele><time>2026-03-29T08:14:37.246Z</time></trkpt><trkpt lat="39.9907744" lon="9.493063"><ele>1240.142857142857</ele><time>2026-03-29T08:14:39.246Z</time></trkpt><trkpt lat="39.9906927" lon="9.4930789"><ele>1240.4285714285713</ele><time>2026-03-29T08:14:41.246Z</time></trkpt><trkpt lat="39.990638" lon="9.4931197"><ele>1240.7142857142858</ele><time>2026-03-29T08:14:43.246Z</time></trkpt><trkpt lat="39.9905763" lon="9.4931726"><ele>1241.0</ele><time>2026-03-29T08:14:46.246Z</time></trkpt><trkpt lat="39.9905221" lon="9.493228"><ele>1244.6666666666667</ele><time>2026-03-29T08:14:48.246Z</time></trkpt><trkpt lat="39.9904616" lon="9.4932822"><ele>1248.3333333333335</ele><time>2026-03-29T08:14:50.246Z</time></trkpt><trkpt lat="39.9903824" lon="9.4933731"><ele>1252.0</ele><time>2026-03-29T08:14:52.246Z</time></trkpt><trkpt lat="39.9903208" lon="9.4935129"><ele>1255.6666666666667</ele><time>2026-03-29T08:14:54.247Z</time></trkpt><trkpt lat="39.990284" lon="9.4935826"><ele>1259.3333333333333</ele><time>2026-03-29T08:14:55.246Z</time></trkpt><trkpt lat="39.9902464" lon="9.4936506"><ele>1263.0</ele><time>2026-03-29T08:14:56.246Z</time></trkpt><trkpt lat="39.9902005" lon="9.4937334"><ele>1262.6666666666667</ele><time>2026-03-29T08:14:58.246Z</time></trkpt><trkpt lat="39.9901573" lon="9.4938126"><ele>1262.3333333333333</ele><time>2026-03-29T08:15:01.246Z</time></trkpt><trkpt lat="39.9901871" lon="9.4939177"><ele>1262.0</ele><time>2026-03-29T08:15:31.246Z</time></trkpt><trkpt lat="39.9902494" lon="9.4939402"><ele>1261.6666666666665</ele><time>2026-03-29T08:15:34.247Z</time></trkpt><trkpt lat="39.9903125" lon="9.4940037"><ele>1261.3333333333333</ele><time>2026-03-29T08:15:48.246Z</time></trkpt><trkpt lat="39.9902736" lon="9.4941007"><ele>1261.0</ele><time>2026-03-29T08:15:51.247Z</time></trkpt><trkpt lat="39.9902033" lon="9.4941482"><ele>1261.0</ele><time>2026-03-29T08:16:00.246Z</time></trkpt><trkpt lat="39.9901676" lon="9.4942286"><ele>1261.0</ele><time>2026-03-29T08:16:21.246Z</time></trkpt><trkpt lat="39.990125" lon="9.494329"><ele>1261.0</ele><time>2026-03-29T08:16:25.247Z</time></trkpt><trkpt lat="39.990059" lon="9.4943146"><ele>1261.0</ele><time>2026-03-29T08:16:32.247Z</time></trkpt><trkpt lat="39.9900093" lon="9.4943671"><ele>1261.0</ele><time>2026-03-29T08:16:35.247Z</time></trkpt><trkpt lat="39.9899676" lon="9.4944376"><ele>1261.0</ele><time>2026-03-29T08:16:39.247Z</time></trkpt><trkpt lat="39.9899266" lon="9.4945123"><ele>1261.0</ele><time>2026-03-29T08:16:41.246Z</time></trkpt><trkpt lat="39.9898521" lon="9.4945637"><ele>1265.6666666666665</ele><time>2026-03-29T08:16:44.246Z</time></trkpt><trkpt lat="39.9897887" lon="9.4945729"><ele>1270.3333333333333</ele><time>2026-03-29T08:16:49.246Z</time></trkpt><trkpt lat="39.9897649" lon="9.4946578"><ele>1275.0</ele><time>2026-03-29T08:17:00.246Z</time></trkpt><trkpt lat="39.9897085" lon="9.4947385"><ele>1279.6666666666667</ele><time>2026-03-29T08:17:05.246Z</time></trkpt><trkpt lat="39.9896604" lon="9.4946765"><ele>1284.3333333333335</ele><time>2026-03-29T08:17:09.246Z</time></trkpt><trkpt lat="39.9896486" lon="9.4945705"><ele>1289.0</ele><time>2026-03-29T08:17:12.246Z</time></trkpt><trkpt lat="39.9895769" lon="9.4946544"><ele>1289.5</ele><time>2026-03-29T08:17:25.246Z</time></trkpt><trkpt lat="39.9894926" lon="9.4947626"><ele>1290.0</ele><time>2026-03-29T08:17:27.246Z</time></trkpt><trkpt lat="39.9894452" lon="9.4948298"><ele>1290.5</ele><time>2026-03-29T08:17:28.247Z</time></trkpt><trkpt lat="39.989401" lon="9.494907"><ele>1291.0</ele><time>2026-03-29T08:17:29.246Z</time></trkpt><trkpt lat="39.9893605" lon="9.4949811"><ele>1291.5</ele><time>2026-03-29T08:17:30.246Z</time></trkpt><trkpt lat="39.9892972" lon="9.4950871"><ele>1292.0</ele><time>2026-03-29T08:17:32.247Z</time></trkpt><trkpt lat="39.9892545" lon="9.4952058"><ele>1292.0000000000002</ele><time>2026-03-29T08:17:34.246Z</time></trkpt><trkpt lat="39.9892156" lon="9.4952949"><ele>1292.0</ele><time>2026-03-29T08:17:36.246Z</time></trkpt><trkpt lat="39.9891807" lon="9.4953816"><ele>1292.0</ele><time>2026-03-29T08:17:38.246Z</time></trkpt><trkpt lat="39.9891453" lon="9.4954626"><ele>1292.0</ele><time>2026-03-29T08:17:40.246Z</time></trkpt><trkpt lat="39.9891258" lon="9.4955447"><ele>1292.0</ele><time>2026-03-29T08:17:42.247Z</time></trkpt><trkpt lat="39.9890646" lon="9.4955851"><ele>1292.0000000000002</ele><time>2026-03-29T08:17:45.246Z</time></trkpt><trkpt lat="39.9889995" lon="9.4956091"><ele>1292.0</ele><time>2026-03-29T08:17:47.246Z</time></trkpt><trkpt lat="39.988935" lon="9.4956334"><ele>1297.5</ele><time>2026-03-29T08:17:49.246Z</time></trkpt><trkpt lat="39.9888728" lon="9.495676"><ele>1303.0</ele><time>2026-03-29T08:17:51.247Z</time></trkpt><trkpt lat="39.9887901" lon="9.4957227"><ele>1308.5</ele><time>2026-03-29T08:17:54.246Z</time></trkpt><trkpt lat="39.9887167" lon="9.4957588"><ele>1314.0</ele><time>2026-03-29T08:17:56.246Z</time></trkpt><trkpt lat="39.9886343" lon="9.4958171"><ele>1319.5</ele><time>2026-03-29T08:17:58.246Z</time></trkpt><trkpt lat="39.9885436" lon="9.4958557"><ele>1325.0</ele><time>2026-03-29T08:18:00.247Z</time></trkpt><trkpt lat="39.9884584" lon="9.4959355"><ele>1325.0</ele><time>2026-03-29T08:18:02.247Z</time></trkpt><trkpt lat="39.988376" lon="9.496023"><ele>1325.0</ele><time>2026-03-29T08:18:04.246Z</time></trkpt><trkpt lat="39.9882992" lon="9.4960715"><ele>1325.0</ele><time>2026-03-29T08:18:06.247Z</time></trkpt><trkpt lat="39.9882031" lon="9.4960768"><ele>1325.0</ele><time>2026-03-29T08:18:08.246Z</time></trkpt><trkpt lat="39.9881368" lon="9.4961014"><ele>1325.0</ele><time>2026-03-29T08:18:09.246Z</time></trkpt><trkpt lat="39.9880577" lon="9.4961312"><ele>1325.0</ele><time>2026-03-29T08:18:10.246Z</time></trkpt><trkpt lat="39.9879771" lon="9.4961679"><ele>1326.1666666666667</ele><time>2026-03-29T08:18:11.246Z</time></trkpt><trkpt lat="39.9879016" lon="9.4962168"><ele>1327.3333333333335</ele><time>2026-03-29T08:18:12.246Z</time></trkpt><trkpt lat="39.9878291" lon="9.4962608"><ele>1328.5</ele><time>2026-03-29T08:18:13.247Z</time></trkpt><trkpt lat="39.9877418" lon="9.4963052"><ele>1329.6666666666667</ele><time>2026-03-29T08:18:15.246Z</time></trkpt><trkpt lat="39.9876761" lon="9.49636"><ele>1330.8333333333333</ele><time>2026-03-29T08:20:12.246Z</time></trkpt><trkpt lat="39.9876216" lon="9.4964254"><ele>1332.0</ele><time>2026-03-29T08:20:14.246Z</time></trkpt><trkpt lat="39.9875519" lon="9.4965083"><ele>1334.6</ele><time>2026-03-29T08:20:16.247Z</time></trkpt><trkpt lat="39.9874603" lon="9.4966074"><ele>1337.1999999999998</ele><time>2026-03-29T08:20:18.246Z</time></trkpt><trkpt lat="39.9874127" lon="9.4966625"><ele>1339.8</ele><time>2026-03-29T08:20:19.246Z</time></trkpt><trkpt lat="39.9873016" lon="9.4967607"><ele>1342.4</ele><time>2026-03-29T08:20:21.246Z</time></trkpt><trkpt lat="39.9872444" lon="9.4968242"><ele>1345.0</ele><time>2026-03-29T08:20:22.246Z</time></trkpt><trkpt lat="39.9871858" lon="9.4968943"><ele>1345.0</ele><time>2026-03-29T08:20:23.246Z</time></trkpt><trkpt lat="39.98713" lon="9.496946"><ele>1345.0</ele><time>2026-03-29T08:20:24.246Z</time></trkpt><trkpt lat="39.9870511" lon="9.4970143"><ele>1345.0</ele><time>2026-03-29T08:20:26.246Z</time></trkpt><trkpt lat="39.9869797" lon="9.4969923"><ele>1345.0</ele><time>2026-03-29T08:20:31.246Z</time></trkpt><trkpt lat="39.9869522" lon="9.4970745"><ele>1345.0</ele><time>2026-03-29T08:20:33.246Z</time></trkpt><trkpt lat="39.9869003" lon="9.4971319"><ele>1345.0</ele><time>2026-03-29T08:20:35.247Z</time></trkpt><trkpt lat="39.9868222" lon="9.497252"><ele>1345.2</ele><time>2026-03-29T08:20:37.246Z</time></trkpt><trkpt lat="39.9867548" lon="9.4973078"><ele>1345.4</ele><time>2026-03-29T08:20:39.246Z</time></trkpt><trkpt lat="39.9866851" lon="9.497354"><ele>1345.6</ele><time>2026-03-29T08:20:42.247Z</time></trkpt><trkpt lat="39.9865767" lon="9.4973524"><ele>1345.8</ele><time>2026-03-29T08:20:45.247Z</time></trkpt><trkpt lat="39.986491" lon="9.4974013"><ele>1346.0</ele><time>2026-03-29T08:20:47.246Z</time></trkpt><trkpt lat="39.9864371" lon="9.4975155"><ele>1346.0</ele><time>2026-03-29T08:20:49.246Z</time></trkpt><trkpt lat="39.9863484" lon="9.4975449"><ele>1346.0</ele><time>2026-03-29T08:20:51.246Z</time></trkpt><trkpt lat="39.9862469" lon="9.4975292"><ele>1346.0</ele><time>2026-03-29T08:20:53.246Z</time></trkpt><trkpt lat="39.9861501" lon="9.497511"><ele>1346.0</ele><time>2026-03-29T08:20:55.247Z</time></trkpt><trkpt lat="39.9860269" lon="9.4974884"><ele>1346.0</ele><time>2026-03-29T08:20:57.246Z</time></trkpt><trkpt lat="39.9859602" lon="9.4974872"><ele>1346.0</ele><time>2026-03-29T08:20:58.246Z</time></trkpt><trkpt lat="39.9858544" lon="9.4975157"><ele>1346.0</ele><time>2026-03-29T08:21:00.246Z</time></trkpt><trkpt lat="39.9857528" lon="9.4975107"><ele>1346.0</ele><time>2026-03-29T08:21:02.247Z</time></trkpt><trkpt lat="39.9856457" lon="9.4975015"><ele>1346.0</ele><time>2026-03-29T08:21:04.246Z</time></trkpt><trkpt lat="39.9855796" lon="9.497617"><ele>1346.0</ele><time>2026-03-29T08:21:07.246Z</time></trkpt><trkpt lat="39.9855274" lon="9.4977058"><ele>1344.0</ele><time>2026-03-29T08:21:10.246Z</time></trkpt><trkpt lat="39.9854627" lon="9.4977426"><ele>1342.0</ele><time>2026-03-29T08:21:12.246Z</time></trkpt><trkpt lat="39.9853913" lon="9.4978498"><ele>1340.0</ele><time>2026-03-29T08:21:14.246Z</time></trkpt><trkpt lat="39.9853709" lon="9.4980013"><ele>1338.0</ele><time>2026-03-29T08:21:16.247Z</time></trkpt><trkpt lat="39.9853499" lon="9.4980837"><ele>1336.0</ele><time>2026-03-29T08:21:17.247Z</time></trkpt><trkpt lat="39.9853196" lon="9.4982218"><ele>1334.8333333333333</ele><time>2026-03-29T08:21:19.246Z</time></trkpt><trkpt lat="39.9853267" lon="9.4983487"><ele>1333.6666666666665</ele><time>2026-03-29T08:21:21.247Z</time></trkpt><trkpt lat="39.9853227" lon="9.4984318"><ele>1332.5</ele><time>2026-03-29T08:21:23.247Z</time></trkpt><trkpt lat="39.9852876" lon="9.4985045"><ele>1331.3333333333333</ele><time>2026-03-29T08:21:25.246Z</time></trkpt><trkpt lat="39.9852523" lon="9.4986092"><ele>1330.1666666666667</ele><time>2026-03-29T08:21:27.246Z</time></trkpt><trkpt lat="39.9852098" lon="9.4987146"><ele>1329.0</ele><time>2026-03-29T08:21:29.246Z</time></trkpt><trkpt lat="39.985161" lon="9.4987745"><ele>1324.8333333333333</ele><time>2026-03-29T08:21:32.246Z</time></trkpt><trkpt lat="39.985096" lon="9.4987547"><ele>1320.6666666666667</ele><time>2026-03-29T08:21:43.247Z</time></trkpt><trkpt lat="39.9850301" lon="9.498771"><ele>1316.5</ele><time>2026-03-29T08:21:48.246Z</time></trkpt><trkpt lat="39.9850063" lon="9.4988551"><ele>1312.3333333333335</ele><time>2026-03-29T08:21:51.246Z</time></trkpt><trkpt lat="39.9849763" lon="9.4989768"><ele>1308.1666666666667</ele><time>2026-03-29T08:21:54.246Z</time></trkpt><trkpt lat="39.98498" lon="9.4990837"><ele>1304.0</ele><time>2026-03-29T08:21:56.246Z</time></trkpt><trkpt lat="39.9850134" lon="9.499171"><ele>1304.0</ele><time>2026-03-29T08:21:58.246Z</time></trkpt><trkpt lat="39.9850438" lon="9.4992841"><ele>1304.0</ele><time>2026-03-29T08:22:01.246Z</time></trkpt><trkpt lat="39.9850436" lon="9.4993704"><ele>1304.0</ele><time>2026-03-29T08:22:03.246Z</time></trkpt><trkpt lat="39.9850066" lon="9.4994508"><ele>1304.0</ele><time>2026-03-29T08:22:05.246Z</time></trkpt><trkpt lat="39.9849732" lon="9.4995382"><ele>1304.0</ele><time>2026-03-29T08:22:07.246Z</time></trkpt><trkpt lat="39.9849439" lon="9.4996358"><ele>1304.0</ele><time>2026-03-29T08:22:09.246Z</time></trkpt><trkpt lat="39.9849175" lon="9.4997121"><ele>1304.0</ele><time>2026-03-29T08:22:11.246Z</time></trkpt><trkpt lat="39.9848589" lon="9.4998038"><ele>1300.4285714285716</ele><time>2026-03-29T08:22:14.246Z</time></trkpt><trkpt lat="39.9848098" lon="9.4998589"><ele>1296.8571428571427</ele><time>2026-03-29T08:22:16.246Z</time></trkpt><trkpt lat="39.9847702" lon="9.4999413"><ele>1293.2857142857142</ele><time>2026-03-29T08:22:18.247Z</time></trkpt><trkpt lat="39.9847612" lon="9.5000273"><ele>1289.7142857142858</ele><time>2026-03-29T08:22:20.246Z</time></trkpt><trkpt lat="39.984811" lon="9.5001241"><ele>1286.1428571428573</ele><time>2026-03-29T08:22:23.246Z</time></trkpt><trkpt lat="39.9848563" lon="9.5002062"><ele>1282.5714285714284</ele><time>2026-03-29T08:22:26.246Z</time></trkpt><trkpt lat="39.9848651" lon="9.5002961"><ele>1279.0</ele><time>2026-03-29T08:22:40.246Z</time></trkpt><trkpt lat="39.9848082" lon="9.500362"><ele>1274.4</ele><time>2026-03-29T08:23:02.246Z</time></trkpt><trkpt lat="39.9848193" lon="9.5004671"><ele>1269.8000000000002</ele><time>2026-03-29T08:23:14.247Z</time></trkpt><trkpt lat="39.9848133" lon="9.5005867"><ele>1265.1999999999998</ele><time>2026-03-29T08:23:16.246Z</time></trkpt><trkpt lat="39.9847658" lon="9.5006621"><ele>1260.6</ele><time>2026-03-29T08:23:18.246Z</time></trkpt><trkpt lat="39.984665" lon="9.5007158"><ele>1256.0</ele><time>2026-03-29T08:23:20.246Z</time></trkpt><trkpt lat="39.9845773" lon="9.5007673"><ele>1255.9999999999998</ele><time>2026-03-29T08:23:22.246Z</time></trkpt><trkpt lat="39.9845365" lon="9.5008387"><ele>1256.0</ele><time>2026-03-29T08:23:29.247Z</time></trkpt><trkpt lat="39.9845257" lon="9.500922"><ele>1256.0</ele><time>2026-03-29T08:23:33.246Z</time></trkpt><trkpt lat="39.984559" lon="9.5010025"><ele>1256.0</ele><time>2026-03-29T08:23:38.246Z</time></trkpt><trkpt lat="39.9845871" lon="9.5010975"><ele>1256.0</ele><time>2026-03-29T08:23:41.246Z</time></trkpt><trkpt lat="39.9846066" lon="9.5011923"><ele>1255.9999999999998</ele><time>2026-03-29T08:23:45.246Z</time></trkpt><trkpt lat="39.9846131" lon="9.5012929"><ele>1256.0</ele><time>2026-03-29T08:23:49.246Z</time></trkpt><trkpt lat="39.9846639" lon="9.5013575"><ele>1252.142857142857</ele><time>2026-03-29T08:23:53.246Z</time></trkpt><trkpt lat="39.984689" lon="9.5014526"><ele>1248.2857142857142</ele><time>2026-03-29T08:23:57.246Z</time></trkpt><trkpt lat="39.9847023" lon="9.5015368"><ele>1244.4285714285716</ele><time>2026-03-29T08:24:00.246Z</time></trkpt><trkpt lat="39.9847086" lon="9.5016269"><ele>1240.5714285714284</ele><time>2026-03-29T08:24:04.271Z</time></trkpt><trkpt lat="39.9846756" lon="9.5017228"><ele>1236.7142857142858</ele><time>2026-03-29T08:24:26.36Z</time></trkpt><trkpt lat="39.9846079" lon="9.5017785"><ele>1232.857142857143</ele><time>2026-03-29T08:24:30.165Z</time></trkpt><trkpt lat="39.984558" lon="9.5018348"><ele>1229.0</ele><time>2026-03-29T08:24:34.246Z</time></trkpt><trkpt lat="39.984419" lon="9.5018891"><ele>1229.0000000000002</ele><time>2026-03-29T08:24:35.247Z</time></trkpt><trkpt lat="39.9843566" lon="9.5019125"><ele>1229.0</ele><time>2026-03-29T08:24:38.247Z</time></trkpt><trkpt lat="39.9843648" lon="9.5020106"><ele>1229.0</ele><time>2026-03-29T08:24:42.246Z</time></trkpt><trkpt lat="39.9843756" lon="9.5021184"><ele>1229.0</ele><time>2026-03-29T08:24:45.246Z</time></trkpt><trkpt lat="39.9844188" lon="9.5021951"><ele>1229.0</ele><time>2026-03-29T08:24:48.247Z</time></trkpt><trkpt lat="39.9844655" lon="9.5022869"><ele>1229.0000000000002</ele><time>2026-03-29T08:24:51.246Z</time></trkpt><trkpt lat="39.9844204" lon="9.5023443"><ele>1229.0</ele><time>2026-03-29T08:24:55.246Z</time></trkpt><trkpt lat="39.984424" lon="9.5024308"><ele>1224.5</ele><time>2026-03-29T08:24:58.246Z</time></trkpt><trkpt lat="39.9844268" lon="9.5025336"><ele>1220.0</ele><time>2026-03-29T08:25:32.246Z</time></trkpt><trkpt lat="39.984432" lon="9.5026312"><ele>1215.5</ele><time>2026-03-29T08:25:34.246Z</time></trkpt><trkpt lat="39.9844256" lon="9.5027325"><ele>1211.0</ele><time>2026-03-29T08:25:36.246Z</time></trkpt><trkpt lat="39.9843923" lon="9.5028154"><ele>1206.5</ele><time>2026-03-29T08:25:39.247Z</time></trkpt><trkpt lat="39.9843626" lon="9.5029028"><ele>1202.0</ele><time>2026-03-29T08:25:41.246Z</time></trkpt><trkpt lat="39.9843873" lon="9.5030019"><ele>1197.0</ele><time>2026-03-29T08:25:44.247Z</time></trkpt><trkpt lat="39.9844153" lon="9.5030775"><ele>1192.0</ele><time>2026-03-29T08:25:46.247Z</time></trkpt><trkpt lat="39.9843832" lon="9.5031697"><ele>1187.0</ele><time>2026-03-29T08:25:52.247Z</time></trkpt><trkpt lat="39.9843116" lon="9.5032312"><ele>1182.0</ele><time>2026-03-29T08:25:54.246Z</time></trkpt><trkpt lat="39.9842228" lon="9.503268"><ele>1177.0</ele><time>2026-03-29T08:25:56.247Z</time></trkpt><trkpt lat="39.9842056" lon="9.5033507"><ele>1172.0</ele><time>2026-03-29T08:25:59.247Z</time></trkpt><trkpt lat="39.9842362" lon="9.5034563"><ele>1172.0</ele><time>2026-03-29T08:26:01.246Z</time></trkpt><trkpt lat="39.9842657" lon="9.5035365"><ele>1172.0</ele><time>2026-03-29T08:26:02.246Z</time></trkpt><trkpt lat="39.9843134" lon="9.5036575"><ele>1172.0</ele><time>2026-03-29T08:26:04.247Z</time></trkpt><trkpt lat="39.9842914" lon="9.5037529"><ele>1172.0</ele><time>2026-03-29T08:26:07.246Z</time></trkpt><trkpt lat="39.9842487" lon="9.5038305"><ele>1172.0</ele><time>2026-03-29T08:26:09.246Z</time></trkpt><trkpt lat="39.9842199" lon="9.5039583"><ele>1172.0</ele><time>2026-03-29T08:26:11.246Z</time></trkpt><trkpt lat="39.9842235" lon="9.5040485"><ele>1167.6</ele><time>2026-03-29T08:26:14.246Z</time></trkpt><trkpt lat="39.9843033" lon="9.5041167"><ele>1163.2</ele><time>2026-03-29T08:27:36.247Z</time></trkpt><trkpt lat="39.9843882" lon="9.5041914"><ele>1158.8</ele><time>2026-03-29T08:27:38.247Z</time></trkpt><trkpt lat="39.9843961" lon="9.5042838"><ele>1154.4</ele><time>2026-03-29T08:27:41.246Z</time></trkpt><trkpt lat="39.9843172" lon="9.5043629"><ele>1150.0</ele><time>2026-03-29T08:27:43.247Z</time></trkpt><trkpt lat="39.9842032" lon="9.5044335"><ele>1152.2</ele><time>2026-03-29T08:27:45.246Z</time></trkpt><trkpt lat="39.9840751" lon="9.5044807"><ele>1154.4</ele><time>2026-03-29T08:27:47.246Z</time></trkpt><trkpt lat="39.9840074" lon="9.5044895"><ele>1156.6</ele><time>2026-03-29T08:27:48.247Z</time></trkpt><trkpt lat="39.9838852" lon="9.5044856"><ele>1158.8</ele><time>2026-03-29T08:27:50.246Z</time></trkpt><trkpt lat="39.9837719" lon="9.5044962"><ele>1161.0</ele><time>2026-03-29T08:27:52.246Z</time></trkpt><trkpt lat="39.9837096" lon="9.5045255"><ele>1156.8333333333333</ele><time>2026-03-29T08:27:54.246Z</time></trkpt><trkpt lat="39.9836659" lon="9.5046481"><ele>1152.6666666666667</ele><time>2026-03-29T08:27:56.247Z</time></trkpt><trkpt lat="39.9835961" lon="9.5047597"><ele>1148.5</ele><time>2026-03-29T08:27:58.246Z</time></trkpt><trkpt lat="39.983555" lon="9.5048328"><ele>1144.3333333333335</ele><time>2026-03-29T08:27:59.246Z</time></trkpt><trkpt lat="39.9835043" lon="9.5049154"><ele>1140.1666666666667</ele><time>2026-03-29T08:28:00.246Z</time></trkpt><trkpt lat="39.9834625" lon="9.5049786"><ele>1136.0</ele><time>2026-03-29T08:28:01.246Z</time></trkpt><trkpt lat="39.9834002" lon="9.5050113"><ele>1135.0</ele><time>2026-03-29T08:28:03.246Z</time></trkpt><trkpt lat="39.9833031" lon="9.5050389"><ele>1134.0</ele><time>2026-03-29T08:28:05.246Z</time></trkpt><trkpt lat="39.9832227" lon="9.5050318"><ele>1133.0</ele><time>2026-03-29T08:28:07.246Z</time></trkpt><trkpt lat="39.9831451" lon="9.5051129"><ele>1132.0</ele><time>2026-03-29T08:28:09.247Z</time></trkpt><trkpt lat="39.983038" lon="9.505216"><ele>1131.0</ele><time>2026-03-29T08:28:11.246Z</time></trkpt><trkpt lat="39.9829796" lon="9.5053002"><ele>1131.0</ele><time>2026-03-29T08:28:12.246Z</time></trkpt><trkpt lat="39.9829208" lon="9.5053901"><ele>1131.0</ele><time>2026-03-29T08:28:13.246Z</time></trkpt><trkpt lat="39.98285" lon="9.5054564"><ele>1131.0</ele><time>2026-03-29T08:28:14.246Z</time></trkpt><trkpt lat="39.9827665" lon="9.5055185"><ele>1131.0</ele><time>2026-03-29T08:28:15.247Z</time></trkpt><trkpt lat="39.9826982" lon="9.5055894"><ele>1131.0</ele><time>2026-03-29T08:28:16.246Z</time></trkpt><trkpt lat="39.9826276" lon="9.5056721"><ele>1129.5714285714287</ele><time>2026-03-29T08:28:17.247Z</time></trkpt><trkpt lat="39.9825745" lon="9.5057466"><ele>1128.142857142857</ele><time>2026-03-29T08:28:18.247Z</time></trkpt><trkpt lat="39.9825319" lon="9.505828"><ele>1126.7142857142858</ele><time>2026-03-29T08:28:19.246Z</time></trkpt><trkpt lat="39.9825032" lon="9.5059143"><ele>1125.2857142857142</ele><time>2026-03-29T08:28:20.246Z</time></trkpt><trkpt lat="39.9824707" lon="9.5060034"><ele>1123.857142857143</ele><time>2026-03-29T08:28:21.246Z</time></trkpt><trkpt lat="39.9824232" lon="9.5060758"><ele>1122.4285714285716</ele><time>2026-03-29T08:28:22.246Z</time></trkpt><trkpt lat="39.9823891" lon="9.5061566"><ele>1121.0</ele><time>2026-03-29T08:28:23.246Z</time></trkpt><trkpt lat="39.9823511" lon="9.5062538"><ele>1121.0</ele><time>2026-03-29T08:28:25.246Z</time></trkpt><trkpt lat="39.9824187" lon="9.5062068"><ele>1121.0</ele><time>2026-03-29T08:28:48.246Z</time></trkpt><trkpt lat="39.9824883" lon="9.5060888"><ele>1121.0</ele><time>2026-03-29T08:28:50.247Z</time></trkpt><trkpt lat="39.9825444" lon="9.5060243"><ele>1121.0</ele><time>2026-03-29T08:28:51.246Z</time></trkpt><trkpt lat="39.9826097" lon="9.5059601"><ele>1121.0</ele><time>2026-03-29T08:28:52.246Z</time></trkpt><trkpt lat="39.9826745" lon="9.5058911"><ele>1121.0</ele><time>2026-03-29T08:28:53.246Z</time></trkpt><trkpt lat="39.9827547" lon="9.5058302"><ele>1119.0</ele><time>2026-03-29T08:28:54.246Z</time></trkpt><trkpt lat="39.9828211" lon="9.5057857"><ele>1117.0</ele><time>2026-03-29T08:28:55.246Z</time></trkpt><trkpt lat="39.9828927" lon="9.5057494"><ele>1115.0</ele><time>2026-03-29T08:28:56.246Z</time></trkpt><trkpt lat="39.9830005" lon="9.5057363"><ele>1113.0</ele><time>2026-03-29T08:28:58.246Z</time></trkpt><trkpt lat="39.9831069" lon="9.5056875"><ele>1111.0</ele><time>2026-03-29T08:29:00.247Z</time></trkpt><trkpt lat="39.9832688" lon="9.5056938"><ele>1109.6</ele><time>2026-03-29T08:29:02.246Z</time></trkpt><trkpt lat="39.9833817" lon="9.5056752"><ele>1108.1999999999998</ele><time>2026-03-29T08:29:03.246Z</time></trkpt><trkpt lat="39.9834531" lon="9.5056695"><ele>1106.8000000000002</ele><time>2026-03-29T08:29:04.246Z</time></trkpt><trkpt lat="39.9835462" lon="9.5056882"><ele>1105.4</ele><time>2026-03-29T08:29:05.247Z</time></trkpt><trkpt lat="39.9836826" lon="9.5056983"><ele>1104.0</ele><time>2026-03-29T08:29:07.247Z</time></trkpt><trkpt lat="39.9837569" lon="9.5057184"><ele>1104.0</ele><time>2026-03-29T08:29:08.247Z</time></trkpt><trkpt lat="39.9838284" lon="9.5057416"><ele>1104.0</ele><time>2026-03-29T08:29:09.247Z</time></trkpt><trkpt lat="39.9838971" lon="9.5057371"><ele>1104.0</ele><time>2026-03-29T08:29:10.246Z</time></trkpt><trkpt lat="39.9840251" lon="9.5057054"><ele>1104.0</ele><time>2026-03-29T08:29:12.246Z</time></trkpt><trkpt lat="39.9841111" lon="9.5057075"><ele>1104.0</ele><time>2026-03-29T08:29:13.246Z</time></trkpt><trkpt lat="39.9841885" lon="9.5057174"><ele>1104.0</ele><time>2026-03-29T08:29:14.247Z</time></trkpt><trkpt lat="39.9842543" lon="9.5057236"><ele>1103.0</ele><time>2026-03-29T08:29:15.247Z</time></trkpt><trkpt lat="39.9843708" lon="9.5057293"><ele>1102.0</ele><time>2026-03-29T08:29:17.246Z</time></trkpt><trkpt lat="39.9844471" lon="9.5057682"><ele>1101.0</ele><time>2026-03-29T08:29:18.246Z</time></trkpt><trkpt lat="39.9845304" lon="9.5057959"><ele>1100.0</ele><time>2026-03-29T08:29:20.246Z</time></trkpt><trkpt lat="39.9846131" lon="9.5058249"><ele>1099.0</ele><time>2026-03-29T08:29:27.247Z</time></trkpt><trkpt lat="39.9847002" lon="9.5058418"><ele>1099.0</ele><time>2026-03-29T08:29:28.246Z</time></trkpt><trkpt lat="39.9848166" lon="9.5058649"><ele>1099.0</ele><time>2026-03-29T08:29:30.246Z</time></trkpt><trkpt lat="39.9848961" lon="9.5057993"><ele>1099.0</ele><time>2026-03-29T08:29:32.246Z</time></trkpt><trkpt lat="39.9849792" lon="9.5057384"><ele>1099.0</ele><time>2026-03-29T08:29:34.246Z</time></trkpt><trkpt lat="39.9850377" lon="9.5056988"><ele>1099.0</ele><time>2026-03-29T08:29:35.246Z</time></trkpt><trkpt lat="39.9850999" lon="9.5056545"><ele>1099.0</ele><time>2026-03-29T08:29:36.246Z</time></trkpt><trkpt lat="39.9851675" lon="9.5055694"><ele>1097.0</ele><time>2026-03-29T08:29:38.247Z</time></trkpt><trkpt lat="39.9852638" lon="9.5055105"><ele>1095.0</ele><time>2026-03-29T08:29:40.247Z</time></trkpt><trkpt lat="39.9852991" lon="9.5054166"><ele>1093.0</ele><time>2026-03-29T08:29:43.246Z</time></trkpt><trkpt lat="39.9852984" lon="9.5052633"><ele>1091.0</ele><time>2026-03-29T08:29:46.253Z</time></trkpt><trkpt lat="39.9852756" lon="9.5051477"><ele>1089.0</ele><time>2026-03-29T08:29:48.246Z</time></trkpt><trkpt lat="39.9852903" lon="9.5050477"><ele>1089.0000000000002</ele><time>2026-03-29T08:29:50.252Z</time></trkpt><trkpt lat="39.9853153" lon="9.5049661"><ele>1089.0</ele><time>2026-03-29T08:29:52.249Z</time></trkpt><trkpt lat="39.9853663" lon="9.5049098"><ele>1089.0</ele><time>2026-03-29T08:29:53.249Z</time></trkpt><trkpt lat="39.985394" lon="9.5048159"><ele>1089.0</ele><time>2026-03-29T08:29:55.25Z</time></trkpt><trkpt lat="39.9854447" lon="9.5047148"><ele>1089.0</ele><time>2026-03-29T08:29:58.249Z</time></trkpt><trkpt lat="39.9855013" lon="9.504674"><ele>1089.0000000000002</ele><time>2026-03-29T08:30:00.249Z</time></trkpt><trkpt lat="39.9855698" lon="9.5046423"><ele>1089.0</ele><time>2026-03-29T08:30:02.249Z</time></trkpt><trkpt lat="39.9856488" lon="9.50465"><ele>1089.0</ele><time>2026-03-29T08:30:04.249Z</time></trkpt><trkpt lat="39.9857388" lon="9.5046732"><ele>1089.0</ele><time>2026-03-29T08:30:06.25Z</time></trkpt><trkpt lat="39.9858419" lon="9.5046635"><ele>1089.0</ele><time>2026-03-29T08:30:08.249Z</time></trkpt><trkpt lat="39.9859531" lon="9.5046486"><ele>1089.0</ele><time>2026-03-29T08:30:10.249Z</time></trkpt><trkpt lat="39.9860726" lon="9.5046845"><ele>1089.0</ele><time>2026-03-29T08:30:13.249Z</time></trkpt><trkpt lat="39.9861403" lon="9.5047266"><ele>1089.8333333333333</ele><time>2026-03-29T08:30:14.249Z</time></trkpt><trkpt lat="39.9862522" lon="9.5047146"><ele>1090.6666666666667</ele><time>2026-03-29T08:30:16.249Z</time></trkpt><trkpt lat="39.9863205" lon="9.5046867"><ele>1091.5</ele><time>2026-03-29T08:30:17.249Z</time></trkpt><trkpt lat="39.98639" lon="9.5046638"><ele>1092.3333333333335</ele><time>2026-03-29T08:30:18.249Z</time></trkpt><trkpt lat="39.9864598" lon="9.5046328"><ele>1093.1666666666667</ele><time>2026-03-29T08:30:19.25Z</time></trkpt><trkpt lat="39.9865503" lon="9.5045899"><ele>1094.0</ele><time>2026-03-29T08:30:20.249Z</time></trkpt><trkpt lat="39.9866402" lon="9.5045626"><ele>1087.4</ele><time>2026-03-29T08:30:21.249Z</time></trkpt><trkpt lat="39.9867195" lon="9.5045344"><ele>1080.8000000000002</ele><time>2026-03-29T08:30:22.249Z</time></trkpt><trkpt lat="39.9868399" lon="9.5044546"><ele>1074.1999999999998</ele><time>2026-03-29T08:30:24.249Z</time></trkpt><trkpt lat="39.9869353" lon="9.5043828"><ele>1067.6</ele><time>2026-03-29T08:30:26.25Z</time></trkpt><trkpt lat="39.986967" lon="9.5043033"><ele>1061.0</ele><time>2026-03-29T08:30:28.249Z</time></trkpt><trkpt lat="39.9869469" lon="9.5041986"><ele>1061.0</ele><time>2026-03-29T08:30:30.249Z</time></trkpt><trkpt lat="39.9869828" lon="9.504082"><ele>1061.0</ele><time>2026-03-29T08:30:32.249Z</time></trkpt><trkpt lat="39.9870389" lon="9.504024"><ele>1061.0</ele><time>2026-03-29T08:30:35.25Z</time></trkpt><trkpt lat="39.9870748" lon="9.5041057"><ele>1061.0</ele><time>2026-03-29T08:30:39.25Z</time></trkpt><trkpt lat="39.9871783" lon="9.5040679"><ele>1061.0</ele><time>2026-03-29T08:31:16.249Z</time></trkpt><trkpt lat="39.9872532" lon="9.5040506"><ele>1061.0</ele><time>2026-03-29T08:31:17.249Z</time></trkpt><trkpt lat="39.9873967" lon="9.5040545"><ele>1061.0</ele><time>2026-03-29T08:31:19.249Z</time></trkpt><trkpt lat="39.987475" lon="9.5040165"><ele>1061.0</ele><time>2026-03-29T08:31:21.249Z</time></trkpt><trkpt lat="39.9875848" lon="9.5039486"><ele>1061.0</ele><time>2026-03-29T08:31:23.249Z</time></trkpt><trkpt lat="39.9876464" lon="9.5039192"><ele>1061.0</ele><time>2026-03-29T08:31:24.25Z</time></trkpt><trkpt lat="39.9877669" lon="9.5038819"><ele>1061.0</ele><time>2026-03-29T08:31:26.249Z</time></trkpt><trkpt lat="39.9878302" lon="9.5038501"><ele>1058.2</ele><time>2026-03-29T08:31:27.249Z</time></trkpt><trkpt lat="39.9878955" lon="9.5038326"><ele>1055.3999999999999</ele><time>2026-03-29T08:31:28.25Z</time></trkpt><trkpt lat="39.9879836" lon="9.503794"><ele>1052.6</ele><time>2026-03-29T08:31:30.249Z</time></trkpt><trkpt lat="39.9880674" lon="9.503802"><ele>1049.8</ele><time>2026-03-29T08:31:31.25Z</time></trkpt><trkpt lat="39.9881948" lon="9.5037881"><ele>1047.0</ele><time>2026-03-29T08:31:33.249Z</time></trkpt><trkpt lat="39.9882732" lon="9.50385"><ele>1042.6</ele><time>2026-03-29T08:31:35.249Z</time></trkpt><trkpt lat="39.988396" lon="9.5038373"><ele>1038.2</ele><time>2026-03-29T08:31:37.249Z</time></trkpt><trkpt lat="39.9885" lon="9.5038029"><ele>1033.8</ele><time>2026-03-29T08:31:39.249Z</time></trkpt><trkpt lat="39.9885793" lon="9.5038223"><ele>1029.4</ele><time>2026-03-29T08:31:40.249Z</time></trkpt><trkpt lat="39.9886946" lon="9.5038265"><ele>1025.0</ele><time>2026-03-29T08:31:42.249Z</time></trkpt><trkpt lat="39.9887706" lon="9.503775"><ele>1025.0</ele><time>2026-03-29T08:31:43.249Z</time></trkpt><trkpt lat="39.9888462" lon="9.503748"><ele>1025.0</ele><time>2026-03-29T08:31:44.249Z</time></trkpt><trkpt lat="39.9889422" lon="9.5036534"><ele>1025.0</ele><time>2026-03-29T08:31:46.249Z</time></trkpt><trkpt lat="39.9890058" lon="9.5035682"><ele>1025.0</ele><time>2026-03-29T08:31:48.249Z</time></trkpt><trkpt lat="39.9890389" lon="9.5034892"><ele>1025.0</ele><time>2026-03-29T08:31:50.249Z</time></trkpt><trkpt lat="39.9890872" lon="9.503426"><ele>1025.0</ele><time>2026-03-29T08:31:52.25Z</time></trkpt><trkpt lat="39.9891109" lon="9.5033421"><ele>1029.3333333333335</ele><time>2026-03-29T08:31:54.249Z</time></trkpt><trkpt lat="39.9891822" lon="9.5033014"><ele>1033.6666666666667</ele><time>2026-03-29T08:31:58.25Z</time></trkpt><trkpt lat="39.989275" lon="9.5032669"><ele>1038.0</ele><time>2026-03-29T08:32:01.249Z</time></trkpt><trkpt lat="39.9893869" lon="9.5032614"><ele>1042.3333333333333</ele><time>2026-03-29T08:32:03.249Z</time></trkpt><trkpt lat="39.9894728" lon="9.5032723"><ele>1046.6666666666665</ele><time>2026-03-29T08:32:05.249Z</time></trkpt><trkpt lat="39.9895341" lon="9.5033265"><ele>1051.0</ele><time>2026-03-29T08:32:06.249Z</time></trkpt><trkpt lat="39.9895942" lon="9.5033759"><ele>1051.0</ele><time>2026-03-29T08:32:07.25Z</time></trkpt><trkpt lat="39.9896853" lon="9.5033991"><ele>1051.0</ele><time>2026-03-29T08:32:09.249Z</time></trkpt><trkpt lat="39.9897492" lon="9.5034309"><ele>1051.0</ele><time>2026-03-29T08:32:10.25Z</time></trkpt><trkpt lat="39.9898609" lon="9.5034636"><ele>1051.0</ele><time>2026-03-29T08:32:12.25Z</time></trkpt><trkpt lat="39.9899276" lon="9.5035218"><ele>1051.0</ele><time>2026-03-29T08:32:13.249Z</time></trkpt><trkpt lat="39.9900136" lon="9.5035716"><ele>1051.6666666666665</ele><time>2026-03-29T08:32:14.249Z</time></trkpt><trkpt lat="39.9900824" lon="9.503622"><ele>1052.3333333333333</ele><time>2026-03-29T08:32:15.249Z</time></trkpt><trkpt lat="39.9901758" lon="9.5036493"><ele>1053.0</ele><time>2026-03-29T08:32:16.25Z</time></trkpt><trkpt lat="39.9902671" lon="9.503678"><ele>1053.6666666666667</ele><time>2026-03-29T08:32:17.25Z</time></trkpt><trkpt lat="39.9903446" lon="9.50369"><ele>1054.3333333333335</ele><time>2026-03-29T08:32:18.249Z</time></trkpt><trkpt lat="39.9904279" lon="9.5037162"><ele>1055.0</ele><time>2026-03-29T08:32:19.249Z</time></trkpt><trkpt lat="39.9905032" lon="9.5037248"><ele>1055.0</ele><time>2026-03-29T08:32:20.249Z</time></trkpt><trkpt lat="39.9905757" lon="9.5037254"><ele>1055.0</ele><time>2026-03-29T08:32:21.249Z</time></trkpt><trkpt lat="39.9906419" lon="9.5037155"><ele>1055.0</ele><time>2026-03-29T08:32:22.249Z</time></trkpt><trkpt lat="39.9907114" lon="9.5036925"><ele>1055.0</ele><time>2026-03-29T08:32:23.249Z</time></trkpt><trkpt lat="39.9907774" lon="9.5036548"><ele>1055.0</ele><time>2026-03-29T08:32:24.249Z</time></trkpt><trkpt lat="39.9908478" lon="9.5036099"><ele>1055.0</ele><time>2026-03-29T08:32:25.249Z</time></trkpt><trkpt lat="39.990917" lon="9.5035744"><ele>1055.0</ele><time>2026-03-29T08:32:26.249Z</time></trkpt><trkpt lat="39.9909803" lon="9.50356"><ele>1054.3333333333335</ele><time>2026-03-29T08:32:27.249Z</time></trkpt><trkpt lat="39.9910429" lon="9.5035309"><ele>1053.6666666666667</ele><time>2026-03-29T08:32:28.249Z</time></trkpt><trkpt lat="39.9911146" lon="9.5034738"><ele>1053.0</ele><time>2026-03-29T08:32:30.249Z</time></trkpt><trkpt lat="39.9912034" lon="9.5034683"><ele>1052.3333333333333</ele><time>2026-03-29T08:32:32.249Z</time></trkpt><trkpt lat="39.9912954" lon="9.5035223"><ele>1051.6666666666665</ele><time>2026-03-29T08:32:34.25Z</time></trkpt><trkpt lat="39.9913612" lon="9.503595"><ele>1051.0</ele><time>2026-03-29T08:32:36.249Z</time></trkpt><trkpt lat="39.9914527" lon="9.5036895"><ele>1045.6</ele><time>2026-03-29T08:32:39.249Z</time></trkpt><trkpt lat="39.9915509" lon="9.50378"><ele>1040.1999999999998</ele><time>2026-03-29T08:32:41.249Z</time></trkpt><trkpt lat="39.9916751" lon="9.5037986"><ele>1034.8000000000002</ele><time>2026-03-29T08:32:43.25Z</time></trkpt><trkpt lat="39.9917616" lon="9.5037772"><ele>1029.4</ele><time>2026-03-29T08:32:45.249Z</time></trkpt><trkpt lat="39.9918597" lon="9.503821"><ele>1024.0</ele><time>2026-03-29T08:32:47.249Z</time></trkpt><trkpt lat="39.9919363" lon="9.5038378"><ele>1024.0</ele><time>2026-03-29T08:32:48.249Z</time></trkpt><trkpt lat="39.9920235" lon="9.5038204"><ele>1024.0</ele><time>2026-03-29T08:32:50.25Z</time></trkpt><trkpt lat="39.9921081" lon="9.5038524"><ele>1024.0</ele><time>2026-03-29T08:32:52.25Z</time></trkpt><trkpt lat="39.992201" lon="9.5039587"><ele>1024.0</ele><time>2026-03-29T08:32:54.25Z</time></trkpt><trkpt lat="39.992251" lon="9.5040113"><ele>1024.0</ele><time>2026-03-29T08:32:55.249Z</time></trkpt><trkpt lat="39.9923234" lon="9.5041036"><ele>1024.0</ele><time>2026-03-29T08:32:57.25Z</time></trkpt><trkpt lat="39.9924244" lon="9.5041997"><ele>1024.0</ele><time>2026-03-29T08:32:59.249Z</time></trkpt><trkpt lat="39.9924652" lon="9.5042997"><ele>1024.0</ele><time>2026-03-29T08:33:01.249Z</time></trkpt><trkpt lat="39.9924967" lon="9.5044504"><ele>1024.0</ele><time>2026-03-29T08:33:03.249Z</time></trkpt><trkpt lat="39.9925544" lon="9.5045818"><ele>1024.0</ele><time>2026-03-29T08:33:05.249Z</time></trkpt><trkpt lat="39.9925737" lon="9.5047012"><ele>1017.6666666666666</ele><time>2026-03-29T08:33:07.249Z</time></trkpt><trkpt lat="39.9925563" lon="9.5047956"><ele>1011.3333333333333</ele><time>2026-03-29T08:33:09.249Z</time></trkpt><trkpt lat="39.9926412" lon="9.5048654"><ele>1005.0</ele><time>2026-03-29T08:33:12.249Z</time></trkpt><trkpt lat="39.9926484" lon="9.5049483"><ele>998.6666666666667</ele><time>2026-03-29T08:33:14.249Z</time></trkpt><trkpt lat="39.9926325" lon="9.5050279"><ele>992.3333333333334</ele><time>2026-03-29T08:33:15.249Z</time></trkpt><trkpt lat="39.9926473" lon="9.5051097"><ele>986.0</ele><time>2026-03-29T08:33:16.25Z</time></trkpt><trkpt lat="39.9926308" lon="9.5052467"><ele>986.0000000000001</ele><time>2026-03-29T08:33:18.249Z</time></trkpt><trkpt lat="39.992729" lon="9.5052549"><ele>986.0</ele><time>2026-03-29T08:33:22.25Z</time></trkpt><trkpt lat="39.9928135" lon="9.5052683"><ele>986.0</ele><time>2026-03-29T08:33:24.249Z</time></trkpt><trkpt lat="39.9928956" lon="9.5052232"><ele>986.0</ele><time>2026-03-29T08:33:26.249Z</time></trkpt><trkpt lat="39.9929577" lon="9.5052018"><ele>986.0000000000001</ele><time>2026-03-29T08:33:27.249Z</time></trkpt><trkpt lat="39.9930436" lon="9.5052395"><ele>986.0</ele><time>2026-03-29T08:33:29.249Z</time></trkpt><trkpt lat="39.9931082" lon="9.5052997"><ele>986.0</ele><time>2026-03-29T08:33:30.25Z</time></trkpt><trkpt lat="39.9931829" lon="9.5053642"><ele>985.9999999999999</ele><time>2026-03-29T08:33:32.25Z</time></trkpt><trkpt lat="39.9932212" lon="9.5054481"><ele>985.9999999999999</ele><time>2026-03-29T08:33:34.25Z</time></trkpt><trkpt lat="39.9932122" lon="9.505591"><ele>986.0</ele><time>2026-03-29T08:33:36.25Z</time></trkpt><trkpt lat="39.9932862" lon="9.5056996"><ele>986.0</ele><time>2026-03-29T08:33:38.249Z</time></trkpt><trkpt lat="39.9933342" lon="9.5057684"><ele>979.0000000000001</ele><time>2026-03-29T08:33:39.249Z</time></trkpt><trkpt lat="39.993354" lon="9.505851"><ele>972.0</ele><time>2026-03-29T08:33:40.25Z</time></trkpt><trkpt lat="39.993406" lon="9.5059517"><ele>965.0</ele><time>2026-03-29T08:33:42.249Z</time></trkpt><trkpt lat="39.9934852" lon="9.506026"><ele>958.0</ele><time>2026-03-29T08:33:44.25Z</time></trkpt><trkpt lat="39.9935551" lon="9.5061221"><ele>951.0000000000001</ele><time>2026-03-29T08:33:46.249Z</time></trkpt><trkpt lat="39.9935519" lon="9.5062171"><ele>944.0</ele><time>2026-03-29T08:33:48.25Z</time></trkpt><trkpt lat="39.9935136" lon="9.5063031"><ele>942.8333333333334</ele><time>2026-03-29T08:33:50.25Z</time></trkpt><trkpt lat="39.9934739" lon="9.5063835"><ele>941.6666666666667</ele><time>2026-03-29T08:33:52.249Z</time></trkpt><trkpt lat="39.9934612" lon="9.5065288"><ele>940.5</ele><time>2026-03-29T08:33:54.249Z</time></trkpt><trkpt lat="39.9934614" lon="9.5066147"><ele>939.3333333333333</ele><time>2026-03-29T08:33:55.249Z</time></trkpt><trkpt lat="39.9934868" lon="9.5067305"><ele>938.1666666666666</ele><time>2026-03-29T08:33:57.249Z</time></trkpt><trkpt lat="39.9935043" lon="9.5068569"><ele>937.0</ele><time>2026-03-29T08:33:59.249Z</time></trkpt><trkpt lat="39.9935219" lon="9.5069542"><ele>937.0</ele><time>2026-03-29T08:34:01.249Z</time></trkpt><trkpt lat="39.9935549" lon="9.5070761"><ele>937.0</ele><time>2026-03-29T08:34:03.25Z</time></trkpt><trkpt lat="39.9936137" lon="9.5071862"><ele>937.0</ele><time>2026-03-29T08:34:05.249Z</time></trkpt><trkpt lat="39.9936484" lon="9.5072626"><ele>937.0</ele><time>2026-03-29T08:34:06.249Z</time></trkpt><trkpt lat="39.9937054" lon="9.5073841"><ele>937.0</ele><time>2026-03-29T08:34:08.249Z</time></trkpt><trkpt lat="39.9937761" lon="9.5074418"><ele>936.3333333333333</ele><time>2026-03-29T08:34:11.249Z</time></trkpt><trkpt lat="39.9938418" lon="9.5074568"><ele>935.6666666666666</ele><time>2026-03-29T08:34:13.249Z</time></trkpt><trkpt lat="39.9939087" lon="9.5074186"><ele>935.0</ele><time>2026-03-29T08:34:17.25Z</time></trkpt><trkpt lat="39.9939912" lon="9.5074437"><ele>934.3333333333333</ele><time>2026-03-29T08:34:19.249Z</time></trkpt><trkpt lat="39.9940565" lon="9.5075146"><ele>933.6666666666666</ele><time>2026-03-29T08:34:20.25Z</time></trkpt><trkpt lat="39.99413" lon="9.5075513"><ele>933.0</ele><time>2026-03-29T08:34:22.249Z</time></trkpt><trkpt lat="39.994199" lon="9.5075926"><ele>926.8333333333334</ele><time>2026-03-29T08:34:24.25Z</time></trkpt><trkpt lat="39.9942965" lon="9.507619"><ele>920.6666666666667</ele><time>2026-03-29T08:34:26.249Z</time></trkpt><trkpt lat="39.9943923" lon="9.5075926"><ele>914.5</ele><time>2026-03-29T08:34:28.25Z</time></trkpt><trkpt lat="39.9944238" lon="9.5075153"><ele>908.3333333333334</ele><time>2026-03-29T08:34:29.249Z</time></trkpt><trkpt lat="39.9944715" lon="9.5074592"><ele>902.1666666666667</ele><time>2026-03-29T08:34:30.249Z</time></trkpt><trkpt lat="39.9945545" lon="9.5074528"><ele>896.0</ele><time>2026-03-29T08:34:32.249Z</time></trkpt><trkpt lat="39.9946321" lon="9.5074052"><ele>896.0000000000001</ele><time>2026-03-29T08:34:34.249Z</time></trkpt><trkpt lat="39.9947178" lon="9.5073624"><ele>896.0</ele><time>2026-03-29T08:34:36.249Z</time></trkpt><trkpt lat="39.9947818" lon="9.5073091"><ele>896.0</ele><time>2026-03-29T08:34:38.249Z</time></trkpt><trkpt lat="39.9948403" lon="9.5072779"><ele>896.0</ele><time>2026-03-29T08:34:40.249Z</time></trkpt><trkpt lat="39.9948932" lon="9.5073847"><ele>896.0000000000001</ele><time>2026-03-29T08:34:42.249Z</time></trkpt><trkpt lat="39.9948759" lon="9.5074908"><ele>896.0</ele><time>2026-03-29T08:34:44.249Z</time></trkpt><trkpt lat="39.9948554" lon="9.507617"><ele>896.0</ele><time>2026-03-29T08:34:46.249Z</time></trkpt><trkpt lat="39.9948247" lon="9.5077157"><ele>895.9999999999999</ele><time>2026-03-29T08:34:48.249Z</time></trkpt><trkpt lat="39.9948085" lon="9.5078508"><ele>895.9999999999999</ele><time>2026-03-29T08:34:50.249Z</time></trkpt><trkpt lat="39.9947764" lon="9.5080041"><ele>896.0</ele><time>2026-03-29T08:34:52.249Z</time></trkpt><trkpt lat="39.9947707" lon="9.5081193"><ele>896.0</ele><time>2026-03-29T08:34:53.249Z</time></trkpt><trkpt lat="39.9947454" lon="9.5082687"><ele>891.1999999999999</ele><time>2026-03-29T08:34:55.249Z</time></trkpt><trkpt lat="39.9947009" lon="9.50841"><ele>886.3999999999999</ele><time>2026-03-29T08:34:57.249Z</time></trkpt><trkpt lat="39.9946413" lon="9.5083639"><ele>881.6</ele><time>2026-03-29T08:34:58.249Z</time></trkpt><trkpt lat="39.9945364" lon="9.5084341"><ele>876.8</ele><time>2026-03-29T08:35:00.249Z</time></trkpt><trkpt lat="39.9945067" lon="9.5085101"><ele>872.0</ele><time>2026-03-29T08:35:01.25Z</time></trkpt><trkpt lat="39.9944476" lon="9.5086299"><ele>867.0000000000001</ele><time>2026-03-29T08:35:03.249Z</time></trkpt><trkpt lat="39.9944287" lon="9.5087453"><ele>862.0</ele><time>2026-03-29T08:35:04.249Z</time></trkpt><trkpt lat="39.9944371" lon="9.5088948"><ele>857.0</ele><time>2026-03-29T08:35:05.249Z</time></trkpt><trkpt lat="39.9944016" lon="9.5089908"><ele>852.0</ele><time>2026-03-29T08:35:06.249Z</time></trkpt><trkpt lat="39.994376" lon="9.5090696"><ele>847.0000000000001</ele><time>2026-03-29T08:35:07.25Z</time></trkpt><trkpt lat="39.9943397" lon="9.509177"><ele>842.0</ele><time>2026-03-29T08:35:08.25Z</time></trkpt><trkpt lat="39.9943069" lon="9.5092518"><ele>842.0</ele><time>2026-03-29T08:35:09.249Z</time></trkpt><trkpt lat="39.9943052" lon="9.5094393"><ele>842.0</ele><time>2026-03-29T08:35:11.249Z</time></trkpt><trkpt lat="39.9943073" lon="9.5095565"><ele>842.0</ele><time>2026-03-29T08:35:12.249Z</time></trkpt><trkpt lat="39.994281" lon="9.5097106"><ele>842.0</ele><time>2026-03-29T08:35:14.25Z</time></trkpt><trkpt lat="39.9942932" lon="9.5098178"><ele>842.0</ele><time>2026-03-29T08:35:16.25Z</time></trkpt><trkpt lat="39.994293" lon="9.5099105"><ele>839.6666666666667</ele><time>2026-03-29T08:35:18.25Z</time></trkpt><trkpt lat="39.9943635" lon="9.5099693"><ele>837.3333333333334</ele><time>2026-03-29T08:35:21.249Z</time></trkpt><trkpt lat="39.9944367" lon="9.5099818"><ele>835.0</ele><time>2026-03-29T08:35:24.249Z</time></trkpt><trkpt lat="39.9944703" lon="9.5100595"><ele>832.6666666666667</ele><time>2026-03-29T08:35:26.249Z</time></trkpt><trkpt lat="39.9945259" lon="9.5101599"><ele>830.3333333333334</ele><time>2026-03-29T08:35:27.25Z</time></trkpt><trkpt lat="39.9945693" lon="9.5102339"><ele>828.0</ele><time>2026-03-29T08:35:28.249Z</time></trkpt><trkpt lat="39.9945951" lon="9.5103342"><ele>826.0</ele><time>2026-03-29T08:35:29.249Z</time></trkpt><trkpt lat="39.9946417" lon="9.5104203"><ele>824.0</ele><time>2026-03-29T08:35:31.249Z</time></trkpt><trkpt lat="39.9946113" lon="9.5105261"><ele>822.0</ele><time>2026-03-29T08:35:33.25Z</time></trkpt><trkpt lat="39.9945947" lon="9.5106438"><ele>820.0</ele><time>2026-03-29T08:35:36.249Z</time></trkpt><trkpt lat="39.9946259" lon="9.5107639"><ele>818.0</ele><time>2026-03-29T08:35:38.249Z</time></trkpt><trkpt lat="39.9946311" lon="9.5108486"><ele>816.0</ele><time>2026-03-29T08:35:40.249Z</time></trkpt><trkpt lat="39.9946433" lon="9.5109749"><ele>816.0</ele><time>2026-03-29T08:35:42.249Z</time></trkpt><trkpt lat="39.9946571" lon="9.5110666"><ele>816.0</ele><time>2026-03-29T08:35:44.249Z</time></trkpt><trkpt lat="39.9946355" lon="9.5111705"><ele>816.0</ele><time>2026-03-29T08:35:46.25Z</time></trkpt><trkpt lat="39.9946167" lon="9.5112761"><ele>816.0</ele><time>2026-03-29T08:35:48.249Z</time></trkpt><trkpt lat="39.9946474" lon="9.5113751"><ele>816.0</ele><time>2026-03-29T08:35:50.25Z</time></trkpt><trkpt lat="39.9946948" lon="9.51149"><ele>816.0</ele><time>2026-03-29T08:35:52.249Z</time></trkpt><trkpt lat="39.9947312" lon="9.5115941"><ele>814.1666666666666</ele><time>2026-03-29T08:35:54.249Z</time></trkpt><trkpt lat="39.9947679" lon="9.5116851"><ele>812.3333333333333</ele><time>2026-03-29T08:35:56.249Z</time></trkpt><trkpt lat="39.9948147" lon="9.5117833"><ele>810.5</ele><time>2026-03-29T08:35:58.249Z</time></trkpt><trkpt lat="39.9948335" lon="9.5119005"><ele>808.6666666666666</ele><time>2026-03-29T08:36:00.25Z</time></trkpt><trkpt lat="39.9948443" lon="9.5120085"><ele>806.8333333333333</ele><time>2026-03-29T08:36:02.249Z</time></trkpt><trkpt lat="39.9948393" lon="9.5121361"><ele>805.0</ele><time>2026-03-29T08:36:04.249Z</time></trkpt><trkpt lat="39.9948503" lon="9.5122724"><ele>801.3333333333333</ele><time>2026-03-29T08:36:06.249Z</time></trkpt><trkpt lat="39.9948938" lon="9.5123594"><ele>797.6666666666666</ele><time>2026-03-29T08:36:08.249Z</time></trkpt><trkpt lat="39.9948899" lon="9.5124609"><ele>794.0</ele><time>2026-03-29T08:36:10.25Z</time></trkpt><trkpt lat="39.994881" lon="9.5125875"><ele>790.3333333333333</ele><time>2026-03-29T08:36:12.249Z</time></trkpt><trkpt lat="39.9949691" lon="9.5126392"><ele>786.6666666666666</ele><time>2026-03-29T08:36:14.25Z</time></trkpt><trkpt lat="39.9950455" lon="9.5125804"><ele>783.0</ele><time>2026-03-29T08:36:16.249Z</time></trkpt><trkpt lat="39.9951145" lon="9.5124854"><ele>773.5999999999999</ele><time>2026-03-29T08:36:18.249Z</time></trkpt><trkpt lat="39.9951794" lon="9.5124682"><ele>764.1999999999999</ele><time>2026-03-29T08:36:21.249Z</time></trkpt><trkpt lat="39.9951973" lon="9.5125722"><ele>754.8</ele><time>2026-03-29T08:36:23.25Z</time></trkpt><trkpt lat="39.9952244" lon="9.5127211"><ele>745.4</ele><time>2026-03-29T08:36:25.249Z</time></trkpt><trkpt lat="39.9952212" lon="9.5128821"><ele>736.0</ele><time>2026-03-29T08:36:27.25Z</time></trkpt><trkpt lat="39.9952025" lon="9.5130394"><ele>734.8333333333334</ele><time>2026-03-29T08:36:29.249Z</time></trkpt><trkpt lat="39.9951403" lon="9.513159"><ele>733.6666666666667</ele><time>2026-03-29T08:36:31.249Z</time></trkpt><trkpt lat="39.9952011" lon="9.5131857"><ele>732.5</ele><time>2026-03-29T08:36:36.25Z</time></trkpt><trkpt lat="39.9952778" lon="9.5131955"><ele>731.3333333333334</ele><time>2026-03-29T08:36:38.25Z</time></trkpt><trkpt lat="39.9952813" lon="9.5132863"><ele>730.1666666666666</ele><time>2026-03-29T08:36:41.25Z</time></trkpt><trkpt lat="39.9952484" lon="9.5134348"><ele>729.0</ele><time>2026-03-29T08:36:43.249Z</time></trkpt><trkpt lat="39.995201" lon="9.5135314"><ele>729.0</ele><time>2026-03-29T08:36:45.249Z</time></trkpt><trkpt lat="39.9952213" lon="9.5136164"><ele>729.0</ele><time>2026-03-29T08:36:47.249Z</time></trkpt><trkpt lat="39.9953042" lon="9.5136255"><ele>729.0</ele><time>2026-03-29T08:36:49.249Z</time></trkpt><trkpt lat="39.9953692" lon="9.5135965"><ele>729.0</ele><time>2026-03-29T08:36:52.249Z</time></trkpt><trkpt lat="39.9953926" lon="9.5136994"><ele>729.0</ele><time>2026-03-29T08:36:55.25Z</time></trkpt><trkpt lat="39.9953885" lon="9.5138163"><ele>729.0</ele><time>2026-03-29T08:36:57.249Z</time></trkpt><trkpt lat="39.9953539" lon="9.5139308"><ele>727.1666666666666</ele><time>2026-03-29T08:36:59.249Z</time></trkpt><trkpt lat="39.9952952" lon="9.5139667"><ele>725.3333333333334</ele><time>2026-03-29T08:37:01.249Z</time></trkpt><trkpt lat="39.9952275" lon="9.5140029"><ele>723.5</ele><time>2026-03-29T08:37:03.249Z</time></trkpt><trkpt lat="39.995263" lon="9.5140753"><ele>721.6666666666667</ele><time>2026-03-29T08:37:06.249Z</time></trkpt><trkpt lat="39.9952848" lon="9.5141614"><ele>719.8333333333334</ele><time>2026-03-29T08:37:08.249Z</time></trkpt><trkpt lat="39.9952005" lon="9.5141931"><ele>718.0</ele><time>2026-03-29T08:37:12.249Z</time></trkpt><trkpt lat="39.9951131" lon="9.5142158"><ele>718.0</ele><time>2026-03-29T08:37:14.249Z</time></trkpt><trkpt lat="39.9950432" lon="9.5142229"><ele>718.0</ele><time>2026-03-29T08:37:16.249Z</time></trkpt><trkpt lat="39.9950823" lon="9.5143145"><ele>718.0</ele><time>2026-03-29T08:37:54.249Z</time></trkpt><trkpt lat="39.9951319" lon="9.5143774"><ele>718.0</ele><time>2026-03-29T08:37:56.249Z</time></trkpt><trkpt lat="39.9950738" lon="9.5144293"><ele>718.0</ele><time>2026-03-29T08:38:37.249Z</time></trkpt><trkpt lat="39.9951284" lon="9.5145183"><ele>718.0</ele><time>2026-03-29T08:38:41.249Z</time></trkpt><trkpt lat="39.9951797" lon="9.5146111"><ele>718.0</ele><time>2026-03-29T08:38:43.249Z</time></trkpt><trkpt lat="39.995275" lon="9.5146732"><ele>718.0</ele><time>2026-03-29T08:38:45.25Z</time></trkpt><trkpt lat="39.9952003" lon="9.514639"><ele>718.0</ele><time>2026-03-29T08:42:26.249Z</time></trkpt><trkpt lat="39.995166" lon="9.5145616"><ele>718.0</ele><time>2026-03-29T08:42:28.25Z</time></trkpt><trkpt lat="39.9951085" lon="9.5144735"><ele>718.0</ele><time>2026-03-29T08:42:31.25Z</time></trkpt><trkpt lat="39.9950932" lon="9.5143904"><ele>718.0</ele><time>2026-03-29T08:42:33.249Z</time></trkpt><trkpt lat="39.9951586" lon="9.5143725"><ele>718.0</ele><time>2026-03-29T08:42:37.249Z</time></trkpt><trkpt lat="39.995101" lon="9.5142794"><ele>718.0</ele><time>2026-03-29T08:43:02.249Z</time></trkpt><trkpt lat="39.9950289" lon="9.5142427"><ele>718.0</ele><time>2026-03-29T08:43:05.25Z</time></trkpt><trkpt lat="39.9950847" lon="9.5141952"><ele>718.0</ele><time>2026-03-29T08:43:10.249Z</time></trkpt><trkpt lat="39.9951498" lon="9.5141992"><ele>718.0</ele><time>2026-03-29T08:43:11.249Z</time></trkpt><trkpt lat="39.9952287" lon="9.5141916"><ele>718.0</ele><time>2026-03-29T08:43:13.249Z</time></trkpt><trkpt lat="39.9952982" lon="9.5141755"><ele>718.0</ele><time>2026-03-29T08:43:16.25Z</time></trkpt><trkpt lat="39.9952659" lon="9.5140767"><ele>718.0</ele><time>2026-03-29T08:43:19.25Z</time></trkpt><trkpt lat="39.9953102" lon="9.5140096"><ele>718.0</ele><time>2026-03-29T08:43:23.249Z</time></trkpt><trkpt lat="39.9953831" lon="9.5139803"><ele>718.0</ele><time>2026-03-29T08:43:26.249Z</time></trkpt><trkpt lat="39.9954165" lon="9.513909"><ele>718.0</ele><time>2026-03-29T08:43:29.249Z</time></trkpt><trkpt lat="39.9954157" lon="9.5137403"><ele>718.0</ele><time>2026-03-29T08:43:32.249Z</time></trkpt><trkpt lat="39.9954122" lon="9.5136395"><ele>719.8333333333334</ele><time>2026-03-29T08:43:34.249Z</time></trkpt><trkpt lat="39.9953689" lon="9.5135795"><ele>721.6666666666667</ele><time>2026-03-29T08:43:37.249Z</time></trkpt><trkpt lat="39.99529" lon="9.513595"><ele>723.5</ele><time>2026-03-29T08:43:40.249Z</time></trkpt><trkpt lat="39.9952224" lon="9.5135469"><ele>725.3333333333334</ele><time>2026-03-29T08:43:42.249Z</time></trkpt><trkpt lat="39.9952154" lon="9.5134354"><ele>727.1666666666666</ele><time>2026-03-29T08:43:45.249Z</time></trkpt><trkpt lat="39.995252" lon="9.5133269"><ele>729.0</ele><time>2026-03-29T08:43:47.249Z</time></trkpt><trkpt lat="39.9953031" lon="9.5132363"><ele>729.0</ele><time>2026-03-29T08:43:49.249Z</time></trkpt><trkpt lat="39.9953138" lon="9.5131508"><ele>729.0</ele><time>2026-03-29T08:43:51.25Z</time></trkpt><trkpt lat="39.9952389" lon="9.5131636"><ele>729.0</ele><time>2026-03-29T08:43:54.25Z</time></trkpt><trkpt lat="39.9951621" lon="9.5131483"><ele>729.0</ele><time>2026-03-29T08:43:56.249Z</time></trkpt><trkpt lat="39.9951508" lon="9.5130318"><ele>729.0</ele><time>2026-03-29T08:44:01.249Z</time></trkpt><trkpt lat="39.9952029" lon="9.5129327"><ele>729.0</ele><time>2026-03-29T08:44:03.249Z</time></trkpt><trkpt lat="39.9952083" lon="9.5128294"><ele>730.4000000000001</ele><time>2026-03-29T08:44:05.249Z</time></trkpt><trkpt lat="39.9952125" lon="9.5127199"><ele>731.8</ele><time>2026-03-29T08:45:09.249Z</time></trkpt><trkpt lat="39.9951869" lon="9.5125788"><ele>733.2</ele><time>2026-03-29T08:45:11.249Z</time></trkpt><trkpt lat="39.9951515" lon="9.5124915"><ele>734.5999999999999</ele><time>2026-03-29T08:45:14.249Z</time></trkpt><trkpt lat="39.9950728" lon="9.5125668"><ele>736.0</ele><time>2026-03-29T08:45:17.249Z</time></trkpt><trkpt lat="39.9949816" lon="9.5126249"><ele>745.4</ele><time>2026-03-29T08:45:19.249Z</time></trkpt><trkpt lat="39.9949203" lon="9.5125666"><ele>754.8</ele><time>2026-03-29T08:45:21.249Z</time></trkpt><trkpt lat="39.9949153" lon="9.5124292"><ele>764.1999999999999</ele><time>2026-03-29T08:45:24.249Z</time></trkpt><trkpt lat="39.9948913" lon="9.512316"><ele>773.5999999999999</ele><time>2026-03-29T08:45:26.249Z</time></trkpt><trkpt lat="39.9948581" lon="9.5122103"><ele>783.0</ele><time>2026-03-29T08:45:28.25Z</time></trkpt><trkpt lat="39.9948807" lon="9.5120793"><ele>786.6666666666666</ele><time>2026-03-29T08:45:30.249Z</time></trkpt><trkpt lat="39.9948851" lon="9.5119683"><ele>790.3333333333333</ele><time>2026-03-29T08:45:32.25Z</time></trkpt><trkpt lat="39.9948869" lon="9.5118678"><ele>794.0</ele><time>2026-03-29T08:45:34.249Z</time></trkpt><trkpt lat="39.9948447" lon="9.511761"><ele>797.6666666666666</ele><time>2026-03-29T08:45:36.249Z</time></trkpt><trkpt lat="39.9948058" lon="9.5116728"><ele>801.3333333333333</ele><time>2026-03-29T08:45:38.249Z</time></trkpt><trkpt lat="39.9947789" lon="9.5115983"><ele>805.0</ele><time>2026-03-29T08:45:40.249Z</time></trkpt><trkpt lat="39.9947346" lon="9.5114897"><ele>804.9999999999999</ele><time>2026-03-29T08:45:42.249Z</time></trkpt><trkpt lat="39.9946854" lon="9.5113893"><ele>805.0</ele><time>2026-03-29T08:45:44.249Z</time></trkpt><trkpt lat="39.9946585" lon="9.5112953"><ele>805.0</ele><time>2026-03-29T08:45:46.25Z</time></trkpt><trkpt lat="39.9946956" lon="9.5111998"><ele>805.0</ele><time>2026-03-29T08:45:48.25Z</time></trkpt><trkpt lat="39.9947312" lon="9.5111214"><ele>804.9999999999999</ele><time>2026-03-29T08:45:50.25Z</time></trkpt><trkpt lat="39.9946989" lon="9.5110206"><ele>805.0</ele><time>2026-03-29T08:45:52.249Z</time></trkpt><trkpt lat="39.9947148" lon="9.5109406"><ele>806.8333333333333</ele><time>2026-03-29T08:45:54.249Z</time></trkpt><trkpt lat="39.9946953" lon="9.5108348"><ele>808.6666666666666</ele><time>2026-03-29T08:45:56.25Z</time></trkpt><trkpt lat="39.9946677" lon="9.5107188"><ele>810.5</ele><time>2026-03-29T08:45:58.249Z</time></trkpt><trkpt lat="39.9946624" lon="9.5106184"><ele>812.3333333333333</ele><time>2026-03-29T08:46:00.249Z</time></trkpt><trkpt lat="39.9946412" lon="9.5104664"><ele>814.1666666666666</ele><time>2026-03-29T08:46:02.249Z</time></trkpt><trkpt lat="39.9945876" lon="9.5103966"><ele>816.0</ele><time>2026-03-29T08:46:04.25Z</time></trkpt><trkpt lat="39.9945604" lon="9.5102771"><ele>818.4</ele><time>2026-03-29T08:46:06.249Z</time></trkpt><trkpt lat="39.9945132" lon="9.5101522"><ele>820.8</ele><time>2026-03-29T08:46:08.249Z</time></trkpt><trkpt lat="39.9944783" lon="9.5100563"><ele>823.1999999999999</ele><time>2026-03-29T08:46:10.25Z</time></trkpt><trkpt lat="39.9944149" lon="9.509991"><ele>825.5999999999999</ele><time>2026-03-29T08:46:13.249Z</time></trkpt><trkpt lat="39.9943111" lon="9.5098998"><ele>828.0</ele><time>2026-03-29T08:46:15.25Z</time></trkpt><trkpt lat="39.9942753" lon="9.5098304"><ele>828.0</ele><time>2026-03-29T08:46:17.249Z</time></trkpt><trkpt lat="39.9943306" lon="9.5097555"><ele>828.0</ele><time>2026-03-29T08:46:20.249Z</time></trkpt><trkpt lat="39.9943519" lon="9.509632"><ele>828.0</ele><time>2026-03-29T08:46:22.25Z</time></trkpt><trkpt lat="39.9943723" lon="9.5094864"><ele>828.0</ele><time>2026-03-29T08:46:24.249Z</time></trkpt><trkpt lat="39.9943657" lon="9.5093521"><ele>828.0</ele><time>2026-03-29T08:46:26.249Z</time></trkpt><trkpt lat="39.994413" lon="9.5091884"><ele>830.3333333333334</ele><time>2026-03-29T08:46:28.249Z</time></trkpt><trkpt lat="39.9944446" lon="9.5091012"><ele>832.6666666666667</ele><time>2026-03-29T08:46:29.249Z</time></trkpt><trkpt lat="39.994532" lon="9.50903"><ele>835.0</ele><time>2026-03-29T08:46:30.249Z</time></trkpt><trkpt lat="39.9945244" lon="9.5089119"><ele>837.3333333333334</ele><time>2026-03-29T08:46:31.249Z</time></trkpt><trkpt lat="39.9945135" lon="9.508808"><ele>839.6666666666667</ele><time>2026-03-29T08:46:32.249Z</time></trkpt><trkpt lat="39.9944813" lon="9.5086999"><ele>842.0</ele><time>2026-03-29T08:46:33.249Z</time></trkpt><trkpt lat="39.9946048" lon="9.5085404"><ele>848.0</ele><time>2026-03-29T08:46:36.249Z</time></trkpt><trkpt lat="39.9946705" lon="9.5084814"><ele>854.0</ele><time>2026-03-29T08:46:37.249Z</time></trkpt><trkpt lat="39.9946868" lon="9.5083953"><ele>860.0</ele><time>2026-03-29T08:46:38.249Z</time></trkpt><trkpt lat="39.994713" lon="9.5082352"><ele>866.0</ele><time>2026-03-29T08:46:40.249Z</time></trkpt><trkpt lat="39.9947246" lon="9.508069"><ele>872.0</ele><time>2026-03-29T08:46:42.25Z</time></trkpt><trkpt lat="39.9947407" lon="9.5079788"><ele>876.8</ele><time>2026-03-29T08:46:43.25Z</time></trkpt><trkpt lat="39.9947679" lon="9.5078503"><ele>881.6</ele><time>2026-03-29T08:46:45.249Z</time></trkpt><trkpt lat="39.9948417" lon="9.5077262"><ele>886.3999999999999</ele><time>2026-03-29T08:46:47.25Z</time></trkpt><trkpt lat="39.9948764" lon="9.5076508"><ele>891.1999999999999</ele><time>2026-03-29T08:46:48.25Z</time></trkpt><trkpt lat="39.994844" lon="9.5075099"><ele>896.0</ele><time>2026-03-29T08:46:50.249Z</time></trkpt><trkpt lat="39.994855" lon="9.5074008"><ele>896.0000000000001</ele><time>2026-03-29T08:46:52.25Z</time></trkpt><trkpt lat="39.9948182" lon="9.5073267"><ele>896.0</ele><time>2026-03-29T08:46:55.249Z</time></trkpt><trkpt lat="39.9947536" lon="9.5073791"><ele>896.0</ele><time>2026-03-29T08:46:58.25Z</time></trkpt><trkpt lat="39.9946718" lon="9.5073428"><ele>896.0</ele><time>2026-03-29T08:47:02.249Z</time></trkpt><trkpt lat="39.9945909" lon="9.5072996"><ele>896.0000000000001</ele><time>2026-03-29T08:47:05.249Z</time></trkpt><trkpt lat="39.9945188" lon="9.5072968"><ele>896.0</ele><time>2026-03-29T08:47:08.25Z</time></trkpt><trkpt lat="39.9944533" lon="9.5073191"><ele>896.0000000000001</ele><time>2026-03-29T08:47:10.249Z</time></trkpt><trkpt lat="39.994369" lon="9.5073342"><ele>896.0</ele><time>2026-03-29T08:47:12.249Z</time></trkpt><trkpt lat="39.9942973" lon="9.5073271"><ele>896.0</ele><time>2026-03-29T08:47:15.249Z</time></trkpt><trkpt lat="39.9942415" lon="9.5072855"><ele>896.0</ele><time>2026-03-29T08:47:17.249Z</time></trkpt><trkpt lat="39.9941728" lon="9.5072373"><ele>896.0000000000001</ele><time>2026-03-29T08:47:20.249Z</time></trkpt><trkpt lat="39.9941111" lon="9.5071789"><ele>896.0</ele><time>2026-03-29T08:47:22.25Z</time></trkpt><trkpt lat="39.9940363" lon="9.5071911"><ele>902.1666666666667</ele><time>2026-03-29T08:47:24.25Z</time></trkpt><trkpt lat="39.9939392" lon="9.5072224"><ele>908.3333333333334</ele><time>2026-03-29T08:47:26.25Z</time></trkpt><trkpt lat="39.9938715" lon="9.5072391"><ele>914.5</ele><time>2026-03-29T08:47:29.249Z</time></trkpt><trkpt lat="39.9938055" lon="9.5072768"><ele>920.6666666666667</ele><time>2026-03-29T08:47:33.249Z</time></trkpt><trkpt lat="39.9937379" lon="9.5072398"><ele>926.8333333333334</ele><time>2026-03-29T08:47:35.25Z</time></trkpt><trkpt lat="39.9936667" lon="9.5071544"><ele>933.0</ele><time>2026-03-29T08:47:37.249Z</time></trkpt><trkpt lat="39.9936" lon="9.5071009"><ele>933.6666666666666</ele><time>2026-03-29T08:47:39.249Z</time></trkpt><trkpt lat="39.9935697" lon="9.5069847"><ele>934.3333333333333</ele><time>2026-03-29T08:47:42.249Z</time></trkpt><trkpt lat="39.9935305" lon="9.506879"><ele>935.0</ele><time>2026-03-29T08:47:45.249Z</time></trkpt><trkpt lat="39.9935231" lon="9.5067835"><ele>935.6666666666666</ele><time>2026-03-29T08:47:47.25Z</time></trkpt><trkpt lat="39.9935301" lon="9.5066873"><ele>936.3333333333333</ele><time>2026-03-29T08:47:49.249Z</time></trkpt><trkpt lat="39.9934828" lon="9.5065745"><ele>937.0</ele><time>2026-03-29T08:47:51.249Z</time></trkpt><trkpt lat="39.9934816" lon="9.5064568"><ele>936.9999999999999</ele><time>2026-03-29T08:47:53.25Z</time></trkpt><trkpt lat="39.9934742" lon="9.5063534"><ele>937.0</ele><time>2026-03-29T08:47:55.249Z</time></trkpt><trkpt lat="39.9935287" lon="9.5062964"><ele>937.0</ele><time>2026-03-29T08:47:57.249Z</time></trkpt><trkpt lat="39.9935857" lon="9.5062029"><ele>937.0</ele><time>2026-03-29T08:47:59.249Z</time></trkpt><trkpt lat="39.9935611" lon="9.5060936"><ele>936.9999999999999</ele><time>2026-03-29T08:48:01.249Z</time></trkpt><trkpt lat="39.9934818" lon="9.5060206"><ele>937.0</ele><time>2026-03-29T08:48:03.249Z</time></trkpt><trkpt lat="39.9934062" lon="9.5059283"><ele>938.4000000000001</ele><time>2026-03-29T08:48:05.25Z</time></trkpt><trkpt lat="39.9933704" lon="9.5058158"><ele>939.8000000000001</ele><time>2026-03-29T08:48:07.249Z</time></trkpt><trkpt lat="39.9933291" lon="9.5056805"><ele>941.2</ele><time>2026-03-29T08:48:09.25Z</time></trkpt><trkpt lat="39.9932634" lon="9.5055618"><ele>942.6</ele><time>2026-03-29T08:48:11.249Z</time></trkpt><trkpt lat="39.9932641" lon="9.5054486"><ele>944.0</ele><time>2026-03-29T08:48:13.25Z</time></trkpt><trkpt lat="39.9932414" lon="9.5053487"><ele>951.0000000000001</ele><time>2026-03-29T08:48:15.249Z</time></trkpt><trkpt lat="39.9931693" lon="9.5052867"><ele>958.0</ele><time>2026-03-29T08:48:17.249Z</time></trkpt><trkpt lat="39.9931143" lon="9.5052457"><ele>965.0</ele><time>2026-03-29T08:48:18.25Z</time></trkpt><trkpt lat="39.9930407" lon="9.5051759"><ele>972.0</ele><time>2026-03-29T08:48:20.249Z</time></trkpt><trkpt lat="39.9929631" lon="9.5051764"><ele>979.0000000000001</ele><time>2026-03-29T08:48:22.249Z</time></trkpt><trkpt lat="39.9928602" lon="9.5051808"><ele>986.0</ele><time>2026-03-29T08:48:24.249Z</time></trkpt><trkpt lat="39.9927514" lon="9.5051896"><ele>986.0000000000001</ele><time>2026-03-29T08:48:26.249Z</time></trkpt><trkpt lat="39.9926716" lon="9.5051996"><ele>986.0</ele><time>2026-03-29T08:48:28.249Z</time></trkpt><trkpt lat="39.9926691" lon="9.5051132"><ele>986.0</ele><time>2026-03-29T08:48:31.25Z</time></trkpt><trkpt lat="39.9926738" lon="9.5049969"><ele>986.0</ele><time>2026-03-29T08:48:33.249Z</time></trkpt><trkpt lat="39.9926762" lon="9.5048739"><ele>986.0000000000001</ele><time>2026-03-29T08:48:35.249Z</time></trkpt><trkpt lat="39.9926109" lon="9.5048064"><ele>986.0</ele><time>2026-03-29T08:48:37.249Z</time></trkpt><trkpt lat="39.9925626" lon="9.5047094"><ele>986.0000000000001</ele><time>2026-03-29T08:48:40.249Z</time></trkpt><trkpt lat="39.9925954" lon="9.5046059"><ele>986.0</ele><time>2026-03-29T08:48:42.249Z</time></trkpt><trkpt lat="39.9925652" lon="9.5045332"><ele>986.0</ele><time>2026-03-29T08:48:44.249Z</time></trkpt><trkpt lat="39.9925328" lon="9.5044434"><ele>986.0</ele><time>2026-03-29T08:48:46.25Z</time></trkpt><trkpt lat="39.9925082" lon="9.5043547"><ele>986.0000000000001</ele><time>2026-03-29T08:48:47.249Z</time></trkpt><trkpt lat="39.9924816" lon="9.5042288"><ele>986.0</ele><time>2026-03-29T08:48:49.25Z</time></trkpt><trkpt lat="39.9924385" lon="9.5041682"><ele>995.5</ele><time>2026-03-29T08:48:50.249Z</time></trkpt><trkpt lat="39.9923413" lon="9.5041026"><ele>1005.0</ele><time>2026-03-29T08:48:52.249Z</time></trkpt><trkpt lat="39.9922655" lon="9.5039803"><ele>1014.5</ele><time>2026-03-29T08:48:54.249Z</time></trkpt><trkpt lat="39.9921836" lon="9.5038555"><ele>1024.0</ele><time>2026-03-29T08:48:56.249Z</time></trkpt><trkpt lat="39.9921173" lon="9.5037658"><ele>1024.0</ele><time>2026-03-29T08:48:58.249Z</time></trkpt><trkpt lat="39.9920402" lon="9.5037604"><ele>1024.0</ele><time>2026-03-29T08:49:00.25Z</time></trkpt><trkpt lat="39.9919331" lon="9.5037491"><ele>1024.0</ele><time>2026-03-29T08:49:02.249Z</time></trkpt><trkpt lat="39.99183" lon="9.5037196"><ele>1024.0</ele><time>2026-03-29T08:49:04.249Z</time></trkpt><trkpt lat="39.9917536" lon="9.5037093"><ele>1024.0</ele><time>2026-03-29T08:49:06.25Z</time></trkpt><trkpt lat="39.9916454" lon="9.5037174"><ele>1029.4</ele><time>2026-03-29T08:49:08.249Z</time></trkpt><trkpt lat="39.991533" lon="9.5036789"><ele>1034.8000000000002</ele><time>2026-03-29T08:49:10.249Z</time></trkpt><trkpt lat="39.9914509" lon="9.5036196"><ele>1040.1999999999998</ele><time>2026-03-29T08:49:12.249Z</time></trkpt><trkpt lat="39.9913507" lon="9.5035481"><ele>1045.6</ele><time>2026-03-29T08:49:14.25Z</time></trkpt><trkpt lat="39.9912915" lon="9.5034896"><ele>1051.0</ele><time>2026-03-29T08:49:15.25Z</time></trkpt><trkpt lat="39.9912047" lon="9.5034472"><ele>1051.0</ele><time>2026-03-29T08:49:17.249Z</time></trkpt><trkpt lat="39.9911233" lon="9.5034925"><ele>1051.0</ele><time>2026-03-29T08:49:19.249Z</time></trkpt><trkpt lat="39.9910554" lon="9.5035037"><ele>1051.0</ele><time>2026-03-29T08:49:21.249Z</time></trkpt><trkpt lat="39.990928" lon="9.5035719"><ele>1051.0</ele><time>2026-03-29T08:49:23.249Z</time></trkpt><trkpt lat="39.9908479" lon="9.503609"><ele>1051.0</ele><time>2026-03-29T08:49:24.249Z</time></trkpt><trkpt lat="39.9907791" lon="9.5036549"><ele>1051.6666666666665</ele><time>2026-03-29T08:49:25.249Z</time></trkpt><trkpt lat="39.9907199" lon="9.5036939"><ele>1052.3333333333333</ele><time>2026-03-29T08:49:26.25Z</time></trkpt><trkpt lat="39.9906579" lon="9.503719"><ele>1053.0</ele><time>2026-03-29T08:49:27.25Z</time></trkpt><trkpt lat="39.9905938" lon="9.5037409"><ele>1053.6666666666667</ele><time>2026-03-29T08:49:28.249Z</time></trkpt><trkpt lat="39.9905075" lon="9.503719"><ele>1054.3333333333335</ele><time>2026-03-29T08:49:29.249Z</time></trkpt><trkpt lat="39.9904181" lon="9.5037067"><ele>1055.0</ele><time>2026-03-29T08:49:30.25Z</time></trkpt><trkpt lat="39.99034" lon="9.5036698"><ele>1055.0</ele><time>2026-03-29T08:49:31.249Z</time></trkpt><trkpt lat="39.9902539" lon="9.5036598"><ele>1055.0</ele><time>2026-03-29T08:49:32.249Z</time></trkpt><trkpt lat="39.9901825" lon="9.5036222"><ele>1055.0</ele><time>2026-03-29T08:49:33.249Z</time></trkpt><trkpt lat="39.9901109" lon="9.5035916"><ele>1055.0</ele><time>2026-03-29T08:49:34.25Z</time></trkpt><trkpt lat="39.9900444" lon="9.5035287"><ele>1055.0</ele><time>2026-03-29T08:49:35.249Z</time></trkpt><trkpt lat="39.9899666" lon="9.5034899"><ele>1055.0</ele><time>2026-03-29T08:49:36.25Z</time></trkpt><trkpt lat="39.989906" lon="9.503451"><ele>1054.2</ele><time>2026-03-29T08:49:37.249Z</time></trkpt><trkpt lat="39.9898269" lon="9.5034396"><ele>1053.4</ele><time>2026-03-29T08:49:38.249Z</time></trkpt><trkpt lat="39.9897608" lon="9.5033985"><ele>1052.6</ele><time>2026-03-29T08:49:39.25Z</time></trkpt><trkpt lat="39.9896547" lon="9.5033341"><ele>1051.8</ele><time>2026-03-29T08:49:41.249Z</time></trkpt><trkpt lat="39.9895538" lon="9.5032591"><ele>1051.0</ele><time>2026-03-29T08:49:43.249Z</time></trkpt><trkpt lat="39.9894369" lon="9.5032019"><ele>1051.0</ele><time>2026-03-29T08:49:45.249Z</time></trkpt><trkpt lat="39.9893293" lon="9.503221"><ele>1051.0</ele><time>2026-03-29T08:49:48.249Z</time></trkpt><trkpt lat="39.9892288" lon="9.5032276"><ele>1051.0</ele><time>2026-03-29T08:49:50.25Z</time></trkpt><trkpt lat="39.9891467" lon="9.5032386"><ele>1051.0</ele><time>2026-03-29T08:49:53.249Z</time></trkpt><trkpt lat="39.9891048" lon="9.5033208"><ele>1051.0</ele><time>2026-03-29T08:49:56.249Z</time></trkpt><trkpt lat="39.9890843" lon="9.5034067"><ele>1051.0</ele><time>2026-03-29T08:49:58.249Z</time></trkpt><trkpt lat="39.9890483" lon="9.5034742"><ele>1051.2</ele><time>2026-03-29T08:50:00.25Z</time></trkpt><trkpt lat="39.9889853" lon="9.5035616"><ele>1051.3999999999999</ele><time>2026-03-29T08:50:04.249Z</time></trkpt><trkpt lat="39.9889275" lon="9.5036186"><ele>1051.6</ele><time>2026-03-29T08:50:06.249Z</time></trkpt><trkpt lat="39.9888229" lon="9.5036809"><ele>1051.8</ele><time>2026-03-29T08:50:08.249Z</time></trkpt><trkpt lat="39.9887238" lon="9.5037123"><ele>1052.0</ele><time>2026-03-29T08:50:10.25Z</time></trkpt><trkpt lat="39.9886176" lon="9.5037438"><ele>1052.0</ele><time>2026-03-29T08:50:12.249Z</time></trkpt><trkpt lat="39.9885531" lon="9.5037313"><ele>1052.0</ele><time>2026-03-29T08:50:13.249Z</time></trkpt><trkpt lat="39.9884115" lon="9.5037663"><ele>1052.0</ele><time>2026-03-29T08:50:15.25Z</time></trkpt><trkpt lat="39.9883413" lon="9.5037751"><ele>1052.0</ele><time>2026-03-29T08:50:16.249Z</time></trkpt><trkpt lat="39.9882733" lon="9.503781"><ele>1052.0</ele><time>2026-03-29T08:50:17.25Z</time></trkpt><trkpt lat="39.9882227" lon="9.503696"><ele>1052.0</ele><time>2026-03-29T08:50:19.249Z</time></trkpt><trkpt lat="39.9880975" lon="9.5036812"><ele>1051.1666666666667</ele><time>2026-03-29T08:50:21.249Z</time></trkpt><trkpt lat="39.9879674" lon="9.5036981"><ele>1050.3333333333335</ele><time>2026-03-29T08:50:23.249Z</time></trkpt><trkpt lat="39.9878983" lon="9.5037042"><ele>1049.5</ele><time>2026-03-29T08:50:24.249Z</time></trkpt><trkpt lat="39.9878265" lon="9.5037159"><ele>1048.6666666666667</ele><time>2026-03-29T08:50:25.249Z</time></trkpt><trkpt lat="39.9877473" lon="9.5037377"><ele>1047.8333333333333</ele><time>2026-03-29T08:50:26.25Z</time></trkpt><trkpt lat="39.9876722" lon="9.5037533"><ele>1047.0</ele><time>2026-03-29T08:50:27.249Z</time></trkpt><trkpt lat="39.9875523" lon="9.5037981"><ele>1049.8</ele><time>2026-03-29T08:50:29.249Z</time></trkpt><trkpt lat="39.987436" lon="9.5038316"><ele>1052.6</ele><time>2026-03-29T08:50:31.249Z</time></trkpt><trkpt lat="39.9873313" lon="9.5038216"><ele>1055.3999999999999</ele><time>2026-03-29T08:50:33.249Z</time></trkpt><trkpt lat="39.9872422" lon="9.5038407"><ele>1058.2</ele><time>2026-03-29T08:50:35.249Z</time></trkpt><trkpt lat="39.9871774" lon="9.5038857"><ele>1061.0</ele><time>2026-03-29T08:50:39.249Z</time></trkpt><trkpt lat="39.9871429" lon="9.5039884"><ele>1061.0</ele><time>2026-03-29T08:50:41.249Z</time></trkpt><trkpt lat="39.9870535" lon="9.503968"><ele>1061.0</ele><time>2026-03-29T08:51:30.25Z</time></trkpt><trkpt lat="39.9870022" lon="9.5040657"><ele>1061.0</ele><time>2026-03-29T08:51:34.249Z</time></trkpt><trkpt lat="39.9869676" lon="9.504169"><ele>1061.0</ele><time>2026-03-29T08:51:37.249Z</time></trkpt><trkpt lat="39.9870302" lon="9.5041826"><ele>1061.0</ele><time>2026-03-29T08:51:39.199Z</time></trkpt><trkpt lat="39.9870709" lon="9.5042687"><ele>1061.0</ele><time>2026-03-29T08:51:41.355Z</time></trkpt><trkpt lat="39.9869628" lon="9.5043065"><ele>1061.0</ele><time>2026-03-29T08:51:42.264Z</time></trkpt><trkpt lat="39.986849" lon="9.5043525"><ele>1061.0</ele><time>2026-03-29T08:51:43.249Z</time></trkpt><trkpt lat="39.9867739" lon="9.5044001"><ele>1061.0</ele><time>2026-03-29T08:51:44.249Z</time></trkpt><trkpt lat="39.9867098" lon="9.5044463"><ele>1061.0</ele><time>2026-03-29T08:51:45.249Z</time></trkpt><trkpt lat="39.9866515" lon="9.5044848"><ele>1061.0</ele><time>2026-03-29T08:51:46.25Z</time></trkpt><trkpt lat="39.9865392" lon="9.504538"><ele>1062.0</ele><time>2026-03-29T08:51:48.249Z</time></trkpt><trkpt lat="39.9864789" lon="9.5045641"><ele>1063.0</ele><time>2026-03-29T08:51:49.25Z</time></trkpt><trkpt lat="39.9864152" lon="9.5045942"><ele>1064.0</ele><time>2026-03-29T08:51:50.249Z</time></trkpt><trkpt lat="39.9862979" lon="9.5046278"><ele>1065.0</ele><time>2026-03-29T08:51:52.249Z</time></trkpt><trkpt lat="39.9861757" lon="9.504637"><ele>1066.0</ele><time>2026-03-29T08:51:54.249Z</time></trkpt><trkpt lat="39.986112" lon="9.5046085"><ele>1067.0</ele><time>2026-03-29T08:51:55.249Z</time></trkpt><trkpt lat="39.9860288" lon="9.5045698"><ele>1067.0</ele><time>2026-03-29T08:51:57.249Z</time></trkpt><trkpt lat="39.9859234" lon="9.5045986"><ele>1067.0</ele><time>2026-03-29T08:51:59.25Z</time></trkpt><trkpt lat="39.9858157" lon="9.504606"><ele>1067.0</ele><time>2026-03-29T08:52:01.249Z</time></trkpt><trkpt lat="39.9857277" lon="9.5045977"><ele>1067.0</ele><time>2026-03-29T08:52:03.249Z</time></trkpt><trkpt lat="39.9856532" lon="9.5045818"><ele>1067.0</ele><time>2026-03-29T08:52:05.249Z</time></trkpt><trkpt lat="39.9855767" lon="9.5046002"><ele>1070.6666666666667</ele><time>2026-03-29T08:52:07.249Z</time></trkpt><trkpt lat="39.9855064" lon="9.5046307"><ele>1074.3333333333335</ele><time>2026-03-29T08:52:09.249Z</time></trkpt><trkpt lat="39.9854481" lon="9.5046875"><ele>1078.0</ele><time>2026-03-29T08:52:11.249Z</time></trkpt><trkpt lat="39.9853994" lon="9.5047872"><ele>1081.6666666666667</ele><time>2026-03-29T08:52:14.249Z</time></trkpt><trkpt lat="39.9853647" lon="9.5048748"><ele>1085.3333333333333</ele><time>2026-03-29T08:52:16.249Z</time></trkpt><trkpt lat="39.9853253" lon="9.5049841"><ele>1089.0</ele><time>2026-03-29T08:52:18.249Z</time></trkpt><trkpt lat="39.9852819" lon="9.5050694"><ele>1089.0</ele><time>2026-03-29T08:52:20.249Z</time></trkpt><trkpt lat="39.9852815" lon="9.5051785"><ele>1089.0</ele><time>2026-03-29T08:52:22.249Z</time></trkpt><trkpt lat="39.9852919" lon="9.5052964"><ele>1089.0</ele><time>2026-03-29T08:52:24.249Z</time></trkpt><trkpt lat="39.9852998" lon="9.5054128"><ele>1089.0</ele><time>2026-03-29T08:52:26.25Z</time></trkpt><trkpt lat="39.9852694" lon="9.5054904"><ele>1089.0</ele><time>2026-03-29T08:52:28.249Z</time></trkpt><trkpt lat="39.9852118" lon="9.5055294"><ele>1089.0</ele><time>2026-03-29T08:52:30.249Z</time></trkpt><trkpt lat="39.9851602" lon="9.5055825"><ele>1091.0</ele><time>2026-03-29T08:52:32.249Z</time></trkpt><trkpt lat="39.9850582" lon="9.5056483"><ele>1093.0</ele><time>2026-03-29T08:52:34.249Z</time></trkpt><trkpt lat="39.9849915" lon="9.5056809"><ele>1095.0</ele><time>2026-03-29T08:52:35.25Z</time></trkpt><trkpt lat="39.9848874" lon="9.5057476"><ele>1097.0</ele><time>2026-03-29T08:52:37.249Z</time></trkpt><trkpt lat="39.9847918" lon="9.5057933"><ele>1099.0</ele><time>2026-03-29T08:52:39.25Z</time></trkpt><trkpt lat="39.9846925" lon="9.5057753"><ele>1099.0</ele><time>2026-03-29T08:52:41.249Z</time></trkpt><trkpt lat="39.9846233" lon="9.5057615"><ele>1099.0</ele><time>2026-03-29T08:52:42.249Z</time></trkpt><trkpt lat="39.9845149" lon="9.5057454"><ele>1099.0</ele><time>2026-03-29T08:52:44.25Z</time></trkpt><trkpt lat="39.9844445" lon="9.5057008"><ele>1099.0</ele><time>2026-03-29T08:52:46.249Z</time></trkpt><trkpt lat="39.9843159" lon="9.505689"><ele>1099.0</ele><time>2026-03-29T08:52:48.249Z</time></trkpt><trkpt lat="39.9842507" lon="9.5056772"><ele>1099.0</ele><time>2026-03-29T08:52:49.249Z</time></trkpt><trkpt lat="39.9841832" lon="9.5056609"><ele>1099.0</ele><time>2026-03-29T08:52:50.249Z</time></trkpt><trkpt lat="39.9841179" lon="9.5056553"><ele>1099.0</ele><time>2026-03-29T08:52:51.249Z</time></trkpt><trkpt lat="39.9840508" lon="9.5056622"><ele>1099.0</ele><time>2026-03-29T08:52:52.249Z</time></trkpt><trkpt lat="39.9839863" lon="9.5056558"><ele>1099.0</ele><time>2026-03-29T08:52:53.249Z</time></trkpt><trkpt lat="39.9839213" lon="9.5056483"><ele>1099.0</ele><time>2026-03-29T08:52:54.249Z</time></trkpt><trkpt lat="39.9837961" lon="9.5056572"><ele>1100.0</ele><time>2026-03-29T08:52:56.25Z</time></trkpt><trkpt lat="39.9837327" lon="9.505646"><ele>1101.0</ele><time>2026-03-29T08:52:57.249Z</time></trkpt><trkpt lat="39.9836086" lon="9.5056363"><ele>1102.0</ele><time>2026-03-29T08:52:59.249Z</time></trkpt><trkpt lat="39.9834798" lon="9.5056145"><ele>1103.0</ele><time>2026-03-29T08:53:01.249Z</time></trkpt><trkpt lat="39.9834075" lon="9.5056261"><ele>1104.0</ele><time>2026-03-29T08:53:02.25Z</time></trkpt><trkpt lat="39.9833163" lon="9.5056357"><ele>1105.4</ele><time>2026-03-29T08:53:03.249Z</time></trkpt><trkpt lat="39.9832427" lon="9.5056528"><ele>1106.8000000000002</ele><time>2026-03-29T08:53:04.25Z</time></trkpt><trkpt lat="39.983128" lon="9.5056483"><ele>1108.1999999999998</ele><time>2026-03-29T08:53:06.249Z</time></trkpt><trkpt lat="39.9830203" lon="9.5056943"><ele>1109.6</ele><time>2026-03-29T08:53:08.249Z</time></trkpt><trkpt lat="39.982945" lon="9.5057081"><ele>1111.0</ele><time>2026-03-29T08:53:09.249Z</time></trkpt><trkpt lat="39.9828221" lon="9.505756"><ele>1111.0</ele><time>2026-03-29T08:53:11.249Z</time></trkpt><trkpt lat="39.9827423" lon="9.5058074"><ele>1111.0</ele><time>2026-03-29T08:53:12.249Z</time></trkpt><trkpt lat="39.9826515" lon="9.5058692"><ele>1111.0</ele><time>2026-03-29T08:53:13.249Z</time></trkpt><trkpt lat="39.9825751" lon="9.5059339"><ele>1111.0</ele><time>2026-03-29T08:53:14.249Z</time></trkpt><trkpt lat="39.9825145" lon="9.506013"><ele>1111.0</ele><time>2026-03-29T08:53:15.25Z</time></trkpt><trkpt lat="39.9824565" lon="9.5060871"><ele>1111.0</ele><time>2026-03-29T08:53:16.249Z</time></trkpt><trkpt lat="39.9824059" lon="9.506142"><ele>1111.3333333333333</ele><time>2026-03-29T08:53:17.25Z</time></trkpt><trkpt lat="39.9823533" lon="9.5061895"><ele>1111.6666666666665</ele><time>2026-03-29T08:53:18.249Z</time></trkpt><trkpt lat="39.982298" lon="9.5062614"><ele>1112.0</ele><time>2026-03-29T08:53:20.249Z</time></trkpt><trkpt lat="39.9822745" lon="9.5063473"><ele>1112.3333333333333</ele><time>2026-03-29T08:56:49.249Z</time></trkpt><trkpt lat="39.9822087" lon="9.5064801"><ele>1112.6666666666667</ele><time>2026-03-29T08:56:51.25Z</time></trkpt><trkpt lat="39.9821705" lon="9.5065597"><ele>1113.0</ele><time>2026-03-29T08:56:52.249Z</time></trkpt><trkpt lat="39.9821507" lon="9.5066506"><ele>1113.0</ele><time>2026-03-29T08:56:53.249Z</time></trkpt><trkpt lat="39.9821295" lon="9.5067446"><ele>1113.0</ele><time>2026-03-29T08:56:54.249Z</time></trkpt><trkpt lat="39.9820965" lon="9.5068186"><ele>1113.0</ele><time>2026-03-29T08:56:55.249Z</time></trkpt><trkpt lat="39.9820441" lon="9.5069144"><ele>1113.0</ele><time>2026-03-29T08:56:57.249Z</time></trkpt><trkpt lat="39.9819856" lon="9.5069627"><ele>1113.0</ele><time>2026-03-29T08:57:00.249Z</time></trkpt><trkpt lat="39.9819092" lon="9.5068842"><ele>1113.0</ele><time>2026-03-29T08:57:02.249Z</time></trkpt><trkpt lat="39.9818332" lon="9.5067586"><ele>1113.0</ele><time>2026-03-29T08:57:04.249Z</time></trkpt><trkpt lat="39.9817663" lon="9.5066404"><ele>1113.0</ele><time>2026-03-29T08:57:06.249Z</time></trkpt><trkpt lat="39.9816914" lon="9.5065225"><ele>1113.0</ele><time>2026-03-29T08:57:08.249Z</time></trkpt><trkpt lat="39.9816168" lon="9.50644"><ele>1113.0</ele><time>2026-03-29T08:57:10.249Z</time></trkpt><trkpt lat="39.9815365" lon="9.5063511"><ele>1113.0</ele><time>2026-03-29T08:57:12.249Z</time></trkpt><trkpt lat="39.9814879" lon="9.506236"><ele>1110.8</ele><time>2026-03-29T08:57:14.249Z</time></trkpt><trkpt lat="39.9815204" lon="9.5061486"><ele>1108.6</ele><time>2026-03-29T08:57:16.249Z</time></trkpt><trkpt lat="39.9815437" lon="9.5060496"><ele>1106.4</ele><time>2026-03-29T08:57:18.249Z</time></trkpt><trkpt lat="39.9815341" lon="9.5058871"><ele>1104.2</ele><time>2026-03-29T08:57:20.249Z</time></trkpt><trkpt lat="39.9815469" lon="9.5057947"><ele>1102.0</ele><time>2026-03-29T08:57:21.249Z</time></trkpt><trkpt lat="39.9815599" lon="9.5056473"><ele>1102.0</ele><time>2026-03-29T08:57:23.249Z</time></trkpt><trkpt lat="39.9815572" lon="9.5055256"><ele>1102.0</ele><time>2026-03-29T08:57:25.249Z</time></trkpt><trkpt lat="39.9815703" lon="9.5054261"><ele>1102.0</ele><time>2026-03-29T08:57:27.25Z</time></trkpt><trkpt lat="39.9815649" lon="9.5052942"><ele>1102.0</ele><time>2026-03-29T08:57:29.249Z</time></trkpt><trkpt lat="39.9815337" lon="9.5051401"><ele>1102.0</ele><time>2026-03-29T08:57:31.249Z</time></trkpt><trkpt lat="39.9815246" lon="9.5049854"><ele>1099.1666666666665</ele><time>2026-03-29T08:57:33.25Z</time></trkpt><trkpt lat="39.981525" lon="9.5048509"><ele>1096.3333333333333</ele><time>2026-03-29T08:57:35.249Z</time></trkpt><trkpt lat="39.981527" lon="9.5047602"><ele>1093.5</ele><time>2026-03-29T08:57:36.249Z</time></trkpt><trkpt lat="39.9815231" lon="9.5046773"><ele>1090.6666666666667</ele><time>2026-03-29T08:57:38.249Z</time></trkpt><trkpt lat="39.9814282" lon="9.5046715"><ele>1087.8333333333335</ele><time>2026-03-29T08:58:30.249Z</time></trkpt><trkpt lat="39.9813588" lon="9.5046868"><ele>1085.0</ele><time>2026-03-29T08:58:32.25Z</time></trkpt><trkpt lat="39.981273" lon="9.5047123"><ele>1085.0</ele><time>2026-03-29T08:58:34.249Z</time></trkpt><trkpt lat="39.9811952" lon="9.5047062"><ele>1085.0</ele><time>2026-03-29T08:58:36.249Z</time></trkpt><trkpt lat="39.9811416" lon="9.5047505"><ele>1085.0</ele><time>2026-03-29T08:58:38.249Z</time></trkpt><trkpt lat="39.9810878" lon="9.5048562"><ele>1085.0</ele><time>2026-03-29T08:58:42.249Z</time></trkpt><trkpt lat="39.9810231" lon="9.5048347"><ele>1085.0</ele><time>2026-03-29T08:58:46.249Z</time></trkpt><trkpt lat="39.980943" lon="9.5047798"><ele>1085.0</ele><time>2026-03-29T08:58:51.25Z</time></trkpt><trkpt lat="39.9808589" lon="9.5047601"><ele>1080.857142857143</ele><time>2026-03-29T08:58:53.25Z</time></trkpt><trkpt lat="39.9807784" lon="9.504701"><ele>1076.7142857142858</ele><time>2026-03-29T08:58:55.249Z</time></trkpt><trkpt lat="39.9807343" lon="9.504639"><ele>1072.5714285714284</ele><time>2026-03-29T08:59:00.249Z</time></trkpt><trkpt lat="39.9806988" lon="9.504564"><ele>1068.4285714285716</ele><time>2026-03-29T08:59:02.249Z</time></trkpt><trkpt lat="39.9806825" lon="9.5044669"><ele>1064.2857142857142</ele><time>2026-03-29T08:59:04.25Z</time></trkpt><trkpt lat="39.9807077" lon="9.5043899"><ele>1060.142857142857</ele><time>2026-03-29T08:59:06.25Z</time></trkpt><trkpt lat="39.980765" lon="9.5043503"><ele>1056.0</ele><time>2026-03-29T08:59:08.249Z</time></trkpt><trkpt lat="39.9808399" lon="9.5042509"><ele>1055.5</ele><time>2026-03-29T08:59:10.249Z</time></trkpt><trkpt lat="39.9808697" lon="9.5041514"><ele>1055.0</ele><time>2026-03-29T08:59:12.25Z</time></trkpt><trkpt lat="39.9808386" lon="9.5040692"><ele>1054.5</ele><time>2026-03-29T08:59:14.249Z</time></trkpt><trkpt lat="39.9808001" lon="9.5039921"><ele>1054.0</ele><time>2026-03-29T08:59:15.25Z</time></trkpt><trkpt lat="39.9807548" lon="9.5039294"><ele>1053.5</ele><time>2026-03-29T08:59:16.249Z</time></trkpt><trkpt lat="39.980692" lon="9.5037904"><ele>1053.0</ele><time>2026-03-29T08:59:18.25Z</time></trkpt><trkpt lat="39.9806431" lon="9.5036864"><ele>1053.0</ele><time>2026-03-29T08:59:19.249Z</time></trkpt><trkpt lat="39.980604" lon="9.5035734"><ele>1053.0</ele><time>2026-03-29T08:59:21.249Z</time></trkpt><trkpt lat="39.9805469" lon="9.5034875"><ele>1053.0</ele><time>2026-03-29T08:59:23.249Z</time></trkpt><trkpt lat="39.980507" lon="9.5034076"><ele>1053.0</ele><time>2026-03-29T08:59:25.249Z</time></trkpt><trkpt lat="39.9804375" lon="9.5033359"><ele>1053.0</ele><time>2026-03-29T08:59:27.249Z</time></trkpt><trkpt lat="39.9804192" lon="9.5032484"><ele>1053.0</ele><time>2026-03-29T08:59:30.25Z</time></trkpt><trkpt lat="39.9803427" lon="9.5031587"><ele>1053.0</ele><time>2026-03-29T08:59:32.249Z</time></trkpt><trkpt lat="39.9802556" lon="9.5031278"><ele>1053.0</ele><time>2026-03-29T08:59:34.249Z</time></trkpt><trkpt lat="39.9802265" lon="9.503041"><ele>1053.0</ele><time>2026-03-29T08:59:37.249Z</time></trkpt><trkpt lat="39.9802308" lon="9.5029337"><ele>1053.0</ele><time>2026-03-29T08:59:41.25Z</time></trkpt><trkpt lat="39.9801659" lon="9.5028904"><ele>1053.0</ele><time>2026-03-29T08:59:44.249Z</time></trkpt><trkpt lat="39.9800837" lon="9.5028679"><ele>1053.0</ele><time>2026-03-29T08:59:46.249Z</time></trkpt><trkpt lat="39.979999" lon="9.5028597"><ele>1050.6666666666667</ele><time>2026-03-29T08:59:49.249Z</time></trkpt><trkpt lat="39.9799355" lon="9.502829"><ele>1048.3333333333333</ele><time>2026-03-29T08:59:54.249Z</time></trkpt><trkpt lat="39.9798634" lon="9.5027631"><ele>1046.0</ele><time>2026-03-29T08:59:57.249Z</time></trkpt><trkpt lat="39.9797863" lon="9.502699"><ele>1043.6666666666665</ele><time>2026-03-29T08:59:59.249Z</time></trkpt><trkpt lat="39.9797045" lon="9.5026247"><ele>1041.3333333333333</ele><time>2026-03-29T09:00:00.249Z</time></trkpt><trkpt lat="39.9796316" lon="9.5025595"><ele>1039.0</ele><time>2026-03-29T09:00:01.25Z</time></trkpt><trkpt lat="39.9795546" lon="9.5024971"><ele>1039.0</ele><time>2026-03-29T09:00:02.249Z</time></trkpt><trkpt lat="39.9794858" lon="9.5024344"><ele>1039.0</ele><time>2026-03-29T09:00:03.25Z</time></trkpt><trkpt lat="39.979401" lon="9.5023795"><ele>1039.0</ele><time>2026-03-29T09:00:05.249Z</time></trkpt><trkpt lat="39.9793314" lon="9.5023683"><ele>1039.0</ele><time>2026-03-29T09:00:06.249Z</time></trkpt><trkpt lat="39.9792676" lon="9.5022837"><ele>1039.0</ele><time>2026-03-29T09:00:07.249Z</time></trkpt><trkpt lat="39.9792068" lon="9.5022294"><ele>1039.0</ele><time>2026-03-29T09:00:08.249Z</time></trkpt><trkpt lat="39.9791031" lon="9.5022561"><ele>1035.0</ele><time>2026-03-29T09:00:09.249Z</time></trkpt><trkpt lat="39.9789881" lon="9.5022088"><ele>1031.0</ele><time>2026-03-29T09:00:11.25Z</time></trkpt><trkpt lat="39.9789024" lon="9.5021904"><ele>1027.0</ele><time>2026-03-29T09:00:12.249Z</time></trkpt><trkpt lat="39.9788249" lon="9.5021918"><ele>1023.0</ele><time>2026-03-29T09:00:13.249Z</time></trkpt><trkpt lat="39.9787136" lon="9.5021516"><ele>1019.0</ele><time>2026-03-29T09:00:15.25Z</time></trkpt><trkpt lat="39.9786501" lon="9.5020967"><ele>1020.3333333333334</ele><time>2026-03-29T09:00:16.25Z</time></trkpt><trkpt lat="39.9785854" lon="9.5020181"><ele>1021.6666666666667</ele><time>2026-03-29T09:00:17.249Z</time></trkpt><trkpt lat="39.978509" lon="9.5019344"><ele>1023.0</ele><time>2026-03-29T09:00:18.249Z</time></trkpt><trkpt lat="39.9784333" lon="9.5018613"><ele>1024.3333333333333</ele><time>2026-03-29T09:00:19.25Z</time></trkpt><trkpt lat="39.9783575" lon="9.5018181"><ele>1025.6666666666665</ele><time>2026-03-29T09:00:20.249Z</time></trkpt><trkpt lat="39.9782847" lon="9.5017684"><ele>1027.0</ele><time>2026-03-29T09:00:21.249Z</time></trkpt><trkpt lat="39.978207" lon="9.5017501"><ele>1027.0</ele><time>2026-03-29T09:00:22.25Z</time></trkpt><trkpt lat="39.9781306" lon="9.501678"><ele>1027.0</ele><time>2026-03-29T09:00:23.249Z</time></trkpt><trkpt lat="39.9780564" lon="9.501602"><ele>1027.0</ele><time>2026-03-29T09:00:24.249Z</time></trkpt><trkpt lat="39.9779824" lon="9.5015242"><ele>1027.0</ele><time>2026-03-29T09:00:25.25Z</time></trkpt><trkpt lat="39.9778916" lon="9.5014621"><ele>1027.0</ele><time>2026-03-29T09:00:26.249Z</time></trkpt><trkpt lat="39.9778202" lon="9.50146"><ele>1027.0</ele><time>2026-03-29T09:00:27.249Z</time></trkpt><trkpt lat="39.977758" lon="9.5014472"><ele>1027.0</ele><time>2026-03-29T09:00:28.249Z</time></trkpt><trkpt lat="39.9777403" lon="9.5013632"><ele>1027.0</ele><time>2026-03-29T09:00:29.249Z</time></trkpt><trkpt lat="39.9776558" lon="9.5012721"><ele>1027.0</ele><time>2026-03-29T09:00:31.249Z</time></trkpt><trkpt lat="39.9776077" lon="9.5011773"><ele>1027.0</ele><time>2026-03-29T09:00:32.25Z</time></trkpt><trkpt lat="39.9775742" lon="9.5011009"><ele>1027.0</ele><time>2026-03-29T09:00:33.25Z</time></trkpt><trkpt lat="39.9775403" lon="9.5010044"><ele>1025.0</ele><time>2026-03-29T09:00:34.249Z</time></trkpt><trkpt lat="39.9774894" lon="9.5009313"><ele>1023.0</ele><time>2026-03-29T09:00:35.249Z</time></trkpt><trkpt lat="39.9773824" lon="9.5008431"><ele>1021.0</ele><time>2026-03-29T09:00:37.25Z</time></trkpt><trkpt lat="39.9773152" lon="9.5007697"><ele>1019.0</ele><time>2026-03-29T09:00:38.25Z</time></trkpt><trkpt lat="39.9771927" lon="9.5006458"><ele>1017.0</ele><time>2026-03-29T09:00:39.249Z</time></trkpt><trkpt lat="39.977106" lon="9.500568"><ele>1017.0</ele><time>2026-03-29T09:00:40.25Z</time></trkpt><trkpt lat="39.9770462" lon="9.5005031"><ele>1017.0</ele><time>2026-03-29T09:00:42.249Z</time></trkpt><trkpt lat="39.9769703" lon="9.5004273"><ele>1017.0</ele><time>2026-03-29T09:00:44.249Z</time></trkpt><trkpt lat="39.9768615" lon="9.500358"><ele>1017.0</ele><time>2026-03-29T09:00:45.249Z</time></trkpt><trkpt lat="39.9767758" lon="9.5003352"><ele>1017.0</ele><time>2026-03-29T09:00:46.249Z</time></trkpt><trkpt lat="39.976712" lon="9.5003544"><ele>1017.0</ele><time>2026-03-29T09:00:47.249Z</time></trkpt><trkpt lat="39.9766421" lon="9.5003448"><ele>1015.0</ele><time>2026-03-29T09:00:48.249Z</time></trkpt><trkpt lat="39.9765413" lon="9.5002261"><ele>1013.0</ele><time>2026-03-29T09:00:50.249Z</time></trkpt><trkpt lat="39.9764904" lon="9.5001068"><ele>1011.0</ele><time>2026-03-29T09:00:51.249Z</time></trkpt><trkpt lat="39.9764373" lon="9.5000065"><ele>1009.0</ele><time>2026-03-29T09:00:52.249Z</time></trkpt><trkpt lat="39.9764193" lon="9.4999125"><ele>1007.0</ele><time>2026-03-29T09:00:53.249Z</time></trkpt><trkpt lat="39.9763962" lon="9.4998224"><ele>1007.0</ele><time>2026-03-29T09:00:54.249Z</time></trkpt><trkpt lat="39.976402" lon="9.4996624"><ele>1007.0</ele><time>2026-03-29T09:00:56.25Z</time></trkpt><trkpt lat="39.9764123" lon="9.4995592"><ele>1007.0</ele><time>2026-03-29T09:00:58.249Z</time></trkpt><trkpt lat="39.9764162" lon="9.4994249"><ele>1007.0</ele><time>2026-03-29T09:01:09.249Z</time></trkpt><trkpt lat="39.9763889" lon="9.4993127"><ele>1007.0</ele><time>2026-03-29T09:01:11.249Z</time></trkpt><trkpt lat="39.9763728" lon="9.4992049"><ele>1006.8</ele><time>2026-03-29T09:01:12.249Z</time></trkpt><trkpt lat="39.9763861" lon="9.4990403"><ele>1006.6</ele><time>2026-03-29T09:01:14.249Z</time></trkpt><trkpt lat="39.9765396" lon="9.4989839"><ele>1006.3999999999999</ele><time>2026-03-29T09:01:16.249Z</time></trkpt><trkpt lat="39.9765918" lon="9.498929"><ele>1006.1999999999999</ele><time>2026-03-29T09:01:17.249Z</time></trkpt><trkpt lat="39.9766452" lon="9.4988595"><ele>1006.0</ele><time>2026-03-29T09:01:18.25Z</time></trkpt><trkpt lat="39.9767563" lon="9.4986631"><ele>1007.0</ele><time>2026-03-29T09:01:20.249Z</time></trkpt><trkpt lat="39.9768382" lon="9.4985974"><ele>1008.0</ele><time>2026-03-29T09:01:22.249Z</time></trkpt><trkpt lat="39.9768195" lon="9.4984399"><ele>1009.0</ele><time>2026-03-29T09:01:23.25Z</time></trkpt><trkpt lat="39.9768169" lon="9.4983147"><ele>1010.0</ele><time>2026-03-29T09:01:24.249Z</time></trkpt><trkpt lat="39.9768144" lon="9.498125"><ele>1010.0</ele><time>2026-03-29T09:01:25.249Z</time></trkpt><trkpt lat="39.9767892" lon="9.4979632"><ele>1010.0</ele><time>2026-03-29T09:01:26.249Z</time></trkpt><trkpt lat="39.9767898" lon="9.4978243"><ele>1010.0</ele><time>2026-03-29T09:01:27.249Z</time></trkpt><trkpt lat="39.9768078" lon="9.497671"><ele>1010.0</ele><time>2026-03-29T09:01:28.25Z</time></trkpt><trkpt lat="39.9768287" lon="9.4975427"><ele>1008.0</ele><time>2026-03-29T09:01:29.249Z</time></trkpt><trkpt lat="39.9768134" lon="9.4974416"><ele>1006.0</ele><time>2026-03-29T09:01:30.249Z</time></trkpt><trkpt lat="39.9768031" lon="9.4973186"><ele>1004.0</ele><time>2026-03-29T09:01:31.25Z</time></trkpt><trkpt lat="39.9768161" lon="9.4972028"><ele>1002.0</ele><time>2026-03-29T09:01:32.249Z</time></trkpt><trkpt lat="39.9768576" lon="9.4970981"><ele>1000.0</ele><time>2026-03-29T09:01:33.249Z</time></trkpt><trkpt lat="39.9769114" lon="9.4969929"><ele>998.3333333333333</ele><time>2026-03-29T09:01:34.249Z</time></trkpt><trkpt lat="39.9769382" lon="9.4969002"><ele>996.6666666666666</ele><time>2026-03-29T09:01:35.249Z</time></trkpt><trkpt lat="39.97696" lon="9.4968157"><ele>995.0</ele><time>2026-03-29T09:01:36.25Z</time></trkpt><trkpt lat="39.9769202" lon="9.496687"><ele>993.3333333333333</ele><time>2026-03-29T09:01:38.249Z</time></trkpt><trkpt lat="39.9768561" lon="9.4966356"><ele>991.6666666666666</ele><time>2026-03-29T09:01:39.249Z</time></trkpt><trkpt lat="39.9768077" lon="9.4965605"><ele>990.0</ele><time>2026-03-29T09:01:40.25Z</time></trkpt><trkpt lat="39.9767441" lon="9.4965642"><ele>990.0</ele><time>2026-03-29T09:01:41.249Z</time></trkpt><trkpt lat="39.9767186" lon="9.4966789"><ele>990.0</ele><time>2026-03-29T09:01:42.25Z</time></trkpt><trkpt lat="39.9766564" lon="9.4968373"><ele>990.0</ele><time>2026-03-29T09:01:44.249Z</time></trkpt><trkpt lat="39.9765851" lon="9.4969128"><ele>990.0</ele><time>2026-03-29T09:01:45.249Z</time></trkpt><trkpt lat="39.9765168" lon="9.4970183"><ele>990.0</ele><time>2026-03-29T09:01:46.249Z</time></trkpt><trkpt lat="39.9764784" lon="9.4971269"><ele>989.0</ele><time>2026-03-29T09:01:47.25Z</time></trkpt><trkpt lat="39.9764407" lon="9.4972146"><ele>988.0</ele><time>2026-03-29T09:01:48.249Z</time></trkpt><trkpt lat="39.9764463" lon="9.4973491"><ele>987.0</ele><time>2026-03-29T09:01:49.25Z</time></trkpt><trkpt lat="39.9764054" lon="9.4974385"><ele>986.0</ele><time>2026-03-29T09:01:50.249Z</time></trkpt><trkpt lat="39.9763541" lon="9.4973814"><ele>985.0</ele><time>2026-03-29T09:01:51.249Z</time></trkpt><trkpt lat="39.9762602" lon="9.4972976"><ele>984.0</ele><time>2026-03-29T09:01:53.25Z</time></trkpt><trkpt lat="39.9762142" lon="9.4972315"><ele>984.0</ele><time>2026-03-29T09:01:54.249Z</time></trkpt><trkpt lat="39.9761684" lon="9.497172"><ele>984.0000000000001</ele><time>2026-03-29T09:01:55.249Z</time></trkpt><trkpt lat="39.976055" lon="9.4971155"><ele>984.0000000000001</ele><time>2026-03-29T09:01:57.249Z</time></trkpt><trkpt lat="39.975933" lon="9.4970579"><ele>984.0</ele><time>2026-03-29T09:01:59.249Z</time></trkpt><trkpt lat="39.9758654" lon="9.4970475"><ele>984.0</ele><time>2026-03-29T09:02:00.249Z</time></trkpt><trkpt lat="39.9757407" lon="9.4969323"><ele>977.6</ele><time>2026-03-29T09:02:02.249Z</time></trkpt><trkpt lat="39.9756686" lon="9.4968868"><ele>971.2</ele><time>2026-03-29T09:02:03.249Z</time></trkpt><trkpt lat="39.975601" lon="9.4968485"><ele>964.8000000000001</ele><time>2026-03-29T09:02:04.25Z</time></trkpt><trkpt lat="39.975498" lon="9.4969057"><ele>958.4000000000001</ele><time>2026-03-29T09:02:05.25Z</time></trkpt><trkpt lat="39.9754169" lon="9.4968931"><ele>952.0</ele><time>2026-03-29T09:02:06.249Z</time></trkpt><trkpt lat="39.9752719" lon="9.4968333"><ele>952.0</ele><time>2026-03-29T09:02:08.249Z</time></trkpt><trkpt lat="39.9752037" lon="9.4968031"><ele>952.0</ele><time>2026-03-29T09:02:09.249Z</time></trkpt><trkpt lat="39.9751296" lon="9.4968215"><ele>952.0</ele><time>2026-03-29T09:02:10.25Z</time></trkpt><trkpt lat="39.9750581" lon="9.4968518"><ele>952.0</ele><time>2026-03-29T09:02:11.249Z</time></trkpt><trkpt lat="39.9749885" lon="9.4968854"><ele>952.0</ele><time>2026-03-29T09:02:12.249Z</time></trkpt><trkpt lat="39.9749139" lon="9.4969207"><ele>952.0</ele><time>2026-03-29T09:02:13.249Z</time></trkpt><trkpt lat="39.9748582" lon="9.496969"><ele>952.0</ele><time>2026-03-29T09:02:14.249Z</time></trkpt><trkpt lat="39.9747365" lon="9.4969796"><ele>950.3333333333333</ele><time>2026-03-29T09:02:16.25Z</time></trkpt><trkpt lat="39.9746467" lon="9.4968909"><ele>948.6666666666666</ele><time>2026-03-29T09:02:18.249Z</time></trkpt><trkpt lat="39.9746031" lon="9.4968233"><ele>947.0</ele><time>2026-03-29T09:02:19.249Z</time></trkpt><trkpt lat="39.974553" lon="9.496764"><ele>945.3333333333333</ele><time>2026-03-29T09:02:20.249Z</time></trkpt><trkpt lat="39.9745096" lon="9.4966902"><ele>943.6666666666666</ele><time>2026-03-29T09:02:21.25Z</time></trkpt><trkpt lat="39.9744362" lon="9.496622"><ele>942.0</ele><time>2026-03-29T09:02:23.249Z</time></trkpt><trkpt lat="39.9743461" lon="9.4965612"><ele>942.0</ele><time>2026-03-29T09:02:25.25Z</time></trkpt><trkpt lat="39.9742757" lon="9.496577"><ele>942.0</ele><time>2026-03-29T09:02:27.249Z</time></trkpt><trkpt lat="39.974235" lon="9.4966475"><ele>942.0</ele><time>2026-03-29T09:02:28.249Z</time></trkpt><trkpt lat="39.9742144" lon="9.4967319"><ele>942.0</ele><time>2026-03-29T09:02:29.249Z</time></trkpt><trkpt lat="39.974164" lon="9.4968353"><ele>942.0</ele><time>2026-03-29T09:02:30.249Z</time></trkpt><trkpt lat="39.9741053" lon="9.4969058"><ele>942.0</ele><time>2026-03-29T09:02:31.249Z</time></trkpt><trkpt lat="39.9740344" lon="9.4969195"><ele>940.3333333333334</ele><time>2026-03-29T09:02:32.249Z</time></trkpt><trkpt lat="39.9739552" lon="9.4969601"><ele>938.6666666666667</ele><time>2026-03-29T09:02:33.249Z</time></trkpt><trkpt lat="39.9738602" lon="9.4970006"><ele>937.0</ele><time>2026-03-29T09:02:34.249Z</time></trkpt><trkpt lat="39.9737814" lon="9.4970301"><ele>935.3333333333334</ele><time>2026-03-29T09:02:35.249Z</time></trkpt><trkpt lat="39.9737066" lon="9.4970806"><ele>933.6666666666667</ele><time>2026-03-29T09:02:36.249Z</time></trkpt><trkpt lat="39.9736411" lon="9.4970772"><ele>932.0</ele><time>2026-03-29T09:02:37.249Z</time></trkpt><trkpt lat="39.9735716" lon="9.4970952"><ele>930.2</ele><time>2026-03-29T09:02:38.25Z</time></trkpt><trkpt lat="39.9734328" lon="9.4969415"><ele>928.4000000000001</ele><time>2026-03-29T09:02:40.249Z</time></trkpt><trkpt lat="39.9733689" lon="9.496858"><ele>926.5999999999999</ele><time>2026-03-29T09:02:42.25Z</time></trkpt><trkpt lat="39.9734187" lon="9.4967566"><ele>924.8</ele><time>2026-03-29T09:02:44.249Z</time></trkpt><trkpt lat="39.9734604" lon="9.4966712"><ele>923.0</ele><time>2026-03-29T09:02:45.249Z</time></trkpt><trkpt lat="39.9734961" lon="9.4966033"><ele>923.0</ele><time>2026-03-29T09:02:46.25Z</time></trkpt><trkpt lat="39.973525" lon="9.4965091"><ele>923.0</ele><time>2026-03-29T09:02:47.25Z</time></trkpt><trkpt lat="39.9735071" lon="9.4963896"><ele>923.0</ele><time>2026-03-29T09:02:48.25Z</time></trkpt><trkpt lat="39.973484" lon="9.4962707"><ele>923.0</ele><time>2026-03-29T09:02:50.249Z</time></trkpt><trkpt lat="39.9735321" lon="9.4961536"><ele>923.0</ele><time>2026-03-29T09:02:52.249Z</time></trkpt><trkpt lat="39.9736025" lon="9.4959989"><ele>922.0</ele><time>2026-03-29T09:02:54.25Z</time></trkpt><trkpt lat="39.9735219" lon="9.4959634"><ele>921.0</ele><time>2026-03-29T09:02:58.249Z</time></trkpt><trkpt lat="39.9734282" lon="9.4959853"><ele>920.0</ele><time>2026-03-29T09:03:00.25Z</time></trkpt><trkpt lat="39.973338" lon="9.4961456"><ele>919.0</ele><time>2026-03-29T09:03:02.249Z</time></trkpt><trkpt lat="39.9732702" lon="9.4962525"><ele>918.0</ele><time>2026-03-29T09:03:03.249Z</time></trkpt><trkpt lat="39.9731597" lon="9.4963202"><ele>914.5</ele><time>2026-03-29T09:03:04.249Z</time></trkpt><trkpt lat="39.9730707" lon="9.4963355"><ele>911.0</ele><time>2026-03-29T09:03:05.249Z</time></trkpt><trkpt lat="39.9729523" lon="9.4963676"><ele>907.5</ele><time>2026-03-29T09:03:06.249Z</time></trkpt><trkpt lat="39.9728218" lon="9.4963912"><ele>904.0</ele><time>2026-03-29T09:03:07.249Z</time></trkpt><trkpt lat="39.972708" lon="9.4964199"><ele>904.0</ele><time>2026-03-29T09:03:08.249Z</time></trkpt><trkpt lat="39.9725819" lon="9.4964479"><ele>904.0</ele><time>2026-03-29T09:03:09.249Z</time></trkpt><trkpt lat="39.9724645" lon="9.4964775"><ele>904.0</ele><time>2026-03-29T09:03:10.25Z</time></trkpt><trkpt lat="39.9723502" lon="9.4965276"><ele>904.0</ele><time>2026-03-29T09:03:11.249Z</time></trkpt><trkpt lat="39.9722335" lon="9.4965717"><ele>903.0</ele><time>2026-03-29T09:03:12.249Z</time></trkpt><trkpt lat="39.9721326" lon="9.496603"><ele>902.0</ele><time>2026-03-29T09:03:13.249Z</time></trkpt><trkpt lat="39.9720539" lon="9.4966637"><ele>901.0</ele><time>2026-03-29T09:03:14.249Z</time></trkpt><trkpt lat="39.971925" lon="9.49673"><ele>900.0</ele><time>2026-03-29T09:03:15.249Z</time></trkpt><trkpt lat="39.971813" lon="9.4967738"><ele>900.0</ele><time>2026-03-29T09:03:16.249Z</time></trkpt><trkpt lat="39.971697" lon="9.496803"><ele>900.0</ele><time>2026-03-29T09:03:17.249Z</time></trkpt><trkpt lat="39.9715844" lon="9.4968293"><ele>900.0</ele><time>2026-03-29T09:03:18.25Z</time></trkpt><trkpt lat="39.9714883" lon="9.4968668"><ele>900.0</ele><time>2026-03-29T09:03:19.25Z</time></trkpt><trkpt lat="39.9714047" lon="9.4968586"><ele>900.0</ele><time>2026-03-29T09:03:20.249Z</time></trkpt><trkpt lat="39.9713361" lon="9.4968656"><ele>901.0</ele><time>2026-03-29T09:03:21.249Z</time></trkpt><trkpt lat="39.9712636" lon="9.4968729"><ele>902.0</ele><time>2026-03-29T09:03:22.249Z</time></trkpt><trkpt lat="39.9711894" lon="9.4969686"><ele>903.0</ele><time>2026-03-29T09:03:24.25Z</time></trkpt><trkpt lat="39.9711807" lon="9.4971342"><ele>904.0</ele><time>2026-03-29T09:03:25.249Z</time></trkpt><trkpt lat="39.971152" lon="9.4972594"><ele>905.0</ele><time>2026-03-29T09:03:26.25Z</time></trkpt><trkpt lat="39.9711155" lon="9.4973939"><ele>903.8333333333334</ele><time>2026-03-29T09:03:27.249Z</time></trkpt><trkpt lat="39.9710739" lon="9.4974997"><ele>902.6666666666667</ele><time>2026-03-29T09:03:28.249Z</time></trkpt><trkpt lat="39.9710185" lon="9.4975622"><ele>901.5</ele><time>2026-03-29T09:03:29.25Z</time></trkpt><trkpt lat="39.9709544" lon="9.4976104"><ele>900.3333333333333</ele><time>2026-03-29T09:03:30.249Z</time></trkpt><trkpt lat="39.9708617" lon="9.497595"><ele>899.1666666666666</ele><time>2026-03-29T09:03:31.249Z</time></trkpt><trkpt lat="39.9707562" lon="9.4976037"><ele>898.0</ele><time>2026-03-29T09:03:32.249Z</time></trkpt><trkpt lat="39.9706521" lon="9.497628"><ele>898.0</ele><time>2026-03-29T09:03:33.249Z</time></trkpt><trkpt lat="39.9705453" lon="9.4976622"><ele>898.0</ele><time>2026-03-29T09:03:34.249Z</time></trkpt><trkpt lat="39.970449" lon="9.4976834"><ele>898.0</ele><time>2026-03-29T09:03:35.249Z</time></trkpt><trkpt lat="39.9703498" lon="9.4977122"><ele>898.0</ele><time>2026-03-29T09:03:36.249Z</time></trkpt><trkpt lat="39.9704362" lon="9.4978393"><ele>898.0</ele><time>2026-03-29T09:03:37.249Z</time></trkpt><trkpt lat="39.9704086" lon="9.497936"><ele>897.1666666666666</ele><time>2026-03-29T09:03:38.249Z</time></trkpt><trkpt lat="39.9703928" lon="9.4980781"><ele>896.3333333333333</ele><time>2026-03-29T09:03:39.249Z</time></trkpt><trkpt lat="39.9704558" lon="9.4981854"><ele>895.5</ele><time>2026-03-29T09:03:40.25Z</time></trkpt><trkpt lat="39.9704818" lon="9.4982819"><ele>894.6666666666667</ele><time>2026-03-29T09:03:41.25Z</time></trkpt><trkpt lat="39.9705401" lon="9.4983565"><ele>893.8333333333334</ele><time>2026-03-29T09:03:43.249Z</time></trkpt><trkpt lat="39.9705929" lon="9.4984189"><ele>893.0</ele><time>2026-03-29T09:03:45.249Z</time></trkpt><trkpt lat="39.9706518" lon="9.4984728"><ele>893.0000000000001</ele><time>2026-03-29T09:03:47.25Z</time></trkpt><trkpt lat="39.9706889" lon="9.4985464"><ele>893.0</ele><time>2026-03-29T09:03:48.249Z</time></trkpt><trkpt lat="39.9707285" lon="9.4986367"><ele>893.0</ele><time>2026-03-29T09:03:49.249Z</time></trkpt><trkpt lat="39.9707607" lon="9.4987278"><ele>893.0</ele><time>2026-03-29T09:03:50.249Z</time></trkpt><trkpt lat="39.9708001" lon="9.4988388"><ele>893.0000000000001</ele><time>2026-03-29T09:03:51.249Z</time></trkpt><trkpt lat="39.9708567" lon="9.4989666"><ele>893.0</ele><time>2026-03-29T09:03:52.249Z</time></trkpt><trkpt lat="39.970921" lon="9.4990946"><ele>891.4</ele><time>2026-03-29T09:03:53.249Z</time></trkpt><trkpt lat="39.9709497" lon="9.4992161"><ele>889.8</ele><time>2026-03-29T09:03:54.25Z</time></trkpt><trkpt lat="39.9709727" lon="9.4993907"><ele>888.2</ele><time>2026-03-29T09:03:56.249Z</time></trkpt><trkpt lat="39.9709511" lon="9.499512"><ele>886.6</ele><time>2026-03-29T09:03:58.249Z</time></trkpt><trkpt lat="39.9708899" lon="9.499646"><ele>885.0</ele><time>2026-03-29T09:04:00.249Z</time></trkpt><trkpt lat="39.9708287" lon="9.4997046"><ele>885.0</ele><time>2026-03-29T09:04:01.249Z</time></trkpt><trkpt lat="39.9707808" lon="9.4997621"><ele>885.0</ele><time>2026-03-29T09:04:02.249Z</time></trkpt><trkpt lat="39.9706856" lon="9.4998311"><ele>885.0</ele><time>2026-03-29T09:04:04.25Z</time></trkpt><trkpt lat="39.9706352" lon="9.4998864"><ele>885.0</ele><time>2026-03-29T09:04:05.25Z</time></trkpt><trkpt lat="39.9705906" lon="9.4999477"><ele>885.0</ele><time>2026-03-29T09:04:06.25Z</time></trkpt><trkpt lat="39.9705528" lon="9.5000179"><ele>885.0</ele><time>2026-03-29T09:04:07.25Z</time></trkpt><trkpt lat="39.9704986" lon="9.5000683"><ele>885.0</ele><time>2026-03-29T09:04:08.249Z</time></trkpt><trkpt lat="39.9704321" lon="9.5001175"><ele>885.0</ele><time>2026-03-29T09:04:10.25Z</time></trkpt><trkpt lat="39.9703777" lon="9.5001599"><ele>885.0</ele><time>2026-03-29T09:04:11.249Z</time></trkpt><trkpt lat="39.9703204" lon="9.5001959"><ele>885.0</ele><time>2026-03-29T09:04:12.249Z</time></trkpt><trkpt lat="39.9702659" lon="9.5002689"><ele>885.0</ele><time>2026-03-29T09:04:13.249Z</time></trkpt><trkpt lat="39.9702058" lon="9.5003071"><ele>885.0</ele><time>2026-03-29T09:04:14.25Z</time></trkpt><trkpt lat="39.9701276" lon="9.5003348"><ele>885.0</ele><time>2026-03-29T09:04:15.249Z</time></trkpt><trkpt lat="39.9700624" lon="9.5003458"><ele>885.0</ele><time>2026-03-29T09:04:16.249Z</time></trkpt><trkpt lat="39.969974" lon="9.5003749"><ele>882.8333333333334</ele><time>2026-03-29T09:04:17.249Z</time></trkpt><trkpt lat="39.9699051" lon="9.5003691"><ele>880.6666666666667</ele><time>2026-03-29T09:04:18.249Z</time></trkpt><trkpt lat="39.9698249" lon="9.5003772"><ele>878.5</ele><time>2026-03-29T09:04:19.249Z</time></trkpt><trkpt lat="39.9697216" lon="9.5004269"><ele>876.3333333333334</ele><time>2026-03-29T09:04:20.249Z</time></trkpt><trkpt lat="39.9696368" lon="9.5004838"><ele>874.1666666666667</ele><time>2026-03-29T09:04:21.249Z</time></trkpt><trkpt lat="39.9695683" lon="9.5004656"><ele>872.0</ele><time>2026-03-29T09:04:22.249Z</time></trkpt><trkpt lat="39.9694863" lon="9.5005019"><ele>872.0000000000001</ele><time>2026-03-29T09:04:23.25Z</time></trkpt><trkpt lat="39.9694135" lon="9.5005204"><ele>872.0</ele><time>2026-03-29T09:04:24.25Z</time></trkpt><trkpt lat="39.9693298" lon="9.5005373"><ele>872.0</ele><time>2026-03-29T09:04:25.249Z</time></trkpt><trkpt lat="39.9692503" lon="9.5005524"><ele>872.0</ele><time>2026-03-29T09:04:26.249Z</time></trkpt><trkpt lat="39.9691727" lon="9.5005675"><ele>872.0000000000001</ele><time>2026-03-29T09:04:27.249Z</time></trkpt><trkpt lat="39.9690828" lon="9.5006253"><ele>872.0</ele><time>2026-03-29T09:04:28.249Z</time></trkpt><trkpt lat="39.9690045" lon="9.5007225"><ele>874.0</ele><time>2026-03-29T09:04:30.249Z</time></trkpt><trkpt lat="39.9689448" lon="9.5008014"><ele>876.0</ele><time>2026-03-29T09:04:31.25Z</time></trkpt><trkpt lat="39.9688886" lon="9.5009259"><ele>878.0</ele><time>2026-03-29T09:04:32.25Z</time></trkpt><trkpt lat="39.9688383" lon="9.5010317"><ele>880.0</ele><time>2026-03-29T09:04:33.249Z</time></trkpt><trkpt lat="39.9687762" lon="9.5011354"><ele>882.0</ele><time>2026-03-29T09:04:34.249Z</time></trkpt><trkpt lat="39.9687042" lon="9.5012221"><ele>880.2</ele><time>2026-03-29T09:04:35.249Z</time></trkpt><trkpt lat="39.9686199" lon="9.5013035"><ele>878.4000000000001</ele><time>2026-03-29T09:04:36.249Z</time></trkpt><trkpt lat="39.9685338" lon="9.5013676"><ele>876.5999999999999</ele><time>2026-03-29T09:04:37.249Z</time></trkpt><trkpt lat="39.9684575" lon="9.501464"><ele>874.8</ele><time>2026-03-29T09:04:38.249Z</time></trkpt><trkpt lat="39.9683951" lon="9.5016119"><ele>873.0</ele><time>2026-03-29T09:04:39.249Z</time></trkpt><trkpt lat="39.9683327" lon="9.5017601"><ele>873.0</ele><time>2026-03-29T09:04:40.25Z</time></trkpt><trkpt lat="39.9682901" lon="9.5019"><ele>873.0</ele><time>2026-03-29T09:04:41.25Z</time></trkpt><trkpt lat="39.9682311" lon="9.5020487"><ele>873.0</ele><time>2026-03-29T09:04:42.249Z</time></trkpt><trkpt lat="39.9681794" lon="9.5021862"><ele>873.0</ele><time>2026-03-29T09:04:43.249Z</time></trkpt><trkpt lat="39.9680958" lon="9.5022575"><ele>867.4</ele><time>2026-03-29T09:04:44.249Z</time></trkpt><trkpt lat="39.9680473" lon="9.5023104"><ele>861.8</ele><time>2026-03-29T09:04:45.249Z</time></trkpt><trkpt lat="39.9679371" lon="9.5023094"><ele>856.2</ele><time>2026-03-29T09:04:47.249Z</time></trkpt><trkpt lat="39.9678052" lon="9.5022749"><ele>850.6</ele><time>2026-03-29T09:04:49.25Z</time></trkpt><trkpt lat="39.967733" lon="9.5022857"><ele>845.0</ele><time>2026-03-29T09:04:50.25Z</time></trkpt><trkpt lat="39.9676587" lon="9.5023091"><ele>845.0</ele><time>2026-03-29T09:04:51.249Z</time></trkpt><trkpt lat="39.9675732" lon="9.5023249"><ele>845.0</ele><time>2026-03-29T09:04:52.249Z</time></trkpt><trkpt lat="39.9674705" lon="9.5023253"><ele>845.0</ele><time>2026-03-29T09:04:53.249Z</time></trkpt><trkpt lat="39.96737" lon="9.502344"><ele>845.0</ele><time>2026-03-29T09:04:54.249Z</time></trkpt><trkpt lat="39.9672723" lon="9.5023736"><ele>845.0</ele><time>2026-03-29T09:04:55.249Z</time></trkpt><trkpt lat="39.9671752" lon="9.5023634"><ele>845.8</ele><time>2026-03-29T09:04:56.249Z</time></trkpt><trkpt lat="39.9670919" lon="9.5023146"><ele>846.6</ele><time>2026-03-29T09:04:57.249Z</time></trkpt><trkpt lat="39.9669963" lon="9.5022823"><ele>847.4000000000001</ele><time>2026-03-29T09:04:58.249Z</time></trkpt><trkpt lat="39.9668977" lon="9.5022322"><ele>848.2</ele><time>2026-03-29T09:04:59.249Z</time></trkpt><trkpt lat="39.9667861" lon="9.502223"><ele>849.0</ele><time>2026-03-29T09:05:00.249Z</time></trkpt><trkpt lat="39.9666828" lon="9.5022542"><ele>846.1666666666666</ele><time>2026-03-29T09:05:01.249Z</time></trkpt><trkpt lat="39.9665977" lon="9.5022436"><ele>843.3333333333333</ele><time>2026-03-29T09:05:02.249Z</time></trkpt><trkpt lat="39.966514" lon="9.5022115"><ele>840.5</ele><time>2026-03-29T09:05:03.25Z</time></trkpt><trkpt lat="39.9664332" lon="9.5021952"><ele>837.6666666666666</ele><time>2026-03-29T09:05:04.249Z</time></trkpt><trkpt lat="39.9663535" lon="9.5021745"><ele>834.8333333333333</ele><time>2026-03-29T09:05:05.249Z</time></trkpt><trkpt lat="39.9662802" lon="9.5021359"><ele>832.0</ele><time>2026-03-29T09:05:06.249Z</time></trkpt><trkpt lat="39.9661997" lon="9.5021793"><ele>832.0</ele><time>2026-03-29T09:05:07.249Z</time></trkpt><trkpt lat="39.9661422" lon="9.502251"><ele>832.0</ele><time>2026-03-29T09:05:09.249Z</time></trkpt><trkpt lat="39.9661663" lon="9.50235"><ele>832.0</ele><time>2026-03-29T09:05:11.249Z</time></trkpt><trkpt lat="39.9662842" lon="9.5025027"><ele>832.0</ele><time>2026-03-29T09:05:13.249Z</time></trkpt><trkpt lat="39.9663715" lon="9.5025813"><ele>832.0</ele><time>2026-03-29T09:05:14.249Z</time></trkpt><trkpt lat="39.966456" lon="9.5026921"><ele>832.0</ele><time>2026-03-29T09:05:15.249Z</time></trkpt><trkpt lat="39.9665322" lon="9.5027851"><ele>832.0</ele><time>2026-03-29T09:05:16.249Z</time></trkpt><trkpt lat="39.9666042" lon="9.5028848"><ele>832.0</ele><time>2026-03-29T09:05:17.249Z</time></trkpt><trkpt lat="39.9666619" lon="9.5029758"><ele>832.0</ele><time>2026-03-29T09:05:18.249Z</time></trkpt><trkpt lat="39.966667" lon="9.5030864"><ele>832.0</ele><time>2026-03-29T09:05:19.249Z</time></trkpt><trkpt lat="39.9666604" lon="9.5032135"><ele>828.4000000000001</ele><time>2026-03-29T09:05:20.249Z</time></trkpt><trkpt lat="39.9666736" lon="9.5033329"><ele>824.8000000000001</ele><time>2026-03-29T09:05:21.249Z</time></trkpt><trkpt lat="39.9666991" lon="9.5034292"><ele>821.2</ele><time>2026-03-29T09:05:22.249Z</time></trkpt><trkpt lat="39.9668218" lon="9.5035975"><ele>817.6</ele><time>2026-03-29T09:05:24.25Z</time></trkpt><trkpt lat="39.9668668" lon="9.5036668"><ele>814.0</ele><time>2026-03-29T09:05:25.25Z</time></trkpt><trkpt lat="39.9669309" lon="9.5037553"><ele>806.8000000000001</ele><time>2026-03-29T09:05:26.249Z</time></trkpt><trkpt lat="39.9669801" lon="9.5038474"><ele>799.6</ele><time>2026-03-29T09:05:27.249Z</time></trkpt><trkpt lat="39.9670031" lon="9.503949"><ele>792.4</ele><time>2026-03-29T09:05:29.249Z</time></trkpt><trkpt lat="39.9669153" lon="9.5039446"><ele>785.2</ele><time>2026-03-29T09:05:31.249Z</time></trkpt><trkpt lat="39.9667828" lon="9.5039211"><ele>778.0</ele><time>2026-03-29T09:05:33.249Z</time></trkpt><trkpt lat="39.9667002" lon="9.5039378"><ele>778.1666666666666</ele><time>2026-03-29T09:05:34.249Z</time></trkpt><trkpt lat="39.9666314" lon="9.5039743"><ele>778.3333333333333</ele><time>2026-03-29T09:05:35.25Z</time></trkpt><trkpt lat="39.9665659" lon="9.5040493"><ele>778.5</ele><time>2026-03-29T09:05:36.249Z</time></trkpt><trkpt lat="39.9665043" lon="9.5041554"><ele>778.6666666666667</ele><time>2026-03-29T09:05:37.249Z</time></trkpt><trkpt lat="39.9664771" lon="9.5042471"><ele>778.8333333333334</ele><time>2026-03-29T09:05:38.25Z</time></trkpt><trkpt lat="39.9664197" lon="9.5043309"><ele>779.0</ele><time>2026-03-29T09:05:39.249Z</time></trkpt><trkpt lat="39.9663592" lon="9.5043684"><ele>779.0000000000001</ele><time>2026-03-29T09:05:40.249Z</time></trkpt><trkpt lat="39.9662925" lon="9.5044258"><ele>779.0</ele><time>2026-03-29T09:05:41.249Z</time></trkpt><trkpt lat="39.9662402" lon="9.5044982"><ele>779.0</ele><time>2026-03-29T09:05:42.25Z</time></trkpt><trkpt lat="39.9661778" lon="9.504601"><ele>779.0</ele><time>2026-03-29T09:05:43.25Z</time></trkpt><trkpt lat="39.9661266" lon="9.504706"><ele>779.0000000000001</ele><time>2026-03-29T09:05:44.25Z</time></trkpt><trkpt lat="39.9660919" lon="9.5048127"><ele>779.0</ele><time>2026-03-29T09:05:45.249Z</time></trkpt><trkpt lat="39.9660553" lon="9.5048811"><ele>775.3333333333334</ele><time>2026-03-29T09:05:46.25Z</time></trkpt><trkpt lat="39.9660182" lon="9.5049788"><ele>771.6666666666667</ele><time>2026-03-29T09:05:47.249Z</time></trkpt><trkpt lat="39.965962" lon="9.5050571"><ele>768.0</ele><time>2026-03-29T09:05:48.249Z</time></trkpt><trkpt lat="39.9659085" lon="9.5051116"><ele>764.3333333333334</ele><time>2026-03-29T09:05:49.249Z</time></trkpt><trkpt lat="39.965852" lon="9.5051509"><ele>760.6666666666667</ele><time>2026-03-29T09:05:50.249Z</time></trkpt><trkpt lat="39.9657514" lon="9.50509"><ele>757.0</ele><time>2026-03-29T09:05:52.249Z</time></trkpt><trkpt lat="39.9657126" lon="9.5050233"><ele>757.0</ele><time>2026-03-29T09:05:53.249Z</time></trkpt><trkpt lat="39.9656576" lon="9.5048484"><ele>757.0</ele><time>2026-03-29T09:05:55.25Z</time></trkpt><trkpt lat="39.9656567" lon="9.5047396"><ele>757.0</ele><time>2026-03-29T09:05:56.249Z</time></trkpt><trkpt lat="39.9656646" lon="9.5046287"><ele>757.0</ele><time>2026-03-29T09:05:57.25Z</time></trkpt><trkpt lat="39.9656713" lon="9.5045115"><ele>757.0</ele><time>2026-03-29T09:05:58.249Z</time></trkpt><trkpt lat="39.9656608" lon="9.5044134"><ele>757.0</ele><time>2026-03-29T09:05:59.249Z</time></trkpt><trkpt lat="39.9656107" lon="9.5042962"><ele>757.0</ele><time>2026-03-29T09:06:01.25Z</time></trkpt><trkpt lat="39.9655343" lon="9.5044166"><ele>757.0</ele><time>2026-03-29T09:06:03.249Z</time></trkpt><trkpt lat="39.9654881" lon="9.504488"><ele>757.0</ele><time>2026-03-29T09:06:04.25Z</time></trkpt><trkpt lat="39.9654386" lon="9.5045544"><ele>757.0</ele><time>2026-03-29T09:06:05.249Z</time></trkpt><trkpt lat="39.9653858" lon="9.5046298"><ele>757.0</ele><time>2026-03-29T09:06:06.25Z</time></trkpt><trkpt lat="39.9653101" lon="9.5046651"><ele>757.0</ele><time>2026-03-29T09:06:07.249Z</time></trkpt><trkpt lat="39.9652248" lon="9.5046931"><ele>757.0</ele><time>2026-03-29T09:06:08.25Z</time></trkpt><trkpt lat="39.9651442" lon="9.5047254"><ele>757.0</ele><time>2026-03-29T09:06:09.249Z</time></trkpt><trkpt lat="39.9650446" lon="9.504866"><ele>757.0</ele><time>2026-03-29T09:06:11.249Z</time></trkpt><trkpt lat="39.9649778" lon="9.5049468"><ele>757.0</ele><time>2026-03-29T09:06:12.249Z</time></trkpt><trkpt lat="39.9649153" lon="9.5050417"><ele>752.6</ele><time>2026-03-29T09:06:13.249Z</time></trkpt><trkpt lat="39.9648535" lon="9.5051285"><ele>748.2</ele><time>2026-03-29T09:06:14.249Z</time></trkpt><trkpt lat="39.9647807" lon="9.5052434"><ele>743.8</ele><time>2026-03-29T09:06:15.249Z</time></trkpt><trkpt lat="39.96472" lon="9.5053357"><ele>739.4</ele><time>2026-03-29T09:06:16.249Z</time></trkpt><trkpt lat="39.9646563" lon="9.5054401"><ele>735.0</ele><time>2026-03-29T09:06:17.249Z</time></trkpt><trkpt lat="39.9646003" lon="9.5055052"><ele>735.0</ele><time>2026-03-29T09:06:18.249Z</time></trkpt><trkpt lat="39.9645246" lon="9.5055562"><ele>735.0</ele><time>2026-03-29T09:06:19.249Z</time></trkpt><trkpt lat="39.9644469" lon="9.5056086"><ele>735.0</ele><time>2026-03-29T09:06:20.249Z</time></trkpt><trkpt lat="39.9643803" lon="9.5056454"><ele>735.0</ele><time>2026-03-29T09:06:21.249Z</time></trkpt><trkpt lat="39.9643415" lon="9.5055741"><ele>735.0</ele><time>2026-03-29T09:06:22.249Z</time></trkpt><trkpt lat="39.9642923" lon="9.5056263"><ele>735.0</ele><time>2026-03-29T09:06:24.25Z</time></trkpt><trkpt lat="39.9642465" lon="9.5057531"><ele>735.0</ele><time>2026-03-29T09:06:26.25Z</time></trkpt><trkpt lat="39.9642123" lon="9.5058417"><ele>735.0</ele><time>2026-03-29T09:06:30.249Z</time></trkpt><trkpt lat="39.964202" lon="9.5059728"><ele>735.0</ele><time>2026-03-29T09:06:43.25Z</time></trkpt><trkpt lat="39.9642022" lon="9.5060583"><ele>735.0</ele><time>2026-03-29T09:06:44.25Z</time></trkpt><trkpt lat="39.9642147" lon="9.5061503"><ele>735.0</ele><time>2026-03-29T09:06:45.25Z</time></trkpt><trkpt lat="39.9642252" lon="9.506239"><ele>735.0</ele><time>2026-03-29T09:06:46.249Z</time></trkpt><trkpt lat="39.9642395" lon="9.5063306"><ele>731.2</ele><time>2026-03-29T09:06:47.249Z</time></trkpt><trkpt lat="39.9642921" lon="9.5064335"><ele>727.4</ele><time>2026-03-29T09:06:48.249Z</time></trkpt><trkpt lat="39.9643229" lon="9.5065278"><ele>723.5999999999999</ele><time>2026-03-29T09:06:49.25Z</time></trkpt><trkpt lat="39.9643994" lon="9.5066355"><ele>719.8</ele><time>2026-03-29T09:06:50.249Z</time></trkpt><trkpt lat="39.9645226" lon="9.506738"><ele>716.0</ele><time>2026-03-29T09:06:51.249Z</time></trkpt><trkpt lat="39.9646099" lon="9.5068315"><ele>716.0</ele><time>2026-03-29T09:06:52.249Z</time></trkpt><trkpt lat="39.9647073" lon="9.5069983"><ele>716.0</ele><time>2026-03-29T09:06:54.249Z</time></trkpt><trkpt lat="39.9647417" lon="9.5070754"><ele>716.0</ele><time>2026-03-29T09:06:55.249Z</time></trkpt><trkpt lat="39.9646166" lon="9.5070544"><ele>716.0</ele><time>2026-03-29T09:06:56.249Z</time></trkpt><trkpt lat="39.9644715" lon="9.5070436"><ele>716.0</ele><time>2026-03-29T09:06:58.25Z</time></trkpt><trkpt lat="39.9643849" lon="9.5070584"><ele>716.0</ele><time>2026-03-29T09:06:59.249Z</time></trkpt><trkpt lat="39.9643091" lon="9.5070622"><ele>716.0</ele><time>2026-03-29T09:07:00.249Z</time></trkpt><trkpt lat="39.9642257" lon="9.5070353"><ele>716.0</ele><time>2026-03-29T09:07:01.249Z</time></trkpt><trkpt lat="39.9641509" lon="9.5070205"><ele>716.0</ele><time>2026-03-29T09:07:02.249Z</time></trkpt><trkpt lat="39.9641523" lon="9.5069185"><ele>716.0</ele><time>2026-03-29T09:07:03.249Z</time></trkpt><trkpt lat="39.964062" lon="9.5069349"><ele>712.8</ele><time>2026-03-29T09:07:07.249Z</time></trkpt><trkpt lat="39.9639937" lon="9.5069353"><ele>709.5999999999999</ele><time>2026-03-29T09:07:10.25Z</time></trkpt><trkpt lat="39.9639459" lon="9.5068806"><ele>706.4</ele><time>2026-03-29T09:07:25.249Z</time></trkpt><trkpt lat="39.9638931" lon="9.5067669"><ele>703.2</ele><time>2026-03-29T09:07:27.249Z</time></trkpt><trkpt lat="39.963822" lon="9.5065387"><ele>700.0</ele><time>2026-03-29T09:07:29.25Z</time></trkpt><trkpt lat="39.9637992" lon="9.506449"><ele>700.0</ele><time>2026-03-29T09:07:30.249Z</time></trkpt><trkpt lat="39.9637306" lon="9.5063708"><ele>700.0</ele><time>2026-03-29T09:07:31.249Z</time></trkpt><trkpt lat="39.9636717" lon="9.5061994"><ele>700.0</ele><time>2026-03-29T09:07:32.249Z</time></trkpt><trkpt lat="39.9636299" lon="9.5060709"><ele>700.0</ele><time>2026-03-29T09:07:33.249Z</time></trkpt><trkpt lat="39.9635972" lon="9.505959"><ele>700.0</ele><time>2026-03-29T09:07:34.249Z</time></trkpt><trkpt lat="39.9635652" lon="9.5058614"><ele>700.0</ele><time>2026-03-29T09:07:35.249Z</time></trkpt><trkpt lat="39.9635892" lon="9.5059471"><ele>700.0</ele><time>2026-03-29T09:07:39.249Z</time></trkpt><trkpt lat="39.9635994" lon="9.5060516"><ele>700.0</ele><time>2026-03-29T09:07:40.249Z</time></trkpt><trkpt lat="39.9636129" lon="9.506167"><ele>700.0</ele><time>2026-03-29T09:07:41.249Z</time></trkpt><trkpt lat="39.9636047" lon="9.5062637"><ele>700.0</ele><time>2026-03-29T09:07:42.249Z</time></trkpt><trkpt lat="39.9635994" lon="9.5063721"><ele>700.0</ele><time>2026-03-29T09:07:43.249Z</time></trkpt><trkpt lat="39.9635874" lon="9.5064809"><ele>700.0</ele><time>2026-03-29T09:07:44.249Z</time></trkpt><trkpt lat="39.9635182" lon="9.5065254"><ele>700.0</ele><time>2026-03-29T09:07:45.249Z</time></trkpt><trkpt lat="39.9634742" lon="9.5066009"><ele>700.0</ele><time>2026-03-29T09:07:46.25Z</time></trkpt><trkpt lat="39.9634818" lon="9.5067197"><ele>700.0</ele><time>2026-03-29T09:07:47.249Z</time></trkpt><trkpt lat="39.9634622" lon="9.5068108"><ele>700.0</ele><time>2026-03-29T09:07:48.249Z</time></trkpt><trkpt lat="39.9634471" lon="9.5069071"><ele>700.0</ele><time>2026-03-29T09:07:49.249Z</time></trkpt><trkpt lat="39.9634328" lon="9.5069993"><ele>697.1666666666667</ele><time>2026-03-29T09:07:50.249Z</time></trkpt><trkpt lat="39.9634312" lon="9.507089"><ele>694.3333333333334</ele><time>2026-03-29T09:07:51.249Z</time></trkpt><trkpt lat="39.9634193" lon="9.5071832"><ele>691.5</ele><time>2026-03-29T09:07:52.249Z</time></trkpt><trkpt lat="39.9634141" lon="9.5072733"><ele>688.6666666666666</ele><time>2026-03-29T09:07:55.249Z</time></trkpt><trkpt lat="39.9633997" lon="9.5074375"><ele>685.8333333333333</ele><time>2026-03-29T09:07:59.25Z</time></trkpt><trkpt lat="39.9634258" lon="9.5075134"><ele>683.0</ele><time>2026-03-29T09:08:00.249Z</time></trkpt><trkpt lat="39.9634538" lon="9.5075989"><ele>683.0</ele><time>2026-03-29T09:08:01.249Z</time></trkpt><trkpt lat="39.9634795" lon="9.5076954"><ele>683.0</ele><time>2026-03-29T09:08:02.25Z</time></trkpt><trkpt lat="39.9635084" lon="9.5077826"><ele>683.0</ele><time>2026-03-29T09:08:03.249Z</time></trkpt><trkpt lat="39.9635671" lon="9.5078596"><ele>683.0</ele><time>2026-03-29T09:08:04.25Z</time></trkpt><trkpt lat="39.963622" lon="9.5079276"><ele>683.0</ele><time>2026-03-29T09:08:05.25Z</time></trkpt><trkpt lat="39.963746" lon="9.5079855"><ele>683.0</ele><time>2026-03-29T09:08:07.249Z</time></trkpt><trkpt lat="39.9638221" lon="9.5080177"><ele>680.4</ele><time>2026-03-29T09:08:08.249Z</time></trkpt><trkpt lat="39.9639203" lon="9.5080476"><ele>677.8</ele><time>2026-03-29T09:08:09.25Z</time></trkpt><trkpt lat="39.963995" lon="9.5080919"><ele>675.2</ele><time>2026-03-29T09:08:10.249Z</time></trkpt><trkpt lat="39.9640819" lon="9.5081405"><ele>672.6</ele><time>2026-03-29T09:08:11.25Z</time></trkpt><trkpt lat="39.9641772" lon="9.5081838"><ele>670.0</ele><time>2026-03-29T09:08:12.25Z</time></trkpt><trkpt lat="39.964265" lon="9.5082292"><ele>670.0</ele><time>2026-03-29T09:08:13.249Z</time></trkpt><trkpt lat="39.9643493" lon="9.5082796"><ele>670.0</ele><time>2026-03-29T09:08:14.25Z</time></trkpt><trkpt lat="39.9644308" lon="9.5083371"><ele>670.0</ele><time>2026-03-29T09:08:15.25Z</time></trkpt><trkpt lat="39.9645072" lon="9.5083891"><ele>670.0</ele><time>2026-03-29T09:08:16.249Z</time></trkpt><trkpt lat="39.9645839" lon="9.5084456"><ele>670.0</ele><time>2026-03-29T09:08:17.249Z</time></trkpt><trkpt lat="39.9646882" lon="9.508487"><ele>670.0</ele><time>2026-03-29T09:08:18.249Z</time></trkpt><trkpt lat="39.9647959" lon="9.5085594"><ele>670.0</ele><time>2026-03-29T09:08:19.249Z</time></trkpt><trkpt lat="39.9648806" lon="9.5086206"><ele>670.0</ele><time>2026-03-29T09:08:20.249Z</time></trkpt><trkpt lat="39.9649643" lon="9.5086884"><ele>670.0</ele><time>2026-03-29T09:08:21.249Z</time></trkpt><trkpt lat="39.9650519" lon="9.5087468"><ele>670.0</ele><time>2026-03-29T09:08:22.249Z</time></trkpt><trkpt lat="39.96515" lon="9.5088006"><ele>669.0</ele><time>2026-03-29T09:08:23.249Z</time></trkpt><trkpt lat="39.9652508" lon="9.5088522"><ele>668.0</ele><time>2026-03-29T09:08:24.249Z</time></trkpt><trkpt lat="39.9653455" lon="9.5088953"><ele>667.0</ele><time>2026-03-29T09:08:25.249Z</time></trkpt><trkpt lat="39.9654112" lon="9.5089449"><ele>666.0</ele><time>2026-03-29T09:08:26.249Z</time></trkpt><trkpt lat="39.9654763" lon="9.5090298"><ele>665.0</ele><time>2026-03-29T09:08:27.249Z</time></trkpt><trkpt lat="39.965492" lon="9.5091311"><ele>665.0</ele><time>2026-03-29T09:08:28.249Z</time></trkpt><trkpt lat="39.9654982" lon="9.5092436"><ele>665.0</ele><time>2026-03-29T09:08:29.249Z</time></trkpt><trkpt lat="39.9654825" lon="9.5093468"><ele>665.0</ele><time>2026-03-29T09:08:30.249Z</time></trkpt><trkpt lat="39.965457" lon="9.5094544"><ele>665.0</ele><time>2026-03-29T09:08:31.25Z</time></trkpt><trkpt lat="39.9654267" lon="9.5095612"><ele>665.0</ele><time>2026-03-29T09:08:32.25Z</time></trkpt><trkpt lat="39.9653943" lon="9.5096926"><ele>665.0</ele><time>2026-03-29T09:08:33.25Z</time></trkpt><trkpt lat="39.9653294" lon="9.509805"><ele>662.25</ele><time>2026-03-29T09:08:34.25Z</time></trkpt><trkpt lat="39.9652389" lon="9.5098921"><ele>659.5</ele><time>2026-03-29T09:08:35.249Z</time></trkpt><trkpt lat="39.9651333" lon="9.5099722"><ele>656.75</ele><time>2026-03-29T09:08:36.249Z</time></trkpt><trkpt lat="39.9650333" lon="9.5100449"><ele>654.0</ele><time>2026-03-29T09:08:37.249Z</time></trkpt><trkpt lat="39.9649284" lon="9.5101114"><ele>654.0</ele><time>2026-03-29T09:08:38.249Z</time></trkpt><trkpt lat="39.9648252" lon="9.5101735"><ele>654.0</ele><time>2026-03-29T09:08:39.249Z</time></trkpt><trkpt lat="39.9647216" lon="9.5102391"><ele>654.0</ele><time>2026-03-29T09:08:40.249Z</time></trkpt><trkpt lat="39.9646209" lon="9.5103067"><ele>654.0</ele><time>2026-03-29T09:08:41.249Z</time></trkpt><trkpt lat="39.9645106" lon="9.5103922"><ele>655.25</ele><time>2026-03-29T09:08:42.249Z</time></trkpt><trkpt lat="39.964405" lon="9.5104678"><ele>656.5</ele><time>2026-03-29T09:08:43.249Z</time></trkpt><trkpt lat="39.96431" lon="9.5105386"><ele>657.75</ele><time>2026-03-29T09:08:44.249Z</time></trkpt><trkpt lat="39.9642094" lon="9.5106179"><ele>659.0</ele><time>2026-03-29T09:08:45.249Z</time></trkpt><trkpt lat="39.9641046" lon="9.5106976"><ele>659.0</ele><time>2026-03-29T09:08:46.25Z</time></trkpt><trkpt lat="39.9640347" lon="9.5108542"><ele>659.0</ele><time>2026-03-29T09:08:47.25Z</time></trkpt><trkpt lat="39.9639642" lon="9.5109802"><ele>659.0</ele><time>2026-03-29T09:08:48.249Z</time></trkpt><trkpt lat="39.9639003" lon="9.5111137"><ele>659.0</ele><time>2026-03-29T09:08:49.249Z</time></trkpt><trkpt lat="39.9638397" lon="9.5112737"><ele>662.75</ele><time>2026-03-29T09:08:50.249Z</time></trkpt><trkpt lat="39.9637907" lon="9.5114567"><ele>666.5</ele><time>2026-03-29T09:08:51.249Z</time></trkpt><trkpt lat="39.96375" lon="9.5116338"><ele>670.25</ele><time>2026-03-29T09:08:52.249Z</time></trkpt><trkpt lat="39.963702" lon="9.5118153"><ele>674.0</ele><time>2026-03-29T09:08:53.249Z</time></trkpt><trkpt lat="39.9636595" lon="9.5120044"><ele>676.75</ele><time>2026-03-29T09:08:54.249Z</time></trkpt><trkpt lat="39.9636157" lon="9.5121943"><ele>679.5</ele><time>2026-03-29T09:08:55.249Z</time></trkpt><trkpt lat="39.9635767" lon="9.5123791"><ele>682.25</ele><time>2026-03-29T09:08:56.249Z</time></trkpt><trkpt lat="39.9635454" lon="9.5125549"><ele>685.0</ele><time>2026-03-29T09:08:57.249Z</time></trkpt><trkpt lat="39.9635225" lon="9.5127279"><ele>684.25</ele><time>2026-03-29T09:08:58.249Z</time></trkpt><trkpt lat="39.963525" lon="9.5129172"><ele>683.5</ele><time>2026-03-29T09:08:59.249Z</time></trkpt><trkpt lat="39.9635618" lon="9.5131117"><ele>682.75</ele><time>2026-03-29T09:09:00.249Z</time></trkpt><trkpt lat="39.9636083" lon="9.5132959"><ele>682.0</ele><time>2026-03-29T09:09:01.249Z</time></trkpt><trkpt lat="39.9636573" lon="9.5134696"><ele>682.0</ele><time>2026-03-29T09:09:02.249Z</time></trkpt><trkpt lat="39.9637156" lon="9.5136421"><ele>682.0</ele><time>2026-03-29T09:09:03.249Z</time></trkpt><trkpt lat="39.9637575" lon="9.5138046"><ele>682.0</ele><time>2026-03-29T09:09:04.249Z</time></trkpt><trkpt lat="39.9637977" lon="9.5139618"><ele>682.0</ele><time>2026-03-29T09:09:05.249Z</time></trkpt><trkpt lat="39.9638302" lon="9.5141067"><ele>680.0</ele><time>2026-03-29T09:09:06.249Z</time></trkpt><trkpt lat="39.9638641" lon="9.5142347"><ele>678.0</ele><time>2026-03-29T09:09:07.249Z</time></trkpt><trkpt lat="39.9638819" lon="9.5143593"><ele>676.0</ele><time>2026-03-29T09:09:08.249Z</time></trkpt><trkpt lat="39.9639071" lon="9.514476"><ele>674.0</ele><time>2026-03-29T09:09:09.249Z</time></trkpt><trkpt lat="39.9639449" lon="9.5145784"><ele>672.0</ele><time>2026-03-29T09:09:10.249Z</time></trkpt><trkpt lat="39.9639848" lon="9.5146542"><ele>670.3333333333334</ele><time>2026-03-29T09:09:11.249Z</time></trkpt><trkpt lat="39.9640361" lon="9.5147125"><ele>668.6666666666666</ele><time>2026-03-29T09:09:12.249Z</time></trkpt><trkpt lat="39.9641473" lon="9.5147872"><ele>667.0</ele><time>2026-03-29T09:09:14.249Z</time></trkpt><trkpt lat="39.9642073" lon="9.5148159"><ele>665.3333333333333</ele><time>2026-03-29T09:09:15.249Z</time></trkpt><trkpt lat="39.9642712" lon="9.5148188"><ele>663.6666666666666</ele><time>2026-03-29T09:09:16.249Z</time></trkpt><trkpt lat="39.9643323" lon="9.5147879"><ele>662.0</ele><time>2026-03-29T09:09:17.249Z</time></trkpt><trkpt lat="39.9643962" lon="9.5147632"><ele>661.0</ele><time>2026-03-29T09:09:18.25Z</time></trkpt><trkpt lat="39.9645107" lon="9.5147394"><ele>660.0</ele><time>2026-03-29T09:09:20.249Z</time></trkpt><trkpt lat="39.9646184" lon="9.5146995"><ele>659.0</ele><time>2026-03-29T09:09:22.249Z</time></trkpt><trkpt lat="39.9647337" lon="9.5146533"><ele>658.0</ele><time>2026-03-29T09:09:24.249Z</time></trkpt><trkpt lat="39.9648442" lon="9.5146216"><ele>658.0</ele><time>2026-03-29T09:09:26.249Z</time></trkpt><trkpt lat="39.9649598" lon="9.5145977"><ele>658.0</ele><time>2026-03-29T09:09:28.249Z</time></trkpt><trkpt lat="39.965065" lon="9.5145866"><ele>658.0</ele><time>2026-03-29T09:09:30.25Z</time></trkpt><trkpt lat="39.9651845" lon="9.5146033"><ele>658.0</ele><time>2026-03-29T09:09:32.249Z</time></trkpt><trkpt lat="39.9652487" lon="9.5146151"><ele>658.0</ele><time>2026-03-29T09:09:33.249Z</time></trkpt><trkpt lat="39.9653527" lon="9.5146813"><ele>659.2</ele><time>2026-03-29T09:09:35.25Z</time></trkpt><trkpt lat="39.9654167" lon="9.514784"><ele>660.4</ele><time>2026-03-29T09:09:37.249Z</time></trkpt><trkpt lat="39.9654668" lon="9.5149266"><ele>661.6</ele><time>2026-03-29T09:09:39.25Z</time></trkpt><trkpt lat="39.9655062" lon="9.5150654"><ele>662.8000000000001</ele><time>2026-03-29T09:09:41.249Z</time></trkpt><trkpt lat="39.9655444" lon="9.5151845"><ele>664.0</ele><time>2026-03-29T09:09:43.249Z</time></trkpt><trkpt lat="39.9655753" lon="9.5152579"><ele>664.0</ele><time>2026-03-29T09:09:45.25Z</time></trkpt><trkpt lat="39.9656126" lon="9.5153373"><ele>664.0</ele><time>2026-03-29T09:12:07.249Z</time></trkpt><trkpt lat="39.9657096" lon="9.515395"><ele>664.0</ele><time>2026-03-29T09:12:09.249Z</time></trkpt><trkpt lat="39.965781" lon="9.5154115"><ele>664.0</ele><time>2026-03-29T09:12:10.249Z</time></trkpt><trkpt lat="39.9658634" lon="9.5154179"><ele>664.0</ele><time>2026-03-29T09:12:11.25Z</time></trkpt><trkpt lat="39.965943" lon="9.5154154"><ele>664.0</ele><time>2026-03-29T09:12:12.25Z</time></trkpt><trkpt lat="39.9660471" lon="9.5153985"><ele>664.8000000000001</ele><time>2026-03-29T09:12:13.249Z</time></trkpt><trkpt lat="39.9661454" lon="9.5153837"><ele>665.6</ele><time>2026-03-29T09:12:14.249Z</time></trkpt><trkpt lat="39.9662497" lon="9.5153633"><ele>666.4</ele><time>2026-03-29T09:12:15.25Z</time></trkpt><trkpt lat="39.9663563" lon="9.5153605"><ele>667.2</ele><time>2026-03-29T09:12:16.249Z</time></trkpt><trkpt lat="39.9664568" lon="9.5153508"><ele>668.0</ele><time>2026-03-29T09:12:17.249Z</time></trkpt><trkpt lat="39.966566" lon="9.5153406"><ele>668.0</ele><time>2026-03-29T09:12:18.249Z</time></trkpt><trkpt lat="39.9666548" lon="9.5153262"><ele>668.0</ele><time>2026-03-29T09:12:19.249Z</time></trkpt><trkpt lat="39.9667522" lon="9.5153307"><ele>668.0</ele><time>2026-03-29T09:12:20.249Z</time></trkpt><trkpt lat="39.9668541" lon="9.515326"><ele>668.0</ele><time>2026-03-29T09:12:21.249Z</time></trkpt><trkpt lat="39.9669538" lon="9.5153252"><ele>668.0</ele><time>2026-03-29T09:12:22.249Z</time></trkpt><trkpt lat="39.9670432" lon="9.515347"><ele>666.5999999999999</ele><time>2026-03-29T09:12:23.249Z</time></trkpt><trkpt lat="39.9671241" lon="9.5153915"><ele>665.1999999999999</ele><time>2026-03-29T09:12:24.249Z</time></trkpt><trkpt lat="39.9671915" lon="9.5154719"><ele>663.8</ele><time>2026-03-29T09:12:25.249Z</time></trkpt><trkpt lat="39.96724" lon="9.5155753"><ele>662.4</ele><time>2026-03-29T09:12:26.249Z</time></trkpt><trkpt lat="39.9672716" lon="9.5157111"><ele>661.0</ele><time>2026-03-29T09:12:27.249Z</time></trkpt><trkpt lat="39.9673034" lon="9.5158689"><ele>661.0</ele><time>2026-03-29T09:12:28.249Z</time></trkpt><trkpt lat="39.9673266" lon="9.5160427"><ele>661.0</ele><time>2026-03-29T09:12:29.249Z</time></trkpt><trkpt lat="39.9673592" lon="9.516224"><ele>661.0</ele><time>2026-03-29T09:12:30.25Z</time></trkpt><trkpt lat="39.9673995" lon="9.5163878"><ele>661.0</ele><time>2026-03-29T09:12:31.25Z</time></trkpt><trkpt lat="39.9674461" lon="9.5165338"><ele>654.75</ele><time>2026-03-29T09:12:32.249Z</time></trkpt><trkpt lat="39.9675281" lon="9.5166497"><ele>648.5</ele><time>2026-03-29T09:12:33.249Z</time></trkpt><trkpt lat="39.967619" lon="9.5167443"><ele>642.25</ele><time>2026-03-29T09:12:34.249Z</time></trkpt><trkpt lat="39.9677114" lon="9.5168151"><ele>636.0</ele><time>2026-03-29T09:12:35.249Z</time></trkpt><trkpt lat="39.9678217" lon="9.5167316"><ele>636.0</ele><time>2026-03-29T09:12:36.249Z</time></trkpt><trkpt lat="39.9679244" lon="9.5166661"><ele>636.0</ele><time>2026-03-29T09:12:37.25Z</time></trkpt><trkpt lat="39.9680197" lon="9.516584"><ele>636.0</ele><time>2026-03-29T09:12:38.249Z</time></trkpt><trkpt lat="39.9681311" lon="9.5165006"><ele>636.0</ele><time>2026-03-29T09:12:39.249Z</time></trkpt><trkpt lat="39.9682312" lon="9.5164329"><ele>636.0</ele><time>2026-03-29T09:12:40.249Z</time></trkpt><trkpt lat="39.9683326" lon="9.5163728"><ele>636.0</ele><time>2026-03-29T09:12:41.25Z</time></trkpt><trkpt lat="39.9684232" lon="9.5164146"><ele>636.0</ele><time>2026-03-29T09:12:42.249Z</time></trkpt><trkpt lat="39.9685116" lon="9.5164674"><ele>636.0</ele><time>2026-03-29T09:12:43.249Z</time></trkpt><trkpt lat="39.9685902" lon="9.5165511"><ele>636.0</ele><time>2026-03-29T09:12:44.249Z</time></trkpt><trkpt lat="39.9686647" lon="9.5166511"><ele>641.0</ele><time>2026-03-29T09:12:45.249Z</time></trkpt><trkpt lat="39.968722" lon="9.5167616"><ele>646.0</ele><time>2026-03-29T09:12:46.249Z</time></trkpt><trkpt lat="39.9687503" lon="9.5168902"><ele>651.0</ele><time>2026-03-29T09:12:47.249Z</time></trkpt><trkpt lat="39.9687512" lon="9.5170347"><ele>656.0</ele><time>2026-03-29T09:12:48.249Z</time></trkpt><trkpt lat="39.9687305" lon="9.5171824"><ele>661.0</ele><time>2026-03-29T09:12:49.249Z</time></trkpt><trkpt lat="39.9686989" lon="9.5173512"><ele>667.25</ele><time>2026-03-29T09:12:50.249Z</time></trkpt><trkpt lat="39.9686698" lon="9.5175311"><ele>673.5</ele><time>2026-03-29T09:12:51.249Z</time></trkpt><trkpt lat="39.9686403" lon="9.5177045"><ele>679.75</ele><time>2026-03-29T09:12:52.249Z</time></trkpt><trkpt lat="39.9686353" lon="9.5178897"><ele>686.0</ele><time>2026-03-29T09:12:53.249Z</time></trkpt><trkpt lat="39.9686209" lon="9.51807"><ele>688.75</ele><time>2026-03-29T09:12:54.25Z</time></trkpt><trkpt lat="39.9685957" lon="9.5182329"><ele>691.5</ele><time>2026-03-29T09:12:55.249Z</time></trkpt><trkpt lat="39.9685418" lon="9.5183803"><ele>694.25</ele><time>2026-03-29T09:12:56.25Z</time></trkpt><trkpt lat="39.9684642" lon="9.5185199"><ele>697.0</ele><time>2026-03-29T09:12:57.249Z</time></trkpt><trkpt lat="39.9683737" lon="9.5186536"><ele>684.3333333333334</ele><time>2026-03-29T09:12:58.249Z</time></trkpt><trkpt lat="39.9682906" lon="9.5188209"><ele>671.6666666666666</ele><time>2026-03-29T09:12:59.249Z</time></trkpt><trkpt lat="39.9682158" lon="9.5190089"><ele>659.0</ele><time>2026-03-29T09:13:00.25Z</time></trkpt><trkpt lat="39.9681572" lon="9.5191951"><ele>659.0</ele><time>2026-03-29T09:13:01.249Z</time></trkpt><trkpt lat="39.9680982" lon="9.5193791"><ele>659.0</ele><time>2026-03-29T09:13:02.249Z</time></trkpt><trkpt lat="39.9680448" lon="9.5195651"><ele>659.0</ele><time>2026-03-29T09:13:03.249Z</time></trkpt><trkpt lat="39.9680112" lon="9.5197754"><ele>665.3333333333333</ele><time>2026-03-29T09:13:04.249Z</time></trkpt><trkpt lat="39.9679918" lon="9.5199847"><ele>671.6666666666666</ele><time>2026-03-29T09:13:05.249Z</time></trkpt><trkpt lat="39.9679803" lon="9.5201867"><ele>678.0</ele><time>2026-03-29T09:13:06.249Z</time></trkpt><trkpt lat="39.9680228" lon="9.5204008"><ele>678.5</ele><time>2026-03-29T09:13:07.249Z</time></trkpt><trkpt lat="39.9680255" lon="9.5205897"><ele>679.0</ele><time>2026-03-29T09:13:08.249Z</time></trkpt><trkpt lat="39.9680011" lon="9.5207692"><ele>679.5</ele><time>2026-03-29T09:13:09.249Z</time></trkpt><trkpt lat="39.9679519" lon="9.5209614"><ele>680.0</ele><time>2026-03-29T09:13:10.249Z</time></trkpt><trkpt lat="39.9678968" lon="9.5211721"><ele>679.6666666666666</ele><time>2026-03-29T09:13:11.249Z</time></trkpt><trkpt lat="39.9678515" lon="9.5213815"><ele>679.3333333333334</ele><time>2026-03-29T09:13:12.249Z</time></trkpt><trkpt lat="39.967805" lon="9.5215987"><ele>679.0</ele><time>2026-03-29T09:13:13.249Z</time></trkpt><trkpt lat="39.967758" lon="9.5218252"><ele>679.0</ele><time>2026-03-29T09:13:14.25Z</time></trkpt><trkpt lat="39.9676901" lon="9.5220512"><ele>679.0</ele><time>2026-03-29T09:13:15.25Z</time></trkpt><trkpt lat="39.9676153" lon="9.5222705"><ele>679.0</ele><time>2026-03-29T09:13:16.249Z</time></trkpt><trkpt lat="39.9675384" lon="9.5224734"><ele>675.0</ele><time>2026-03-29T09:13:17.249Z</time></trkpt><trkpt lat="39.9674889" lon="9.5226717"><ele>671.0</ele><time>2026-03-29T09:13:18.249Z</time></trkpt><trkpt lat="39.9674707" lon="9.5228502"><ele>667.0</ele><time>2026-03-29T09:13:19.249Z</time></trkpt><trkpt lat="39.9674862" lon="9.5230136"><ele>663.0</ele><time>2026-03-29T09:13:20.25Z</time></trkpt><trkpt lat="39.9675465" lon="9.5231586"><ele>663.0</ele><time>2026-03-29T09:13:21.249Z</time></trkpt><trkpt lat="39.9676144" lon="9.5232831"><ele>663.0</ele><time>2026-03-29T09:13:22.25Z</time></trkpt><trkpt lat="39.9677492" lon="9.5233349"><ele>663.0</ele><time>2026-03-29T09:13:23.249Z</time></trkpt><trkpt lat="39.967881" lon="9.5233745"><ele>663.0</ele><time>2026-03-29T09:13:24.249Z</time></trkpt><trkpt lat="39.9680186" lon="9.5233936"><ele>663.0</ele><time>2026-03-29T09:13:25.249Z</time></trkpt><trkpt lat="39.9681825" lon="9.5234266"><ele>663.0</ele><time>2026-03-29T09:13:26.249Z</time></trkpt><trkpt lat="39.9683413" lon="9.5234706"><ele>663.0</ele><time>2026-03-29T09:13:27.249Z</time></trkpt><trkpt lat="39.9684893" lon="9.5235434"><ele>662.3333333333334</ele><time>2026-03-29T09:13:28.249Z</time></trkpt><trkpt lat="39.9686407" lon="9.5236501"><ele>661.6666666666667</ele><time>2026-03-29T09:13:29.249Z</time></trkpt><trkpt lat="39.9687785" lon="9.5237742"><ele>661.0</ele><time>2026-03-29T09:13:30.249Z</time></trkpt><trkpt lat="39.9689194" lon="9.5239085"><ele>661.0</ele><time>2026-03-29T09:13:31.249Z</time></trkpt><trkpt lat="39.9690667" lon="9.5240514"><ele>661.0</ele><time>2026-03-29T09:13:32.249Z</time></trkpt><trkpt lat="39.9691982" lon="9.5242031"><ele>661.0</ele><time>2026-03-29T09:13:33.25Z</time></trkpt><trkpt lat="39.9693397" lon="9.5243432"><ele>665.6666666666667</ele><time>2026-03-29T09:13:34.249Z</time></trkpt><trkpt lat="39.9694888" lon="9.5244545"><ele>670.3333333333334</ele><time>2026-03-29T09:13:35.25Z</time></trkpt><trkpt lat="39.9696254" lon="9.5245414"><ele>675.0</ele><time>2026-03-29T09:13:36.25Z</time></trkpt><trkpt lat="39.9697748" lon="9.5245721"><ele>675.0</ele><time>2026-03-29T09:13:37.25Z</time></trkpt><trkpt lat="39.9699389" lon="9.5245301"><ele>675.0</ele><time>2026-03-29T09:13:38.249Z</time></trkpt><trkpt lat="39.9700965" lon="9.5245074"><ele>675.0</ele><time>2026-03-29T09:13:39.249Z</time></trkpt><trkpt lat="39.970278" lon="9.5244306"><ele>674.3333333333334</ele><time>2026-03-29T09:13:40.249Z</time></trkpt><trkpt lat="39.9704271" lon="9.5243294"><ele>673.6666666666667</ele><time>2026-03-29T09:13:41.249Z</time></trkpt><trkpt lat="39.9705857" lon="9.5242588"><ele>673.0</ele><time>2026-03-29T09:13:42.249Z</time></trkpt><trkpt lat="39.9707168" lon="9.5241918"><ele>675.75</ele><time>2026-03-29T09:13:43.249Z</time></trkpt><trkpt lat="39.9708761" lon="9.5241622"><ele>678.5</ele><time>2026-03-29T09:13:44.249Z</time></trkpt><trkpt lat="39.9710325" lon="9.5241673"><ele>681.25</ele><time>2026-03-29T09:13:45.249Z</time></trkpt><trkpt lat="39.9711486" lon="9.5241957"><ele>684.0</ele><time>2026-03-29T09:13:46.25Z</time></trkpt><trkpt lat="39.9712323" lon="9.5242348"><ele>684.0</ele><time>2026-03-29T09:13:47.249Z</time></trkpt><trkpt lat="39.9713315" lon="9.5242823"><ele>684.0</ele><time>2026-03-29T09:13:48.25Z</time></trkpt><trkpt lat="39.9714189" lon="9.5243231"><ele>684.0</ele><time>2026-03-29T09:13:49.249Z</time></trkpt><trkpt lat="39.9714939" lon="9.5243644"><ele>684.0</ele><time>2026-03-29T09:13:50.25Z</time></trkpt><trkpt lat="39.9715747" lon="9.524417"><ele>684.0</ele><time>2026-03-29T09:13:51.249Z</time></trkpt><trkpt lat="39.9716213" lon="9.5244827"><ele>684.0</ele><time>2026-03-29T09:13:52.249Z</time></trkpt><trkpt lat="39.9716972" lon="9.524555"><ele>679.2</ele><time>2026-03-29T09:13:53.249Z</time></trkpt><trkpt lat="39.9717678" lon="9.5246249"><ele>674.4000000000001</ele><time>2026-03-29T09:13:54.249Z</time></trkpt><trkpt lat="39.9718537" lon="9.5247117"><ele>669.6</ele><time>2026-03-29T09:13:55.249Z</time></trkpt><trkpt lat="39.9719019" lon="9.5248088"><ele>664.8</ele><time>2026-03-29T09:13:56.249Z</time></trkpt><trkpt lat="39.9719469" lon="9.5249258"><ele>660.0</ele><time>2026-03-29T09:13:57.249Z</time></trkpt><trkpt lat="39.9719888" lon="9.5250491"><ele>660.0</ele><time>2026-03-29T09:13:58.249Z</time></trkpt><trkpt lat="39.9720212" lon="9.5251707"><ele>660.0</ele><time>2026-03-29T09:13:59.25Z</time></trkpt><trkpt lat="39.97209" lon="9.5252604"><ele>660.0</ele><time>2026-03-29T09:14:00.249Z</time></trkpt><trkpt lat="39.9721419" lon="9.5253423"><ele>660.0</ele><time>2026-03-29T09:14:01.249Z</time></trkpt><trkpt lat="39.972216" lon="9.5253253"><ele>660.0</ele><time>2026-03-29T09:14:02.249Z</time></trkpt><trkpt lat="39.9722863" lon="9.5253199"><ele>660.0</ele><time>2026-03-29T09:14:03.249Z</time></trkpt><trkpt lat="39.9723684" lon="9.5252762"><ele>660.0</ele><time>2026-03-29T09:14:04.249Z</time></trkpt><trkpt lat="39.972485" lon="9.5252215"><ele>660.0</ele><time>2026-03-29T09:14:05.25Z</time></trkpt><trkpt lat="39.972583" lon="9.5251649"><ele>660.0</ele><time>2026-03-29T09:14:06.249Z</time></trkpt><trkpt lat="39.9726886" lon="9.5251004"><ele>660.0</ele><time>2026-03-29T09:14:07.25Z</time></trkpt><trkpt lat="39.9727961" lon="9.5250322"><ele>657.6</ele><time>2026-03-29T09:14:08.249Z</time></trkpt><trkpt lat="39.9729151" lon="9.5249685"><ele>655.2</ele><time>2026-03-29T09:14:09.25Z</time></trkpt><trkpt lat="39.9729964" lon="9.5249075"><ele>652.8</ele><time>2026-03-29T09:14:10.249Z</time></trkpt><trkpt lat="39.9730921" lon="9.5248751"><ele>650.4</ele><time>2026-03-29T09:14:11.25Z</time></trkpt><trkpt lat="39.9731828" lon="9.5248697"><ele>648.0</ele><time>2026-03-29T09:14:12.249Z</time></trkpt><trkpt lat="39.9732644" lon="9.524906"><ele>648.0</ele><time>2026-03-29T09:14:13.249Z</time></trkpt><trkpt lat="39.9733537" lon="9.524953"><ele>648.0</ele><time>2026-03-29T09:14:14.249Z</time></trkpt><trkpt lat="39.9734519" lon="9.5250125"><ele>648.0</ele><time>2026-03-29T09:14:15.249Z</time></trkpt><trkpt lat="39.9735403" lon="9.5250681"><ele>648.0</ele><time>2026-03-29T09:14:16.249Z</time></trkpt><trkpt lat="39.9736528" lon="9.5251187"><ele>648.0</ele><time>2026-03-29T09:14:17.249Z</time></trkpt><trkpt lat="39.9737604" lon="9.5251457"><ele>648.5999999999999</ele><time>2026-03-29T09:14:18.249Z</time></trkpt><trkpt lat="39.9738592" lon="9.5251642"><ele>649.1999999999999</ele><time>2026-03-29T09:14:19.249Z</time></trkpt><trkpt lat="39.9739679" lon="9.525187"><ele>649.8</ele><time>2026-03-29T09:14:20.249Z</time></trkpt><trkpt lat="39.9740534" lon="9.5252311"><ele>650.4</ele><time>2026-03-29T09:14:21.249Z</time></trkpt><trkpt lat="39.974127" lon="9.5253027"><ele>651.0</ele><time>2026-03-29T09:14:22.249Z</time></trkpt><trkpt lat="39.9742073" lon="9.5253904"><ele>652.1999999999999</ele><time>2026-03-29T09:14:23.249Z</time></trkpt><trkpt lat="39.9743134" lon="9.5254745"><ele>653.4</ele><time>2026-03-29T09:14:24.25Z</time></trkpt><trkpt lat="39.9743826" lon="9.5255599"><ele>654.6</ele><time>2026-03-29T09:14:25.249Z</time></trkpt><trkpt lat="39.9744636" lon="9.5256533"><ele>655.8</ele><time>2026-03-29T09:14:26.249Z</time></trkpt><trkpt lat="39.9744857" lon="9.525731"><ele>657.0</ele><time>2026-03-29T09:14:27.249Z</time></trkpt><trkpt lat="39.9745096" lon="9.5258142"><ele>657.0</ele><time>2026-03-29T09:14:28.249Z</time></trkpt><trkpt lat="39.9744911" lon="9.525895"><ele>657.0</ele><time>2026-03-29T09:14:29.249Z</time></trkpt><trkpt lat="39.9744373" lon="9.5259508"><ele>657.0</ele><time>2026-03-29T09:14:30.25Z</time></trkpt><trkpt lat="39.9743834" lon="9.5260189"><ele>657.0</ele><time>2026-03-29T09:14:31.249Z</time></trkpt><trkpt lat="39.9743138" lon="9.5260942"><ele>657.0</ele><time>2026-03-29T09:14:32.249Z</time></trkpt><trkpt lat="39.9742182" lon="9.5262352"><ele>657.0</ele><time>2026-03-29T09:14:33.249Z</time></trkpt><trkpt lat="39.9741233" lon="9.5263536"><ele>651.75</ele><time>2026-03-29T09:14:34.249Z</time></trkpt><trkpt lat="39.974033" lon="9.5264823"><ele>646.5</ele><time>2026-03-29T09:14:35.249Z</time></trkpt><trkpt lat="39.9739531" lon="9.5265988"><ele>641.25</ele><time>2026-03-29T09:14:36.25Z</time></trkpt><trkpt lat="39.9738743" lon="9.5267291"><ele>636.0</ele><time>2026-03-29T09:14:37.249Z</time></trkpt><trkpt lat="39.9738059" lon="9.5268555"><ele>636.0</ele><time>2026-03-29T09:14:38.249Z</time></trkpt><trkpt lat="39.9737415" lon="9.5269942"><ele>636.0</ele><time>2026-03-29T09:14:39.249Z</time></trkpt><trkpt lat="39.9736788" lon="9.5271145"><ele>636.0</ele><time>2026-03-29T09:14:40.249Z</time></trkpt><trkpt lat="39.9736101" lon="9.527253"><ele>636.0</ele><time>2026-03-29T09:14:41.249Z</time></trkpt><trkpt lat="39.973542" lon="9.5273954"><ele>640.0</ele><time>2026-03-29T09:14:42.249Z</time></trkpt><trkpt lat="39.9734784" lon="9.5275462"><ele>644.0</ele><time>2026-03-29T09:14:43.249Z</time></trkpt><trkpt lat="39.973418" lon="9.5276941"><ele>648.0</ele><time>2026-03-29T09:14:44.249Z</time></trkpt><trkpt lat="39.9733637" lon="9.5278739"><ele>652.0</ele><time>2026-03-29T09:14:45.249Z</time></trkpt><trkpt lat="39.9733333" lon="9.5280419"><ele>643.75</ele><time>2026-03-29T09:14:46.25Z</time></trkpt><trkpt lat="39.9733168" lon="9.5282114"><ele>635.5</ele><time>2026-03-29T09:14:47.249Z</time></trkpt><trkpt lat="39.9733045" lon="9.5283756"><ele>627.25</ele><time>2026-03-29T09:14:48.249Z</time></trkpt><trkpt lat="39.9732862" lon="9.5285498"><ele>619.0</ele><time>2026-03-29T09:14:49.249Z</time></trkpt><trkpt lat="39.9732566" lon="9.5287292"><ele>619.0</ele><time>2026-03-29T09:14:50.249Z</time></trkpt><trkpt lat="39.9732196" lon="9.528904"><ele>619.0</ele><time>2026-03-29T09:14:51.249Z</time></trkpt><trkpt lat="39.9731806" lon="9.5290916"><ele>619.0</ele><time>2026-03-29T09:14:52.249Z</time></trkpt><trkpt lat="39.9731466" lon="9.5292645"><ele>619.0</ele><time>2026-03-29T09:14:53.249Z</time></trkpt><trkpt lat="39.9731172" lon="9.5294165"><ele>619.0</ele><time>2026-03-29T09:14:54.249Z</time></trkpt><trkpt lat="39.9731058" lon="9.5295405"><ele>619.0</ele><time>2026-03-29T09:14:55.25Z</time></trkpt><trkpt lat="39.9731014" lon="9.5296698"><ele>619.0</ele><time>2026-03-29T09:14:56.249Z</time></trkpt><trkpt lat="39.9731188" lon="9.5297777"><ele>619.0</ele><time>2026-03-29T09:14:57.249Z</time></trkpt><trkpt lat="39.9731407" lon="9.5298948"><ele>619.0</ele><time>2026-03-29T09:14:58.249Z</time></trkpt><trkpt lat="39.9731626" lon="9.5299995"><ele>617.3333333333334</ele><time>2026-03-29T09:14:59.249Z</time></trkpt><trkpt lat="39.9731273" lon="9.5300823"><ele>615.6666666666667</ele><time>2026-03-29T09:15:00.249Z</time></trkpt><trkpt lat="39.973091" lon="9.530172"><ele>614.0</ele><time>2026-03-29T09:15:01.249Z</time></trkpt><trkpt lat="39.9730394" lon="9.5302709"><ele>612.3333333333334</ele><time>2026-03-29T09:15:02.25Z</time></trkpt><trkpt lat="39.9729853" lon="9.5303796"><ele>610.6666666666666</ele><time>2026-03-29T09:15:03.249Z</time></trkpt><trkpt lat="39.9729333" lon="9.5305032"><ele>609.0</ele><time>2026-03-29T09:15:04.25Z</time></trkpt><trkpt lat="39.9728784" lon="9.5306256"><ele>603.0</ele><time>2026-03-29T09:15:05.249Z</time></trkpt><trkpt lat="39.9728113" lon="9.5307435"><ele>597.0</ele><time>2026-03-29T09:15:06.25Z</time></trkpt><trkpt lat="39.9727502" lon="9.5308617"><ele>591.0</ele><time>2026-03-29T09:15:07.25Z</time></trkpt><trkpt lat="39.9726772" lon="9.5309859"><ele>585.0</ele><time>2026-03-29T09:15:08.249Z</time></trkpt><trkpt lat="39.9726174" lon="9.5311107"><ele>584.4</ele><time>2026-03-29T09:15:09.249Z</time></trkpt><trkpt lat="39.9725668" lon="9.5312284"><ele>583.8</ele><time>2026-03-29T09:15:10.249Z</time></trkpt><trkpt lat="39.9725101" lon="9.5313534"><ele>583.2</ele><time>2026-03-29T09:15:11.249Z</time></trkpt><trkpt lat="39.972441" lon="9.5314736"><ele>582.6</ele><time>2026-03-29T09:15:12.249Z</time></trkpt><trkpt lat="39.9723797" lon="9.5315705"><ele>582.0</ele><time>2026-03-29T09:15:13.25Z</time></trkpt><trkpt lat="39.9722956" lon="9.5316527"><ele>582.0</ele><time>2026-03-29T09:15:14.249Z</time></trkpt><trkpt lat="39.9722111" lon="9.5317355"><ele>582.0</ele><time>2026-03-29T09:15:15.249Z</time></trkpt><trkpt lat="39.97212" lon="9.5318059"><ele>582.0</ele><time>2026-03-29T09:15:16.249Z</time></trkpt><trkpt lat="39.9720257" lon="9.5318777"><ele>582.0</ele><time>2026-03-29T09:15:17.249Z</time></trkpt><trkpt lat="39.971946" lon="9.5319263"><ele>582.0</ele><time>2026-03-29T09:15:18.249Z</time></trkpt><trkpt lat="39.9718845" lon="9.5320015"><ele>578.0</ele><time>2026-03-29T09:15:19.249Z</time></trkpt><trkpt lat="39.9718506" lon="9.532091"><ele>574.0</ele><time>2026-03-29T09:15:20.249Z</time></trkpt><trkpt lat="39.9718366" lon="9.5321974"><ele>570.0</ele><time>2026-03-29T09:15:21.249Z</time></trkpt><trkpt lat="39.9718304" lon="9.5323213"><ele>566.0</ele><time>2026-03-29T09:15:22.249Z</time></trkpt><trkpt lat="39.9718139" lon="9.5324363"><ele>562.0</ele><time>2026-03-29T09:15:23.249Z</time></trkpt><trkpt lat="39.9717846" lon="9.5325466"><ele>558.0</ele><time>2026-03-29T09:15:24.249Z</time></trkpt><trkpt lat="39.9717408" lon="9.532647"><ele>558.0</ele><time>2026-03-29T09:15:25.25Z</time></trkpt><trkpt lat="39.9716873" lon="9.5327395"><ele>558.0</ele><time>2026-03-29T09:15:26.249Z</time></trkpt><trkpt lat="39.9716473" lon="9.5328092"><ele>558.0</ele><time>2026-03-29T09:15:27.249Z</time></trkpt><trkpt lat="39.9716351" lon="9.5329103"><ele>558.0</ele><time>2026-03-29T09:15:29.249Z</time></trkpt><trkpt lat="39.9716985" lon="9.5329376"><ele>558.0</ele><time>2026-03-29T09:15:31.249Z</time></trkpt><trkpt lat="39.9718382" lon="9.5328663"><ele>558.0</ele><time>2026-03-29T09:15:33.249Z</time></trkpt><trkpt lat="39.9719432" lon="9.5328426"><ele>558.0</ele><time>2026-03-29T09:15:34.249Z</time></trkpt><trkpt lat="39.9720434" lon="9.532793"><ele>558.0</ele><time>2026-03-29T09:15:35.249Z</time></trkpt><trkpt lat="39.9721298" lon="9.5327132"><ele>558.0</ele><time>2026-03-29T09:15:36.249Z</time></trkpt><trkpt lat="39.9722027" lon="9.5326443"><ele>558.0</ele><time>2026-03-29T09:15:37.249Z</time></trkpt><trkpt lat="39.9722375" lon="9.5325376"><ele>558.0</ele><time>2026-03-29T09:15:38.249Z</time></trkpt><trkpt lat="39.972284" lon="9.5324493"><ele>558.0</ele><time>2026-03-29T09:15:39.249Z</time></trkpt><trkpt lat="39.9723648" lon="9.532434"><ele>558.0</ele><time>2026-03-29T09:15:40.249Z</time></trkpt><trkpt lat="39.9724338" lon="9.5324065"><ele>558.0</ele><time>2026-03-29T09:15:41.249Z</time></trkpt><trkpt lat="39.9725291" lon="9.5324232"><ele>558.0</ele><time>2026-03-29T09:15:42.249Z</time></trkpt><trkpt lat="39.972625" lon="9.5324209"><ele>558.0</ele><time>2026-03-29T09:15:43.249Z</time></trkpt><trkpt lat="39.9727514" lon="9.532415"><ele>553.8</ele><time>2026-03-29T09:15:44.249Z</time></trkpt><trkpt lat="39.9728776" lon="9.5324112"><ele>549.5999999999999</ele><time>2026-03-29T09:15:45.249Z</time></trkpt><trkpt lat="39.9729797" lon="9.532413"><ele>545.4000000000001</ele><time>2026-03-29T09:15:46.249Z</time></trkpt><trkpt lat="39.9730859" lon="9.5324239"><ele>541.2</ele><time>2026-03-29T09:15:47.249Z</time></trkpt><trkpt lat="39.9731853" lon="9.5324322"><ele>537.0</ele><time>2026-03-29T09:15:48.25Z</time></trkpt><trkpt lat="39.9732793" lon="9.5324188"><ele>532.4</ele><time>2026-03-29T09:15:49.249Z</time></trkpt><trkpt lat="39.9733824" lon="9.5323983"><ele>527.8000000000001</ele><time>2026-03-29T09:15:50.249Z</time></trkpt><trkpt lat="39.9734809" lon="9.5323582"><ele>523.2</ele><time>2026-03-29T09:15:51.249Z</time></trkpt><trkpt lat="39.9735842" lon="9.5323188"><ele>518.6</ele><time>2026-03-29T09:15:52.249Z</time></trkpt><trkpt lat="39.9736853" lon="9.532268"><ele>514.0</ele><time>2026-03-29T09:15:53.249Z</time></trkpt><trkpt lat="39.9737659" lon="9.532231"><ele>514.0</ele><time>2026-03-29T09:15:54.249Z</time></trkpt><trkpt lat="39.9739002" lon="9.5322049"><ele>514.0</ele><time>2026-03-29T09:15:55.249Z</time></trkpt><trkpt lat="39.974016" lon="9.5321613"><ele>514.0</ele><time>2026-03-29T09:15:56.249Z</time></trkpt><trkpt lat="39.9741289" lon="9.5321116"><ele>514.0</ele><time>2026-03-29T09:15:57.249Z</time></trkpt><trkpt lat="39.9742035" lon="9.5320516"><ele>515.0</ele><time>2026-03-29T09:15:58.249Z</time></trkpt><trkpt lat="39.9742993" lon="9.5319835"><ele>516.0</ele><time>2026-03-29T09:15:59.249Z</time></trkpt><trkpt lat="39.9743868" lon="9.531914"><ele>517.0</ele><time>2026-03-29T09:16:00.249Z</time></trkpt><trkpt lat="39.9744822" lon="9.5318415"><ele>518.0</ele><time>2026-03-29T09:16:01.25Z</time></trkpt><trkpt lat="39.9745313" lon="9.5317697"><ele>519.0</ele><time>2026-03-29T09:16:02.249Z</time></trkpt><trkpt lat="39.974606" lon="9.5316948"><ele>519.0</ele><time>2026-03-29T09:16:03.249Z</time></trkpt><trkpt lat="39.9747069" lon="9.5316366"><ele>519.0</ele><time>2026-03-29T09:16:04.25Z</time></trkpt><trkpt lat="39.9747739" lon="9.5315738"><ele>519.0</ele><time>2026-03-29T09:16:05.249Z</time></trkpt><trkpt lat="39.9748992" lon="9.5315843"><ele>519.0</ele><time>2026-03-29T09:16:06.249Z</time></trkpt><trkpt lat="39.9750209" lon="9.5315659"><ele>519.0</ele><time>2026-03-29T09:16:07.249Z</time></trkpt><trkpt lat="39.975137" lon="9.5315543"><ele>516.0</ele><time>2026-03-29T09:16:08.249Z</time></trkpt><trkpt lat="39.9752326" lon="9.5315689"><ele>513.0</ele><time>2026-03-29T09:16:09.249Z</time></trkpt><trkpt lat="39.9753423" lon="9.5315588"><ele>510.0</ele><time>2026-03-29T09:16:10.25Z</time></trkpt><trkpt lat="39.9754219" lon="9.5316039"><ele>507.0</ele><time>2026-03-29T09:16:11.249Z</time></trkpt><trkpt lat="39.9755195" lon="9.5316493"><ele>504.0</ele><time>2026-03-29T09:16:12.249Z</time></trkpt><trkpt lat="39.9756054" lon="9.5316857"><ele>504.0</ele><time>2026-03-29T09:16:13.249Z</time></trkpt><trkpt lat="39.9756972" lon="9.5316951"><ele>504.0</ele><time>2026-03-29T09:16:14.249Z</time></trkpt><trkpt lat="39.9757842" lon="9.5316389"><ele>504.0</ele><time>2026-03-29T09:16:16.25Z</time></trkpt><trkpt lat="39.9758505" lon="9.5314884"><ele>504.0</ele><time>2026-03-29T09:16:18.249Z</time></trkpt><trkpt lat="39.9759032" lon="9.5314213"><ele>504.0</ele><time>2026-03-29T09:16:19.249Z</time></trkpt><trkpt lat="39.9759781" lon="9.5314046"><ele>501.0</ele><time>2026-03-29T09:16:20.249Z</time></trkpt><trkpt lat="39.976124" lon="9.5314411"><ele>498.0</ele><time>2026-03-29T09:16:22.249Z</time></trkpt><trkpt lat="39.976216" lon="9.5314818"><ele>495.0</ele><time>2026-03-29T09:16:23.249Z</time></trkpt><trkpt lat="39.9763079" lon="9.5315265"><ele>492.0</ele><time>2026-03-29T09:16:24.249Z</time></trkpt><trkpt lat="39.9764081" lon="9.5315627"><ele>489.0</ele><time>2026-03-29T09:16:25.25Z</time></trkpt><trkpt lat="39.9765195" lon="9.5315902"><ele>489.0</ele><time>2026-03-29T09:16:26.25Z</time></trkpt><trkpt lat="39.9766489" lon="9.5316088"><ele>489.0</ele><time>2026-03-29T09:16:27.249Z</time></trkpt><trkpt lat="39.9767658" lon="9.5316209"><ele>489.0</ele><time>2026-03-29T09:16:28.249Z</time></trkpt><trkpt lat="39.9768827" lon="9.5316204"><ele>489.0</ele><time>2026-03-29T09:16:29.249Z</time></trkpt><trkpt lat="39.9769859" lon="9.531621"><ele>486.4</ele><time>2026-03-29T09:16:30.249Z</time></trkpt><trkpt lat="39.9770936" lon="9.5315969"><ele>483.79999999999995</ele><time>2026-03-29T09:16:31.249Z</time></trkpt><trkpt lat="39.9771832" lon="9.5315567"><ele>481.20000000000005</ele><time>2026-03-29T09:16:32.249Z</time></trkpt><trkpt lat="39.9772672" lon="9.5314942"><ele>478.6</ele><time>2026-03-29T09:16:33.249Z</time></trkpt><trkpt lat="39.9773533" lon="9.5314416"><ele>476.0</ele><time>2026-03-29T09:16:34.25Z</time></trkpt><trkpt lat="39.9774346" lon="9.5314167"><ele>476.8</ele><time>2026-03-29T09:16:35.249Z</time></trkpt><trkpt lat="39.9775405" lon="9.5314754"><ele>477.6</ele><time>2026-03-29T09:16:37.25Z</time></trkpt><trkpt lat="39.9776046" lon="9.5315269"><ele>478.4</ele><time>2026-03-29T09:16:38.249Z</time></trkpt><trkpt lat="39.9776979" lon="9.531607"><ele>479.2</ele><time>2026-03-29T09:16:39.249Z</time></trkpt><trkpt lat="39.9777736" lon="9.5317015"><ele>480.0</ele><time>2026-03-29T09:16:40.25Z</time></trkpt><trkpt lat="39.9778297" lon="9.5317973"><ele>480.0</ele><time>2026-03-29T09:16:41.249Z</time></trkpt><trkpt lat="39.977922" lon="9.5319075"><ele>480.0</ele><time>2026-03-29T09:16:42.25Z</time></trkpt><trkpt lat="39.9779681" lon="9.5320146"><ele>480.0</ele><time>2026-03-29T09:16:43.249Z</time></trkpt><trkpt lat="39.9780339" lon="9.5321432"><ele>480.0</ele><time>2026-03-29T09:16:44.249Z</time></trkpt><trkpt lat="39.978082" lon="9.5322483"><ele>480.0</ele><time>2026-03-29T09:16:45.249Z</time></trkpt><trkpt lat="39.9781672" lon="9.5323458"><ele>473.8333333333333</ele><time>2026-03-29T09:16:46.249Z</time></trkpt><trkpt lat="39.9782204" lon="9.5324309"><ele>467.66666666666663</ele><time>2026-03-29T09:16:47.249Z</time></trkpt><trkpt lat="39.9782794" lon="9.5324919"><ele>461.5</ele><time>2026-03-29T09:16:48.249Z</time></trkpt><trkpt lat="39.9783703" lon="9.5324932"><ele>455.3333333333333</ele><time>2026-03-29T09:16:50.249Z</time></trkpt><trkpt lat="39.9784772" lon="9.5324355"><ele>449.16666666666663</ele><time>2026-03-29T09:16:52.249Z</time></trkpt><trkpt lat="39.9785473" lon="9.5323959"><ele>443.0</ele><time>2026-03-29T09:16:53.249Z</time></trkpt><trkpt lat="39.9786379" lon="9.5323121"><ele>438.2</ele><time>2026-03-29T09:16:55.249Z</time></trkpt><trkpt lat="39.9787411" lon="9.5323194"><ele>433.4</ele><time>2026-03-29T09:16:56.249Z</time></trkpt><trkpt lat="39.978834" lon="9.5322897"><ele>428.59999999999997</ele><time>2026-03-29T09:16:57.25Z</time></trkpt><trkpt lat="39.9789181" lon="9.5322667"><ele>423.79999999999995</ele><time>2026-03-29T09:16:58.249Z</time></trkpt><trkpt lat="39.979028" lon="9.5322319"><ele>419.0</ele><time>2026-03-29T09:16:59.249Z</time></trkpt><trkpt lat="39.9791146" lon="9.5321918"><ele>416.49999999999994</ele><time>2026-03-29T09:17:00.25Z</time></trkpt><trkpt lat="39.9791863" lon="9.5321424"><ele>414.0</ele><time>2026-03-29T09:17:01.249Z</time></trkpt><trkpt lat="39.9792634" lon="9.5321038"><ele>411.5</ele><time>2026-03-29T09:17:02.25Z</time></trkpt><trkpt lat="39.9793463" lon="9.5320221"><ele>409.0</ele><time>2026-03-29T09:17:03.25Z</time></trkpt><trkpt lat="39.9794167" lon="9.5319613"><ele>406.49999999999994</ele><time>2026-03-29T09:17:04.249Z</time></trkpt><trkpt lat="39.9794933" lon="9.5319124"><ele>404.0</ele><time>2026-03-29T09:17:05.25Z</time></trkpt><trkpt lat="39.9795967" lon="9.5318521"><ele>404.0</ele><time>2026-03-29T09:17:06.249Z</time></trkpt><trkpt lat="39.9796865" lon="9.5318028"><ele>404.0</ele><time>2026-03-29T09:17:07.249Z</time></trkpt><trkpt lat="39.9797838" lon="9.5317004"><ele>404.0</ele><time>2026-03-29T09:17:08.249Z</time></trkpt><trkpt lat="39.9799452" lon="9.5316413"><ele>404.0</ele><time>2026-03-29T09:17:09.249Z</time></trkpt><trkpt lat="39.9800232" lon="9.5315875"><ele>403.99999999999994</ele><time>2026-03-29T09:17:10.249Z</time></trkpt><trkpt lat="39.9800985" lon="9.5315603"><ele>404.0</ele><time>2026-03-29T09:17:11.249Z</time></trkpt><trkpt lat="39.980114" lon="9.5314675"><ele>404.0</ele><time>2026-03-29T09:17:13.249Z</time></trkpt><trkpt lat="39.9800635" lon="9.5314117"><ele>404.0</ele><time>2026-03-29T09:17:16.249Z</time></trkpt><trkpt lat="39.9799796" lon="9.5313674"><ele>403.99999999999994</ele><time>2026-03-29T09:17:33.249Z</time></trkpt><trkpt lat="39.9799527" lon="9.5312666"><ele>404.0</ele><time>2026-03-29T09:17:36.249Z</time></trkpt><trkpt lat="39.9799461" lon="9.5311412"><ele>407.75</ele><time>2026-03-29T09:17:38.249Z</time></trkpt><trkpt lat="39.9799954" lon="9.5310221"><ele>411.5</ele><time>2026-03-29T09:17:40.249Z</time></trkpt><trkpt lat="39.9801318" lon="9.5310056"><ele>415.25</ele><time>2026-03-29T09:17:42.25Z</time></trkpt><trkpt lat="39.9802474" lon="9.5310288"><ele>419.0</ele><time>2026-03-29T09:17:43.249Z</time></trkpt><trkpt lat="39.9803756" lon="9.5310558"><ele>419.0</ele><time>2026-03-29T09:17:45.249Z</time></trkpt><trkpt lat="39.9804492" lon="9.5310655"><ele>419.0</ele><time>2026-03-29T09:17:46.249Z</time></trkpt><trkpt lat="39.9805664" lon="9.5310769"><ele>419.0</ele><time>2026-03-29T09:17:47.249Z</time></trkpt><trkpt lat="39.9806641" lon="9.531072"><ele>419.0</ele><time>2026-03-29T09:17:48.249Z</time></trkpt><trkpt lat="39.9807682" lon="9.5310814"><ele>419.0</ele><time>2026-03-29T09:17:49.249Z</time></trkpt><trkpt lat="39.9808412" lon="9.5310856"><ele>421.2</ele><time>2026-03-29T09:17:50.249Z</time></trkpt><trkpt lat="39.9808994" lon="9.5311193"><ele>423.4</ele><time>2026-03-29T09:17:51.249Z</time></trkpt><trkpt lat="39.9809846" lon="9.5312514"><ele>425.6</ele><time>2026-03-29T09:17:53.249Z</time></trkpt><trkpt lat="39.9810242" lon="9.5313629"><ele>427.8</ele><time>2026-03-29T09:17:54.249Z</time></trkpt><trkpt lat="39.9810637" lon="9.5314659"><ele>430.0</ele><time>2026-03-29T09:17:55.249Z</time></trkpt><trkpt lat="39.9810926" lon="9.5315873"><ele>430.0</ele><time>2026-03-29T09:17:56.249Z</time></trkpt><trkpt lat="39.9811163" lon="9.5317031"><ele>430.0</ele><time>2026-03-29T09:17:57.25Z</time></trkpt><trkpt lat="39.9811112" lon="9.5318447"><ele>430.0</ele><time>2026-03-29T09:17:58.249Z</time></trkpt><trkpt lat="39.9810979" lon="9.5319911"><ele>430.0</ele><time>2026-03-29T09:17:59.249Z</time></trkpt><trkpt lat="39.9810852" lon="9.532129"><ele>430.0</ele><time>2026-03-29T09:18:00.249Z</time></trkpt><trkpt lat="39.9810678" lon="9.5322756"><ele>428.6666666666667</ele><time>2026-03-29T09:18:01.249Z</time></trkpt><trkpt lat="39.9810595" lon="9.5324108"><ele>427.33333333333337</ele><time>2026-03-29T09:18:02.249Z</time></trkpt><trkpt lat="39.9810245" lon="9.5325022"><ele>426.0</ele><time>2026-03-29T09:18:03.249Z</time></trkpt><trkpt lat="39.9809683" lon="9.5326028"><ele>424.66666666666663</ele><time>2026-03-29T09:18:04.249Z</time></trkpt><trkpt lat="39.9809312" lon="9.532694"><ele>423.3333333333333</ele><time>2026-03-29T09:18:05.249Z</time></trkpt><trkpt lat="39.9809158" lon="9.532795"><ele>422.0</ele><time>2026-03-29T09:18:06.25Z</time></trkpt><trkpt lat="39.9809189" lon="9.5329006"><ele>419.0</ele><time>2026-03-29T09:18:07.25Z</time></trkpt><trkpt lat="39.9809548" lon="9.5330269"><ele>416.0</ele><time>2026-03-29T09:18:08.249Z</time></trkpt><trkpt lat="39.980983" lon="9.5331482"><ele>413.0</ele><time>2026-03-29T09:18:09.249Z</time></trkpt><trkpt lat="39.9809887" lon="9.5332705"><ele>410.0</ele><time>2026-03-29T09:18:10.249Z</time></trkpt><trkpt lat="39.9809908" lon="9.5333908"><ele>407.0</ele><time>2026-03-29T09:18:11.25Z</time></trkpt><trkpt lat="39.9809968" lon="9.5335139"><ele>406.99999999999994</ele><time>2026-03-29T09:18:12.249Z</time></trkpt><trkpt lat="39.981006" lon="9.5336312"><ele>407.0</ele><time>2026-03-29T09:18:13.25Z</time></trkpt><trkpt lat="39.9810384" lon="9.533738"><ele>407.0</ele><time>2026-03-29T09:18:14.25Z</time></trkpt><trkpt lat="39.9810811" lon="9.5338616"><ele>407.0</ele><time>2026-03-29T09:18:15.249Z</time></trkpt><trkpt lat="39.9811172" lon="9.533963"><ele>406.99999999999994</ele><time>2026-03-29T09:18:16.25Z</time></trkpt><trkpt lat="39.9811704" lon="9.5340201"><ele>407.0</ele><time>2026-03-29T09:18:17.25Z</time></trkpt><trkpt lat="39.9812269" lon="9.5340714"><ele>404.16666666666663</ele><time>2026-03-29T09:18:18.249Z</time></trkpt><trkpt lat="39.9812887" lon="9.5341005"><ele>401.3333333333333</ele><time>2026-03-29T09:18:21.25Z</time></trkpt><trkpt lat="39.9813313" lon="9.5341652"><ele>398.5</ele><time>2026-03-29T09:18:53.249Z</time></trkpt><trkpt lat="39.98129" lon="9.5342428"><ele>395.66666666666663</ele><time>2026-03-29T09:18:55.249Z</time></trkpt><trkpt lat="39.981179" lon="9.5342618"><ele>392.8333333333333</ele><time>2026-03-29T09:18:57.249Z</time></trkpt><trkpt lat="39.9810692" lon="9.5342189"><ele>390.0</ele><time>2026-03-29T09:18:59.249Z</time></trkpt><trkpt lat="39.9809747" lon="9.5341638"><ele>390.0</ele><time>2026-03-29T09:19:01.25Z</time></trkpt><trkpt lat="39.9809145" lon="9.5341319"><ele>390.0</ele><time>2026-03-29T09:19:02.249Z</time></trkpt><trkpt lat="39.9808384" lon="9.5339948"><ele>390.0</ele><time>2026-03-29T09:19:04.249Z</time></trkpt><trkpt lat="39.9808078" lon="9.5339167"><ele>390.0</ele><time>2026-03-29T09:19:05.249Z</time></trkpt><trkpt lat="39.9807581" lon="9.5337729"><ele>390.0</ele><time>2026-03-29T09:19:07.25Z</time></trkpt><trkpt lat="39.9807111" lon="9.5336727"><ele>388.6</ele><time>2026-03-29T09:19:09.25Z</time></trkpt><trkpt lat="39.9806455" lon="9.5336064"><ele>387.2</ele><time>2026-03-29T09:19:11.249Z</time></trkpt><trkpt lat="39.9805836" lon="9.5335662"><ele>385.79999999999995</ele><time>2026-03-29T09:19:14.249Z</time></trkpt><trkpt lat="39.9805319" lon="9.5334472"><ele>384.4</ele><time>2026-03-29T09:19:17.249Z</time></trkpt><trkpt lat="39.9804677" lon="9.5333233"><ele>383.0</ele><time>2026-03-29T09:19:19.249Z</time></trkpt><trkpt lat="39.980375" lon="9.5333033"><ele>383.0</ele><time>2026-03-29T09:19:21.249Z</time></trkpt><trkpt lat="39.9803118" lon="9.5333121"><ele>383.0</ele><time>2026-03-29T09:19:22.249Z</time></trkpt><trkpt lat="39.9801802" lon="9.5333499"><ele>383.0</ele><time>2026-03-29T09:19:24.249Z</time></trkpt><trkpt lat="39.9801672" lon="9.5334546"><ele>383.0</ele><time>2026-03-29T09:19:26.25Z</time></trkpt><trkpt lat="39.9802239" lon="9.533551"><ele>383.0</ele><time>2026-03-29T09:19:28.249Z</time></trkpt><trkpt lat="39.9802464" lon="9.533629"><ele>383.0</ele><time>2026-03-29T09:19:29.249Z</time></trkpt><trkpt lat="39.9802619" lon="9.533767"><ele>383.0</ele><time>2026-03-29T09:19:31.25Z</time></trkpt><trkpt lat="39.9802256" lon="9.5338431"><ele>383.0</ele><time>2026-03-29T09:19:33.249Z</time></trkpt><trkpt lat="39.9801669" lon="9.5337133"><ele>383.0</ele><time>2026-03-29T09:19:35.249Z</time></trkpt><trkpt lat="39.980097" lon="9.5336299"><ele>383.0</ele><time>2026-03-29T09:19:37.249Z</time></trkpt><trkpt lat="39.980021" lon="9.5336777"><ele>383.0</ele><time>2026-03-29T09:19:39.25Z</time></trkpt><trkpt lat="39.9799597" lon="9.5338364"><ele>382.79999999999995</ele><time>2026-03-29T09:19:41.249Z</time></trkpt><trkpt lat="39.9799281" lon="9.5339766"><ele>382.6</ele><time>2026-03-29T09:19:42.249Z</time></trkpt><trkpt lat="39.9798923" lon="9.5341183"><ele>382.4</ele><time>2026-03-29T09:19:43.249Z</time></trkpt><trkpt lat="39.9798504" lon="9.5342369"><ele>382.20000000000005</ele><time>2026-03-29T09:19:44.25Z</time></trkpt><trkpt lat="39.9798086" lon="9.5343526"><ele>382.0</ele><time>2026-03-29T09:19:45.249Z</time></trkpt><trkpt lat="39.9797875" lon="9.5344603"><ele>382.0</ele><time>2026-03-29T09:19:46.249Z</time></trkpt><trkpt lat="39.9797502" lon="9.5345308"><ele>382.0</ele><time>2026-03-29T09:19:47.249Z</time></trkpt><trkpt lat="39.9796862" lon="9.5345917"><ele>382.0</ele><time>2026-03-29T09:19:48.249Z</time></trkpt><trkpt lat="39.9796039" lon="9.5346442"><ele>382.0</ele><time>2026-03-29T09:19:49.249Z</time></trkpt><trkpt lat="39.9795367" lon="9.5346777"><ele>382.0</ele><time>2026-03-29T09:19:50.249Z</time></trkpt><trkpt lat="39.9794729" lon="9.5347184"><ele>382.0</ele><time>2026-03-29T09:19:51.249Z</time></trkpt><trkpt lat="39.9794192" lon="9.5347676"><ele>382.0</ele><time>2026-03-29T09:19:52.249Z</time></trkpt><trkpt lat="39.9793635" lon="9.5348186"><ele>383.16666666666663</ele><time>2026-03-29T09:19:53.249Z</time></trkpt><trkpt lat="39.9792588" lon="9.5348451"><ele>384.3333333333333</ele><time>2026-03-29T09:19:55.249Z</time></trkpt><trkpt lat="39.9791803" lon="9.5348728"><ele>385.5</ele><time>2026-03-29T09:19:56.25Z</time></trkpt><trkpt lat="39.9791021" lon="9.5348901"><ele>386.66666666666663</ele><time>2026-03-29T09:19:57.25Z</time></trkpt><trkpt lat="39.9790344" lon="9.5348943"><ele>387.8333333333333</ele><time>2026-03-29T09:19:58.249Z</time></trkpt><trkpt lat="39.9789262" lon="9.5348839"><ele>389.0</ele><time>2026-03-29T09:20:00.25Z</time></trkpt><trkpt lat="39.9788464" lon="9.5347982"><ele>389.0</ele><time>2026-03-29T09:20:02.249Z</time></trkpt><trkpt lat="39.9787257" lon="9.5347661"><ele>389.0</ele><time>2026-03-29T09:20:04.25Z</time></trkpt><trkpt lat="39.9786481" lon="9.5347754"><ele>389.0</ele><time>2026-03-29T09:20:05.249Z</time></trkpt><trkpt lat="39.9785696" lon="9.5347974"><ele>389.0</ele><time>2026-03-29T09:20:06.25Z</time></trkpt><trkpt lat="39.9784857" lon="9.5348438"><ele>389.0</ele><time>2026-03-29T09:20:07.249Z</time></trkpt><trkpt lat="39.9783938" lon="9.5348992"><ele>387.0</ele><time>2026-03-29T09:20:08.249Z</time></trkpt><trkpt lat="39.9782983" lon="9.5349713"><ele>385.0</ele><time>2026-03-29T09:20:09.249Z</time></trkpt><trkpt lat="39.978203" lon="9.5350543"><ele>383.0</ele><time>2026-03-29T09:20:10.25Z</time></trkpt><trkpt lat="39.9781037" lon="9.5351487"><ele>381.0</ele><time>2026-03-29T09:20:11.249Z</time></trkpt><trkpt lat="39.9779998" lon="9.535238"><ele>381.0</ele><time>2026-03-29T09:20:12.25Z</time></trkpt><trkpt lat="39.9778958" lon="9.5353155"><ele>381.0</ele><time>2026-03-29T09:20:13.249Z</time></trkpt><trkpt lat="39.9777978" lon="9.5353951"><ele>381.0</ele><time>2026-03-29T09:20:14.249Z</time></trkpt><trkpt lat="39.9777132" lon="9.535484"><ele>381.0</ele><time>2026-03-29T09:20:15.249Z</time></trkpt><trkpt lat="39.977643" lon="9.53557"><ele>381.0</ele><time>2026-03-29T09:20:16.249Z</time></trkpt><trkpt lat="39.9775729" lon="9.5356672"><ele>381.8</ele><time>2026-03-29T09:20:17.249Z</time></trkpt><trkpt lat="39.9775115" lon="9.5357837"><ele>382.6</ele><time>2026-03-29T09:20:18.25Z</time></trkpt><trkpt lat="39.9774642" lon="9.5358944"><ele>383.4</ele><time>2026-03-29T09:20:19.249Z</time></trkpt><trkpt lat="39.9774275" lon="9.5359932"><ele>384.2</ele><time>2026-03-29T09:20:20.25Z</time></trkpt><trkpt lat="39.9773774" lon="9.5360956"><ele>385.0</ele><time>2026-03-29T09:20:21.25Z</time></trkpt><trkpt lat="39.9773052" lon="9.5361573"><ele>385.00000000000006</ele><time>2026-03-29T09:20:22.249Z</time></trkpt><trkpt lat="39.977229" lon="9.5361903"><ele>385.0</ele><time>2026-03-29T09:20:23.25Z</time></trkpt><trkpt lat="39.9771685" lon="9.5362505"><ele>385.0</ele><time>2026-03-29T09:20:24.25Z</time></trkpt><trkpt lat="39.9771215" lon="9.5363385"><ele>385.0</ele><time>2026-03-29T09:20:25.249Z</time></trkpt><trkpt lat="39.9770712" lon="9.5364236"><ele>385.00000000000006</ele><time>2026-03-29T09:20:26.249Z</time></trkpt><trkpt lat="39.9770024" lon="9.5364797"><ele>385.0</ele><time>2026-03-29T09:20:27.25Z</time></trkpt><trkpt lat="39.9769148" lon="9.5365157"><ele>384.2</ele><time>2026-03-29T09:20:28.25Z</time></trkpt><trkpt lat="39.9768053" lon="9.5365606"><ele>383.4</ele><time>2026-03-29T09:20:29.25Z</time></trkpt><trkpt lat="39.9767031" lon="9.5365865"><ele>382.6</ele><time>2026-03-29T09:20:30.249Z</time></trkpt><trkpt lat="39.9766066" lon="9.5366016"><ele>381.8</ele><time>2026-03-29T09:20:31.249Z</time></trkpt><trkpt lat="39.9765197" lon="9.5366303"><ele>381.0</ele><time>2026-03-29T09:20:32.249Z</time></trkpt><trkpt lat="39.9764581" lon="9.5366525"><ele>381.0</ele><time>2026-03-29T09:20:33.249Z</time></trkpt><trkpt lat="39.9764184" lon="9.536779"><ele>381.0</ele><time>2026-03-29T09:20:35.25Z</time></trkpt><trkpt lat="39.9764399" lon="9.5369373"><ele>381.0</ele><time>2026-03-29T09:20:37.249Z</time></trkpt><trkpt lat="39.9764852" lon="9.5370817"><ele>381.0</ele><time>2026-03-29T09:20:39.249Z</time></trkpt><trkpt lat="39.9765011" lon="9.5371761"><ele>381.0</ele><time>2026-03-29T09:20:40.25Z</time></trkpt><trkpt lat="39.9765134" lon="9.5372859"><ele>384.0</ele><time>2026-03-29T09:20:41.249Z</time></trkpt><trkpt lat="39.9765078" lon="9.5374029"><ele>387.0</ele><time>2026-03-29T09:20:42.25Z</time></trkpt><trkpt lat="39.9764893" lon="9.5375115"><ele>390.0</ele><time>2026-03-29T09:20:43.249Z</time></trkpt><trkpt lat="39.9764533" lon="9.5376298"><ele>393.0</ele><time>2026-03-29T09:20:44.249Z</time></trkpt><trkpt lat="39.9764094" lon="9.5377389"><ele>396.0</ele><time>2026-03-29T09:20:45.249Z</time></trkpt><trkpt lat="39.9763706" lon="9.5378475"><ele>399.6</ele><time>2026-03-29T09:20:46.249Z</time></trkpt><trkpt lat="39.9763525" lon="9.5379547"><ele>403.20000000000005</ele><time>2026-03-29T09:20:47.249Z</time></trkpt><trkpt lat="39.9763672" lon="9.5381406"><ele>406.79999999999995</ele><time>2026-03-29T09:20:49.249Z</time></trkpt><trkpt lat="39.9763766" lon="9.538234"><ele>410.4</ele><time>2026-03-29T09:20:50.249Z</time></trkpt><trkpt lat="39.9763653" lon="9.5383215"><ele>414.0</ele><time>2026-03-29T09:20:51.249Z</time></trkpt><trkpt lat="39.9763123" lon="9.5384268"><ele>414.0</ele><time>2026-03-29T09:20:53.249Z</time></trkpt><trkpt lat="39.9762214" lon="9.5384306"><ele>414.0</ele><time>2026-03-29T09:20:55.249Z</time></trkpt><trkpt lat="39.9760969" lon="9.5384311"><ele>414.0</ele><time>2026-03-29T09:20:57.249Z</time></trkpt><trkpt lat="39.9760323" lon="9.5384322"><ele>414.0</ele><time>2026-03-29T09:20:58.249Z</time></trkpt><trkpt lat="39.9759502" lon="9.5384422"><ele>414.0</ele><time>2026-03-29T09:20:59.249Z</time></trkpt><trkpt lat="39.9758766" lon="9.538448"><ele>414.0</ele><time>2026-03-29T09:21:00.249Z</time></trkpt><trkpt lat="39.9758058" lon="9.5384631"><ele>412.5</ele><time>2026-03-29T09:21:01.25Z</time></trkpt><trkpt lat="39.9757325" lon="9.5384992"><ele>411.0</ele><time>2026-03-29T09:21:02.249Z</time></trkpt><trkpt lat="39.9756404" lon="9.5385512"><ele>409.5</ele><time>2026-03-29T09:21:03.249Z</time></trkpt><trkpt lat="39.9755517" lon="9.5385813"><ele>408.0</ele><time>2026-03-29T09:21:04.249Z</time></trkpt><trkpt lat="39.9754828" lon="9.5386146"><ele>406.5</ele><time>2026-03-29T09:21:05.249Z</time></trkpt><trkpt lat="39.9754302" lon="9.5387024"><ele>405.0</ele><time>2026-03-29T09:21:07.249Z</time></trkpt><trkpt lat="39.9754281" lon="9.5389012"><ele>405.0</ele><time>2026-03-29T09:21:09.249Z</time></trkpt><trkpt lat="39.9754249" lon="9.5390234"><ele>405.0</ele><time>2026-03-29T09:21:10.249Z</time></trkpt><trkpt lat="39.9754229" lon="9.5391421"><ele>405.0</ele><time>2026-03-29T09:21:11.25Z</time></trkpt><trkpt lat="39.975411" lon="9.5392797"><ele>405.0</ele><time>2026-03-29T09:21:12.249Z</time></trkpt><trkpt lat="39.9753985" lon="9.539413"><ele>405.0</ele><time>2026-03-29T09:21:13.249Z</time></trkpt><trkpt lat="39.9753869" lon="9.5395615"><ele>407.0</ele><time>2026-03-29T09:21:14.249Z</time></trkpt><trkpt lat="39.9753567" lon="9.5396829"><ele>409.0</ele><time>2026-03-29T09:21:15.249Z</time></trkpt><trkpt lat="39.9753453" lon="9.5397832"><ele>411.0</ele><time>2026-03-29T09:21:16.249Z</time></trkpt><trkpt lat="39.9753846" lon="9.5399205"><ele>413.0</ele><time>2026-03-29T09:21:18.25Z</time></trkpt><trkpt lat="39.9754175" lon="9.5400716"><ele>415.0</ele><time>2026-03-29T09:21:20.25Z</time></trkpt><trkpt lat="39.9753417" lon="9.5401906"><ele>415.0</ele><time>2026-03-29T09:21:22.249Z</time></trkpt><trkpt lat="39.9752767" lon="9.5402599"><ele>415.0</ele><time>2026-03-29T09:21:23.249Z</time></trkpt><trkpt lat="39.9752003" lon="9.5403324"><ele>415.0</ele><time>2026-03-29T09:21:24.249Z</time></trkpt><trkpt lat="39.975115" lon="9.5404056"><ele>415.0</ele><time>2026-03-29T09:21:25.25Z</time></trkpt><trkpt lat="39.9750283" lon="9.5404788"><ele>415.0</ele><time>2026-03-29T09:21:26.249Z</time></trkpt><trkpt lat="39.9749507" lon="9.5405349"><ele>411.83333333333337</ele><time>2026-03-29T09:21:27.249Z</time></trkpt><trkpt lat="39.9748587" lon="9.5405721"><ele>408.6666666666667</ele><time>2026-03-29T09:21:28.25Z</time></trkpt><trkpt lat="39.9747763" lon="9.5406319"><ele>405.5</ele><time>2026-03-29T09:21:29.249Z</time></trkpt><trkpt lat="39.9747071" lon="9.5406709"><ele>402.33333333333337</ele><time>2026-03-29T09:21:30.25Z</time></trkpt><trkpt lat="39.9746396" lon="9.5407174"><ele>399.1666666666667</ele><time>2026-03-29T09:21:31.249Z</time></trkpt><trkpt lat="39.9745778" lon="9.5407817"><ele>396.0</ele><time>2026-03-29T09:21:32.249Z</time></trkpt><trkpt lat="39.9745157" lon="9.5408354"><ele>396.0</ele><time>2026-03-29T09:21:33.249Z</time></trkpt><trkpt lat="39.9744472" lon="9.5408817"><ele>396.0</ele><time>2026-03-29T09:21:34.249Z</time></trkpt><trkpt lat="39.9743697" lon="9.5409"><ele>396.0</ele><time>2026-03-29T09:21:35.249Z</time></trkpt><trkpt lat="39.9742913" lon="9.5409171"><ele>396.0</ele><time>2026-03-29T09:21:36.249Z</time></trkpt><trkpt lat="39.97422" lon="9.5408938"><ele>396.0</ele><time>2026-03-29T09:21:37.249Z</time></trkpt><trkpt lat="39.9741351" lon="9.5409551"><ele>396.0</ele><time>2026-03-29T09:21:38.249Z</time></trkpt><trkpt lat="39.9740435" lon="9.5410153"><ele>391.4</ele><time>2026-03-29T09:21:39.249Z</time></trkpt><trkpt lat="39.9739673" lon="9.5410685"><ele>386.8</ele><time>2026-03-29T09:21:40.249Z</time></trkpt><trkpt lat="39.9738798" lon="9.5411137"><ele>382.2</ele><time>2026-03-29T09:21:41.249Z</time></trkpt><trkpt lat="39.9737928" lon="9.5411398"><ele>377.59999999999997</ele><time>2026-03-29T09:21:42.249Z</time></trkpt><trkpt lat="39.9736978" lon="9.5411409"><ele>373.0</ele><time>2026-03-29T09:21:43.249Z</time></trkpt><trkpt lat="39.9735922" lon="9.5411333"><ele>373.0</ele><time>2026-03-29T09:21:44.25Z</time></trkpt><trkpt lat="39.9734899" lon="9.5411098"><ele>373.0</ele><time>2026-03-29T09:21:45.249Z</time></trkpt><trkpt lat="39.9733966" lon="9.5410844"><ele>373.0</ele><time>2026-03-29T09:21:46.249Z</time></trkpt><trkpt lat="39.973302" lon="9.5410544"><ele>373.0</ele><time>2026-03-29T09:21:47.249Z</time></trkpt><trkpt lat="39.9732233" lon="9.540984"><ele>373.0</ele><time>2026-03-29T09:21:48.249Z</time></trkpt><trkpt lat="39.9730911" lon="9.5408984"><ele>374.0</ele><time>2026-03-29T09:21:50.249Z</time></trkpt><trkpt lat="39.9729824" lon="9.5408695"><ele>375.0</ele><time>2026-03-29T09:21:51.249Z</time></trkpt><trkpt lat="39.9728952" lon="9.5408178"><ele>376.0</ele><time>2026-03-29T09:21:52.249Z</time></trkpt><trkpt lat="39.9728051" lon="9.5407774"><ele>377.0</ele><time>2026-03-29T09:21:53.249Z</time></trkpt><trkpt lat="39.9727275" lon="9.5407479"><ele>378.0</ele><time>2026-03-29T09:21:54.249Z</time></trkpt><trkpt lat="39.9726568" lon="9.5407729"><ele>378.0</ele><time>2026-03-29T09:21:57.25Z</time></trkpt><trkpt lat="39.9726861" lon="9.5409289"><ele>378.0</ele><time>2026-03-29T09:21:59.249Z</time></trkpt><trkpt lat="39.9727013" lon="9.5410255"><ele>378.0</ele><time>2026-03-29T09:22:00.249Z</time></trkpt><trkpt lat="39.9727103" lon="9.541146"><ele>378.0</ele><time>2026-03-29T09:22:01.25Z</time></trkpt><trkpt lat="39.9726987" lon="9.541284"><ele>378.0</ele><time>2026-03-29T09:22:02.249Z</time></trkpt><trkpt lat="39.9726935" lon="9.5414096"><ele>381.1666666666667</ele><time>2026-03-29T09:22:03.25Z</time></trkpt><trkpt lat="39.9726895" lon="9.5415275"><ele>384.33333333333337</ele><time>2026-03-29T09:22:04.25Z</time></trkpt><trkpt lat="39.9726925" lon="9.541626"><ele>387.5</ele><time>2026-03-29T09:22:05.249Z</time></trkpt><trkpt lat="39.9727232" lon="9.5416988"><ele>390.6666666666667</ele><time>2026-03-29T09:22:06.249Z</time></trkpt><trkpt lat="39.9727614" lon="9.5417855"><ele>393.83333333333337</ele><time>2026-03-29T09:22:07.249Z</time></trkpt><trkpt lat="39.9728196" lon="9.5418842"><ele>397.0</ele><time>2026-03-29T09:22:08.25Z</time></trkpt><trkpt lat="39.9728691" lon="9.5419892"><ele>393.6</ele><time>2026-03-29T09:22:09.249Z</time></trkpt><trkpt lat="39.9729158" lon="9.5420866"><ele>390.20000000000005</ele><time>2026-03-29T09:22:10.249Z</time></trkpt><trkpt lat="39.9729669" lon="9.5421732"><ele>386.8</ele><time>2026-03-29T09:22:11.249Z</time></trkpt><trkpt lat="39.9730521" lon="9.5422227"><ele>383.4</ele><time>2026-03-29T09:22:12.249Z</time></trkpt><trkpt lat="39.9731263" lon="9.5423013"><ele>380.0</ele><time>2026-03-29T09:22:13.249Z</time></trkpt><trkpt lat="39.9731995" lon="9.5423788"><ele>380.0</ele><time>2026-03-29T09:22:14.25Z</time></trkpt><trkpt lat="39.9732929" lon="9.5424281"><ele>380.0</ele><time>2026-03-29T09:22:15.249Z</time></trkpt><trkpt lat="39.9733797" lon="9.5424942"><ele>380.0</ele><time>2026-03-29T09:22:16.249Z</time></trkpt><trkpt lat="39.9734365" lon="9.5425711"><ele>380.0</ele><time>2026-03-29T09:22:17.249Z</time></trkpt><trkpt lat="39.9734774" lon="9.5427329"><ele>380.0</ele><time>2026-03-29T09:22:19.249Z</time></trkpt><trkpt lat="39.973486" lon="9.5428764"><ele>384.0</ele><time>2026-03-29T09:22:20.249Z</time></trkpt><trkpt lat="39.9735015" lon="9.5430254"><ele>388.0</ele><time>2026-03-29T09:22:21.249Z</time></trkpt><trkpt lat="39.9735178" lon="9.5431772"><ele>392.0</ele><time>2026-03-29T09:22:22.249Z</time></trkpt><trkpt lat="39.9735205" lon="9.5433057"><ele>396.0</ele><time>2026-03-29T09:22:23.249Z</time></trkpt><trkpt lat="39.9735373" lon="9.5434307"><ele>400.0</ele><time>2026-03-29T09:22:24.249Z</time></trkpt><trkpt lat="39.973594" lon="9.5435585"><ele>400.0</ele><time>2026-03-29T09:22:25.25Z</time></trkpt><trkpt lat="39.9736463" lon="9.5436771"><ele>400.0</ele><time>2026-03-29T09:22:26.249Z</time></trkpt><trkpt lat="39.9737153" lon="9.5437899"><ele>400.0</ele><time>2026-03-29T09:22:27.25Z</time></trkpt><trkpt lat="39.9737694" lon="9.5438967"><ele>400.0</ele><time>2026-03-29T09:22:28.249Z</time></trkpt><trkpt lat="39.9738003" lon="9.5440071"><ele>400.0</ele><time>2026-03-29T09:22:29.249Z</time></trkpt><trkpt lat="39.9738246" lon="9.5441191"><ele>397.2</ele><time>2026-03-29T09:22:30.25Z</time></trkpt><trkpt lat="39.9738663" lon="9.5442358"><ele>394.4</ele><time>2026-03-29T09:22:31.249Z</time></trkpt><trkpt lat="39.9738716" lon="9.5443504"><ele>391.6</ele><time>2026-03-29T09:22:32.249Z</time></trkpt><trkpt lat="39.9738363" lon="9.5444503"><ele>388.8</ele><time>2026-03-29T09:22:33.249Z</time></trkpt><trkpt lat="39.9738111" lon="9.5445563"><ele>386.0</ele><time>2026-03-29T09:22:34.249Z</time></trkpt><trkpt lat="39.9737972" lon="9.5446792"><ele>385.3333333333333</ele><time>2026-03-29T09:22:35.249Z</time></trkpt><trkpt lat="39.9737838" lon="9.5447952"><ele>384.66666666666663</ele><time>2026-03-29T09:22:36.249Z</time></trkpt><trkpt lat="39.9737681" lon="9.5449123"><ele>384.0</ele><time>2026-03-29T09:22:37.25Z</time></trkpt><trkpt lat="39.9737482" lon="9.5450106"><ele>383.3333333333333</ele><time>2026-03-29T09:22:38.25Z</time></trkpt><trkpt lat="39.9737166" lon="9.545116"><ele>382.66666666666663</ele><time>2026-03-29T09:22:39.249Z</time></trkpt><trkpt lat="39.9736408" lon="9.5451752"><ele>382.0</ele><time>2026-03-29T09:22:40.249Z</time></trkpt><trkpt lat="39.9735713" lon="9.5452356"><ele>382.0</ele><time>2026-03-29T09:22:41.249Z</time></trkpt><trkpt lat="39.9735249" lon="9.5452918"><ele>382.0</ele><time>2026-03-29T09:22:42.249Z</time></trkpt><trkpt lat="39.9735016" lon="9.5454477"><ele>382.0</ele><time>2026-03-29T09:22:44.25Z</time></trkpt><trkpt lat="39.9734997" lon="9.5455487"><ele>382.0</ele><time>2026-03-29T09:22:45.25Z</time></trkpt><trkpt lat="39.9735256" lon="9.5456696"><ele>382.0</ele><time>2026-03-29T09:22:46.249Z</time></trkpt><trkpt lat="39.9735324" lon="9.5458255"><ele>384.20000000000005</ele><time>2026-03-29T09:22:47.249Z</time></trkpt><trkpt lat="39.9735281" lon="9.5459877"><ele>386.4</ele><time>2026-03-29T09:22:48.25Z</time></trkpt><trkpt lat="39.9735185" lon="9.5461369"><ele>388.6</ele><time>2026-03-29T09:22:49.249Z</time></trkpt><trkpt lat="39.9735245" lon="9.5462735"><ele>390.79999999999995</ele><time>2026-03-29T09:22:50.249Z</time></trkpt><trkpt lat="39.973512" lon="9.5463933"><ele>393.0</ele><time>2026-03-29T09:22:51.249Z</time></trkpt><trkpt lat="39.9734719" lon="9.5464947"><ele>393.4</ele><time>2026-03-29T09:22:52.249Z</time></trkpt><trkpt lat="39.9734181" lon="9.5466032"><ele>393.79999999999995</ele><time>2026-03-29T09:22:53.249Z</time></trkpt><trkpt lat="39.9733378" lon="9.5467032"><ele>394.2</ele><time>2026-03-29T09:22:54.249Z</time></trkpt><trkpt lat="39.9732509" lon="9.5468081"><ele>394.6</ele><time>2026-03-29T09:22:55.249Z</time></trkpt><trkpt lat="39.9731671" lon="9.5469007"><ele>395.0</ele><time>2026-03-29T09:22:56.249Z</time></trkpt><trkpt lat="39.9730893" lon="9.5470058"><ele>392.6</ele><time>2026-03-29T09:22:57.249Z</time></trkpt><trkpt lat="39.9730125" lon="9.5471383"><ele>390.2</ele><time>2026-03-29T09:22:58.249Z</time></trkpt><trkpt lat="39.9729461" lon="9.5472501"><ele>387.79999999999995</ele><time>2026-03-29T09:22:59.249Z</time></trkpt><trkpt lat="39.9728562" lon="9.5473331"><ele>385.4</ele><time>2026-03-29T09:23:00.249Z</time></trkpt><trkpt lat="39.9727767" lon="9.5473733"><ele>383.0</ele><time>2026-03-29T09:23:01.25Z</time></trkpt><trkpt lat="39.9726766" lon="9.5474372"><ele>383.0</ele><time>2026-03-29T09:23:02.249Z</time></trkpt><trkpt lat="39.9725957" lon="9.5474883"><ele>383.0</ele><time>2026-03-29T09:23:03.249Z</time></trkpt><trkpt lat="39.9724965" lon="9.5475731"><ele>383.0</ele><time>2026-03-29T09:23:04.249Z</time></trkpt><trkpt lat="39.9724239" lon="9.5476597"><ele>383.0</ele><time>2026-03-29T09:23:05.249Z</time></trkpt><trkpt lat="39.972341" lon="9.5477672"><ele>383.0</ele><time>2026-03-29T09:23:06.25Z</time></trkpt><trkpt lat="39.9722699" lon="9.5478779"><ele>381.79999999999995</ele><time>2026-03-29T09:23:07.249Z</time></trkpt><trkpt lat="39.9722064" lon="9.5479765"><ele>380.6</ele><time>2026-03-29T09:23:08.25Z</time></trkpt><trkpt lat="39.9721281" lon="9.5480601"><ele>379.4</ele><time>2026-03-29T09:23:09.249Z</time></trkpt><trkpt lat="39.9720485" lon="9.5481137"><ele>378.20000000000005</ele><time>2026-03-29T09:23:10.249Z</time></trkpt><trkpt lat="39.9719463" lon="9.5481273"><ele>377.0</ele><time>2026-03-29T09:23:11.249Z</time></trkpt><trkpt lat="39.9718468" lon="9.5481317"><ele>377.0</ele><time>2026-03-29T09:23:12.249Z</time></trkpt><trkpt lat="39.9717585" lon="9.5481433"><ele>377.0</ele><time>2026-03-29T09:23:13.249Z</time></trkpt><trkpt lat="39.9716509" lon="9.5481886"><ele>377.0</ele><time>2026-03-29T09:23:14.249Z</time></trkpt><trkpt lat="39.9715701" lon="9.5482546"><ele>377.0</ele><time>2026-03-29T09:23:15.249Z</time></trkpt><trkpt lat="39.9714804" lon="9.5482932"><ele>377.0</ele><time>2026-03-29T09:23:16.249Z</time></trkpt><trkpt lat="39.9713861" lon="9.5482786"><ele>373.40000000000003</ele><time>2026-03-29T09:23:17.249Z</time></trkpt><trkpt lat="39.9712827" lon="9.5482796"><ele>369.8</ele><time>2026-03-29T09:23:18.25Z</time></trkpt><trkpt lat="39.9711766" lon="9.5482929"><ele>366.2</ele><time>2026-03-29T09:23:19.25Z</time></trkpt><trkpt lat="39.9710817" lon="9.5483078"><ele>362.6</ele><time>2026-03-29T09:23:20.249Z</time></trkpt><trkpt lat="39.9709973" lon="9.548341"><ele>359.0</ele><time>2026-03-29T09:23:21.249Z</time></trkpt><trkpt lat="39.9709282" lon="9.5484117"><ele>359.0</ele><time>2026-03-29T09:23:22.249Z</time></trkpt><trkpt lat="39.970872" lon="9.5485132"><ele>359.0</ele><time>2026-03-29T09:23:23.249Z</time></trkpt><trkpt lat="39.9708449" lon="9.5486334"><ele>359.0</ele><time>2026-03-29T09:23:24.249Z</time></trkpt><trkpt lat="39.9708032" lon="9.5487427"><ele>359.0</ele><time>2026-03-29T09:23:25.249Z</time></trkpt><trkpt lat="39.9707608" lon="9.548806"><ele>359.0</ele><time>2026-03-29T09:23:26.249Z</time></trkpt><trkpt lat="39.9706178" lon="9.5488394"><ele>360.8571428571429</ele><time>2026-03-29T09:23:28.249Z</time></trkpt><trkpt lat="39.970537" lon="9.5488466"><ele>362.7142857142857</ele><time>2026-03-29T09:23:29.249Z</time></trkpt><trkpt lat="39.9704707" lon="9.5488729"><ele>364.57142857142856</ele><time>2026-03-29T09:23:30.249Z</time></trkpt><trkpt lat="39.9704064" lon="9.5489262"><ele>366.42857142857144</ele><time>2026-03-29T09:23:31.249Z</time></trkpt><trkpt lat="39.9703525" lon="9.5489907"><ele>368.2857142857143</ele><time>2026-03-29T09:23:32.249Z</time></trkpt><trkpt lat="39.970304" lon="9.54905"><ele>370.14285714285717</ele><time>2026-03-29T09:23:33.249Z</time></trkpt><trkpt lat="39.9702431" lon="9.5490719"><ele>372.0</ele><time>2026-03-29T09:23:34.249Z</time></trkpt><trkpt lat="39.9701591" lon="9.5490582"><ele>372.0</ele><time>2026-03-29T09:23:35.25Z</time></trkpt><trkpt lat="39.9700525" lon="9.5490439"><ele>372.0</ele><time>2026-03-29T09:23:36.249Z</time></trkpt><trkpt lat="39.9699434" lon="9.5490412"><ele>372.0</ele><time>2026-03-29T09:23:37.249Z</time></trkpt><trkpt lat="39.969834" lon="9.5490328"><ele>372.0</ele><time>2026-03-29T09:23:38.25Z</time></trkpt><trkpt lat="39.9697344" lon="9.5490062"><ele>372.0</ele><time>2026-03-29T09:23:39.249Z</time></trkpt><trkpt lat="39.9696394" lon="9.5489582"><ele>372.0</ele><time>2026-03-29T09:23:40.25Z</time></trkpt><trkpt lat="39.9695509" lon="9.5488788"><ele>372.0</ele><time>2026-03-29T09:23:41.249Z</time></trkpt><trkpt lat="39.9694541" lon="9.5488377"><ele>372.0</ele><time>2026-03-29T09:23:42.249Z</time></trkpt><trkpt lat="39.9693482" lon="9.5487993"><ele>372.0</ele><time>2026-03-29T09:23:43.249Z</time></trkpt><trkpt lat="39.9692399" lon="9.5487643"><ele>372.0</ele><time>2026-03-29T09:23:44.25Z</time></trkpt><trkpt lat="39.9690955" lon="9.5487815"><ele>372.0</ele><time>2026-03-29T09:23:45.249Z</time></trkpt><trkpt lat="39.9689532" lon="9.5487673"><ele>372.0</ele><time>2026-03-29T09:23:46.249Z</time></trkpt><trkpt lat="39.9686999" lon="9.5487641"><ele>372.0</ele><time>2026-03-29T09:23:48.249Z</time></trkpt><trkpt lat="39.9685716" lon="9.5487556"><ele>371.6666666666667</ele><time>2026-03-29T09:23:49.249Z</time></trkpt><trkpt lat="39.968295" lon="9.5487233"><ele>371.33333333333337</ele><time>2026-03-29T09:23:51.249Z</time></trkpt><trkpt lat="39.9681548" lon="9.5487359"><ele>371.0</ele><time>2026-03-29T09:23:52.249Z</time></trkpt><trkpt lat="39.9680084" lon="9.5487336"><ele>371.0</ele><time>2026-03-29T09:23:53.249Z</time></trkpt><trkpt lat="39.9678638" lon="9.5487477"><ele>371.0</ele><time>2026-03-29T09:23:54.25Z</time></trkpt><trkpt lat="39.9677381" lon="9.5487603"><ele>371.0</ele><time>2026-03-29T09:23:55.25Z</time></trkpt><trkpt lat="39.9676221" lon="9.5487681"><ele>371.0</ele><time>2026-03-29T09:23:56.249Z</time></trkpt><trkpt lat="39.9675144" lon="9.5487885"><ele>368.83333333333337</ele><time>2026-03-29T09:23:57.249Z</time></trkpt><trkpt lat="39.9673998" lon="9.5488114"><ele>366.6666666666667</ele><time>2026-03-29T09:23:59.249Z</time></trkpt><trkpt lat="39.9673233" lon="9.5488461"><ele>364.5</ele><time>2026-03-29T09:24:02.249Z</time></trkpt><trkpt lat="39.9672599" lon="9.5488663"><ele>362.3333333333333</ele><time>2026-03-29T09:31:24.249Z</time></trkpt><trkpt lat="39.9673312" lon="9.548857"><ele>360.16666666666663</ele><time>2026-03-29T09:31:31.25Z</time></trkpt><trkpt lat="39.9673915" lon="9.5489134"><ele>358.0</ele><time>2026-03-29T09:31:34.249Z</time></trkpt><trkpt lat="39.9674631" lon="9.5489401"><ele>358.0</ele><time>2026-03-29T09:31:37.249Z</time></trkpt><trkpt lat="39.9673974" lon="9.5488889"><ele>358.0</ele><time>2026-03-29T09:32:51.249Z</time></trkpt><trkpt lat="39.9673267" lon="9.5488285"><ele>358.0</ele><time>2026-03-29T09:32:54.249Z</time></trkpt><trkpt lat="39.9672516" lon="9.5488436"><ele>358.0</ele><time>2026-03-29T09:32:57.249Z</time></trkpt><trkpt lat="39.967342" lon="9.5488658"><ele>358.0</ele><time>2026-03-29T09:33:12.249Z</time></trkpt><trkpt lat="39.9674198" lon="9.5489088"><ele>358.0</ele><time>2026-03-29T09:33:15.249Z</time></trkpt><trkpt lat="39.9675284" lon="9.5489494"><ele>360.59999999999997</ele><time>2026-03-29T09:33:17.249Z</time></trkpt><trkpt lat="39.967547" lon="9.5490482"><ele>363.2</ele><time>2026-03-29T09:33:19.249Z</time></trkpt><trkpt lat="39.9676276" lon="9.5491622"><ele>365.8</ele><time>2026-03-29T09:33:21.249Z</time></trkpt><trkpt lat="39.9677038" lon="9.5492663"><ele>368.4</ele><time>2026-03-29T09:33:23.25Z</time></trkpt><trkpt lat="39.9677534" lon="9.5493287"><ele>371.0</ele><time>2026-03-29T09:33:24.249Z</time></trkpt><trkpt lat="39.9678358" lon="9.549413"><ele>371.0</ele><time>2026-03-29T09:33:26.249Z</time></trkpt><trkpt lat="39.9679018" lon="9.5494904"><ele>371.0</ele><time>2026-03-29T09:33:28.249Z</time></trkpt><trkpt lat="39.9679583" lon="9.5495555"><ele>371.0</ele><time>2026-03-29T09:33:31.249Z</time></trkpt><trkpt lat="39.9679992" lon="9.5494861"><ele>371.0</ele><time>2026-03-29T09:33:38.249Z</time></trkpt><trkpt lat="39.9678482" lon="9.5493615"><ele>371.0</ele><time>2026-03-29T09:36:01.249Z</time></trkpt><trkpt lat="39.9677775" lon="9.5492499"><ele>371.0</ele><time>2026-03-29T09:36:02.249Z</time></trkpt><trkpt lat="39.9676962" lon="9.5491515"><ele>371.0</ele><time>2026-03-29T09:36:03.25Z</time></trkpt><trkpt lat="39.967642" lon="9.5490541"><ele>371.0</ele><time>2026-03-29T09:36:04.249Z</time></trkpt><trkpt lat="39.9675791" lon="9.5489711"><ele>371.0</ele><time>2026-03-29T09:36:05.249Z</time></trkpt><trkpt lat="39.9674947" lon="9.5488815"><ele>371.0</ele><time>2026-03-29T09:36:07.25Z</time></trkpt><trkpt lat="39.9674321" lon="9.5488372"><ele>369.14285714285717</ele><time>2026-03-29T09:36:10.249Z</time></trkpt><trkpt lat="39.967406" lon="9.5489171"><ele>367.2857142857143</ele><time>2026-03-29T09:38:09.25Z</time></trkpt><trkpt lat="39.9673384" lon="9.5488624"><ele>365.42857142857144</ele><time>2026-03-29T09:38:12.249Z</time></trkpt><trkpt lat="39.9672563" lon="9.5488425"><ele>363.57142857142856</ele><time>2026-03-29T09:38:15.249Z</time></trkpt><trkpt lat="39.9673201" lon="9.5488102"><ele>361.7142857142857</ele><time>2026-03-29T09:38:21.25Z</time></trkpt><trkpt lat="39.9673832" lon="9.5488348"><ele>359.8571428571429</ele><time>2026-03-29T09:38:27.249Z</time></trkpt><trkpt lat="39.9674446" lon="9.5488668"><ele>358.0</ele><time>2026-03-29T09:38:30.249Z</time></trkpt><trkpt lat="39.9675009" lon="9.5489347"><ele>361.25</ele><time>2026-03-29T09:38:33.249Z</time></trkpt><trkpt lat="39.9675958" lon="9.5490127"><ele>364.5</ele><time>2026-03-29T09:38:35.25Z</time></trkpt><trkpt lat="39.9676985" lon="9.5491291"><ele>367.75</ele><time>2026-03-29T09:38:37.249Z</time></trkpt><trkpt lat="39.9677485" lon="9.5491975"><ele>371.0</ele><time>2026-03-29T09:38:38.249Z</time></trkpt><trkpt lat="39.9678387" lon="9.5493238"><ele>371.0</ele><time>2026-03-29T09:38:40.249Z</time></trkpt><trkpt lat="39.9678876" lon="9.5493794"><ele>371.0</ele><time>2026-03-29T09:38:41.25Z</time></trkpt><trkpt lat="39.9679564" lon="9.5494807"><ele>371.0</ele><time>2026-03-29T09:38:43.249Z</time></trkpt><trkpt lat="39.9680222" lon="9.5495728"><ele>371.0</ele><time>2026-03-29T09:38:45.249Z</time></trkpt><trkpt lat="39.9680954" lon="9.5496345"><ele>371.0</ele><time>2026-03-29T09:38:47.249Z</time></trkpt><trkpt lat="39.9681473" lon="9.5496908"><ele>371.0</ele><time>2026-03-29T09:38:49.249Z</time></trkpt><trkpt lat="39.9681961" lon="9.5497542"><ele>374.57142857142856</ele><time>2026-03-29T09:38:52.249Z</time></trkpt><trkpt lat="39.9682469" lon="9.5498169"><ele>378.1428571428571</ele><time>2026-03-29T09:38:55.249Z</time></trkpt><trkpt lat="39.9683109" lon="9.5498713"><ele>381.7142857142857</ele><time>2026-03-29T09:42:51.249Z</time></trkpt><trkpt lat="39.9683727" lon="9.5498538"><ele>385.2857142857143</ele><time>2026-03-29T09:49:46.249Z</time></trkpt><trkpt lat="39.9684422" lon="9.5499127"><ele>388.85714285714283</ele><time>2026-03-29T09:50:03.25Z</time></trkpt><trkpt lat="39.9684957" lon="9.5499589"><ele>392.42857142857144</ele><time>2026-03-29T09:50:05.25Z</time></trkpt><trkpt lat="39.9685548" lon="9.5500177"><ele>396.0</ele><time>2026-03-29T09:50:08.249Z</time></trkpt><trkpt lat="39.9685783" lon="9.5500977"><ele>397.7142857142857</ele><time>2026-03-29T09:50:12.249Z</time></trkpt><trkpt lat="39.9686243" lon="9.5501573"><ele>399.4285714285714</ele><time>2026-03-29T09:50:32.249Z</time></trkpt><trkpt lat="39.9686751" lon="9.550223"><ele>401.1428571428571</ele><time>2026-03-29T09:50:34.249Z</time></trkpt><trkpt lat="39.9687429" lon="9.5502855"><ele>402.8571428571429</ele><time>2026-03-29T09:50:36.249Z</time></trkpt><trkpt lat="39.9687983" lon="9.5503467"><ele>404.57142857142856</ele><time>2026-03-29T09:50:38.249Z</time></trkpt><trkpt lat="39.9688597" lon="9.5504042"><ele>406.2857142857143</ele><time>2026-03-29T09:50:40.249Z</time></trkpt><trkpt lat="39.9689137" lon="9.5504694"><ele>408.0</ele><time>2026-03-29T09:50:42.249Z</time></trkpt><trkpt lat="39.968983" lon="9.5505191"><ele>409.5</ele><time>2026-03-29T09:50:44.249Z</time></trkpt><trkpt lat="39.9690559" lon="9.5505812"><ele>411.0</ele><time>2026-03-29T09:50:47.249Z</time></trkpt><trkpt lat="39.9691223" lon="9.5506369"><ele>412.5</ele><time>2026-03-29T09:51:23.249Z</time></trkpt><trkpt lat="39.9691967" lon="9.5506489"><ele>414.0</ele><time>2026-03-29T09:51:31.25Z</time></trkpt><trkpt lat="39.9692969" lon="9.5506148"><ele>415.5</ele><time>2026-03-29T09:51:33.249Z</time></trkpt><trkpt lat="39.9693897" lon="9.5506008"><ele>417.0</ele><time>2026-03-29T09:51:35.249Z</time></trkpt><trkpt lat="39.9694983" lon="9.5505886"><ele>417.0</ele><time>2026-03-29T09:51:37.25Z</time></trkpt><trkpt lat="39.9696175" lon="9.5505497"><ele>417.0</ele><time>2026-03-29T09:51:39.25Z</time></trkpt><trkpt lat="39.9696961" lon="9.5505502"><ele>417.0</ele><time>2026-03-29T09:51:40.249Z</time></trkpt><trkpt lat="39.9697643" lon="9.5505629"><ele>417.0</ele><time>2026-03-29T09:51:41.249Z</time></trkpt><trkpt lat="39.9698512" lon="9.5505693"><ele>417.0</ele><time>2026-03-29T09:51:42.249Z</time></trkpt><trkpt lat="39.9699266" lon="9.5505773"><ele>417.0</ele><time>2026-03-29T09:51:43.249Z</time></trkpt><trkpt lat="39.9700587" lon="9.5505992"><ele>417.5</ele><time>2026-03-29T09:51:45.249Z</time></trkpt><trkpt lat="39.9701331" lon="9.5506283"><ele>418.0</ele><time>2026-03-29T09:51:46.249Z</time></trkpt><trkpt lat="39.9702063" lon="9.5506542"><ele>418.5</ele><time>2026-03-29T09:51:47.249Z</time></trkpt><trkpt lat="39.9702806" lon="9.5506755"><ele>419.0</ele><time>2026-03-29T09:51:48.249Z</time></trkpt><trkpt lat="39.970355" lon="9.5507084"><ele>419.5</ele><time>2026-03-29T09:51:49.25Z</time></trkpt><trkpt lat="39.9704273" lon="9.5507532"><ele>420.0</ele><time>2026-03-29T09:51:50.249Z</time></trkpt><trkpt lat="39.9705067" lon="9.5507897"><ele>420.0</ele><time>2026-03-29T09:51:51.25Z</time></trkpt><trkpt lat="39.9705864" lon="9.550806"><ele>420.0</ele><time>2026-03-29T09:51:52.25Z</time></trkpt><trkpt lat="39.9706601" lon="9.5508089"><ele>420.0</ele><time>2026-03-29T09:51:53.249Z</time></trkpt><trkpt lat="39.9707348" lon="9.5508212"><ele>420.0</ele><time>2026-03-29T09:51:54.249Z</time></trkpt><trkpt lat="39.9708045" lon="9.5508001"><ele>420.0</ele><time>2026-03-29T09:51:55.249Z</time></trkpt><trkpt lat="39.9708909" lon="9.5508021"><ele>420.0</ele><time>2026-03-29T09:51:58.249Z</time></trkpt><trkpt lat="39.9708162" lon="9.5508182"><ele>420.0</ele><time>2026-03-29T09:52:10.25Z</time></trkpt><trkpt lat="39.970754" lon="9.5508706"><ele>420.0</ele><time>2026-03-29T09:52:12.249Z</time></trkpt><trkpt lat="39.9706578" lon="9.5508929"><ele>420.0</ele><time>2026-03-29T09:52:14.249Z</time></trkpt><trkpt lat="39.9705934" lon="9.5508794"><ele>420.0</ele><time>2026-03-29T09:52:15.25Z</time></trkpt><trkpt lat="39.9704761" lon="9.5508853"><ele>420.0</ele><time>2026-03-29T09:52:16.249Z</time></trkpt><trkpt lat="39.970416" lon="9.5508581"><ele>420.0</ele><time>2026-03-29T09:52:17.249Z</time></trkpt><trkpt lat="39.9703414" lon="9.5508471"><ele>420.0</ele><time>2026-03-29T09:52:18.249Z</time></trkpt><trkpt lat="39.9702637" lon="9.5508801"><ele>420.0</ele><time>2026-03-29T09:52:19.249Z</time></trkpt><trkpt lat="39.9701862" lon="9.5509042"><ele>420.0</ele><time>2026-03-29T09:52:20.249Z</time></trkpt><trkpt lat="39.9701203" lon="9.5508843"><ele>420.0</ele><time>2026-03-29T09:52:21.25Z</time></trkpt><trkpt lat="39.9700551" lon="9.5509059"><ele>420.0</ele><time>2026-03-29T09:52:22.249Z</time></trkpt><trkpt lat="39.9699903" lon="9.5509234"><ele>420.0</ele><time>2026-03-29T09:52:23.249Z</time></trkpt><trkpt lat="39.9699258" lon="9.5508957"><ele>420.0</ele><time>2026-03-29T09:52:25.249Z</time></trkpt><trkpt lat="39.9698385" lon="9.5509622"><ele>419.4</ele><time>2026-03-29T09:52:26.25Z</time></trkpt><trkpt lat="39.969756" lon="9.5509961"><ele>418.8</ele><time>2026-03-29T09:52:27.249Z</time></trkpt><trkpt lat="39.9696959" lon="9.5510249"><ele>418.20000000000005</ele><time>2026-03-29T09:52:28.249Z</time></trkpt><trkpt lat="39.9696109" lon="9.5510853"><ele>417.6</ele><time>2026-03-29T09:52:29.25Z</time></trkpt><trkpt lat="39.9694513" lon="9.5511665"><ele>417.0</ele><time>2026-03-29T09:52:31.25Z</time></trkpt><trkpt lat="39.9693414" lon="9.5512032"><ele>413.6</ele><time>2026-03-29T09:52:32.249Z</time></trkpt><trkpt lat="39.9692373" lon="9.5512395"><ele>410.20000000000005</ele><time>2026-03-29T09:52:33.249Z</time></trkpt><trkpt lat="39.9691319" lon="9.5512802"><ele>406.8</ele><time>2026-03-29T09:52:34.249Z</time></trkpt><trkpt lat="39.9690365" lon="9.5512734"><ele>403.4</ele><time>2026-03-29T09:52:35.249Z</time></trkpt><trkpt lat="39.9689511" lon="9.5512872"><ele>400.0</ele><time>2026-03-29T09:52:36.249Z</time></trkpt><trkpt lat="39.9688678" lon="9.55129"><ele>400.0</ele><time>2026-03-29T09:52:37.249Z</time></trkpt><trkpt lat="39.9687777" lon="9.551288"><ele>400.0</ele><time>2026-03-29T09:52:38.25Z</time></trkpt><trkpt lat="39.9687001" lon="9.5512846"><ele>400.0</ele><time>2026-03-29T09:52:39.249Z</time></trkpt><trkpt lat="39.9686055" lon="9.5513388"><ele>400.0</ele><time>2026-03-29T09:52:41.25Z</time></trkpt><trkpt lat="39.9685611" lon="9.551416"><ele>400.0</ele><time>2026-03-29T09:52:42.249Z</time></trkpt><trkpt lat="39.9684727" lon="9.5515282"><ele>400.00000000000006</ele><time>2026-03-29T09:52:44.249Z</time></trkpt><trkpt lat="39.9684236" lon="9.5515911"><ele>400.0</ele><time>2026-03-29T09:52:45.249Z</time></trkpt><trkpt lat="39.968383" lon="9.5516547"><ele>400.0</ele><time>2026-03-29T09:52:46.25Z</time></trkpt><trkpt lat="39.9682982" lon="9.5517221"><ele>400.0</ele><time>2026-03-29T09:52:48.249Z</time></trkpt><trkpt lat="39.9682441" lon="9.5518312"><ele>400.00000000000006</ele><time>2026-03-29T09:52:50.249Z</time></trkpt><trkpt lat="39.9682059" lon="9.5519351"><ele>400.0</ele><time>2026-03-29T09:52:52.249Z</time></trkpt><trkpt lat="39.9681633" lon="9.5520296"><ele>395.83333333333337</ele><time>2026-03-29T09:52:54.249Z</time></trkpt><trkpt lat="39.9681409" lon="9.5521243"><ele>391.6666666666667</ele><time>2026-03-29T09:52:55.249Z</time></trkpt><trkpt lat="39.9681146" lon="9.5522186"><ele>387.5</ele><time>2026-03-29T09:52:56.249Z</time></trkpt><trkpt lat="39.9680889" lon="9.5523096"><ele>383.33333333333337</ele><time>2026-03-29T09:52:57.249Z</time></trkpt><trkpt lat="39.9680483" lon="9.5524071"><ele>379.1666666666667</ele><time>2026-03-29T09:52:58.249Z</time></trkpt><trkpt lat="39.9680053" lon="9.5524776"><ele>375.0</ele><time>2026-03-29T09:52:59.25Z</time></trkpt><trkpt lat="39.9679355" lon="9.5526089"><ele>375.0</ele><time>2026-03-29T09:53:01.249Z</time></trkpt><trkpt lat="39.9678879" lon="9.5526708"><ele>375.0</ele><time>2026-03-29T09:53:04.249Z</time></trkpt><trkpt lat="39.9679046" lon="9.5525467"><ele>375.0</ele><time>2026-03-29T09:53:21.249Z</time></trkpt><trkpt lat="39.9679623" lon="9.552456"><ele>375.0</ele><time>2026-03-29T09:53:23.249Z</time></trkpt><trkpt lat="39.9680459" lon="9.5523298"><ele>375.0</ele><time>2026-03-29T09:53:25.25Z</time></trkpt><trkpt lat="39.9680799" lon="9.5522565"><ele>375.0</ele><time>2026-03-29T09:53:26.249Z</time></trkpt><trkpt lat="39.968122" lon="9.5521715"><ele>375.0</ele><time>2026-03-29T09:53:27.249Z</time></trkpt><trkpt lat="39.9681453" lon="9.5520863"><ele>375.0</ele><time>2026-03-29T09:53:28.249Z</time></trkpt><trkpt lat="39.9681673" lon="9.5520041"><ele>375.0</ele><time>2026-03-29T09:53:29.249Z</time></trkpt><trkpt lat="39.9682189" lon="9.5518846"><ele>375.0</ele><time>2026-03-29T09:53:31.249Z</time></trkpt><trkpt lat="39.9682185" lon="9.5518014"><ele>375.0</ele><time>2026-03-29T09:53:35.249Z</time></trkpt><trkpt lat="39.9681482" lon="9.5518067"><ele>375.0</ele><time>2026-03-29T09:53:38.249Z</time></trkpt><trkpt lat="39.9680789" lon="9.5517939"><ele>375.0</ele><time>2026-03-29T09:53:42.249Z</time></trkpt><trkpt lat="39.9680106" lon="9.5517772"><ele>378.0</ele><time>2026-03-29T09:53:45.249Z</time></trkpt><trkpt lat="39.9679457" lon="9.551822"><ele>381.0</ele><time>2026-03-29T09:54:03.249Z</time></trkpt><trkpt lat="39.9678406" lon="9.5518049"><ele>384.0</ele><time>2026-03-29T09:54:06.249Z</time></trkpt><trkpt lat="39.9677477" lon="9.5517379"><ele>387.0</ele><time>2026-03-29T09:54:08.249Z</time></trkpt><trkpt lat="39.967671" lon="9.5517449"><ele>390.0</ele><time>2026-03-29T09:54:10.25Z</time></trkpt><trkpt lat="39.9675834" lon="9.5517592"><ele>386.0</ele><time>2026-03-29T09:54:13.249Z</time></trkpt><trkpt lat="39.9675019" lon="9.5517203"><ele>382.0</ele><time>2026-03-29T09:54:16.249Z</time></trkpt><trkpt lat="39.9674331" lon="9.5517099"><ele>378.0</ele><time>2026-03-29T09:54:18.249Z</time></trkpt><trkpt lat="39.9673589" lon="9.551697"><ele>374.0</ele><time>2026-03-29T09:54:20.25Z</time></trkpt><trkpt lat="39.9672759" lon="9.5516868"><ele>370.0</ele><time>2026-03-29T09:54:22.25Z</time></trkpt><trkpt lat="39.9671818" lon="9.5516736"><ele>366.0</ele><time>2026-03-29T09:54:24.249Z</time></trkpt><trkpt lat="39.9670585" lon="9.5516906"><ele>366.0</ele><time>2026-03-29T09:54:26.25Z</time></trkpt><trkpt lat="39.9669542" lon="9.5516998"><ele>366.0</ele><time>2026-03-29T09:54:28.249Z</time></trkpt><trkpt lat="39.9668912" lon="9.5516713"><ele>366.0</ele><time>2026-03-29T09:54:30.249Z</time></trkpt><trkpt lat="39.9668186" lon="9.5516596"><ele>366.0</ele><time>2026-03-29T09:54:32.249Z</time></trkpt><trkpt lat="39.9667528" lon="9.5516034"><ele>366.0</ele><time>2026-03-29T09:54:35.249Z</time></trkpt><trkpt lat="39.9666535" lon="9.551583"><ele>366.0</ele><time>2026-03-29T09:54:37.249Z</time></trkpt><trkpt lat="39.9665697" lon="9.5515533"><ele>360.8333333333333</ele><time>2026-03-29T09:54:39.249Z</time></trkpt><trkpt lat="39.9664945" lon="9.5515323"><ele>355.6666666666667</ele><time>2026-03-29T09:54:41.249Z</time></trkpt><trkpt lat="39.9664188" lon="9.5515028"><ele>350.5</ele><time>2026-03-29T09:54:43.25Z</time></trkpt><trkpt lat="39.9663523" lon="9.5515309"><ele>345.33333333333337</ele><time>2026-03-29T09:54:46.249Z</time></trkpt><trkpt lat="39.9662913" lon="9.5516015"><ele>340.1666666666667</ele><time>2026-03-29T09:54:48.25Z</time></trkpt><trkpt lat="39.9662299" lon="9.5516198"><ele>335.0</ele><time>2026-03-29T09:54:49.249Z</time></trkpt><trkpt lat="39.9661359" lon="9.5516542"><ele>335.0</ele><time>2026-03-29T09:54:51.249Z</time></trkpt><trkpt lat="39.9660992" lon="9.5517794"><ele>335.0</ele><time>2026-03-29T09:54:53.249Z</time></trkpt><trkpt lat="39.9660733" lon="9.5519253"><ele>335.0</ele><time>2026-03-29T09:54:55.249Z</time></trkpt><trkpt lat="39.966098" lon="9.552004"><ele>335.0</ele><time>2026-03-29T09:54:56.249Z</time></trkpt><trkpt lat="39.9661488" lon="9.552161"><ele>335.0</ele><time>2026-03-29T09:54:58.249Z</time></trkpt><trkpt lat="39.9661079" lon="9.5523002"><ele>334.6</ele><time>2026-03-29T09:55:00.249Z</time></trkpt><trkpt lat="39.9660059" lon="9.5523567"><ele>334.2</ele><time>2026-03-29T09:55:02.25Z</time></trkpt><trkpt lat="39.9659258" lon="9.552372"><ele>333.79999999999995</ele><time>2026-03-29T09:55:03.249Z</time></trkpt><trkpt lat="39.9658352" lon="9.5523725"><ele>333.4</ele><time>2026-03-29T09:55:04.249Z</time></trkpt><trkpt lat="39.9657424" lon="9.5523861"><ele>333.0</ele><time>2026-03-29T09:55:05.25Z</time></trkpt><trkpt lat="39.965654" lon="9.5524068"><ele>331.6666666666667</ele><time>2026-03-29T09:55:06.249Z</time></trkpt><trkpt lat="39.965577" lon="9.5524437"><ele>330.3333333333333</ele><time>2026-03-29T09:55:07.25Z</time></trkpt><trkpt lat="39.9655181" lon="9.5525014"><ele>329.0</ele><time>2026-03-29T09:55:08.249Z</time></trkpt><trkpt lat="39.9654708" lon="9.5525643"><ele>327.66666666666663</ele><time>2026-03-29T09:55:09.25Z</time></trkpt><trkpt lat="39.9654282" lon="9.5526372"><ele>326.3333333333333</ele><time>2026-03-29T09:55:10.249Z</time></trkpt><trkpt lat="39.9653567" lon="9.5527771"><ele>325.0</ele><time>2026-03-29T09:55:12.25Z</time></trkpt><trkpt lat="39.9652918" lon="9.5530171"><ele>325.0</ele><time>2026-03-29T09:55:14.25Z</time></trkpt><trkpt lat="39.9652595" lon="9.553111"><ele>325.0</ele><time>2026-03-29T09:55:15.249Z</time></trkpt><trkpt lat="39.9652335" lon="9.553297"><ele>325.0</ele><time>2026-03-29T09:55:17.249Z</time></trkpt><trkpt lat="39.965211" lon="9.5533881"><ele>325.0</ele><time>2026-03-29T09:55:18.249Z</time></trkpt><trkpt lat="39.9652115" lon="9.5534988"><ele>325.0</ele><time>2026-03-29T09:55:19.249Z</time></trkpt><trkpt lat="39.9652107" lon="9.553594"><ele>325.0</ele><time>2026-03-29T09:55:20.249Z</time></trkpt><trkpt lat="39.9651926" lon="9.5536871"><ele>325.0</ele><time>2026-03-29T09:55:21.249Z</time></trkpt><trkpt lat="39.9651689" lon="9.553786"><ele>325.0</ele><time>2026-03-29T09:55:22.25Z</time></trkpt><trkpt lat="39.9651077" lon="9.5538669"><ele>325.0</ele><time>2026-03-29T09:55:23.249Z</time></trkpt><trkpt lat="39.9650605" lon="9.5539405"><ele>325.0</ele><time>2026-03-29T09:55:24.25Z</time></trkpt><trkpt lat="39.9649989" lon="9.5540187"><ele>325.0</ele><time>2026-03-29T09:55:25.249Z</time></trkpt><trkpt lat="39.9649139" lon="9.5540769"><ele>318.5</ele><time>2026-03-29T09:55:26.249Z</time></trkpt><trkpt lat="39.9648577" lon="9.5541359"><ele>312.0</ele><time>2026-03-29T09:55:27.249Z</time></trkpt><trkpt lat="39.9647847" lon="9.5541731"><ele>305.5</ele><time>2026-03-29T09:55:28.249Z</time></trkpt><trkpt lat="39.9647171" lon="9.5542391"><ele>299.0</ele><time>2026-03-29T09:55:29.249Z</time></trkpt><trkpt lat="39.9646589" lon="9.5543041"><ele>292.5</ele><time>2026-03-29T09:55:30.249Z</time></trkpt><trkpt lat="39.9646025" lon="9.5543702"><ele>286.0</ele><time>2026-03-29T09:55:31.249Z</time></trkpt><trkpt lat="39.9644927" lon="9.5544727"><ele>283.66666666666663</ele><time>2026-03-29T09:55:33.249Z</time></trkpt><trkpt lat="39.9644389" lon="9.5545529"><ele>281.3333333333333</ele><time>2026-03-29T09:55:34.25Z</time></trkpt><trkpt lat="39.9643845" lon="9.5546364"><ele>279.0</ele><time>2026-03-29T09:55:35.249Z</time></trkpt><trkpt lat="39.9643226" lon="9.5547111"><ele>276.6666666666667</ele><time>2026-03-29T09:55:36.25Z</time></trkpt><trkpt lat="39.9642856" lon="9.5547894"><ele>274.33333333333337</ele><time>2026-03-29T09:55:37.25Z</time></trkpt><trkpt lat="39.9642464" lon="9.5548569"><ele>272.0</ele><time>2026-03-29T09:55:38.249Z</time></trkpt><trkpt lat="39.9642189" lon="9.5549568"><ele>272.0</ele><time>2026-03-29T09:55:40.249Z</time></trkpt><trkpt lat="39.9643179" lon="9.5549004"><ele>272.0</ele><time>2026-03-29T09:55:43.25Z</time></trkpt><trkpt lat="39.964397" lon="9.5548864"><ele>272.0</ele><time>2026-03-29T09:55:44.249Z</time></trkpt><trkpt lat="39.9644778" lon="9.5548782"><ele>272.0</ele><time>2026-03-29T09:55:45.249Z</time></trkpt><trkpt lat="39.9645496" lon="9.5548934"><ele>272.0</ele><time>2026-03-29T09:55:46.25Z</time></trkpt><trkpt lat="39.9646254" lon="9.5549197"><ele>272.0</ele><time>2026-03-29T09:55:47.249Z</time></trkpt><trkpt lat="39.9646883" lon="9.5549554"><ele>272.0</ele><time>2026-03-29T09:55:48.249Z</time></trkpt><trkpt lat="39.9647223" lon="9.5550392"><ele>272.0</ele><time>2026-03-29T09:55:49.249Z</time></trkpt><trkpt lat="39.9647725" lon="9.5551213"><ele>272.0</ele><time>2026-03-29T09:55:50.249Z</time></trkpt><trkpt lat="39.9647942" lon="9.555217"><ele>272.0</ele><time>2026-03-29T09:55:51.249Z</time></trkpt><trkpt lat="39.9648262" lon="9.5553144"><ele>272.0</ele><time>2026-03-29T09:55:52.249Z</time></trkpt><trkpt lat="39.9648371" lon="9.5554139"><ele>272.0</ele><time>2026-03-29T09:55:53.25Z</time></trkpt><trkpt lat="39.9648371" lon="9.5555323"><ele>269.0</ele><time>2026-03-29T09:55:54.25Z</time></trkpt><trkpt lat="39.964824" lon="9.5556219"><ele>266.0</ele><time>2026-03-29T09:55:55.249Z</time></trkpt><trkpt lat="39.964808" lon="9.5557257"><ele>263.0</ele><time>2026-03-29T09:55:56.249Z</time></trkpt><trkpt lat="39.9648117" lon="9.5558296"><ele>260.0</ele><time>2026-03-29T09:55:57.25Z</time></trkpt><trkpt lat="39.9648281" lon="9.5559455"><ele>257.0</ele><time>2026-03-29T09:55:58.249Z</time></trkpt><trkpt lat="39.9648579" lon="9.5560933"><ele>254.0</ele><time>2026-03-29T09:56:00.249Z</time></trkpt><trkpt lat="39.964865" lon="9.5561902"><ele>252.00000000000003</ele><time>2026-03-29T09:56:01.249Z</time></trkpt><trkpt lat="39.9648705" lon="9.5562743"><ele>250.0</ele><time>2026-03-29T09:56:02.25Z</time></trkpt><trkpt lat="39.9648077" lon="9.5563926"><ele>248.0</ele><time>2026-03-29T09:56:04.249Z</time></trkpt><trkpt lat="39.9647762" lon="9.5564751"><ele>246.0</ele><time>2026-03-29T09:56:05.249Z</time></trkpt><trkpt lat="39.9647664" lon="9.5566055"><ele>244.00000000000003</ele><time>2026-03-29T09:56:06.25Z</time></trkpt><trkpt lat="39.9647732" lon="9.5566958"><ele>242.0</ele><time>2026-03-29T09:56:07.249Z</time></trkpt><trkpt lat="39.9647582" lon="9.5568659"><ele>242.00000000000003</ele><time>2026-03-29T09:56:09.249Z</time></trkpt><trkpt lat="39.9647328" lon="9.5569502"><ele>242.0</ele><time>2026-03-29T09:56:10.25Z</time></trkpt><trkpt lat="39.9647034" lon="9.5570262"><ele>242.0</ele><time>2026-03-29T09:56:11.249Z</time></trkpt><trkpt lat="39.9646318" lon="9.5571491"><ele>242.0</ele><time>2026-03-29T09:56:13.25Z</time></trkpt><trkpt lat="39.9645956" lon="9.5572987"><ele>242.00000000000003</ele><time>2026-03-29T09:56:15.249Z</time></trkpt><trkpt lat="39.9645835" lon="9.5573857"><ele>242.0</ele><time>2026-03-29T09:56:16.25Z</time></trkpt><trkpt lat="39.964571" lon="9.5575614"><ele>239.8</ele><time>2026-03-29T09:56:18.249Z</time></trkpt><trkpt lat="39.9645593" lon="9.5576494"><ele>237.6</ele><time>2026-03-29T09:56:19.249Z</time></trkpt><trkpt lat="39.964494" lon="9.5577893"><ele>235.40000000000003</ele><time>2026-03-29T09:56:21.25Z</time></trkpt><trkpt lat="39.9644677" lon="9.5579449"><ele>233.20000000000002</ele><time>2026-03-29T09:56:23.249Z</time></trkpt><trkpt lat="39.96442" lon="9.5580867"><ele>231.0</ele><time>2026-03-29T09:56:25.25Z</time></trkpt><trkpt lat="39.96438" lon="9.558158"><ele>228.83333333333334</ele><time>2026-03-29T09:56:26.25Z</time></trkpt><trkpt lat="39.9643272" lon="9.5582194"><ele>226.66666666666669</ele><time>2026-03-29T09:56:27.25Z</time></trkpt><trkpt lat="39.9642741" lon="9.5583079"><ele>224.5</ele><time>2026-03-29T09:56:28.249Z</time></trkpt><trkpt lat="39.9642146" lon="9.5583941"><ele>222.33333333333334</ele><time>2026-03-29T09:56:29.249Z</time></trkpt><trkpt lat="39.9641491" lon="9.5584803"><ele>220.16666666666669</ele><time>2026-03-29T09:56:30.25Z</time></trkpt><trkpt lat="39.9640799" lon="9.5585688"><ele>218.0</ele><time>2026-03-29T09:56:31.249Z</time></trkpt><trkpt lat="39.9640116" lon="9.5586732"><ele>209.2</ele><time>2026-03-29T09:56:32.249Z</time></trkpt><trkpt lat="39.9639536" lon="9.5587711"><ele>200.4</ele><time>2026-03-29T09:56:33.25Z</time></trkpt><trkpt lat="39.963904" lon="9.5588728"><ele>191.6</ele><time>2026-03-29T09:56:34.25Z</time></trkpt><trkpt lat="39.9638506" lon="9.5589737"><ele>182.79999999999998</ele><time>2026-03-29T09:56:35.249Z</time></trkpt><trkpt lat="39.9638086" lon="9.5590779"><ele>174.0</ele><time>2026-03-29T09:56:36.249Z</time></trkpt><trkpt lat="39.963782" lon="9.559186"><ele>174.0</ele><time>2026-03-29T09:56:37.249Z</time></trkpt><trkpt lat="39.9637453" lon="9.5593091"><ele>174.0</ele><time>2026-03-29T09:56:38.249Z</time></trkpt><trkpt lat="39.9637079" lon="9.559419"><ele>174.0</ele><time>2026-03-29T09:56:39.25Z</time></trkpt><trkpt lat="39.9636734" lon="9.5595278"><ele>174.0</ele><time>2026-03-29T09:56:40.249Z</time></trkpt><trkpt lat="39.9636413" lon="9.5596285"><ele>174.0</ele><time>2026-03-29T09:56:41.249Z</time></trkpt><trkpt lat="39.9636142" lon="9.5597066"><ele>174.0</ele><time>2026-03-29T09:56:42.249Z</time></trkpt><trkpt lat="39.9635753" lon="9.5597894"><ele>172.33333333333334</ele><time>2026-03-29T09:56:43.249Z</time></trkpt><trkpt lat="39.9635125" lon="9.5598211"><ele>170.66666666666666</ele><time>2026-03-29T09:56:44.249Z</time></trkpt><trkpt lat="39.9634588" lon="9.559883"><ele>169.0</ele><time>2026-03-29T09:56:45.249Z</time></trkpt><trkpt lat="39.9633787" lon="9.5599127"><ele>167.33333333333331</ele><time>2026-03-29T09:56:46.249Z</time></trkpt><trkpt lat="39.9632862" lon="9.5599329"><ele>165.66666666666666</ele><time>2026-03-29T09:56:47.249Z</time></trkpt><trkpt lat="39.9632055" lon="9.5600043"><ele>164.0</ele><time>2026-03-29T09:56:48.249Z</time></trkpt><trkpt lat="39.9631222" lon="9.5600482"><ele>161.83333333333331</ele><time>2026-03-29T09:56:49.249Z</time></trkpt><trkpt lat="39.9630618" lon="9.56017"><ele>159.66666666666666</ele><time>2026-03-29T09:56:50.249Z</time></trkpt><trkpt lat="39.963012" lon="9.5602759"><ele>157.5</ele><time>2026-03-29T09:56:51.249Z</time></trkpt><trkpt lat="39.9629511" lon="9.5603485"><ele>155.33333333333334</ele><time>2026-03-29T09:56:52.249Z</time></trkpt><trkpt lat="39.9628851" lon="9.5604075"><ele>153.16666666666669</ele><time>2026-03-29T09:56:53.249Z</time></trkpt><trkpt lat="39.9628167" lon="9.5604525"><ele>151.0</ele><time>2026-03-29T09:56:54.249Z</time></trkpt><trkpt lat="39.9627441" lon="9.5605107"><ele>148.83333333333334</ele><time>2026-03-29T09:56:55.249Z</time></trkpt><trkpt lat="39.9626759" lon="9.5605806"><ele>146.66666666666669</ele><time>2026-03-29T09:56:56.25Z</time></trkpt><trkpt lat="39.962599" lon="9.5606249"><ele>144.5</ele><time>2026-03-29T09:56:57.249Z</time></trkpt><trkpt lat="39.9625231" lon="9.5606699"><ele>142.33333333333334</ele><time>2026-03-29T09:56:58.25Z</time></trkpt><trkpt lat="39.9624518" lon="9.5607023"><ele>140.16666666666666</ele><time>2026-03-29T09:56:59.25Z</time></trkpt><trkpt lat="39.9623759" lon="9.5607244"><ele>138.0</ele><time>2026-03-29T09:57:00.249Z</time></trkpt><trkpt lat="39.9622815" lon="9.5607538"><ele>138.0</ele><time>2026-03-29T09:57:01.25Z</time></trkpt><trkpt lat="39.9621927" lon="9.5607989"><ele>138.0</ele><time>2026-03-29T09:57:02.25Z</time></trkpt><trkpt lat="39.9621153" lon="9.5608404"><ele>138.0</ele><time>2026-03-29T09:57:03.249Z</time></trkpt><trkpt lat="39.9620367" lon="9.5608727"><ele>138.0</ele><time>2026-03-29T09:57:04.249Z</time></trkpt><trkpt lat="39.9619767" lon="9.5609101"><ele>138.0</ele><time>2026-03-29T09:57:05.249Z</time></trkpt><trkpt lat="39.9619095" lon="9.5610158"><ele>138.0</ele><time>2026-03-29T09:57:07.249Z</time></trkpt><trkpt lat="39.9619043" lon="9.5611002"><ele>138.0</ele><time>2026-03-29T09:57:08.249Z</time></trkpt><trkpt lat="39.9619071" lon="9.5611919"><ele>138.0</ele><time>2026-03-29T09:57:09.25Z</time></trkpt><trkpt lat="39.9619341" lon="9.5612738"><ele>138.0</ele><time>2026-03-29T09:57:10.25Z</time></trkpt><trkpt lat="39.9619589" lon="9.561367"><ele>138.0</ele><time>2026-03-29T09:57:11.249Z</time></trkpt><trkpt lat="39.9619846" lon="9.5614586"><ele>138.0</ele><time>2026-03-29T09:57:12.249Z</time></trkpt><trkpt lat="39.962004" lon="9.5615756"><ele>138.0</ele><time>2026-03-29T09:57:13.249Z</time></trkpt><trkpt lat="39.9620251" lon="9.5616894"><ele>135.20000000000002</ele><time>2026-03-29T09:57:14.25Z</time></trkpt><trkpt lat="39.9620624" lon="9.5617937"><ele>132.4</ele><time>2026-03-29T09:57:15.25Z</time></trkpt><trkpt lat="39.9621218" lon="9.5618603"><ele>129.60000000000002</ele><time>2026-03-29T09:57:16.249Z</time></trkpt><trkpt lat="39.9622292" lon="9.561918"><ele>126.80000000000001</ele><time>2026-03-29T09:57:17.249Z</time></trkpt><trkpt lat="39.9623101" lon="9.5619845"><ele>124.0</ele><time>2026-03-29T09:57:18.249Z</time></trkpt><trkpt lat="39.9623804" lon="9.5620373"><ele>120.6</ele><time>2026-03-29T09:57:19.249Z</time></trkpt><trkpt lat="39.9624478" lon="9.5620853"><ele>117.2</ele><time>2026-03-29T09:57:20.249Z</time></trkpt><trkpt lat="39.9625306" lon="9.5621085"><ele>113.79999999999998</ele><time>2026-03-29T09:57:22.249Z</time></trkpt><trkpt lat="39.9625152" lon="9.5622199"><ele>110.39999999999999</ele><time>2026-03-29T09:57:25.25Z</time></trkpt><trkpt lat="39.9624271" lon="9.5623777"><ele>107.0</ele><time>2026-03-29T09:57:27.25Z</time></trkpt><trkpt lat="39.9623828" lon="9.5624917"><ele>106.99999999999999</ele><time>2026-03-29T09:57:28.249Z</time></trkpt><trkpt lat="39.9623531" lon="9.5626115"><ele>107.0</ele><time>2026-03-29T09:57:29.249Z</time></trkpt><trkpt lat="39.9623337" lon="9.5627339"><ele>107.0</ele><time>2026-03-29T09:57:30.249Z</time></trkpt><trkpt lat="39.962305" lon="9.5628367"><ele>107.0</ele><time>2026-03-29T09:57:31.249Z</time></trkpt><trkpt lat="39.9622695" lon="9.5629283"><ele>106.99999999999999</ele><time>2026-03-29T09:57:32.249Z</time></trkpt><trkpt lat="39.962219" lon="9.5629816"><ele>107.0</ele><time>2026-03-29T09:57:33.249Z</time></trkpt><trkpt lat="39.9621527" lon="9.563025"><ele>105.39999999999999</ele><time>2026-03-29T09:57:34.25Z</time></trkpt><trkpt lat="39.9620675" lon="9.5630238"><ele>103.79999999999998</ele><time>2026-03-29T09:57:35.249Z</time></trkpt><trkpt lat="39.9619654" lon="9.5630139"><ele>102.2</ele><time>2026-03-29T09:57:36.25Z</time></trkpt><trkpt lat="39.9618659" lon="9.5630149"><ele>100.6</ele><time>2026-03-29T09:57:37.249Z</time></trkpt><trkpt lat="39.9617696" lon="9.5630001"><ele>99.0</ele><time>2026-03-29T09:57:38.249Z</time></trkpt><trkpt lat="39.9616861" lon="9.5629531"><ele>99.5</ele><time>2026-03-29T09:57:39.249Z</time></trkpt><trkpt lat="39.9615954" lon="9.5629281"><ele>100.0</ele><time>2026-03-29T09:57:40.25Z</time></trkpt><trkpt lat="39.9615005" lon="9.5629223"><ele>100.5</ele><time>2026-03-29T09:57:41.249Z</time></trkpt><trkpt lat="39.9614162" lon="9.5629003"><ele>101.0</ele><time>2026-03-29T09:57:42.25Z</time></trkpt><trkpt lat="39.9613355" lon="9.5628928"><ele>101.5</ele><time>2026-03-29T09:57:43.25Z</time></trkpt><trkpt lat="39.9612728" lon="9.5628764"><ele>102.0</ele><time>2026-03-29T09:57:44.249Z</time></trkpt><trkpt lat="39.9611901" lon="9.5628101"><ele>102.0</ele><time>2026-03-29T09:57:46.249Z</time></trkpt><trkpt lat="39.9611265" lon="9.5628168"><ele>102.0</ele><time>2026-03-29T09:57:49.249Z</time></trkpt><trkpt lat="39.9611749" lon="9.5628928"><ele>102.0</ele><time>2026-03-29T09:57:52.249Z</time></trkpt><trkpt lat="39.9612462" lon="9.562979"><ele>102.0</ele><time>2026-03-29T09:58:26.249Z</time></trkpt><trkpt lat="39.9613337" lon="9.5630994"><ele>102.0</ele><time>2026-03-29T09:58:28.249Z</time></trkpt><trkpt lat="39.9613938" lon="9.5631866"><ele>101.39999999999999</ele><time>2026-03-29T09:58:29.249Z</time></trkpt><trkpt lat="39.9614662" lon="9.5632792"><ele>100.8</ele><time>2026-03-29T09:58:30.249Z</time></trkpt><trkpt lat="39.9615444" lon="9.5633634"><ele>100.2</ele><time>2026-03-29T09:58:31.249Z</time></trkpt><trkpt lat="39.9616202" lon="9.563439"><ele>99.6</ele><time>2026-03-29T09:58:32.249Z</time></trkpt><trkpt lat="39.9616902" lon="9.5634996"><ele>99.0</ele><time>2026-03-29T09:58:33.25Z</time></trkpt><trkpt lat="39.9617663" lon="9.5635694"><ele>99.0</ele><time>2026-03-29T09:58:34.249Z</time></trkpt><trkpt lat="39.9618378" lon="9.5636342"><ele>99.0</ele><time>2026-03-29T09:58:35.249Z</time></trkpt><trkpt lat="39.9619031" lon="9.5637128"><ele>99.0</ele><time>2026-03-29T09:58:36.249Z</time></trkpt><trkpt lat="39.9619608" lon="9.5637988"><ele>99.0</ele><time>2026-03-29T09:58:37.25Z</time></trkpt><trkpt lat="39.9620256" lon="9.5638899"><ele>99.0</ele><time>2026-03-29T09:58:38.249Z</time></trkpt><trkpt lat="39.9620952" lon="9.5639874"><ele>97.80000000000001</ele><time>2026-03-29T09:58:39.249Z</time></trkpt><trkpt lat="39.9621681" lon="9.5640933"><ele>96.60000000000001</ele><time>2026-03-29T09:58:40.249Z</time></trkpt><trkpt lat="39.9622473" lon="9.5641962"><ele>95.4</ele><time>2026-03-29T09:58:41.249Z</time></trkpt><trkpt lat="39.9623245" lon="9.5642967"><ele>94.2</ele><time>2026-03-29T09:58:42.25Z</time></trkpt><trkpt lat="39.9624057" lon="9.5643966"><ele>93.0</ele><time>2026-03-29T09:58:43.25Z</time></trkpt><trkpt lat="39.9624887" lon="9.5645013"><ele>92.0</ele><time>2026-03-29T09:58:44.25Z</time></trkpt><trkpt lat="39.9625657" lon="9.5646163"><ele>91.0</ele><time>2026-03-29T09:58:45.25Z</time></trkpt><trkpt lat="39.962652" lon="9.564714"><ele>90.0</ele><time>2026-03-29T09:58:46.249Z</time></trkpt><trkpt lat="39.9627415" lon="9.5648018"><ele>89.0</ele><time>2026-03-29T09:58:47.25Z</time></trkpt><trkpt lat="39.9628402" lon="9.5648641"><ele>89.0</ele><time>2026-03-29T09:58:48.25Z</time></trkpt><trkpt lat="39.9629311" lon="9.5649271"><ele>89.0</ele><time>2026-03-29T09:58:49.249Z</time></trkpt><trkpt lat="39.9630461" lon="9.5649687"><ele>89.0</ele><time>2026-03-29T09:58:50.249Z</time></trkpt><trkpt lat="39.9631373" lon="9.5650102"><ele>89.0</ele><time>2026-03-29T09:58:51.249Z</time></trkpt><trkpt lat="39.963228" lon="9.565042"><ele>89.0</ele><time>2026-03-29T09:58:52.25Z</time></trkpt><trkpt lat="39.9633346" lon="9.5650654"><ele>90.2</ele><time>2026-03-29T09:58:53.249Z</time></trkpt><trkpt lat="39.963436" lon="9.5650822"><ele>91.4</ele><time>2026-03-29T09:58:54.249Z</time></trkpt><trkpt lat="39.9635458" lon="9.5651026"><ele>92.6</ele><time>2026-03-29T09:58:55.249Z</time></trkpt><trkpt lat="39.9636475" lon="9.5651143"><ele>93.8</ele><time>2026-03-29T09:58:56.25Z</time></trkpt><trkpt lat="39.9637493" lon="9.5650863"><ele>95.0</ele><time>2026-03-29T09:58:57.249Z</time></trkpt><trkpt lat="39.9638298" lon="9.5650541"><ele>95.0</ele><time>2026-03-29T09:58:58.249Z</time></trkpt><trkpt lat="39.9639185" lon="9.5650497"><ele>95.0</ele><time>2026-03-29T09:58:59.249Z</time></trkpt><trkpt lat="39.9639794" lon="9.5650083"><ele>95.0</ele><time>2026-03-29T09:59:00.249Z</time></trkpt><trkpt lat="39.9640447" lon="9.5649661"><ele>95.0</ele><time>2026-03-29T09:59:01.249Z</time></trkpt><trkpt lat="39.9641035" lon="9.5649221"><ele>95.0</ele><time>2026-03-29T09:59:02.25Z</time></trkpt><trkpt lat="39.9641639" lon="9.5648713"><ele>95.0</ele><time>2026-03-29T09:59:03.249Z</time></trkpt><trkpt lat="39.964226" lon="9.5648202"><ele>95.0</ele><time>2026-03-29T09:59:04.25Z</time></trkpt><trkpt lat="39.9642995" lon="9.564758"><ele>96.0</ele><time>2026-03-29T09:59:05.249Z</time></trkpt><trkpt lat="39.9643639" lon="9.564701"><ele>97.0</ele><time>2026-03-29T09:59:06.249Z</time></trkpt><trkpt lat="39.9644394" lon="9.5646326"><ele>98.0</ele><time>2026-03-29T09:59:07.249Z</time></trkpt><trkpt lat="39.9645078" lon="9.564564"><ele>99.0</ele><time>2026-03-29T09:59:08.249Z</time></trkpt><trkpt lat="39.9645957" lon="9.5644942"><ele>100.0</ele><time>2026-03-29T09:59:09.249Z</time></trkpt><trkpt lat="39.9646883" lon="9.5644133"><ele>100.0</ele><time>2026-03-29T09:59:10.25Z</time></trkpt><trkpt lat="39.9647926" lon="9.5643312"><ele>100.0</ele><time>2026-03-29T09:59:11.249Z</time></trkpt><trkpt lat="39.9648997" lon="9.5642786"><ele>100.0</ele><time>2026-03-29T09:59:12.249Z</time></trkpt><trkpt lat="39.9650069" lon="9.5642463"><ele>100.0</ele><time>2026-03-29T09:59:13.25Z</time></trkpt><trkpt lat="39.9651177" lon="9.5642469"><ele>100.2</ele><time>2026-03-29T09:59:14.249Z</time></trkpt><trkpt lat="39.9652061" lon="9.5642753"><ele>100.4</ele><time>2026-03-29T09:59:15.249Z</time></trkpt><trkpt lat="39.9652789" lon="9.564355"><ele>100.6</ele><time>2026-03-29T09:59:16.249Z</time></trkpt><trkpt lat="39.9653384" lon="9.5644694"><ele>100.8</ele><time>2026-03-29T09:59:17.249Z</time></trkpt><trkpt lat="39.9653962" lon="9.5646034"><ele>101.0</ele><time>2026-03-29T09:59:18.249Z</time></trkpt><trkpt lat="39.9654518" lon="9.564752"><ele>101.0</ele><time>2026-03-29T09:59:19.25Z</time></trkpt><trkpt lat="39.9655182" lon="9.5649169"><ele>101.0</ele><time>2026-03-29T09:59:20.249Z</time></trkpt><trkpt lat="39.9655949" lon="9.5650987"><ele>101.0</ele><time>2026-03-29T09:59:21.249Z</time></trkpt><trkpt lat="39.9656651" lon="9.5652853"><ele>100.33333333333333</ele><time>2026-03-29T09:59:22.249Z</time></trkpt><trkpt lat="39.9657344" lon="9.56548"><ele>99.66666666666666</ele><time>2026-03-29T09:59:23.249Z</time></trkpt><trkpt lat="39.9658114" lon="9.5656744"><ele>99.0</ele><time>2026-03-29T09:59:24.249Z</time></trkpt><trkpt lat="39.9658874" lon="9.5658708"><ele>100.0</ele><time>2026-03-29T09:59:25.25Z</time></trkpt><trkpt lat="39.9659514" lon="9.5660512"><ele>101.0</ele><time>2026-03-29T09:59:26.249Z</time></trkpt><trkpt lat="39.9659515" lon="9.5662001"><ele>102.0</ele><time>2026-03-29T09:59:27.25Z</time></trkpt><trkpt lat="39.9659671" lon="9.5663749"><ele>103.0</ele><time>2026-03-29T09:59:28.25Z</time></trkpt><trkpt lat="39.9659831" lon="9.5665419"><ele>103.0</ele><time>2026-03-29T09:59:29.249Z</time></trkpt><trkpt lat="39.9660064" lon="9.5666928"><ele>103.0</ele><time>2026-03-29T09:59:30.249Z</time></trkpt><trkpt lat="39.9660294" lon="9.5668472"><ele>103.0</ele><time>2026-03-29T09:59:31.249Z</time></trkpt><trkpt lat="39.9660712" lon="9.5670076"><ele>103.0</ele><time>2026-03-29T09:59:32.249Z</time></trkpt><trkpt lat="39.9662045" lon="9.5671235"><ele>102.5</ele><time>2026-03-29T09:59:33.25Z</time></trkpt><trkpt lat="39.9662954" lon="9.5672658"><ele>102.0</ele><time>2026-03-29T09:59:34.249Z</time></trkpt><trkpt lat="39.966384" lon="9.5674194"><ele>101.5</ele><time>2026-03-29T09:59:35.25Z</time></trkpt><trkpt lat="39.9664732" lon="9.5675924"><ele>101.0</ele><time>2026-03-29T09:59:36.249Z</time></trkpt><trkpt lat="39.9665577" lon="9.5677731"><ele>100.25</ele><time>2026-03-29T09:59:37.249Z</time></trkpt><trkpt lat="39.9666244" lon="9.5679573"><ele>99.5</ele><time>2026-03-29T09:59:38.249Z</time></trkpt><trkpt lat="39.966684" lon="9.5681314"><ele>98.75</ele><time>2026-03-29T09:59:39.249Z</time></trkpt><trkpt lat="39.966751" lon="9.5682849"><ele>98.0</ele><time>2026-03-29T09:59:40.25Z</time></trkpt><trkpt lat="39.966817" lon="9.5684436"><ele>98.0</ele><time>2026-03-29T09:59:41.249Z</time></trkpt><trkpt lat="39.966876" lon="9.568587"><ele>98.0</ele><time>2026-03-29T09:59:42.249Z</time></trkpt><trkpt lat="39.9669322" lon="9.5687234"><ele>98.0</ele><time>2026-03-29T09:59:43.249Z</time></trkpt><trkpt lat="39.9670004" lon="9.5688478"><ele>98.0</ele><time>2026-03-29T09:59:44.249Z</time></trkpt><trkpt lat="39.9670972" lon="9.5689388"><ele>98.0</ele><time>2026-03-29T09:59:45.249Z</time></trkpt><trkpt lat="39.9671645" lon="9.5690131"><ele>98.0</ele><time>2026-03-29T09:59:46.249Z</time></trkpt><trkpt lat="39.96722" lon="9.5691103"><ele>98.0</ele><time>2026-03-29T09:59:47.25Z</time></trkpt><trkpt lat="39.9672729" lon="9.5692209"><ele>98.0</ele><time>2026-03-29T09:59:48.249Z</time></trkpt><trkpt lat="39.9673224" lon="9.5693516"><ele>98.0</ele><time>2026-03-29T09:59:49.249Z</time></trkpt><trkpt lat="39.9673562" lon="9.5695089"><ele>96.5</ele><time>2026-03-29T09:59:50.249Z</time></trkpt><trkpt lat="39.9673966" lon="9.5696647"><ele>95.0</ele><time>2026-03-29T09:59:51.25Z</time></trkpt><trkpt lat="39.967428" lon="9.5698263"><ele>93.5</ele><time>2026-03-29T09:59:52.249Z</time></trkpt><trkpt lat="39.9674669" lon="9.5699845"><ele>92.0</ele><time>2026-03-29T09:59:53.249Z</time></trkpt><trkpt lat="39.9674944" lon="9.570144"><ele>92.0</ele><time>2026-03-29T09:59:54.249Z</time></trkpt><trkpt lat="39.9675037" lon="9.5702987"><ele>92.0</ele><time>2026-03-29T09:59:55.25Z</time></trkpt><trkpt lat="39.9675424" lon="9.5704571"><ele>92.0</ele><time>2026-03-29T09:59:56.249Z</time></trkpt><trkpt lat="39.9675663" lon="9.5706143"><ele>92.0</ele><time>2026-03-29T09:59:57.249Z</time></trkpt><trkpt lat="39.9675792" lon="9.5707674"><ele>92.6</ele><time>2026-03-29T09:59:58.25Z</time></trkpt><trkpt lat="39.9675956" lon="9.5709214"><ele>93.19999999999999</ele><time>2026-03-29T09:59:59.25Z</time></trkpt><trkpt lat="39.9676117" lon="9.5710309"><ele>93.8</ele><time>2026-03-29T10:00:00.25Z</time></trkpt><trkpt lat="39.9676276" lon="9.5711528"><ele>94.4</ele><time>2026-03-29T10:00:01.25Z</time></trkpt><trkpt lat="39.9676424" lon="9.5712927"><ele>95.0</ele><time>2026-03-29T10:00:02.249Z</time></trkpt><trkpt lat="39.9677341" lon="9.5713634"><ele>95.0</ele><time>2026-03-29T10:00:03.249Z</time></trkpt><trkpt lat="39.9677939" lon="9.571471"><ele>95.0</ele><time>2026-03-29T10:00:04.249Z</time></trkpt><trkpt lat="39.9678403" lon="9.57158"><ele>95.0</ele><time>2026-03-29T10:00:05.249Z</time></trkpt><trkpt lat="39.9678874" lon="9.5716992"><ele>95.0</ele><time>2026-03-29T10:00:06.25Z</time></trkpt><trkpt lat="39.9679386" lon="9.5718263"><ele>95.0</ele><time>2026-03-29T10:00:07.249Z</time></trkpt><trkpt lat="39.9680036" lon="9.5719428"><ele>93.6</ele><time>2026-03-29T10:00:08.25Z</time></trkpt><trkpt lat="39.9680928" lon="9.5720598"><ele>92.2</ele><time>2026-03-29T10:00:09.249Z</time></trkpt><trkpt lat="39.9681553" lon="9.5721664"><ele>90.80000000000001</ele><time>2026-03-29T10:00:10.249Z</time></trkpt><trkpt lat="39.968222" lon="9.5722606"><ele>89.4</ele><time>2026-03-29T10:00:11.249Z</time></trkpt><trkpt lat="39.9682832" lon="9.5723417"><ele>88.0</ele><time>2026-03-29T10:00:12.249Z</time></trkpt><trkpt lat="39.9683526" lon="9.5724146"><ele>88.60000000000001</ele><time>2026-03-29T10:00:13.25Z</time></trkpt><trkpt lat="39.9684277" lon="9.5724776"><ele>89.2</ele><time>2026-03-29T10:00:14.249Z</time></trkpt><trkpt lat="39.9685019" lon="9.5725341"><ele>89.8</ele><time>2026-03-29T10:00:15.249Z</time></trkpt><trkpt lat="39.9685897" lon="9.5725855"><ele>90.4</ele><time>2026-03-29T10:00:16.249Z</time></trkpt><trkpt lat="39.968657" lon="9.5726531"><ele>91.0</ele><time>2026-03-29T10:00:17.25Z</time></trkpt><trkpt lat="39.968736" lon="9.5727199"><ele>91.0</ele><time>2026-03-29T10:00:18.25Z</time></trkpt><trkpt lat="39.9688145" lon="9.5727867"><ele>91.0</ele><time>2026-03-29T10:00:19.249Z</time></trkpt><trkpt lat="39.9688966" lon="9.572856"><ele>91.0</ele><time>2026-03-29T10:00:20.249Z</time></trkpt><trkpt lat="39.9689591" lon="9.5729275"><ele>91.0</ele><time>2026-03-29T10:00:21.249Z</time></trkpt><trkpt lat="39.9690633" lon="9.5729827"><ele>91.0</ele><time>2026-03-29T10:00:22.249Z</time></trkpt><trkpt lat="39.969161" lon="9.5730393"><ele>89.8</ele><time>2026-03-29T10:00:23.249Z</time></trkpt><trkpt lat="39.9692556" lon="9.5730722"><ele>88.6</ele><time>2026-03-29T10:00:24.249Z</time></trkpt><trkpt lat="39.9693635" lon="9.5730934"><ele>87.4</ele><time>2026-03-29T10:00:25.25Z</time></trkpt><trkpt lat="39.9694725" lon="9.5731068"><ele>86.2</ele><time>2026-03-29T10:00:26.249Z</time></trkpt><trkpt lat="39.9696016" lon="9.5731132"><ele>85.0</ele><time>2026-03-29T10:00:27.249Z</time></trkpt><trkpt lat="39.9697159" lon="9.5731104"><ele>85.0</ele><time>2026-03-29T10:00:28.249Z</time></trkpt><trkpt lat="39.9698319" lon="9.5731125"><ele>85.0</ele><time>2026-03-29T10:00:29.249Z</time></trkpt><trkpt lat="39.9699348" lon="9.5731049"><ele>85.0</ele><time>2026-03-29T10:00:30.25Z</time></trkpt><trkpt lat="39.9700449" lon="9.5731"><ele>85.0</ele><time>2026-03-29T10:00:31.249Z</time></trkpt><trkpt lat="39.9701676" lon="9.5730843"><ele>85.25</ele><time>2026-03-29T10:00:32.25Z</time></trkpt><trkpt lat="39.9702872" lon="9.5730719"><ele>85.5</ele><time>2026-03-29T10:00:33.249Z</time></trkpt><trkpt lat="39.9704211" lon="9.5730413"><ele>85.75</ele><time>2026-03-29T10:00:34.249Z</time></trkpt><trkpt lat="39.9705623" lon="9.5729928"><ele>86.0</ele><time>2026-03-29T10:00:35.249Z</time></trkpt><trkpt lat="39.9706694" lon="9.5729411"><ele>86.0</ele><time>2026-03-29T10:00:36.249Z</time></trkpt><trkpt lat="39.9708024" lon="9.5728691"><ele>86.0</ele><time>2026-03-29T10:00:37.249Z</time></trkpt><trkpt lat="39.970917" lon="9.5727927"><ele>86.0</ele><time>2026-03-29T10:00:38.249Z</time></trkpt><trkpt lat="39.9710311" lon="9.5727041"><ele>86.0</ele><time>2026-03-29T10:00:39.249Z</time></trkpt><trkpt lat="39.9711374" lon="9.5726208"><ele>87.0</ele><time>2026-03-29T10:00:40.249Z</time></trkpt><trkpt lat="39.9712476" lon="9.5725498"><ele>88.0</ele><time>2026-03-29T10:00:41.249Z</time></trkpt><trkpt lat="39.971363" lon="9.5724703"><ele>89.0</ele><time>2026-03-29T10:00:42.249Z</time></trkpt><trkpt lat="39.9714693" lon="9.5723933"><ele>90.0</ele><time>2026-03-29T10:00:43.249Z</time></trkpt><trkpt lat="39.9715851" lon="9.5723127"><ele>90.0</ele><time>2026-03-29T10:00:44.249Z</time></trkpt><trkpt lat="39.9716836" lon="9.5722525"><ele>90.0</ele><time>2026-03-29T10:00:45.25Z</time></trkpt><trkpt lat="39.9717733" lon="9.5721866"><ele>90.0</ele><time>2026-03-29T10:00:46.25Z</time></trkpt><trkpt lat="39.9718772" lon="9.5721209"><ele>90.0</ele><time>2026-03-29T10:00:47.25Z</time></trkpt><trkpt lat="39.9719933" lon="9.5720636"><ele>90.4</ele><time>2026-03-29T10:00:48.249Z</time></trkpt><trkpt lat="39.9720993" lon="9.5720049"><ele>90.8</ele><time>2026-03-29T10:00:49.249Z</time></trkpt><trkpt lat="39.9722007" lon="9.5719558"><ele>91.19999999999999</ele><time>2026-03-29T10:00:50.249Z</time></trkpt><trkpt lat="39.9723088" lon="9.571909"><ele>91.6</ele><time>2026-03-29T10:00:51.249Z</time></trkpt><trkpt lat="39.9724133" lon="9.5718705"><ele>92.0</ele><time>2026-03-29T10:00:52.25Z</time></trkpt><trkpt lat="39.9724828" lon="9.5718128"><ele>92.0</ele><time>2026-03-29T10:00:54.25Z</time></trkpt><trkpt lat="39.9725489" lon="9.5717834"><ele>92.0</ele><time>2026-03-29T10:00:55.249Z</time></trkpt><trkpt lat="39.9724686" lon="9.5717862"><ele>92.0</ele><time>2026-03-29T10:01:27.249Z</time></trkpt><trkpt lat="39.9723998" lon="9.5718201"><ele>92.0</ele><time>2026-03-29T10:01:28.249Z</time></trkpt><trkpt lat="39.9723265" lon="9.5718552"><ele>92.0</ele><time>2026-03-29T10:01:29.25Z</time></trkpt><trkpt lat="39.9722437" lon="9.571888"><ele>92.0</ele><time>2026-03-29T10:01:30.249Z</time></trkpt><trkpt lat="39.9721395" lon="9.5719386"><ele>92.0</ele><time>2026-03-29T10:01:31.249Z</time></trkpt><trkpt lat="39.9720344" lon="9.5719887"><ele>92.0</ele><time>2026-03-29T10:01:32.25Z</time></trkpt><trkpt lat="39.9719227" lon="9.572038"><ele>92.0</ele><time>2026-03-29T10:01:33.249Z</time></trkpt><trkpt lat="39.9718015" lon="9.5721176"><ele>92.0</ele><time>2026-03-29T10:01:34.249Z</time></trkpt><trkpt lat="39.9716719" lon="9.5721999"><ele>91.5</ele><time>2026-03-29T10:01:35.249Z</time></trkpt><trkpt lat="39.9715589" lon="9.5722908"><ele>91.0</ele><time>2026-03-29T10:01:36.249Z</time></trkpt><trkpt lat="39.9714376" lon="9.5723796"><ele>90.5</ele><time>2026-03-29T10:01:37.25Z</time></trkpt><trkpt lat="39.9713183" lon="9.5724655"><ele>90.0</ele><time>2026-03-29T10:01:38.249Z</time></trkpt><trkpt lat="39.9711984" lon="9.5725554"><ele>90.0</ele><time>2026-03-29T10:01:39.249Z</time></trkpt><trkpt lat="39.9710806" lon="9.57264"><ele>90.0</ele><time>2026-03-29T10:01:40.25Z</time></trkpt><trkpt lat="39.9709638" lon="9.5727295"><ele>90.0</ele><time>2026-03-29T10:01:41.249Z</time></trkpt><trkpt lat="39.9708386" lon="9.5728197"><ele>90.0</ele><time>2026-03-29T10:01:42.249Z</time></trkpt><trkpt lat="39.9707126" lon="9.5729093"><ele>89.0</ele><time>2026-03-29T10:01:43.249Z</time></trkpt><trkpt lat="39.9705815" lon="9.5729733"><ele>88.0</ele><time>2026-03-29T10:01:44.249Z</time></trkpt><trkpt lat="39.9704475" lon="9.5730107"><ele>87.0</ele><time>2026-03-29T10:01:45.25Z</time></trkpt><trkpt lat="39.9703101" lon="9.5730502"><ele>86.0</ele><time>2026-03-29T10:01:46.249Z</time></trkpt><trkpt lat="39.9701714" lon="9.5730663"><ele>86.0</ele><time>2026-03-29T10:01:47.249Z</time></trkpt><trkpt lat="39.9700331" lon="9.5730859"><ele>86.0</ele><time>2026-03-29T10:01:48.249Z</time></trkpt><trkpt lat="39.9698991" lon="9.5730933"><ele>86.0</ele><time>2026-03-29T10:01:49.249Z</time></trkpt><trkpt lat="39.969766" lon="9.5730955"><ele>86.0</ele><time>2026-03-29T10:01:50.249Z</time></trkpt><trkpt lat="39.96964" lon="9.5730976"><ele>85.75</ele><time>2026-03-29T10:01:51.249Z</time></trkpt><trkpt lat="39.9695189" lon="9.5730913"><ele>85.5</ele><time>2026-03-29T10:01:52.249Z</time></trkpt><trkpt lat="39.9693991" lon="9.5730696"><ele>85.25</ele><time>2026-03-29T10:01:53.249Z</time></trkpt><trkpt lat="39.9692815" lon="9.573043"><ele>85.0</ele><time>2026-03-29T10:01:54.249Z</time></trkpt><trkpt lat="39.9691568" lon="9.5729962"><ele>84.5</ele><time>2026-03-29T10:01:55.249Z</time></trkpt><trkpt lat="39.9690321" lon="9.5729232"><ele>84.0</ele><time>2026-03-29T10:01:56.25Z</time></trkpt><trkpt lat="39.9689063" lon="9.5728479"><ele>83.5</ele><time>2026-03-29T10:01:57.249Z</time></trkpt><trkpt lat="39.96878" lon="9.5727573"><ele>83.0</ele><time>2026-03-29T10:01:58.249Z</time></trkpt><trkpt lat="39.9686527" lon="9.5726749"><ele>84.25</ele><time>2026-03-29T10:01:59.249Z</time></trkpt><trkpt lat="39.9685464" lon="9.5725787"><ele>85.5</ele><time>2026-03-29T10:02:00.249Z</time></trkpt><trkpt lat="39.9684355" lon="9.5724882"><ele>86.75</ele><time>2026-03-29T10:02:01.249Z</time></trkpt><trkpt lat="39.9683353" lon="9.5723836"><ele>88.0</ele><time>2026-03-29T10:02:02.249Z</time></trkpt><trkpt lat="39.9682496" lon="9.5722588"><ele>88.0</ele><time>2026-03-29T10:02:03.249Z</time></trkpt><trkpt lat="39.9681685" lon="9.5721393"><ele>88.0</ele><time>2026-03-29T10:02:04.249Z</time></trkpt><trkpt lat="39.9681004" lon="9.5720076"><ele>88.0</ele><time>2026-03-29T10:02:05.25Z</time></trkpt><trkpt lat="39.9680295" lon="9.571883"><ele>88.0</ele><time>2026-03-29T10:02:06.249Z</time></trkpt><trkpt lat="39.9679645" lon="9.5717529"><ele>89.75</ele><time>2026-03-29T10:02:07.249Z</time></trkpt><trkpt lat="39.9678923" lon="9.5716216"><ele>91.5</ele><time>2026-03-29T10:02:08.249Z</time></trkpt><trkpt lat="39.9678238" lon="9.5714835"><ele>93.25</ele><time>2026-03-29T10:02:09.249Z</time></trkpt><trkpt lat="39.9677452" lon="9.571341"><ele>95.0</ele><time>2026-03-29T10:02:10.25Z</time></trkpt><trkpt lat="39.9676947" lon="9.5712012"><ele>95.5</ele><time>2026-03-29T10:02:11.249Z</time></trkpt><trkpt lat="39.9676429" lon="9.5710477"><ele>96.0</ele><time>2026-03-29T10:02:12.249Z</time></trkpt><trkpt lat="39.9676017" lon="9.5708813"><ele>96.5</ele><time>2026-03-29T10:02:13.25Z</time></trkpt><trkpt lat="39.9675813" lon="9.5707201"><ele>97.0</ele><time>2026-03-29T10:02:14.25Z</time></trkpt><trkpt lat="39.9675566" lon="9.5705488"><ele>97.0</ele><time>2026-03-29T10:02:15.25Z</time></trkpt><trkpt lat="39.9675344" lon="9.5703749"><ele>97.0</ele><time>2026-03-29T10:02:16.249Z</time></trkpt><trkpt lat="39.967512" lon="9.5702085"><ele>97.0</ele><time>2026-03-29T10:02:17.249Z</time></trkpt><trkpt lat="39.9674944" lon="9.5700558"><ele>97.0</ele><time>2026-03-29T10:02:18.249Z</time></trkpt><trkpt lat="39.9674668" lon="9.5699089"><ele>97.16666666666667</ele><time>2026-03-29T10:02:19.249Z</time></trkpt><trkpt lat="39.9674484" lon="9.5697813"><ele>97.33333333333334</ele><time>2026-03-29T10:02:20.25Z</time></trkpt><trkpt lat="39.9674279" lon="9.569664"><ele>97.5</ele><time>2026-03-29T10:02:21.249Z</time></trkpt><trkpt lat="39.9674155" lon="9.569564"><ele>97.66666666666666</ele><time>2026-03-29T10:02:22.249Z</time></trkpt><trkpt lat="39.9673766" lon="9.569497"><ele>97.83333333333333</ele><time>2026-03-29T10:02:23.249Z</time></trkpt><trkpt lat="39.9673019" lon="9.5694749"><ele>98.0</ele><time>2026-03-29T10:02:25.249Z</time></trkpt><trkpt lat="39.9672363" lon="9.5695992"><ele>96.99999999999999</ele><time>2026-03-29T10:02:27.249Z</time></trkpt><trkpt lat="39.9671991" lon="9.5696772"><ele>96.0</ele><time>2026-03-29T10:02:28.249Z</time></trkpt><trkpt lat="39.9671564" lon="9.569754"><ele>95.0</ele><time>2026-03-29T10:02:29.25Z</time></trkpt><trkpt lat="39.9671051" lon="9.569833"><ele>94.0</ele><time>2026-03-29T10:02:30.25Z</time></trkpt><trkpt lat="39.9670547" lon="9.5699162"><ele>93.0</ele><time>2026-03-29T10:02:31.249Z</time></trkpt><trkpt lat="39.9669921" lon="9.5700043"><ele>92.0</ele><time>2026-03-29T10:02:32.249Z</time></trkpt><trkpt lat="39.9669134" lon="9.5701109"><ele>93.0</ele><time>2026-03-29T10:02:33.25Z</time></trkpt><trkpt lat="39.9666173" lon="9.5704763"><ele>94.0</ele><time>2026-03-29T10:02:36.312Z</time></trkpt><trkpt lat="39.9664987" lon="9.5706039"><ele>94.0</ele><time>2026-03-29T10:02:37.266Z</time></trkpt><trkpt lat="39.9663794" lon="9.5707359"><ele>94.0</ele><time>2026-03-29T10:02:38.276Z</time></trkpt><trkpt lat="39.9662591" lon="9.5708642"><ele>94.0</ele><time>2026-03-29T10:02:39.251Z</time></trkpt><trkpt lat="39.9661274" lon="9.5710059"><ele>94.0</ele><time>2026-03-29T10:02:40.373Z</time></trkpt><trkpt lat="39.9660004" lon="9.5711431"><ele>94.0</ele><time>2026-03-29T10:02:41.387Z</time></trkpt><trkpt lat="39.9658701" lon="9.5712816"><ele>94.0</ele><time>2026-03-29T10:02:42.387Z</time></trkpt><trkpt lat="39.9657407" lon="9.5714231"><ele>94.0</ele><time>2026-03-29T10:02:43.387Z</time></trkpt><trkpt lat="39.9656098" lon="9.5715646"><ele>94.0</ele><time>2026-03-29T10:02:44.387Z</time></trkpt><trkpt lat="39.9654859" lon="9.5717012"><ele>94.0</ele><time>2026-03-29T10:02:45.388Z</time></trkpt><trkpt lat="39.9653632" lon="9.5718365"><ele>94.0</ele><time>2026-03-29T10:02:46.291Z</time></trkpt><trkpt lat="39.9652507" lon="9.571949"><ele>94.0</ele><time>2026-03-29T10:02:47.298Z</time></trkpt><trkpt lat="39.9651357" lon="9.5720764"><ele>94.0</ele><time>2026-03-29T10:02:48.31Z</time></trkpt><trkpt lat="39.965027" lon="9.5721883"><ele>94.0</ele><time>2026-03-29T10:02:49.289Z</time></trkpt><trkpt lat="39.9649219" lon="9.5723136"><ele>94.0</ele><time>2026-03-29T10:02:50.356Z</time></trkpt><trkpt lat="39.9648357" lon="9.5724526"><ele>94.0</ele><time>2026-03-29T10:02:51.303Z</time></trkpt><trkpt lat="39.9647644" lon="9.5726212"><ele>94.0</ele><time>2026-03-29T10:02:52.387Z</time></trkpt><trkpt lat="39.9646992" lon="9.5727913"><ele>94.0</ele><time>2026-03-29T10:02:53.387Z</time></trkpt><trkpt lat="39.9646369" lon="9.5729726"><ele>94.0</ele><time>2026-03-29T10:02:54.388Z</time></trkpt><trkpt lat="39.9645768" lon="9.5731525"><ele>94.0</ele><time>2026-03-29T10:02:55.387Z</time></trkpt><trkpt lat="39.9645157" lon="9.5733366"><ele>94.0</ele><time>2026-03-29T10:02:56.363Z</time></trkpt><trkpt lat="39.9644557" lon="9.5735132"><ele>94.5</ele><time>2026-03-29T10:02:57.301Z</time></trkpt><trkpt lat="39.9643926" lon="9.5736907"><ele>95.0</ele><time>2026-03-29T10:02:58.298Z</time></trkpt><trkpt lat="39.9642736" lon="9.5740711"><ele>95.0</ele><time>2026-03-29T10:03:00.388Z</time></trkpt><trkpt lat="39.9642193" lon="9.5742761"><ele>95.0</ele><time>2026-03-29T10:03:01.388Z</time></trkpt><trkpt lat="39.9641721" lon="9.5744843"><ele>95.0</ele><time>2026-03-29T10:03:02.387Z</time></trkpt><trkpt lat="39.9641292" lon="9.5746906"><ele>89.66666666666667</ele><time>2026-03-29T10:03:03.387Z</time></trkpt><trkpt lat="39.9640899" lon="9.5748995"><ele>84.33333333333333</ele><time>2026-03-29T10:03:04.387Z</time></trkpt><trkpt lat="39.9640631" lon="9.5751147"><ele>79.0</ele><time>2026-03-29T10:03:05.387Z</time></trkpt><trkpt lat="39.9640476" lon="9.5753285"><ele>78.0</ele><time>2026-03-29T10:03:06.387Z</time></trkpt><trkpt lat="39.964043" lon="9.5755328"><ele>77.0</ele><time>2026-03-29T10:03:07.387Z</time></trkpt><trkpt lat="39.9640916" lon="9.5759081"><ele>76.0</ele><time>2026-03-29T10:03:09.387Z</time></trkpt><trkpt lat="39.9641817" lon="9.5760386"><ele>75.75</ele><time>2026-03-29T10:03:10.387Z</time></trkpt><trkpt lat="39.964266" lon="9.5761808"><ele>75.5</ele><time>2026-03-29T10:03:11.387Z</time></trkpt><trkpt lat="39.9643527" lon="9.5763094"><ele>75.25</ele><time>2026-03-29T10:03:12.388Z</time></trkpt><trkpt lat="39.9644376" lon="9.5764274"><ele>75.0</ele><time>2026-03-29T10:03:13.388Z</time></trkpt><trkpt lat="39.9645281" lon="9.5765469"><ele>75.0</ele><time>2026-03-29T10:03:14.388Z</time></trkpt><trkpt lat="39.964613" lon="9.5766731"><ele>75.0</ele><time>2026-03-29T10:03:15.387Z</time></trkpt><trkpt lat="39.9646894" lon="9.5767981"><ele>75.0</ele><time>2026-03-29T10:03:16.387Z</time></trkpt><trkpt lat="39.9647337" lon="9.5768912"><ele>75.0</ele><time>2026-03-29T10:03:17.352Z</time></trkpt><trkpt lat="39.964768" lon="9.5769937"><ele>75.0</ele><time>2026-03-29T10:03:19.302Z</time></trkpt><trkpt lat="39.9647857" lon="9.5770737"><ele>75.0</ele><time>2026-03-29T10:03:36.292Z</time></trkpt><trkpt lat="39.9648326" lon="9.5771947"><ele>75.0</ele><time>2026-03-29T10:03:39.387Z</time></trkpt><trkpt lat="39.9648859" lon="9.5773344"><ele>75.0</ele><time>2026-03-29T10:03:41.376Z</time></trkpt><trkpt lat="39.964917" lon="9.5774178"><ele>75.0</ele><time>2026-03-29T10:03:42.3Z</time></trkpt><trkpt lat="39.9649482" lon="9.5775148"><ele>75.0</ele><time>2026-03-29T10:03:43.306Z</time></trkpt><trkpt lat="39.9650124" lon="9.5776711"><ele>78.0</ele><time>2026-03-29T10:03:44.313Z</time></trkpt><trkpt lat="39.9650761" lon="9.5778228"><ele>81.0</ele><time>2026-03-29T10:03:45.388Z</time></trkpt><trkpt lat="39.9651285" lon="9.5779735"><ele>84.0</ele><time>2026-03-29T10:03:46.388Z</time></trkpt><trkpt lat="39.9651846" lon="9.5781148"><ele>87.0</ele><time>2026-03-29T10:03:47.387Z</time></trkpt><trkpt lat="39.9652489" lon="9.5782594"><ele>87.0</ele><time>2026-03-29T10:03:48.387Z</time></trkpt><trkpt lat="39.9653168" lon="9.5783926"><ele>87.0</ele><time>2026-03-29T10:03:49.388Z</time></trkpt><trkpt lat="39.9653814" lon="9.5785186"><ele>87.0</ele><time>2026-03-29T10:03:50.388Z</time></trkpt><trkpt lat="39.9654522" lon="9.5786396"><ele>87.0</ele><time>2026-03-29T10:03:51.387Z</time></trkpt><trkpt lat="39.9655252" lon="9.5787492"><ele>84.75</ele><time>2026-03-29T10:03:52.387Z</time></trkpt><trkpt lat="39.9655927" lon="9.5788535"><ele>82.5</ele><time>2026-03-29T10:03:53.388Z</time></trkpt><trkpt lat="39.9656644" lon="9.5789808"><ele>80.25</ele><time>2026-03-29T10:03:54.369Z</time></trkpt><trkpt lat="39.9657315" lon="9.5791177"><ele>78.0</ele><time>2026-03-29T10:03:55.387Z</time></trkpt><trkpt lat="39.9657907" lon="9.5792618"><ele>78.0</ele><time>2026-03-29T10:03:56.302Z</time></trkpt><trkpt lat="39.9658464" lon="9.5794046"><ele>78.0</ele><time>2026-03-29T10:03:57.387Z</time></trkpt><trkpt lat="39.9659108" lon="9.5795474"><ele>78.0</ele><time>2026-03-29T10:03:58.387Z</time></trkpt><trkpt lat="39.9659714" lon="9.5796896"><ele>78.0</ele><time>2026-03-29T10:03:59.387Z</time></trkpt><trkpt lat="39.9660305" lon="9.5798329"><ele>81.75</ele><time>2026-03-29T10:04:00.387Z</time></trkpt><trkpt lat="39.9660893" lon="9.5799691"><ele>85.5</ele><time>2026-03-29T10:04:01.351Z</time></trkpt><trkpt lat="39.9661425" lon="9.5801082"><ele>89.25</ele><time>2026-03-29T10:04:02.388Z</time></trkpt><trkpt lat="39.9661904" lon="9.5802572"><ele>93.0</ele><time>2026-03-29T10:04:03.288Z</time></trkpt><trkpt lat="39.9662134" lon="9.5804197"><ele>93.0</ele><time>2026-03-29T10:04:04.303Z</time></trkpt><trkpt lat="39.9662396" lon="9.5805962"><ele>93.0</ele><time>2026-03-29T10:04:05.298Z</time></trkpt><trkpt lat="39.9662525" lon="9.5807804"><ele>93.0</ele><time>2026-03-29T10:04:06.387Z</time></trkpt><trkpt lat="39.9662509" lon="9.5809599"><ele>93.0</ele><time>2026-03-29T10:04:07.388Z</time></trkpt><trkpt lat="39.9662279" lon="9.5811564"><ele>90.33333333333333</ele><time>2026-03-29T10:04:08.387Z</time></trkpt><trkpt lat="39.9661914" lon="9.581374"><ele>87.66666666666666</ele><time>2026-03-29T10:04:09.3Z</time></trkpt><trkpt lat="39.9661463" lon="9.5815919"><ele>85.0</ele><time>2026-03-29T10:04:10.387Z</time></trkpt><trkpt lat="39.9660951" lon="9.5817943"><ele>85.0</ele><time>2026-03-29T10:04:11.387Z</time></trkpt><trkpt lat="39.9660527" lon="9.5819984"><ele>85.0</ele><time>2026-03-29T10:04:12.387Z</time></trkpt><trkpt lat="39.9660093" lon="9.5821957"><ele>85.0</ele><time>2026-03-29T10:04:13.388Z</time></trkpt><trkpt lat="39.9659759" lon="9.5823952"><ele>86.33333333333333</ele><time>2026-03-29T10:04:14.387Z</time></trkpt><trkpt lat="39.9659473" lon="9.5825923"><ele>87.66666666666667</ele><time>2026-03-29T10:04:15.388Z</time></trkpt><trkpt lat="39.965922" lon="9.5827945"><ele>89.0</ele><time>2026-03-29T10:04:16.387Z</time></trkpt><trkpt lat="39.9659072" lon="9.582992"><ele>89.0</ele><time>2026-03-29T10:04:17.387Z</time></trkpt><trkpt lat="39.9658876" lon="9.5831911"><ele>89.0</ele><time>2026-03-29T10:04:18.298Z</time></trkpt><trkpt lat="39.9658669" lon="9.5833842"><ele>89.0</ele><time>2026-03-29T10:04:19.387Z</time></trkpt><trkpt lat="39.965842" lon="9.5835815"><ele>84.0</ele><time>2026-03-29T10:04:20.307Z</time></trkpt><trkpt lat="39.9658187" lon="9.5837758"><ele>79.0</ele><time>2026-03-29T10:04:21.304Z</time></trkpt><trkpt lat="39.9657945" lon="9.5839666"><ele>74.0</ele><time>2026-03-29T10:04:22.345Z</time></trkpt><trkpt lat="39.9657747" lon="9.5841452"><ele>69.0</ele><time>2026-03-29T10:04:23.386Z</time></trkpt><trkpt lat="39.9657597" lon="9.5843169"><ele>69.0</ele><time>2026-03-29T10:04:24.288Z</time></trkpt><trkpt lat="39.9657734" lon="9.5844868"><ele>69.0</ele><time>2026-03-29T10:04:25.387Z</time></trkpt><trkpt lat="39.9658086" lon="9.5846465"><ele>69.0</ele><time>2026-03-29T10:04:26.289Z</time></trkpt><trkpt lat="39.9658566" lon="9.5847982"><ele>69.0</ele><time>2026-03-29T10:04:27.387Z</time></trkpt><trkpt lat="39.9659272" lon="9.5849683"><ele>69.75</ele><time>2026-03-29T10:04:28.387Z</time></trkpt><trkpt lat="39.9659991" lon="9.5851223"><ele>70.5</ele><time>2026-03-29T10:04:29.387Z</time></trkpt><trkpt lat="39.9660783" lon="9.585288"><ele>71.25</ele><time>2026-03-29T10:04:30.29Z</time></trkpt><trkpt lat="39.9661549" lon="9.5854504"><ele>72.0</ele><time>2026-03-29T10:04:31.341Z</time></trkpt><trkpt lat="39.9662332" lon="9.5856165"><ele>70.0</ele><time>2026-03-29T10:04:32.387Z</time></trkpt><trkpt lat="39.9663329" lon="9.5857798"><ele>68.0</ele><time>2026-03-29T10:04:33.387Z</time></trkpt><trkpt lat="39.9664695" lon="9.5859165"><ele>66.0</ele><time>2026-03-29T10:04:34.387Z</time></trkpt><trkpt lat="39.9665771" lon="9.5860408"><ele>66.0</ele><time>2026-03-29T10:04:35.387Z</time></trkpt><trkpt lat="39.9666987" lon="9.5861554"><ele>66.0</ele><time>2026-03-29T10:04:36.351Z</time></trkpt><trkpt lat="39.9668366" lon="9.5862415"><ele>66.0</ele><time>2026-03-29T10:04:37.387Z</time></trkpt><trkpt lat="39.9669646" lon="9.5863384"><ele>66.0</ele><time>2026-03-29T10:04:38.304Z</time></trkpt><trkpt lat="39.9670882" lon="9.5864295"><ele>66.0</ele><time>2026-03-29T10:04:39.388Z</time></trkpt><trkpt lat="39.9672213" lon="9.5865205"><ele>66.0</ele><time>2026-03-29T10:04:40.387Z</time></trkpt><trkpt lat="39.9673586" lon="9.5865971"><ele>66.0</ele><time>2026-03-29T10:04:41.387Z</time></trkpt><trkpt lat="39.9674821" lon="9.5866619"><ele>67.25</ele><time>2026-03-29T10:04:42.387Z</time></trkpt><trkpt lat="39.967622" lon="9.5866999"><ele>68.5</ele><time>2026-03-29T10:04:43.387Z</time></trkpt><trkpt lat="39.9677544" lon="9.5867528"><ele>69.75</ele><time>2026-03-29T10:04:44.296Z</time></trkpt><trkpt lat="39.9678595" lon="9.58682"><ele>71.0</ele><time>2026-03-29T10:04:45.301Z</time></trkpt><trkpt lat="39.9679564" lon="9.5869228"><ele>70.0</ele><time>2026-03-29T10:04:46.294Z</time></trkpt><trkpt lat="39.9680504" lon="9.587036"><ele>69.0</ele><time>2026-03-29T10:04:47.295Z</time></trkpt><trkpt lat="39.9681338" lon="9.5871671"><ele>68.0</ele><time>2026-03-29T10:04:48.387Z</time></trkpt><trkpt lat="39.9681614" lon="9.5873201"><ele>67.0</ele><time>2026-03-29T10:04:49.387Z</time></trkpt><trkpt lat="39.9682089" lon="9.5874894"><ele>67.0</ele><time>2026-03-29T10:04:50.387Z</time></trkpt><trkpt lat="39.9682385" lon="9.5876494"><ele>67.0</ele><time>2026-03-29T10:04:51.387Z</time></trkpt><trkpt lat="39.9682628" lon="9.5878118"><ele>67.0</ele><time>2026-03-29T10:04:52.387Z</time></trkpt><trkpt lat="39.9682878" lon="9.5879729"><ele>67.0</ele><time>2026-03-29T10:04:53.297Z</time></trkpt><trkpt lat="39.968325" lon="9.5881195"><ele>67.0</ele><time>2026-03-29T10:04:54.352Z</time></trkpt><trkpt lat="39.9684214" lon="9.5882271"><ele>67.0</ele><time>2026-03-29T10:04:55.3Z</time></trkpt><trkpt lat="39.9685019" lon="9.5883371"><ele>67.0</ele><time>2026-03-29T10:04:56.283Z</time></trkpt><trkpt lat="39.9685996" lon="9.5884058"><ele>67.0</ele><time>2026-03-29T10:04:57.295Z</time></trkpt><trkpt lat="39.9687207" lon="9.5884611"><ele>67.0</ele><time>2026-03-29T10:04:58.387Z</time></trkpt><trkpt lat="39.9688311" lon="9.588527"><ele>67.0</ele><time>2026-03-29T10:04:59.305Z</time></trkpt><trkpt lat="39.9689629" lon="9.5885826"><ele>67.0</ele><time>2026-03-29T10:05:00.356Z</time></trkpt><trkpt lat="39.9690999" lon="9.5886101"><ele>67.0</ele><time>2026-03-29T10:05:01.301Z</time></trkpt><trkpt lat="39.969228" lon="9.5886403"><ele>67.75</ele><time>2026-03-29T10:05:02.309Z</time></trkpt><trkpt lat="39.9693518" lon="9.5886188"><ele>68.5</ele><time>2026-03-29T10:05:03.3Z</time></trkpt><trkpt lat="39.9694793" lon="9.588591"><ele>69.25</ele><time>2026-03-29T10:05:04.387Z</time></trkpt><trkpt lat="39.9696195" lon="9.588534"><ele>70.0</ele><time>2026-03-29T10:05:05.295Z</time></trkpt><trkpt lat="39.9697516" lon="9.5884628"><ele>70.0</ele><time>2026-03-29T10:05:06.348Z</time></trkpt><trkpt lat="39.9699057" lon="9.5883959"><ele>70.0</ele><time>2026-03-29T10:05:07.387Z</time></trkpt><trkpt lat="39.970035" lon="9.5883306"><ele>70.0</ele><time>2026-03-29T10:05:08.387Z</time></trkpt><trkpt lat="39.9701531" lon="9.5882707"><ele>70.0</ele><time>2026-03-29T10:05:09.298Z</time></trkpt><trkpt lat="39.970261" lon="9.5882315"><ele>70.0</ele><time>2026-03-29T10:05:10.301Z</time></trkpt><trkpt lat="39.9703541" lon="9.5882367"><ele>70.0</ele><time>2026-03-29T10:05:11.298Z</time></trkpt><trkpt lat="39.9704499" lon="9.5882459"><ele>70.0</ele><time>2026-03-29T10:05:12.282Z</time></trkpt><trkpt lat="39.9705359" lon="9.5883419"><ele>70.0</ele><time>2026-03-29T10:05:13.387Z</time></trkpt><trkpt lat="39.9705942" lon="9.5884726"><ele>70.0</ele><time>2026-03-29T10:05:14.387Z</time></trkpt><trkpt lat="39.9706338" lon="9.5886"><ele>71.75</ele><time>2026-03-29T10:05:15.305Z</time></trkpt><trkpt lat="39.9706581" lon="9.58876"><ele>73.5</ele><time>2026-03-29T10:05:16.312Z</time></trkpt><trkpt lat="39.9706657" lon="9.5889455"><ele>75.25</ele><time>2026-03-29T10:05:17.387Z</time></trkpt><trkpt lat="39.9706505" lon="9.5891269"><ele>77.0</ele><time>2026-03-29T10:05:18.387Z</time></trkpt><trkpt lat="39.9706199" lon="9.5893023"><ele>77.0</ele><time>2026-03-29T10:05:19.297Z</time></trkpt><trkpt lat="39.9705474" lon="9.5894632"><ele>77.0</ele><time>2026-03-29T10:05:20.293Z</time></trkpt><trkpt lat="39.9704469" lon="9.5896072"><ele>77.0</ele><time>2026-03-29T10:05:21.295Z</time></trkpt><trkpt lat="39.970321" lon="9.5897193"><ele>77.0</ele><time>2026-03-29T10:05:22.3Z</time></trkpt><trkpt lat="39.9701918" lon="9.5898196"><ele>77.5</ele><time>2026-03-29T10:05:23.299Z</time></trkpt><trkpt lat="39.97006" lon="9.5899234"><ele>78.0</ele><time>2026-03-29T10:05:24.387Z</time></trkpt><trkpt lat="39.9699371" lon="9.5900241"><ele>78.5</ele><time>2026-03-29T10:05:25.387Z</time></trkpt><trkpt lat="39.9698144" lon="9.590133"><ele>79.0</ele><time>2026-03-29T10:05:26.388Z</time></trkpt><trkpt lat="39.9696915" lon="9.5902403"><ele>84.0</ele><time>2026-03-29T10:05:27.358Z</time></trkpt><trkpt lat="39.9695758" lon="9.5903515"><ele>89.0</ele><time>2026-03-29T10:05:28.3Z</time></trkpt><trkpt lat="39.9694604" lon="9.590471"><ele>94.0</ele><time>2026-03-29T10:05:29.297Z</time></trkpt><trkpt lat="39.9693532" lon="9.5906038"><ele>99.0</ele><time>2026-03-29T10:05:30.306Z</time></trkpt><trkpt lat="39.9692537" lon="9.5907546"><ele>95.5</ele><time>2026-03-29T10:05:31.387Z</time></trkpt><trkpt lat="39.9691593" lon="9.5909025"><ele>92.0</ele><time>2026-03-29T10:05:32.387Z</time></trkpt><trkpt lat="39.9690682" lon="9.5910624"><ele>88.5</ele><time>2026-03-29T10:05:33.387Z</time></trkpt><trkpt lat="39.9689872" lon="9.591194"><ele>85.0</ele><time>2026-03-29T10:05:34.388Z</time></trkpt><trkpt lat="39.9688987" lon="9.5913483"><ele>85.0</ele><time>2026-03-29T10:05:35.388Z</time></trkpt><trkpt lat="39.9688091" lon="9.5915193"><ele>85.0</ele><time>2026-03-29T10:05:36.387Z</time></trkpt><trkpt lat="39.9687293" lon="9.5916913"><ele>85.0</ele><time>2026-03-29T10:05:37.387Z</time></trkpt><trkpt lat="39.9686521" lon="9.5918703"><ele>90.33333333333333</ele><time>2026-03-29T10:05:38.387Z</time></trkpt><trkpt lat="39.9685729" lon="9.5920525"><ele>95.66666666666666</ele><time>2026-03-29T10:05:39.388Z</time></trkpt><trkpt lat="39.96849" lon="9.5922413"><ele>101.0</ele><time>2026-03-29T10:05:40.388Z</time></trkpt><trkpt lat="39.9684055" lon="9.5924385"><ele>92.66666666666666</ele><time>2026-03-29T10:05:41.387Z</time></trkpt><trkpt lat="39.9683203" lon="9.5926352"><ele>84.33333333333333</ele><time>2026-03-29T10:05:42.387Z</time></trkpt><trkpt lat="39.9682415" lon="9.5928251"><ele>76.0</ele><time>2026-03-29T10:05:43.388Z</time></trkpt><trkpt lat="39.9681592" lon="9.5930136"><ele>76.0</ele><time>2026-03-29T10:05:44.387Z</time></trkpt><trkpt lat="39.9680836" lon="9.5931992"><ele>76.0</ele><time>2026-03-29T10:05:45.387Z</time></trkpt><trkpt lat="39.9680048" lon="9.5933739"><ele>76.0</ele><time>2026-03-29T10:05:46.359Z</time></trkpt><trkpt lat="39.9679252" lon="9.5935455"><ele>77.66666666666666</ele><time>2026-03-29T10:05:47.298Z</time></trkpt><trkpt lat="39.9678535" lon="9.5937248"><ele>79.33333333333333</ele><time>2026-03-29T10:05:48.297Z</time></trkpt><trkpt lat="39.9677785" lon="9.5939017"><ele>81.0</ele><time>2026-03-29T10:05:49.297Z</time></trkpt><trkpt lat="39.9676951" lon="9.5940836"><ele>81.0</ele><time>2026-03-29T10:05:50.299Z</time></trkpt><trkpt lat="39.9676203" lon="9.5942675"><ele>81.0</ele><time>2026-03-29T10:05:51.295Z</time></trkpt><trkpt lat="39.9675423" lon="9.5944486"><ele>81.0</ele><time>2026-03-29T10:05:52.374Z</time></trkpt><trkpt lat="39.9674663" lon="9.5946328"><ele>77.33333333333333</ele><time>2026-03-29T10:05:53.297Z</time></trkpt><trkpt lat="39.967386" lon="9.5948093"><ele>73.66666666666666</ele><time>2026-03-29T10:05:54.299Z</time></trkpt><trkpt lat="39.9673054" lon="9.5949926"><ele>70.0</ele><time>2026-03-29T10:05:55.388Z</time></trkpt><trkpt lat="39.9672307" lon="9.5951859"><ele>71.66666666666666</ele><time>2026-03-29T10:05:56.388Z</time></trkpt><trkpt lat="39.9671645" lon="9.5953833"><ele>73.33333333333333</ele><time>2026-03-29T10:05:57.387Z</time></trkpt><trkpt lat="39.967109" lon="9.5955887"><ele>75.0</ele><time>2026-03-29T10:05:58.387Z</time></trkpt><trkpt lat="39.9670716" lon="9.5958253"><ele>75.0</ele><time>2026-03-29T10:05:59.387Z</time></trkpt><trkpt lat="39.9670459" lon="9.5960557"><ele>75.0</ele><time>2026-03-29T10:06:00.387Z</time></trkpt><trkpt lat="39.967021" lon="9.5962802"><ele>75.0</ele><time>2026-03-29T10:06:01.387Z</time></trkpt><trkpt lat="39.9669997" lon="9.5964989"><ele>76.66666666666667</ele><time>2026-03-29T10:06:02.387Z</time></trkpt><trkpt lat="39.9669758" lon="9.5967174"><ele>78.33333333333334</ele><time>2026-03-29T10:06:03.387Z</time></trkpt><trkpt lat="39.966953" lon="9.5969307"><ele>80.0</ele><time>2026-03-29T10:06:04.387Z</time></trkpt><trkpt lat="39.9669262" lon="9.5971408"><ele>80.0</ele><time>2026-03-29T10:06:05.387Z</time></trkpt><trkpt lat="39.966898" lon="9.5973292"><ele>80.0</ele><time>2026-03-29T10:06:06.387Z</time></trkpt><trkpt lat="39.9668723" lon="9.5975111"><ele>80.0</ele><time>2026-03-29T10:06:07.388Z</time></trkpt><trkpt lat="39.9668468" lon="9.5976776"><ele>80.0</ele><time>2026-03-29T10:06:08.387Z</time></trkpt><trkpt lat="39.9668399" lon="9.5978257"><ele>78.0</ele><time>2026-03-29T10:06:09.388Z</time></trkpt><trkpt lat="39.9668907" lon="9.5979706"><ele>76.0</ele><time>2026-03-29T10:06:10.387Z</time></trkpt><trkpt lat="39.9669232" lon="9.5981124"><ele>74.0</ele><time>2026-03-29T10:06:11.387Z</time></trkpt><trkpt lat="39.9670502" lon="9.5982125"><ele>72.0</ele><time>2026-03-29T10:06:12.387Z</time></trkpt><trkpt lat="39.9671509" lon="9.598327"><ele>72.0</ele><time>2026-03-29T10:06:13.387Z</time></trkpt><trkpt lat="39.9672694" lon="9.5984481"><ele>72.0</ele><time>2026-03-29T10:06:14.388Z</time></trkpt><trkpt lat="39.9673791" lon="9.598554"><ele>72.0</ele><time>2026-03-29T10:06:15.387Z</time></trkpt><trkpt lat="39.9674789" lon="9.5986515"><ele>72.0</ele><time>2026-03-29T10:06:16.299Z</time></trkpt><trkpt lat="39.9675501" lon="9.5987499"><ele>71.2</ele><time>2026-03-29T10:06:17.311Z</time></trkpt><trkpt lat="39.9676091" lon="9.5988592"><ele>70.4</ele><time>2026-03-29T10:06:18.299Z</time></trkpt><trkpt lat="39.9675916" lon="9.5989769"><ele>69.6</ele><time>2026-03-29T10:06:19.301Z</time></trkpt><trkpt lat="39.9675642" lon="9.5990941"><ele>68.8</ele><time>2026-03-29T10:06:20.285Z</time></trkpt><trkpt lat="39.9675115" lon="9.5992201"><ele>68.0</ele><time>2026-03-29T10:06:21.302Z</time></trkpt><trkpt lat="39.9674458" lon="9.5993637"><ele>69.75</ele><time>2026-03-29T10:06:22.296Z</time></trkpt><trkpt lat="39.9673637" lon="9.5995061"><ele>71.5</ele><time>2026-03-29T10:06:23.387Z</time></trkpt><trkpt lat="39.9672708" lon="9.5996523"><ele>73.25</ele><time>2026-03-29T10:06:24.387Z</time></trkpt><trkpt lat="39.967178" lon="9.5997907"><ele>75.0</ele><time>2026-03-29T10:06:25.387Z</time></trkpt><trkpt lat="39.9670916" lon="9.5999474"><ele>75.0</ele><time>2026-03-29T10:06:26.388Z</time></trkpt><trkpt lat="39.9670187" lon="9.6001097"><ele>75.0</ele><time>2026-03-29T10:06:27.388Z</time></trkpt><trkpt lat="39.9669455" lon="9.6002944"><ele>75.0</ele><time>2026-03-29T10:06:28.387Z</time></trkpt><trkpt lat="39.9668785" lon="9.6004868"><ele>79.33333333333333</ele><time>2026-03-29T10:06:29.387Z</time></trkpt><trkpt lat="39.9668185" lon="9.6006838"><ele>83.66666666666666</ele><time>2026-03-29T10:06:30.387Z</time></trkpt><trkpt lat="39.9667564" lon="9.6008872"><ele>88.0</ele><time>2026-03-29T10:06:31.387Z</time></trkpt><trkpt lat="39.9666964" lon="9.6010964"><ele>84.0</ele><time>2026-03-29T10:06:32.387Z</time></trkpt><trkpt lat="39.9666316" lon="9.601307"><ele>80.0</ele><time>2026-03-29T10:06:33.387Z</time></trkpt><trkpt lat="39.9665594" lon="9.601517"><ele>76.0</ele><time>2026-03-29T10:06:34.354Z</time></trkpt><trkpt lat="39.9664851" lon="9.6017317"><ele>76.0</ele><time>2026-03-29T10:06:35.287Z</time></trkpt><trkpt lat="39.9664102" lon="9.6019464"><ele>76.0</ele><time>2026-03-29T10:06:36.291Z</time></trkpt><trkpt lat="39.9663448" lon="9.602142"><ele>76.0</ele><time>2026-03-29T10:06:37.282Z</time></trkpt><trkpt lat="39.9662853" lon="9.6023327"><ele>78.66666666666666</ele><time>2026-03-29T10:06:38.301Z</time></trkpt><trkpt lat="39.9662292" lon="9.6025303"><ele>81.33333333333333</ele><time>2026-03-29T10:06:39.295Z</time></trkpt><trkpt lat="39.9661885" lon="9.6027131"><ele>84.0</ele><time>2026-03-29T10:06:40.298Z</time></trkpt><trkpt lat="39.9661527" lon="9.6029132"><ele>87.0</ele><time>2026-03-29T10:06:41.295Z</time></trkpt><trkpt lat="39.9661255" lon="9.6031164"><ele>90.0</ele><time>2026-03-29T10:06:42.387Z</time></trkpt><trkpt lat="39.966103" lon="9.6033086"><ele>93.0</ele><time>2026-03-29T10:06:43.387Z</time></trkpt><trkpt lat="39.9660761" lon="9.6034963"><ele>96.25</ele><time>2026-03-29T10:06:44.387Z</time></trkpt><trkpt lat="39.9660507" lon="9.6036832"><ele>99.5</ele><time>2026-03-29T10:06:45.387Z</time></trkpt><trkpt lat="39.9660288" lon="9.6038674"><ele>102.75</ele><time>2026-03-29T10:06:46.388Z</time></trkpt><trkpt lat="39.9660033" lon="9.6040382"><ele>106.0</ele><time>2026-03-29T10:06:47.388Z</time></trkpt><trkpt lat="39.9659761" lon="9.6042169"><ele>106.0</ele><time>2026-03-29T10:06:48.291Z</time></trkpt><trkpt lat="39.965952" lon="9.6043813"><ele>106.0</ele><time>2026-03-29T10:06:49.305Z</time></trkpt><trkpt lat="39.9659179" lon="9.6045161"><ele>106.0</ele><time>2026-03-29T10:06:50.292Z</time></trkpt><trkpt lat="39.9658559" lon="9.6046298"><ele>106.0</ele><time>2026-03-29T10:06:51.388Z</time></trkpt><trkpt lat="39.9657685" lon="9.6047006"><ele>106.0</ele><time>2026-03-29T10:06:52.305Z</time></trkpt><trkpt lat="39.9656547" lon="9.604714"><ele>100.0</ele><time>2026-03-29T10:06:53.302Z</time></trkpt><trkpt lat="39.9655253" lon="9.6047048"><ele>94.0</ele><time>2026-03-29T10:06:54.387Z</time></trkpt><trkpt lat="39.9653839" lon="9.6046982"><ele>88.0</ele><time>2026-03-29T10:06:55.387Z</time></trkpt><trkpt lat="39.965241" lon="9.6046831"><ele>82.0</ele><time>2026-03-29T10:06:56.388Z</time></trkpt><trkpt lat="39.9650986" lon="9.6046741"><ele>80.0</ele><time>2026-03-29T10:06:57.297Z</time></trkpt><trkpt lat="39.9649526" lon="9.6046455"><ele>78.0</ele><time>2026-03-29T10:06:58.301Z</time></trkpt><trkpt lat="39.9647965" lon="9.6046112"><ele>76.0</ele><time>2026-03-29T10:06:59.387Z</time></trkpt><trkpt lat="39.964646" lon="9.6045676"><ele>76.0</ele><time>2026-03-29T10:07:00.387Z</time></trkpt><trkpt lat="39.9645007" lon="9.6045302"><ele>76.0</ele><time>2026-03-29T10:07:01.387Z</time></trkpt><trkpt lat="39.9643599" lon="9.6045001"><ele>76.0</ele><time>2026-03-29T10:07:02.388Z</time></trkpt><trkpt lat="39.9642173" lon="9.6045135"><ele>76.0</ele><time>2026-03-29T10:07:03.387Z</time></trkpt><trkpt lat="39.9640698" lon="9.604563"><ele>76.5</ele><time>2026-03-29T10:07:04.387Z</time></trkpt><trkpt lat="39.9639292" lon="9.6046207"><ele>77.0</ele><time>2026-03-29T10:07:05.387Z</time></trkpt><trkpt lat="39.963802" lon="9.6047073"><ele>77.5</ele><time>2026-03-29T10:07:06.387Z</time></trkpt><trkpt lat="39.9636864" lon="9.6047951"><ele>78.0</ele><time>2026-03-29T10:07:07.387Z</time></trkpt><trkpt lat="39.9635834" lon="9.6048718"><ele>78.0</ele><time>2026-03-29T10:07:08.388Z</time></trkpt><trkpt lat="39.9634768" lon="9.6049363"><ele>78.0</ele><time>2026-03-29T10:07:09.387Z</time></trkpt><trkpt lat="39.963373" lon="9.6049705"><ele>78.0</ele><time>2026-03-29T10:07:10.388Z</time></trkpt><trkpt lat="39.9632658" lon="9.6050044"><ele>78.0</ele><time>2026-03-29T10:07:11.387Z</time></trkpt><trkpt lat="39.9631477" lon="9.6049981"><ele>74.0</ele><time>2026-03-29T10:07:12.387Z</time></trkpt><trkpt lat="39.9629035" lon="9.6050374"><ele>70.0</ele><time>2026-03-29T10:07:14.28Z</time></trkpt><trkpt lat="39.9627768" lon="9.6050703"><ele>66.0</ele><time>2026-03-29T10:07:15.387Z</time></trkpt><trkpt lat="39.9626486" lon="9.605101"><ele>63.75</ele><time>2026-03-29T10:07:16.388Z</time></trkpt><trkpt lat="39.9625076" lon="9.6051273"><ele>61.5</ele><time>2026-03-29T10:07:17.387Z</time></trkpt><trkpt lat="39.9623574" lon="9.6051541"><ele>59.25</ele><time>2026-03-29T10:07:18.387Z</time></trkpt><trkpt lat="39.9622066" lon="9.6051924"><ele>57.0</ele><time>2026-03-29T10:07:19.329Z</time></trkpt><trkpt lat="39.9620564" lon="9.6052232"><ele>57.0</ele><time>2026-03-29T10:07:20.304Z</time></trkpt><trkpt lat="39.9619063" lon="9.6052527"><ele>57.0</ele><time>2026-03-29T10:07:21.292Z</time></trkpt><trkpt lat="39.9617696" lon="9.605285"><ele>57.0</ele><time>2026-03-29T10:07:22.291Z</time></trkpt><trkpt lat="39.9616221" lon="9.6053142"><ele>57.0</ele><time>2026-03-29T10:07:23.299Z</time></trkpt><trkpt lat="39.9614801" lon="9.6053474"><ele>60.75</ele><time>2026-03-29T10:07:24.388Z</time></trkpt><trkpt lat="39.9613402" lon="9.6053781"><ele>64.5</ele><time>2026-03-29T10:07:25.387Z</time></trkpt><trkpt lat="39.9611884" lon="9.6053937"><ele>68.25</ele><time>2026-03-29T10:07:26.387Z</time></trkpt><trkpt lat="39.9610375" lon="9.6053918"><ele>72.0</ele><time>2026-03-29T10:07:27.295Z</time></trkpt><trkpt lat="39.9608839" lon="9.6053729"><ele>68.0</ele><time>2026-03-29T10:07:28.387Z</time></trkpt><trkpt lat="39.9607379" lon="9.6053431"><ele>64.0</ele><time>2026-03-29T10:07:29.387Z</time></trkpt><trkpt lat="39.9605787" lon="9.605355"><ele>60.0</ele><time>2026-03-29T10:07:30.387Z</time></trkpt><trkpt lat="39.9604255" lon="9.6053817"><ele>60.0</ele><time>2026-03-29T10:07:31.387Z</time></trkpt><trkpt lat="39.9602588" lon="9.6054258"><ele>60.0</ele><time>2026-03-29T10:07:32.387Z</time></trkpt><trkpt lat="39.9600892" lon="9.6054822"><ele>60.0</ele><time>2026-03-29T10:07:33.387Z</time></trkpt><trkpt lat="39.959924" lon="9.6055332"><ele>58.0</ele><time>2026-03-29T10:07:34.387Z</time></trkpt><trkpt lat="39.9597646" lon="9.6055834"><ele>56.0</ele><time>2026-03-29T10:07:35.387Z</time></trkpt><trkpt lat="39.959609" lon="9.6056308"><ele>54.0</ele><time>2026-03-29T10:07:36.388Z</time></trkpt><trkpt lat="39.9594562" lon="9.6056832"><ele>54.0</ele><time>2026-03-29T10:07:37.388Z</time></trkpt><trkpt lat="39.9593008" lon="9.605751"><ele>54.0</ele><time>2026-03-29T10:07:38.387Z</time></trkpt><trkpt lat="39.9591548" lon="9.6058309"><ele>54.0</ele><time>2026-03-29T10:07:39.387Z</time></trkpt><trkpt lat="39.9590088" lon="9.6059278"><ele>51.333333333333336</ele><time>2026-03-29T10:07:40.387Z</time></trkpt><trkpt lat="39.9588639" lon="9.6060292"><ele>48.66666666666667</ele><time>2026-03-29T10:07:41.387Z</time></trkpt><trkpt lat="39.9587202" lon="9.6061364"><ele>46.0</ele><time>2026-03-29T10:07:42.387Z</time></trkpt><trkpt lat="39.9585885" lon="9.6062561"><ele>47.0</ele><time>2026-03-29T10:07:43.387Z</time></trkpt><trkpt lat="39.9584614" lon="9.6064004"><ele>48.0</ele><time>2026-03-29T10:07:44.387Z</time></trkpt><trkpt lat="39.9583453" lon="9.6065572"><ele>49.0</ele><time>2026-03-29T10:07:45.388Z</time></trkpt><trkpt lat="39.9582361" lon="9.6067233"><ele>49.0</ele><time>2026-03-29T10:07:46.387Z</time></trkpt><trkpt lat="39.9581348" lon="9.6068998"><ele>49.0</ele><time>2026-03-29T10:07:47.387Z</time></trkpt><trkpt lat="39.9580353" lon="9.6070611"><ele>49.0</ele><time>2026-03-29T10:07:48.388Z</time></trkpt><trkpt lat="39.9579271" lon="9.6072044"><ele>47.25</ele><time>2026-03-29T10:07:49.387Z</time></trkpt><trkpt lat="39.9578091" lon="9.6073195"><ele>45.5</ele><time>2026-03-29T10:07:50.387Z</time></trkpt><trkpt lat="39.9576942" lon="9.6074388"><ele>43.75</ele><time>2026-03-29T10:07:51.387Z</time></trkpt><trkpt lat="39.9576034" lon="9.6075672"><ele>42.0</ele><time>2026-03-29T10:07:52.387Z</time></trkpt><trkpt lat="39.957525" lon="9.6076866"><ele>43.333333333333336</ele><time>2026-03-29T10:07:53.387Z</time></trkpt><trkpt lat="39.9574666" lon="9.6078495"><ele>44.66666666666667</ele><time>2026-03-29T10:07:54.387Z</time></trkpt><trkpt lat="39.9574616" lon="9.6080503"><ele>46.0</ele><time>2026-03-29T10:07:55.387Z</time></trkpt><trkpt lat="39.9575052" lon="9.6082615"><ele>46.0</ele><time>2026-03-29T10:07:56.387Z</time></trkpt><trkpt lat="39.957533" lon="9.608475"><ele>46.0</ele><time>2026-03-29T10:07:57.387Z</time></trkpt><trkpt lat="39.9575902" lon="9.6086837"><ele>46.0</ele><time>2026-03-29T10:07:58.387Z</time></trkpt><trkpt lat="39.957642" lon="9.6088597"><ele>48.66666666666667</ele><time>2026-03-29T10:07:59.387Z</time></trkpt><trkpt lat="39.9577035" lon="9.6090697"><ele>51.333333333333336</ele><time>2026-03-29T10:08:00.387Z</time></trkpt><trkpt lat="39.9577633" lon="9.6092752"><ele>54.0</ele><time>2026-03-29T10:08:01.388Z</time></trkpt><trkpt lat="39.9577917" lon="9.6094875"><ele>53.33333333333333</ele><time>2026-03-29T10:08:02.387Z</time></trkpt><trkpt lat="39.9578136" lon="9.6097062"><ele>52.666666666666664</ele><time>2026-03-29T10:08:03.387Z</time></trkpt><trkpt lat="39.9577864" lon="9.6099455"><ele>52.0</ele><time>2026-03-29T10:08:04.388Z</time></trkpt><trkpt lat="39.9577718" lon="9.6101846"><ele>48.33333333333333</ele><time>2026-03-29T10:08:05.387Z</time></trkpt><trkpt lat="39.9577578" lon="9.6104135"><ele>44.666666666666664</ele><time>2026-03-29T10:08:06.387Z</time></trkpt><trkpt lat="39.9577498" lon="9.6106258"><ele>41.0</ele><time>2026-03-29T10:08:07.388Z</time></trkpt><trkpt lat="39.9577474" lon="9.6108321"><ele>41.0</ele><time>2026-03-29T10:08:08.388Z</time></trkpt><trkpt lat="39.9577546" lon="9.6110312"><ele>41.0</ele><time>2026-03-29T10:08:09.387Z</time></trkpt><trkpt lat="39.9577896" lon="9.611215"><ele>41.0</ele><time>2026-03-29T10:08:10.31Z</time></trkpt><trkpt lat="39.9578263" lon="9.6114073"><ele>38.33333333333333</ele><time>2026-03-29T10:08:11.388Z</time></trkpt><trkpt lat="39.9578722" lon="9.6115976"><ele>35.666666666666664</ele><time>2026-03-29T10:08:12.387Z</time></trkpt><trkpt lat="39.9579216" lon="9.6117982"><ele>33.0</ele><time>2026-03-29T10:08:13.352Z</time></trkpt><trkpt lat="39.9579749" lon="9.612008"><ele>32.0</ele><time>2026-03-29T10:08:14.387Z</time></trkpt><trkpt lat="39.9580242" lon="9.6122113"><ele>31.0</ele><time>2026-03-29T10:08:15.387Z</time></trkpt><trkpt lat="39.9580683" lon="9.6124083"><ele>30.0</ele><time>2026-03-29T10:08:16.387Z</time></trkpt><trkpt lat="39.9580871" lon="9.6125993"><ele>30.0</ele><time>2026-03-29T10:08:17.387Z</time></trkpt><trkpt lat="39.958082" lon="9.6127913"><ele>30.0</ele><time>2026-03-29T10:08:18.387Z</time></trkpt><trkpt lat="39.9580123" lon="9.6131492"><ele>30.0</ele><time>2026-03-29T10:08:20.285Z</time></trkpt><trkpt lat="39.9579661" lon="9.6133313"><ele>31.333333333333336</ele><time>2026-03-29T10:08:21.302Z</time></trkpt><trkpt lat="39.9579103" lon="9.6135187"><ele>32.66666666666667</ele><time>2026-03-29T10:08:22.29Z</time></trkpt><trkpt lat="39.957859" lon="9.6137046"><ele>34.0</ele><time>2026-03-29T10:08:23.282Z</time></trkpt><trkpt lat="39.9578061" lon="9.6138908"><ele>38.0</ele><time>2026-03-29T10:08:24.299Z</time></trkpt><trkpt lat="39.9577503" lon="9.6140755"><ele>42.0</ele><time>2026-03-29T10:08:25.304Z</time></trkpt><trkpt lat="39.9576967" lon="9.6142651"><ele>46.0</ele><time>2026-03-29T10:08:26.295Z</time></trkpt><trkpt lat="39.9576419" lon="9.6144491"><ele>48.0</ele><time>2026-03-29T10:08:27.292Z</time></trkpt><trkpt lat="39.9575899" lon="9.614631"><ele>50.0</ele><time>2026-03-29T10:08:28.286Z</time></trkpt><trkpt lat="39.9575365" lon="9.6148104"><ele>52.0</ele><time>2026-03-29T10:08:29.282Z</time></trkpt><trkpt lat="39.9574905" lon="9.6149873"><ele>54.0</ele><time>2026-03-29T10:08:30.29Z</time></trkpt><trkpt lat="39.9574581" lon="9.6151571"><ele>50.2</ele><time>2026-03-29T10:08:31.287Z</time></trkpt><trkpt lat="39.957438" lon="9.6153198"><ele>46.400000000000006</ele><time>2026-03-29T10:08:32.302Z</time></trkpt><trkpt lat="39.9574327" lon="9.6154523"><ele>42.6</ele><time>2026-03-29T10:08:33.297Z</time></trkpt><trkpt lat="39.9574288" lon="9.6156005"><ele>38.8</ele><time>2026-03-29T10:08:34.294Z</time></trkpt><trkpt lat="39.9574286" lon="9.6157402"><ele>35.0</ele><time>2026-03-29T10:08:35.294Z</time></trkpt><trkpt lat="39.9574424" lon="9.6158788"><ele>34.75</ele><time>2026-03-29T10:08:36.298Z</time></trkpt><trkpt lat="39.9575218" lon="9.6160113"><ele>34.5</ele><time>2026-03-29T10:08:37.294Z</time></trkpt><trkpt lat="39.9575827" lon="9.6161406"><ele>34.25</ele><time>2026-03-29T10:08:38.3Z</time></trkpt><trkpt lat="39.957643" lon="9.6162769"><ele>34.0</ele><time>2026-03-29T10:08:39.279Z</time></trkpt><trkpt lat="39.9577338" lon="9.6164172"><ele>32.66666666666667</ele><time>2026-03-29T10:08:40.293Z</time></trkpt><trkpt lat="39.9578285" lon="9.6165776"><ele>31.333333333333336</ele><time>2026-03-29T10:08:41.3Z</time></trkpt><trkpt lat="39.9579171" lon="9.616733"><ele>30.0</ele><time>2026-03-29T10:08:42.291Z</time></trkpt><trkpt lat="39.9580131" lon="9.6168936"><ele>28.75</ele><time>2026-03-29T10:08:43.301Z</time></trkpt><trkpt lat="39.9580973" lon="9.6170588"><ele>27.5</ele><time>2026-03-29T10:08:44.29Z</time></trkpt><trkpt lat="39.9581785" lon="9.6172105"><ele>26.25</ele><time>2026-03-29T10:08:45.295Z</time></trkpt><trkpt lat="39.9582498" lon="9.6173475"><ele>25.0</ele><time>2026-03-29T10:08:46.297Z</time></trkpt><trkpt lat="39.9582986" lon="9.6175012"><ele>25.0</ele><time>2026-03-29T10:08:47.296Z</time></trkpt><trkpt lat="39.9583554" lon="9.6176441"><ele>25.0</ele><time>2026-03-29T10:08:48.308Z</time></trkpt><trkpt lat="39.9584062" lon="9.6177994"><ele>25.0</ele><time>2026-03-29T10:08:49.286Z</time></trkpt><trkpt lat="39.9584486" lon="9.6179559"><ele>25.0</ele><time>2026-03-29T10:08:50.293Z</time></trkpt><trkpt lat="39.9584849" lon="9.6181085"><ele>26.25</ele><time>2026-03-29T10:08:51.301Z</time></trkpt><trkpt lat="39.9585315" lon="9.6182757"><ele>27.5</ele><time>2026-03-29T10:08:52.293Z</time></trkpt><trkpt lat="39.9585771" lon="9.6184535"><ele>28.75</ele><time>2026-03-29T10:08:53.306Z</time></trkpt><trkpt lat="39.9586244" lon="9.618632"><ele>30.0</ele><time>2026-03-29T10:08:54.302Z</time></trkpt><trkpt lat="39.9586671" lon="9.618805"><ele>30.0</ele><time>2026-03-29T10:08:55.293Z</time></trkpt><trkpt lat="39.9587364" lon="9.618968"><ele>30.0</ele><time>2026-03-29T10:08:56.286Z</time></trkpt><trkpt lat="39.9587863" lon="9.619149"><ele>30.0</ele><time>2026-03-29T10:08:57.296Z</time></trkpt><trkpt lat="39.9588361" lon="9.6193349"><ele>30.0</ele><time>2026-03-29T10:08:58.291Z</time></trkpt><trkpt lat="39.9588806" lon="9.6195221"><ele>30.0</ele><time>2026-03-29T10:08:59.387Z</time></trkpt><trkpt lat="39.9589784" lon="9.6199007"><ele>30.0</ele><time>2026-03-29T10:09:01.323Z</time></trkpt><trkpt lat="39.9590153" lon="9.620089"><ele>30.0</ele><time>2026-03-29T10:09:02.295Z</time></trkpt><trkpt lat="39.9590723" lon="9.6202769"><ele>30.0</ele><time>2026-03-29T10:09:03.387Z</time></trkpt><trkpt lat="39.9591146" lon="9.6204547"><ele>30.0</ele><time>2026-03-29T10:09:04.387Z</time></trkpt><trkpt lat="39.9591603" lon="9.6206117"><ele>30.0</ele><time>2026-03-29T10:09:05.387Z</time></trkpt><trkpt lat="39.9591924" lon="9.6207711"><ele>29.25</ele><time>2026-03-29T10:09:06.387Z</time></trkpt><trkpt lat="39.9592287" lon="9.6209317"><ele>28.5</ele><time>2026-03-29T10:09:07.388Z</time></trkpt><trkpt lat="39.9592724" lon="9.6210886"><ele>27.75</ele><time>2026-03-29T10:09:08.306Z</time></trkpt><trkpt lat="39.9593351" lon="9.6212243"><ele>27.0</ele><time>2026-03-29T10:09:09.299Z</time></trkpt><trkpt lat="39.9594037" lon="9.6213675"><ele>27.0</ele><time>2026-03-29T10:09:10.387Z</time></trkpt><trkpt lat="39.9594848" lon="9.6214978"><ele>27.0</ele><time>2026-03-29T10:09:11.376Z</time></trkpt><trkpt lat="39.959562" lon="9.6216184"><ele>27.0</ele><time>2026-03-29T10:09:12.388Z</time></trkpt><trkpt lat="39.9596743" lon="9.6217357"><ele>27.0</ele><time>2026-03-29T10:09:13.388Z</time></trkpt><trkpt lat="39.9597694" lon="9.6218289"><ele>27.0</ele><time>2026-03-29T10:09:14.387Z</time></trkpt><trkpt lat="39.9598686" lon="9.6219348"><ele>27.0</ele><time>2026-03-29T10:09:15.387Z</time></trkpt><trkpt lat="39.9599752" lon="9.622044"><ele>27.0</ele><time>2026-03-29T10:09:16.387Z</time></trkpt><trkpt lat="39.9600667" lon="9.6221516"><ele>27.0</ele><time>2026-03-29T10:09:17.298Z</time></trkpt><trkpt lat="39.9601674" lon="9.6222482"><ele>26.333333333333336</ele><time>2026-03-29T10:09:18.307Z</time></trkpt><trkpt lat="39.9602698" lon="9.6223562"><ele>25.666666666666668</ele><time>2026-03-29T10:09:19.298Z</time></trkpt><trkpt lat="39.9603772" lon="9.6224495"><ele>25.0</ele><time>2026-03-29T10:09:20.387Z</time></trkpt><trkpt lat="39.9605903" lon="9.6226578"><ele>25.0</ele><time>2026-03-29T10:09:22.299Z</time></trkpt><trkpt lat="39.9606999" lon="9.6227762"><ele>25.0</ele><time>2026-03-29T10:09:23.388Z</time></trkpt><trkpt lat="39.9607883" lon="9.622913"><ele>25.0</ele><time>2026-03-29T10:09:24.298Z</time></trkpt><trkpt lat="39.9608525" lon="9.6230694"><ele>25.0</ele><time>2026-03-29T10:09:25.297Z</time></trkpt><trkpt lat="39.9609135" lon="9.6232163"><ele>24.75</ele><time>2026-03-29T10:09:26.387Z</time></trkpt><trkpt lat="39.9609679" lon="9.6233663"><ele>24.5</ele><time>2026-03-29T10:09:27.388Z</time></trkpt><trkpt lat="39.9610241" lon="9.6235085"><ele>24.25</ele><time>2026-03-29T10:09:28.324Z</time></trkpt><trkpt lat="39.961075" lon="9.623646"><ele>24.0</ele><time>2026-03-29T10:09:29.308Z</time></trkpt><trkpt lat="39.9611327" lon="9.6237859"><ele>24.0</ele><time>2026-03-29T10:09:30.322Z</time></trkpt><trkpt lat="39.961191" lon="9.623922"><ele>24.0</ele><time>2026-03-29T10:09:31.293Z</time></trkpt><trkpt lat="39.9612468" lon="9.6240666"><ele>24.0</ele><time>2026-03-29T10:09:32.298Z</time></trkpt><trkpt lat="39.9613071" lon="9.6242025"><ele>24.0</ele><time>2026-03-29T10:09:33.388Z</time></trkpt><trkpt lat="39.9613604" lon="9.6243316"><ele>24.0</ele><time>2026-03-29T10:09:34.387Z</time></trkpt><trkpt lat="39.9614156" lon="9.6244746"><ele>24.0</ele><time>2026-03-29T10:09:35.296Z</time></trkpt><trkpt lat="39.9614407" lon="9.6246229"><ele>24.0</ele><time>2026-03-29T10:09:36.293Z</time></trkpt><trkpt lat="39.9614495" lon="9.6247816"><ele>24.0</ele><time>2026-03-29T10:09:37.301Z</time></trkpt><trkpt lat="39.9614831" lon="9.6249361"><ele>23.75</ele><time>2026-03-29T10:09:38.356Z</time></trkpt><trkpt lat="39.9614902" lon="9.6250877"><ele>23.5</ele><time>2026-03-29T10:09:39.299Z</time></trkpt><trkpt lat="39.9615243" lon="9.6252246"><ele>23.25</ele><time>2026-03-29T10:09:40.301Z</time></trkpt><trkpt lat="39.9615543" lon="9.6253838"><ele>23.0</ele><time>2026-03-29T10:09:41.387Z</time></trkpt><trkpt lat="39.9615767" lon="9.6255477"><ele>22.75</ele><time>2026-03-29T10:09:42.387Z</time></trkpt><trkpt lat="39.9616134" lon="9.6257058"><ele>22.5</ele><time>2026-03-29T10:09:43.388Z</time></trkpt><trkpt lat="39.9616507" lon="9.6258556"><ele>22.25</ele><time>2026-03-29T10:09:44.303Z</time></trkpt><trkpt lat="39.9616991" lon="9.6260052"><ele>22.0</ele><time>2026-03-29T10:09:45.301Z</time></trkpt><trkpt lat="39.9617383" lon="9.6261771"><ele>21.75</ele><time>2026-03-29T10:09:46.288Z</time></trkpt><trkpt lat="39.9617711" lon="9.6263405"><ele>21.5</ele><time>2026-03-29T10:09:47.292Z</time></trkpt><trkpt lat="39.9617997" lon="9.6265218"><ele>21.25</ele><time>2026-03-29T10:09:48.387Z</time></trkpt><trkpt lat="39.9618344" lon="9.6266984"><ele>21.0</ele><time>2026-03-29T10:09:49.388Z</time></trkpt><trkpt lat="39.9618704" lon="9.6268799"><ele>20.75</ele><time>2026-03-29T10:09:50.387Z</time></trkpt><trkpt lat="39.9618963" lon="9.6270502"><ele>20.5</ele><time>2026-03-29T10:09:51.387Z</time></trkpt><trkpt lat="39.9619324" lon="9.6272276"><ele>20.25</ele><time>2026-03-29T10:09:52.387Z</time></trkpt><trkpt lat="39.9619731" lon="9.6274074"><ele>20.0</ele><time>2026-03-29T10:09:53.29Z</time></trkpt><trkpt lat="39.9620187" lon="9.6275824"><ele>20.0</ele><time>2026-03-29T10:09:54.291Z</time></trkpt><trkpt lat="39.9620702" lon="9.6277609"><ele>20.0</ele><time>2026-03-29T10:09:55.305Z</time></trkpt><trkpt lat="39.9621183" lon="9.6279358"><ele>20.0</ele><time>2026-03-29T10:09:56.387Z</time></trkpt><trkpt lat="39.962176" lon="9.6281061"><ele>20.0</ele><time>2026-03-29T10:09:57.387Z</time></trkpt><trkpt lat="39.9622286" lon="9.6282807"><ele>20.25</ele><time>2026-03-29T10:09:58.387Z</time></trkpt><trkpt lat="39.9622888" lon="9.6284637"><ele>20.5</ele><time>2026-03-29T10:09:59.388Z</time></trkpt><trkpt lat="39.9623529" lon="9.6286277"><ele>20.75</ele><time>2026-03-29T10:10:00.387Z</time></trkpt><trkpt lat="39.9624216" lon="9.6287956"><ele>21.0</ele><time>2026-03-29T10:10:01.388Z</time></trkpt><trkpt lat="39.9625036" lon="9.628956"><ele>21.0</ele><time>2026-03-29T10:10:02.387Z</time></trkpt><trkpt lat="39.9625926" lon="9.6291232"><ele>21.0</ele><time>2026-03-29T10:10:03.388Z</time></trkpt><trkpt lat="39.9626702" lon="9.6292764"><ele>21.0</ele><time>2026-03-29T10:10:04.387Z</time></trkpt><trkpt lat="39.9627541" lon="9.6294317"><ele>21.0</ele><time>2026-03-29T10:10:05.297Z</time></trkpt><trkpt lat="39.9628254" lon="9.6295778"><ele>20.5</ele><time>2026-03-29T10:10:06.299Z</time></trkpt><trkpt lat="39.9628998" lon="9.6297138"><ele>20.0</ele><time>2026-03-29T10:10:07.387Z</time></trkpt><trkpt lat="39.9629849" lon="9.6298533"><ele>19.5</ele><time>2026-03-29T10:10:08.3Z</time></trkpt><trkpt lat="39.9630581" lon="9.6300019"><ele>19.0</ele><time>2026-03-29T10:10:09.3Z</time></trkpt><trkpt lat="39.9631354" lon="9.6301525"><ele>19.0</ele><time>2026-03-29T10:10:10.308Z</time></trkpt><trkpt lat="39.9632119" lon="9.6303004"><ele>19.0</ele><time>2026-03-29T10:10:11.348Z</time></trkpt><trkpt lat="39.9632858" lon="9.6304628"><ele>19.0</ele><time>2026-03-29T10:10:12.295Z</time></trkpt><trkpt lat="39.9633678" lon="9.6306225"><ele>19.0</ele><time>2026-03-29T10:10:13.309Z</time></trkpt><trkpt lat="39.9634308" lon="9.6307772"><ele>20.75</ele><time>2026-03-29T10:10:14.387Z</time></trkpt><trkpt lat="39.9634875" lon="9.6309229"><ele>22.5</ele><time>2026-03-29T10:10:15.297Z</time></trkpt><trkpt lat="39.9635137" lon="9.6310957"><ele>24.25</ele><time>2026-03-29T10:10:16.304Z</time></trkpt><trkpt lat="39.963521" lon="9.631287"><ele>26.0</ele><time>2026-03-29T10:10:17.296Z</time></trkpt><trkpt lat="39.9635186" lon="9.6314854"><ele>29.0</ele><time>2026-03-29T10:10:18.304Z</time></trkpt><trkpt lat="39.9634927" lon="9.6316827"><ele>32.0</ele><time>2026-03-29T10:10:19.291Z</time></trkpt><trkpt lat="39.9634821" lon="9.6318776"><ele>35.0</ele><time>2026-03-29T10:10:20.308Z</time></trkpt><trkpt lat="39.9634693" lon="9.632072"><ele>38.0</ele><time>2026-03-29T10:10:21.29Z</time></trkpt><trkpt lat="39.9634576" lon="9.6322774"><ele>41.0</ele><time>2026-03-29T10:10:22.304Z</time></trkpt><trkpt lat="39.963443" lon="9.6324934"><ele>44.0</ele><time>2026-03-29T10:10:23.304Z</time></trkpt><trkpt lat="39.9634318" lon="9.6327095"><ele>42.666666666666664</ele><time>2026-03-29T10:10:24.303Z</time></trkpt><trkpt lat="39.9634252" lon="9.6329209"><ele>41.333333333333336</ele><time>2026-03-29T10:10:25.362Z</time></trkpt><trkpt lat="39.9634305" lon="9.6331168"><ele>40.0</ele><time>2026-03-29T10:10:26.388Z</time></trkpt><trkpt lat="39.9634666" lon="9.6333138"><ele>40.0</ele><time>2026-03-29T10:10:27.297Z</time></trkpt><trkpt lat="39.9635137" lon="9.6335185"><ele>40.0</ele><time>2026-03-29T10:10:28.301Z</time></trkpt><trkpt lat="39.9635819" lon="9.6337064"><ele>40.0</ele><time>2026-03-29T10:10:29.387Z</time></trkpt><trkpt lat="39.9636517" lon="9.6338955"><ele>36.75</ele><time>2026-03-29T10:10:30.387Z</time></trkpt><trkpt lat="39.963736" lon="9.6340559"><ele>33.5</ele><time>2026-03-29T10:10:31.387Z</time></trkpt><trkpt lat="39.9638098" lon="9.6342009"><ele>30.25</ele><time>2026-03-29T10:10:32.387Z</time></trkpt><trkpt lat="39.9639246" lon="9.6342938"><ele>27.0</ele><time>2026-03-29T10:10:33.388Z</time></trkpt><trkpt lat="39.9640365" lon="9.6343762"><ele>27.0</ele><time>2026-03-29T10:10:34.3Z</time></trkpt><trkpt lat="39.9641519" lon="9.6344237"><ele>27.0</ele><time>2026-03-29T10:10:35.303Z</time></trkpt><trkpt lat="39.9642647" lon="9.6344765"><ele>27.0</ele><time>2026-03-29T10:10:36.296Z</time></trkpt><trkpt lat="39.9643724" lon="9.6345354"><ele>27.0</ele><time>2026-03-29T10:10:37.29Z</time></trkpt><trkpt lat="39.9644775" lon="9.634594"><ele>25.75</ele><time>2026-03-29T10:10:38.295Z</time></trkpt><trkpt lat="39.9645755" lon="9.6346619"><ele>24.5</ele><time>2026-03-29T10:10:39.304Z</time></trkpt><trkpt lat="39.96466" lon="9.634747"><ele>23.25</ele><time>2026-03-29T10:10:40.295Z</time></trkpt><trkpt lat="39.9647367" lon="9.6348595"><ele>22.0</ele><time>2026-03-29T10:10:41.308Z</time></trkpt><trkpt lat="39.9648055" lon="9.6349824"><ele>22.0</ele><time>2026-03-29T10:10:42.291Z</time></trkpt><trkpt lat="39.9648722" lon="9.6351047"><ele>22.0</ele><time>2026-03-29T10:10:43.298Z</time></trkpt><trkpt lat="39.9649441" lon="9.635227"><ele>22.0</ele><time>2026-03-29T10:10:44.289Z</time></trkpt><trkpt lat="39.9650047" lon="9.6353344"><ele>22.0</ele><time>2026-03-29T10:10:45.296Z</time></trkpt><trkpt lat="39.9650437" lon="9.6354576"><ele>22.0</ele><time>2026-03-29T10:10:46.303Z</time></trkpt><trkpt lat="39.9650618" lon="9.6355882"><ele>22.0</ele><time>2026-03-29T10:10:47.387Z</time></trkpt><trkpt lat="39.9650626" lon="9.6357259"><ele>22.0</ele><time>2026-03-29T10:10:48.304Z</time></trkpt><trkpt lat="39.9650219" lon="9.6358675"><ele>22.0</ele><time>2026-03-29T10:10:49.302Z</time></trkpt><trkpt lat="39.964975" lon="9.6360016"><ele>22.0</ele><time>2026-03-29T10:10:50.312Z</time></trkpt><trkpt lat="39.9649355" lon="9.6361342"><ele>22.0</ele><time>2026-03-29T10:10:51.307Z</time></trkpt><trkpt lat="39.9649198" lon="9.636257"><ele>22.0</ele><time>2026-03-29T10:10:52.387Z</time></trkpt><trkpt lat="39.9649297" lon="9.6363893"><ele>22.0</ele><time>2026-03-29T10:10:53.387Z</time></trkpt><trkpt lat="39.9649609" lon="9.636519"><ele>22.0</ele><time>2026-03-29T10:10:54.387Z</time></trkpt><trkpt lat="39.9650491" lon="9.6366501"><ele>22.0</ele><time>2026-03-29T10:10:55.387Z</time></trkpt><trkpt lat="39.9651073" lon="9.6367921"><ele>22.0</ele><time>2026-03-29T10:10:56.388Z</time></trkpt><trkpt lat="39.9651648" lon="9.636926"><ele>22.0</ele><time>2026-03-29T10:10:57.387Z</time></trkpt><trkpt lat="39.9652246" lon="9.637068"><ele>22.0</ele><time>2026-03-29T10:10:58.313Z</time></trkpt><trkpt lat="39.9652706" lon="9.6372255"><ele>22.0</ele><time>2026-03-29T10:10:59.374Z</time></trkpt><trkpt lat="39.9652972" lon="9.6373996"><ele>21.75</ele><time>2026-03-29T10:11:00.296Z</time></trkpt><trkpt lat="39.9653195" lon="9.6375649"><ele>21.5</ele><time>2026-03-29T10:11:01.301Z</time></trkpt><trkpt lat="39.9653349" lon="9.6377293"><ele>21.25</ele><time>2026-03-29T10:11:02.388Z</time></trkpt><trkpt lat="39.9653568" lon="9.637911"><ele>21.0</ele><time>2026-03-29T10:11:03.387Z</time></trkpt><trkpt lat="39.9653622" lon="9.6380886"><ele>20.25</ele><time>2026-03-29T10:11:04.387Z</time></trkpt><trkpt lat="39.9653665" lon="9.6382685"><ele>19.5</ele><time>2026-03-29T10:11:05.387Z</time></trkpt><trkpt lat="39.9653829" lon="9.6384461"><ele>18.75</ele><time>2026-03-29T10:11:06.388Z</time></trkpt><trkpt lat="39.9653907" lon="9.6386241"><ele>18.0</ele><time>2026-03-29T10:11:07.387Z</time></trkpt><trkpt lat="39.9653997" lon="9.6387991"><ele>17.5</ele><time>2026-03-29T10:11:08.387Z</time></trkpt><trkpt lat="39.9654126" lon="9.6389847"><ele>17.0</ele><time>2026-03-29T10:11:09.297Z</time></trkpt><trkpt lat="39.9654259" lon="9.6391713"><ele>16.5</ele><time>2026-03-29T10:11:10.298Z</time></trkpt><trkpt lat="39.9654456" lon="9.6393133"><ele>16.0</ele><time>2026-03-29T10:11:11.3Z</time></trkpt><trkpt lat="39.9654667" lon="9.6395023"><ele>15.666666666666666</ele><time>2026-03-29T10:11:12.387Z</time></trkpt><trkpt lat="39.9654955" lon="9.63969"><ele>15.333333333333332</ele><time>2026-03-29T10:11:13.388Z</time></trkpt><trkpt lat="39.9655409" lon="9.6398791"><ele>15.0</ele><time>2026-03-29T10:11:14.388Z</time></trkpt><trkpt lat="39.9655792" lon="9.6400701"><ele>15.0</ele><time>2026-03-29T10:11:15.351Z</time></trkpt><trkpt lat="39.9656223" lon="9.640265"><ele>15.0</ele><time>2026-03-29T10:11:16.387Z</time></trkpt><trkpt lat="39.9656751" lon="9.6404577"><ele>15.0</ele><time>2026-03-29T10:11:17.387Z</time></trkpt><trkpt lat="39.9657389" lon="9.6406375"><ele>14.75</ele><time>2026-03-29T10:11:18.387Z</time></trkpt><trkpt lat="39.9658135" lon="9.6408171"><ele>14.5</ele><time>2026-03-29T10:11:19.387Z</time></trkpt><trkpt lat="39.9658617" lon="9.6409725"><ele>14.25</ele><time>2026-03-29T10:11:20.298Z</time></trkpt><trkpt lat="39.965915" lon="9.6411404"><ele>14.0</ele><time>2026-03-29T10:11:21.294Z</time></trkpt><trkpt lat="39.9659729" lon="9.6413027"><ele>14.5</ele><time>2026-03-29T10:11:22.297Z</time></trkpt><trkpt lat="39.9660279" lon="9.6414598"><ele>15.0</ele><time>2026-03-29T10:11:23.28Z</time></trkpt><trkpt lat="39.9660987" lon="9.641597"><ele>15.5</ele><time>2026-03-29T10:11:24.294Z</time></trkpt><trkpt lat="39.9661478" lon="9.6417277"><ele>16.0</ele><time>2026-03-29T10:11:25.301Z</time></trkpt><trkpt lat="39.9661995" lon="9.6418752"><ele>15.5</ele><time>2026-03-29T10:11:26.308Z</time></trkpt><trkpt lat="39.9662426" lon="9.6420187"><ele>15.0</ele><time>2026-03-29T10:11:27.387Z</time></trkpt><trkpt lat="39.9662501" lon="9.642174"><ele>14.5</ele><time>2026-03-29T10:11:28.387Z</time></trkpt><trkpt lat="39.9662673" lon="9.642334"><ele>14.0</ele><time>2026-03-29T10:11:29.387Z</time></trkpt><trkpt lat="39.9662627" lon="9.6424728"><ele>14.0</ele><time>2026-03-29T10:11:30.387Z</time></trkpt><trkpt lat="39.9662699" lon="9.6426062"><ele>13.999999999999998</ele><time>2026-03-29T10:11:31.387Z</time></trkpt><trkpt lat="39.9663339" lon="9.6427226"><ele>13.999999999999998</ele><time>2026-03-29T10:11:32.299Z</time></trkpt><trkpt lat="39.9664138" lon="9.642816"><ele>14.0</ele><time>2026-03-29T10:11:33.304Z</time></trkpt><trkpt lat="39.9665125" lon="9.6428776"><ele>14.0</ele><time>2026-03-29T10:11:34.388Z</time></trkpt><trkpt lat="39.9666228" lon="9.6429233"><ele>14.0</ele><time>2026-03-29T10:11:35.388Z</time></trkpt><trkpt lat="39.9667424" lon="9.6429739"><ele>14.0</ele><time>2026-03-29T10:11:36.387Z</time></trkpt><trkpt lat="39.966861" lon="9.6430176"><ele>14.0</ele><time>2026-03-29T10:11:37.387Z</time></trkpt><trkpt lat="39.9669829" lon="9.6430714"><ele>14.0</ele><time>2026-03-29T10:11:38.388Z</time></trkpt><trkpt lat="39.9671037" lon="9.6431227"><ele>14.0</ele><time>2026-03-29T10:11:39.388Z</time></trkpt><trkpt lat="39.9672328" lon="9.6431795"><ele>14.0</ele><time>2026-03-29T10:11:40.387Z</time></trkpt><trkpt lat="39.9673445" lon="9.6432228"><ele>14.0</ele><time>2026-03-29T10:11:41.301Z</time></trkpt><trkpt lat="39.9674748" lon="9.6432717"><ele>14.0</ele><time>2026-03-29T10:11:42.305Z</time></trkpt><trkpt lat="39.9675988" lon="9.6433184"><ele>14.75</ele><time>2026-03-29T10:11:43.296Z</time></trkpt><trkpt lat="39.9677317" lon="9.6433701"><ele>15.5</ele><time>2026-03-29T10:11:44.305Z</time></trkpt><trkpt lat="39.9678514" lon="9.6434308"><ele>16.25</ele><time>2026-03-29T10:11:45.295Z</time></trkpt><trkpt lat="39.9679682" lon="9.6435001"><ele>17.0</ele><time>2026-03-29T10:11:46.305Z</time></trkpt><trkpt lat="39.9680814" lon="9.6435963"><ele>16.5</ele><time>2026-03-29T10:11:47.302Z</time></trkpt><trkpt lat="39.9681678" lon="9.6437141"><ele>16.0</ele><time>2026-03-29T10:11:48.387Z</time></trkpt><trkpt lat="39.9682649" lon="9.643824"><ele>15.5</ele><time>2026-03-29T10:11:49.387Z</time></trkpt><trkpt lat="39.968343" lon="9.6439214"><ele>15.0</ele><time>2026-03-29T10:11:50.387Z</time></trkpt><trkpt lat="39.9684525" lon="9.6439927"><ele>15.0</ele><time>2026-03-29T10:11:51.387Z</time></trkpt><trkpt lat="39.9685546" lon="9.6440508"><ele>15.0</ele><time>2026-03-29T10:11:52.289Z</time></trkpt><trkpt lat="39.9686349" lon="9.6441013"><ele>15.0</ele><time>2026-03-29T10:11:53.388Z</time></trkpt><trkpt lat="39.9687116" lon="9.6441405"><ele>15.0</ele><time>2026-03-29T10:11:54.338Z</time></trkpt><trkpt lat="39.9686882" lon="9.6442312"><ele>15.0</ele><time>2026-03-29T10:11:55.302Z</time></trkpt><trkpt lat="39.9687066" lon="9.6443133"><ele>15.0</ele><time>2026-03-29T10:11:56.304Z</time></trkpt><trkpt lat="39.9686903" lon="9.644416"><ele>15.25</ele><time>2026-03-29T10:11:57.387Z</time></trkpt><trkpt lat="39.9686552" lon="9.6445443"><ele>15.5</ele><time>2026-03-29T10:11:58.387Z</time></trkpt><trkpt lat="39.9686122" lon="9.644689"><ele>15.75</ele><time>2026-03-29T10:11:59.387Z</time></trkpt><trkpt lat="39.968564" lon="9.6448517"><ele>16.0</ele><time>2026-03-29T10:12:00.387Z</time></trkpt><trkpt lat="39.9685168" lon="9.6450457"><ele>16.0</ele><time>2026-03-29T10:12:01.387Z</time></trkpt><trkpt lat="39.9684759" lon="9.6452312"><ele>16.0</ele><time>2026-03-29T10:12:02.387Z</time></trkpt><trkpt lat="39.9684273" lon="9.6454452"><ele>16.0</ele><time>2026-03-29T10:12:03.387Z</time></trkpt><trkpt lat="39.9683776" lon="9.6456674"><ele>15.666666666666666</ele><time>2026-03-29T10:12:04.388Z</time></trkpt><trkpt lat="39.9683178" lon="9.645882"><ele>15.333333333333332</ele><time>2026-03-29T10:12:05.301Z</time></trkpt><trkpt lat="39.9682668" lon="9.6461008"><ele>15.0</ele><time>2026-03-29T10:12:06.295Z</time></trkpt><trkpt lat="39.9682147" lon="9.646321"><ele>14.333333333333332</ele><time>2026-03-29T10:12:07.342Z</time></trkpt><trkpt lat="39.9681716" lon="9.6465622"><ele>13.666666666666666</ele><time>2026-03-29T10:12:08.388Z</time></trkpt><trkpt lat="39.9681229" lon="9.6467575"><ele>13.0</ele><time>2026-03-29T10:12:09.387Z</time></trkpt><trkpt lat="39.9680744" lon="9.6469649"><ele>13.0</ele><time>2026-03-29T10:12:10.387Z</time></trkpt><trkpt lat="39.9680305" lon="9.6471695"><ele>13.0</ele><time>2026-03-29T10:12:11.388Z</time></trkpt><trkpt lat="39.9679807" lon="9.6473778"><ele>13.0</ele><time>2026-03-29T10:12:12.388Z</time></trkpt><trkpt lat="39.9679283" lon="9.6475856"><ele>13.333333333333332</ele><time>2026-03-29T10:12:13.387Z</time></trkpt><trkpt lat="39.9678829" lon="9.6477964"><ele>13.666666666666668</ele><time>2026-03-29T10:12:14.387Z</time></trkpt><trkpt lat="39.9678344" lon="9.64801"><ele>14.0</ele><time>2026-03-29T10:12:15.387Z</time></trkpt><trkpt lat="39.9677867" lon="9.6482214"><ele>14.0</ele><time>2026-03-29T10:12:16.387Z</time></trkpt><trkpt lat="39.9677358" lon="9.6484171"><ele>14.0</ele><time>2026-03-29T10:12:17.302Z</time></trkpt><trkpt lat="39.9676904" lon="9.6486249"><ele>14.0</ele><time>2026-03-29T10:12:18.302Z</time></trkpt><trkpt lat="39.9676534" lon="9.6488325"><ele>14.333333333333334</ele><time>2026-03-29T10:12:19.309Z</time></trkpt><trkpt lat="39.9676242" lon="9.6490503"><ele>14.666666666666668</ele><time>2026-03-29T10:12:20.388Z</time></trkpt><trkpt lat="39.9676057" lon="9.6492569"><ele>15.0</ele><time>2026-03-29T10:12:21.293Z</time></trkpt><trkpt lat="39.9675928" lon="9.6494585"><ele>15.333333333333332</ele><time>2026-03-29T10:12:22.303Z</time></trkpt><trkpt lat="39.9675829" lon="9.6496593"><ele>15.666666666666666</ele><time>2026-03-29T10:12:23.308Z</time></trkpt><trkpt lat="39.9675757" lon="9.6498573"><ele>16.0</ele><time>2026-03-29T10:12:24.303Z</time></trkpt><trkpt lat="39.9675619" lon="9.6500715"><ele>16.0</ele><time>2026-03-29T10:12:25.387Z</time></trkpt><trkpt lat="39.9675556" lon="9.6502651"><ele>16.0</ele><time>2026-03-29T10:12:26.388Z</time></trkpt><trkpt lat="39.9675514" lon="9.6504497"><ele>16.0</ele><time>2026-03-29T10:12:27.302Z</time></trkpt><trkpt lat="39.9675456" lon="9.6506564"><ele>16.0</ele><time>2026-03-29T10:12:28.299Z</time></trkpt><trkpt lat="39.9675357" lon="9.6508608"><ele>16.0</ele><time>2026-03-29T10:12:29.309Z</time></trkpt><trkpt lat="39.9675274" lon="9.6510591"><ele>16.0</ele><time>2026-03-29T10:12:30.296Z</time></trkpt><trkpt lat="39.9675213" lon="9.6512576"><ele>16.0</ele><time>2026-03-29T10:12:31.387Z</time></trkpt><trkpt lat="39.9675084" lon="9.6514597"><ele>16.0</ele><time>2026-03-29T10:12:32.388Z</time></trkpt><trkpt lat="39.9675017" lon="9.6516654"><ele>16.0</ele><time>2026-03-29T10:12:33.299Z</time></trkpt><trkpt lat="39.9674969" lon="9.6518749"><ele>16.0</ele><time>2026-03-29T10:12:34.296Z</time></trkpt><trkpt lat="39.9674942" lon="9.6520781"><ele>15.666666666666666</ele><time>2026-03-29T10:12:35.313Z</time></trkpt><trkpt lat="39.967515" lon="9.6522838"><ele>15.333333333333332</ele><time>2026-03-29T10:12:36.294Z</time></trkpt><trkpt lat="39.9675466" lon="9.6524931"><ele>15.0</ele><time>2026-03-29T10:12:37.387Z</time></trkpt><trkpt lat="39.967587" lon="9.6526969"><ele>15.333333333333332</ele><time>2026-03-29T10:12:38.387Z</time></trkpt><trkpt lat="39.9676323" lon="9.6529027"><ele>15.666666666666666</ele><time>2026-03-29T10:12:39.387Z</time></trkpt><trkpt lat="39.9676784" lon="9.6531032"><ele>16.0</ele><time>2026-03-29T10:12:40.387Z</time></trkpt><trkpt lat="39.967725" lon="9.6533001"><ele>16.0</ele><time>2026-03-29T10:12:41.387Z</time></trkpt><trkpt lat="39.9677757" lon="9.6535055"><ele>16.0</ele><time>2026-03-29T10:12:42.387Z</time></trkpt><trkpt lat="39.9678259" lon="9.6537131"><ele>16.0</ele><time>2026-03-29T10:12:43.388Z</time></trkpt><trkpt lat="39.9678825" lon="9.653917"><ele>16.0</ele><time>2026-03-29T10:12:44.388Z</time></trkpt><trkpt lat="39.9679212" lon="9.654118"><ele>16.0</ele><time>2026-03-29T10:12:45.309Z</time></trkpt><trkpt lat="39.9679764" lon="9.6542981"><ele>16.0</ele><time>2026-03-29T10:12:46.332Z</time></trkpt><trkpt lat="39.9680243" lon="9.6544812"><ele>15.5</ele><time>2026-03-29T10:12:47.387Z</time></trkpt><trkpt lat="39.9680657" lon="9.6546588"><ele>15.0</ele><time>2026-03-29T10:12:48.387Z</time></trkpt><trkpt lat="39.9681142" lon="9.6548376"><ele>14.5</ele><time>2026-03-29T10:12:49.387Z</time></trkpt><trkpt lat="39.9681444" lon="9.6550116"><ele>14.0</ele><time>2026-03-29T10:12:50.387Z</time></trkpt><trkpt lat="39.9681811" lon="9.6551693"><ele>14.0</ele><time>2026-03-29T10:12:51.388Z</time></trkpt><trkpt lat="39.9682184" lon="9.6553218"><ele>14.0</ele><time>2026-03-29T10:12:52.388Z</time></trkpt><trkpt lat="39.9682557" lon="9.6554755"><ele>14.0</ele><time>2026-03-29T10:12:53.388Z</time></trkpt><trkpt lat="39.9682884" lon="9.6556346"><ele>14.0</ele><time>2026-03-29T10:12:54.387Z</time></trkpt><trkpt lat="39.9683157" lon="9.655795"><ele>14.0</ele><time>2026-03-29T10:12:55.387Z</time></trkpt><trkpt lat="39.9683479" lon="9.6559513"><ele>14.0</ele><time>2026-03-29T10:12:56.387Z</time></trkpt><trkpt lat="39.9683723" lon="9.656109"><ele>14.0</ele><time>2026-03-29T10:12:57.387Z</time></trkpt><trkpt lat="39.9684061" lon="9.6562654"><ele>14.0</ele><time>2026-03-29T10:12:58.387Z</time></trkpt><trkpt lat="39.968448" lon="9.6564209"><ele>14.0</ele><time>2026-03-29T10:12:59.388Z</time></trkpt><trkpt lat="39.9684846" lon="9.6565797"><ele>14.0</ele><time>2026-03-29T10:13:00.388Z</time></trkpt><trkpt lat="39.9685225" lon="9.6567292"><ele>14.0</ele><time>2026-03-29T10:13:01.387Z</time></trkpt><trkpt lat="39.9685535" lon="9.6568814"><ele>14.0</ele><time>2026-03-29T10:13:02.388Z</time></trkpt><trkpt lat="39.9685884" lon="9.6570305"><ele>14.0</ele><time>2026-03-29T10:13:03.387Z</time></trkpt><trkpt lat="39.9686238" lon="9.6571779"><ele>14.0</ele><time>2026-03-29T10:13:04.386Z</time></trkpt><trkpt lat="39.9686624" lon="9.657326"><ele>14.0</ele><time>2026-03-29T10:13:05.388Z</time></trkpt><trkpt lat="39.9687038" lon="9.6574664"><ele>14.0</ele><time>2026-03-29T10:13:06.387Z</time></trkpt><trkpt lat="39.9687411" lon="9.6575883"><ele>14.0</ele><time>2026-03-29T10:13:07.387Z</time></trkpt><trkpt lat="39.9687684" lon="9.6577159"><ele>13.999999999999998</ele><time>2026-03-29T10:13:08.387Z</time></trkpt><trkpt lat="39.9688046" lon="9.6578386"><ele>13.999999999999998</ele><time>2026-03-29T10:13:09.388Z</time></trkpt><trkpt lat="39.9688356" lon="9.657956"><ele>14.0</ele><time>2026-03-29T10:13:10.387Z</time></trkpt><trkpt lat="39.9688732" lon="9.65808"><ele>14.0</ele><time>2026-03-29T10:13:11.369Z</time></trkpt><trkpt lat="39.9688944" lon="9.6581928"><ele>13.6</ele><time>2026-03-29T10:13:12.301Z</time></trkpt><trkpt lat="39.9689202" lon="9.6583157"><ele>13.2</ele><time>2026-03-29T10:13:13.387Z</time></trkpt><trkpt lat="39.9689463" lon="9.6584432"><ele>12.799999999999999</ele><time>2026-03-29T10:13:14.387Z</time></trkpt><trkpt lat="39.9689845" lon="9.6585786"><ele>12.399999999999999</ele><time>2026-03-29T10:13:15.388Z</time></trkpt><trkpt lat="39.9690268" lon="9.6587087"><ele>12.0</ele><time>2026-03-29T10:13:16.387Z</time></trkpt><trkpt lat="39.9690487" lon="9.6588523"><ele>11.75</ele><time>2026-03-29T10:13:17.387Z</time></trkpt><trkpt lat="39.9690779" lon="9.6589909"><ele>11.5</ele><time>2026-03-29T10:13:18.387Z</time></trkpt><trkpt lat="39.9691136" lon="9.6591474"><ele>11.25</ele><time>2026-03-29T10:13:19.387Z</time></trkpt><trkpt lat="39.9691507" lon="9.6592991"><ele>11.0</ele><time>2026-03-29T10:13:20.387Z</time></trkpt><trkpt lat="39.9691862" lon="9.6594614"><ele>11.5</ele><time>2026-03-29T10:13:21.32Z</time></trkpt><trkpt lat="39.9692221" lon="9.6596158"><ele>12.0</ele><time>2026-03-29T10:13:22.286Z</time></trkpt><trkpt lat="39.969257" lon="9.6597731"><ele>12.5</ele><time>2026-03-29T10:13:23.387Z</time></trkpt><trkpt lat="39.9692896" lon="9.6599247"><ele>13.0</ele><time>2026-03-29T10:13:24.387Z</time></trkpt><trkpt lat="39.9693228" lon="9.6600681"><ele>13.0</ele><time>2026-03-29T10:13:25.387Z</time></trkpt><trkpt lat="39.9693543" lon="9.6601869"><ele>13.0</ele><time>2026-03-29T10:13:26.387Z</time></trkpt><trkpt lat="39.9693812" lon="9.6603156"><ele>13.0</ele><time>2026-03-29T10:13:27.387Z</time></trkpt><trkpt lat="39.9694103" lon="9.6604308"><ele>13.0</ele><time>2026-03-29T10:13:28.387Z</time></trkpt><trkpt lat="39.9694571" lon="9.660658"><ele>13.0</ele><time>2026-03-29T10:13:30.303Z</time></trkpt><trkpt lat="39.9694836" lon="9.6608224"><ele>13.0</ele><time>2026-03-29T10:13:32.387Z</time></trkpt><trkpt lat="39.969489" lon="9.6609339"><ele>13.0</ele><time>2026-03-29T10:13:34.387Z</time></trkpt><trkpt lat="39.9694883" lon="9.6610267"><ele>13.0</ele><time>2026-03-29T10:13:37.387Z</time></trkpt><trkpt lat="39.9695276" lon="9.6611226"><ele>13.0</ele><time>2026-03-29T10:13:40.387Z</time></trkpt><trkpt lat="39.9696155" lon="9.6612144"><ele>12.8</ele><time>2026-03-29T10:13:42.387Z</time></trkpt><trkpt lat="39.9697071" lon="9.6612986"><ele>12.600000000000001</ele><time>2026-03-29T10:13:44.305Z</time></trkpt><trkpt lat="39.9697764" lon="9.661323"><ele>12.399999999999999</ele><time>2026-03-29T10:13:45.375Z</time></trkpt><trkpt lat="39.9698703" lon="9.6613983"><ele>12.2</ele><time>2026-03-29T10:13:47.308Z</time></trkpt><trkpt lat="39.969925" lon="9.6614893"><ele>12.0</ele><time>2026-03-29T10:13:49.387Z</time></trkpt><trkpt lat="39.969946" lon="9.661573"><ele>12.0</ele><time>2026-03-29T10:13:51.282Z</time></trkpt><trkpt lat="39.9699911" lon="9.6615045"><ele>12.0</ele><time>2026-03-29T10:14:50.295Z</time></trkpt></trkseg></trk></gpx>